<?xml version='1.0' encoding='UTF-8'?><gpx version="1.1" creator="JPX - https://github.com/jenetics/jpx" xmlns="http://www.topografix.com/GPX/1/1"><trk><trkseg><trkpt lat="45.44093" lon="11.7615083"><ele>16.999999999999996</ele><time>2026-03-28T08:06:24.08Z</time></trkpt><trkpt lat="45.44099" lon="11.76148"><ele>17.0</ele><time>2026-03-28T08:06:26.08Z</time></trkpt><trkpt lat="45.44106" lon="11.7614117"><ele>17.0</ele><time>2026-03-28T08:06:28.08Z</time></trkpt><trkpt lat="45.4411" lon="11.76134"><ele>17.0</ele><time>2026-03-28T08:06:36.08Z</time></trkpt><trkpt lat="45.44114" lon="11.7612467"><ele>17.0</ele><time>2026-03-28T08:06:39.08Z</time></trkpt><trkpt lat="45.44115" lon="11.7611567"><ele>16.999999999999996</ele><time>2026-03-28T08:06:41.079Z</time></trkpt><trkpt lat="45.441135" lon="11.7610333"><ele>17.0</ele><time>2026-03-28T08:06:44.08Z</time></trkpt><trkpt lat="45.441155" lon="11.7609083"><ele>17.0</ele><time>2026-03-28T08:06:46.08Z</time></trkpt><trkpt lat="45.4412217" lon="11.760755"><ele>17.0</ele><time>2026-03-28T08:06:48.08Z</time></trkpt><trkpt lat="45.4412733" lon="11.7606667"><ele>17.0</ele><time>2026-03-28T08:06:49.08Z</time></trkpt><trkpt lat="45.441335" lon="11.7605767"><ele>17.0</ele><time>2026-03-28T08:06:50.079Z</time></trkpt><trkpt lat="45.4413983" lon="11.7604867"><ele>17.0</ele><time>2026-03-28T08:06:51.079Z</time></trkpt><trkpt lat="45.441465" lon="11.7603867"><ele>17.0</ele><time>2026-03-28T08:06:52.08Z</time></trkpt><trkpt lat="45.441535" lon="11.7602817"><ele>17.0</ele><time>2026-03-28T08:06:53.08Z</time></trkpt><trkpt lat="45.441605" lon="11.76018"><ele>17.0</ele><time>2026-03-28T08:06:54.08Z</time></trkpt><trkpt lat="45.4416783" lon="11.760075"><ele>17.0</ele><time>2026-03-28T08:06:55.08Z</time></trkpt><trkpt lat="45.4417533" lon="11.75996"><ele>17.0</ele><time>2026-03-28T08:06:56.08Z</time></trkpt><trkpt lat="45.44182" lon="11.7598567"><ele>17.2</ele><time>2026-03-28T08:06:57.08Z</time></trkpt><trkpt lat="45.4418883" lon="11.7597667"><ele>17.4</ele><time>2026-03-28T08:06:58.08Z</time></trkpt><trkpt lat="45.44195" lon="11.7596733"><ele>17.6</ele><time>2026-03-28T08:06:59.08Z</time></trkpt><trkpt lat="45.4420067" lon="11.7595783"><ele>17.8</ele><time>2026-03-28T08:07:00.08Z</time></trkpt><trkpt lat="45.44207" lon="11.7594767"><ele>18.0</ele><time>2026-03-28T08:07:01.08Z</time></trkpt><trkpt lat="45.4421383" lon="11.7593683"><ele>18.2</ele><time>2026-03-28T08:07:02.08Z</time></trkpt><trkpt lat="45.4422" lon="11.7592417"><ele>18.4</ele><time>2026-03-28T08:07:03.079Z</time></trkpt><trkpt lat="45.4422683" lon="11.759115"><ele>18.599999999999998</ele><time>2026-03-28T08:07:04.079Z</time></trkpt><trkpt lat="45.4423283" lon="11.759"><ele>18.8</ele><time>2026-03-28T08:07:05.08Z</time></trkpt><trkpt lat="45.4423917" lon="11.75889"><ele>19.0</ele><time>2026-03-28T08:07:06.08Z</time></trkpt><trkpt lat="45.4424617" lon="11.758785"><ele>19.0</ele><time>2026-03-28T08:07:07.08Z</time></trkpt><trkpt lat="45.4425233" lon="11.758675"><ele>19.0</ele><time>2026-03-28T08:07:08.079Z</time></trkpt><trkpt lat="45.4425983" lon="11.758565"><ele>19.0</ele><time>2026-03-28T08:07:09.08Z</time></trkpt><trkpt lat="45.44267" lon="11.7584367"><ele>19.0</ele><time>2026-03-28T08:07:10.08Z</time></trkpt><trkpt lat="45.4427467" lon="11.7583117"><ele>19.0</ele><time>2026-03-28T08:07:11.079Z</time></trkpt><trkpt lat="45.4428217" lon="11.7581883"><ele>18.8</ele><time>2026-03-28T08:07:12.08Z</time></trkpt><trkpt lat="45.4428967" lon="11.7580733"><ele>18.599999999999998</ele><time>2026-03-28T08:07:13.08Z</time></trkpt><trkpt lat="45.4429683" lon="11.7579567"><ele>18.4</ele><time>2026-03-28T08:07:14.08Z</time></trkpt><trkpt lat="45.4430333" lon="11.757835"><ele>18.2</ele><time>2026-03-28T08:07:15.08Z</time></trkpt><trkpt lat="45.4430967" lon="11.75771"><ele>18.0</ele><time>2026-03-28T08:07:16.079Z</time></trkpt><trkpt lat="45.44316" lon="11.7575783"><ele>18.0</ele><time>2026-03-28T08:07:17.08Z</time></trkpt><trkpt lat="45.443215" lon="11.757445"><ele>18.0</ele><time>2026-03-28T08:07:18.08Z</time></trkpt><trkpt lat="45.4432633" lon="11.7573"><ele>18.0</ele><time>2026-03-28T08:07:19.08Z</time></trkpt><trkpt lat="45.4433183" lon="11.7571467"><ele>18.0</ele><time>2026-03-28T08:07:20.08Z</time></trkpt><trkpt lat="45.4433617" lon="11.756975"><ele>18.25</ele><time>2026-03-28T08:07:21.079Z</time></trkpt><trkpt lat="45.4434017" lon="11.756795"><ele>18.5</ele><time>2026-03-28T08:07:22.08Z</time></trkpt><trkpt lat="45.44344" lon="11.7565983"><ele>18.75</ele><time>2026-03-28T08:07:23.079Z</time></trkpt><trkpt lat="45.4434883" lon="11.7564117"><ele>19.0</ele><time>2026-03-28T08:07:24.079Z</time></trkpt><trkpt lat="45.4435283" lon="11.75622"><ele>18.5</ele><time>2026-03-28T08:07:25.08Z</time></trkpt><trkpt lat="45.4435617" lon="11.7560267"><ele>18.0</ele><time>2026-03-28T08:07:26.08Z</time></trkpt><trkpt lat="45.443595" lon="11.7558317"><ele>17.5</ele><time>2026-03-28T08:07:27.08Z</time></trkpt><trkpt lat="45.4436183" lon="11.755635"><ele>17.0</ele><time>2026-03-28T08:07:28.079Z</time></trkpt><trkpt lat="45.443645" lon="11.7554367"><ele>17.0</ele><time>2026-03-28T08:07:29.079Z</time></trkpt><trkpt lat="45.4436733" lon="11.7552433"><ele>17.0</ele><time>2026-03-28T08:07:30.08Z</time></trkpt><trkpt lat="45.4436983" lon="11.7550583"><ele>17.0</ele><time>2026-03-28T08:07:31.08Z</time></trkpt><trkpt lat="45.443725" lon="11.7548783"><ele>17.0</ele><time>2026-03-28T08:07:32.08Z</time></trkpt><trkpt lat="45.4437467" lon="11.7546917"><ele>16.75</ele><time>2026-03-28T08:07:33.08Z</time></trkpt><trkpt lat="45.44376" lon="11.7545117"><ele>16.5</ele><time>2026-03-28T08:07:34.08Z</time></trkpt><trkpt lat="45.4437733" lon="11.7543333"><ele>16.25</ele><time>2026-03-28T08:07:35.079Z</time></trkpt><trkpt lat="45.443775" lon="11.7541367"><ele>16.0</ele><time>2026-03-28T08:07:36.079Z</time></trkpt><trkpt lat="45.4437733" lon="11.75394"><ele>16.0</ele><time>2026-03-28T08:07:37.079Z</time></trkpt><trkpt lat="45.4437733" lon="11.7537517"><ele>16.0</ele><time>2026-03-28T08:07:38.08Z</time></trkpt><trkpt lat="45.4437783" lon="11.7535617"><ele>16.0</ele><time>2026-03-28T08:07:39.079Z</time></trkpt><trkpt lat="45.4437817" lon="11.7533717"><ele>16.0</ele><time>2026-03-28T08:07:40.079Z</time></trkpt><trkpt lat="45.443785" lon="11.7531833"><ele>16.25</ele><time>2026-03-28T08:07:41.079Z</time></trkpt><trkpt lat="45.4437867" lon="11.7530033"><ele>16.5</ele><time>2026-03-28T08:07:42.08Z</time></trkpt><trkpt lat="45.443795" lon="11.7528217"><ele>16.75</ele><time>2026-03-28T08:07:43.08Z</time></trkpt><trkpt lat="45.4438033" lon="11.7526433"><ele>17.0</ele><time>2026-03-28T08:07:44.08Z</time></trkpt><trkpt lat="45.443805" lon="11.7524683"><ele>17.25</ele><time>2026-03-28T08:07:45.08Z</time></trkpt><trkpt lat="45.4438067" lon="11.7522917"><ele>17.5</ele><time>2026-03-28T08:07:46.08Z</time></trkpt><trkpt lat="45.4438117" lon="11.752115"><ele>17.75</ele><time>2026-03-28T08:07:47.08Z</time></trkpt><trkpt lat="45.44382" lon="11.751935"><ele>18.0</ele><time>2026-03-28T08:07:48.08Z</time></trkpt><trkpt lat="45.4438317" lon="11.7517567"><ele>18.0</ele><time>2026-03-28T08:07:49.08Z</time></trkpt><trkpt lat="45.4438417" lon="11.75158"><ele>18.0</ele><time>2026-03-28T08:07:50.08Z</time></trkpt><trkpt lat="45.44385" lon="11.7514083"><ele>18.0</ele><time>2026-03-28T08:07:51.08Z</time></trkpt><trkpt lat="45.4438567" lon="11.7512467"><ele>18.0</ele><time>2026-03-28T08:07:52.08Z</time></trkpt><trkpt lat="45.4438667" lon="11.7510817"><ele>17.75</ele><time>2026-03-28T08:07:53.08Z</time></trkpt><trkpt lat="45.4438683" lon="11.7509083"><ele>17.5</ele><time>2026-03-28T08:07:54.08Z</time></trkpt><trkpt lat="45.4438683" lon="11.7507383"><ele>17.25</ele><time>2026-03-28T08:07:55.08Z</time></trkpt><trkpt lat="45.44387" lon="11.7505717"><ele>17.0</ele><time>2026-03-28T08:07:56.08Z</time></trkpt><trkpt lat="45.4438617" lon="11.7504017"><ele>17.0</ele><time>2026-03-28T08:07:57.079Z</time></trkpt><trkpt lat="45.4438517" lon="11.7502367"><ele>17.0</ele><time>2026-03-28T08:07:58.08Z</time></trkpt><trkpt lat="45.44385" lon="11.7500683"><ele>17.0</ele><time>2026-03-28T08:07:59.08Z</time></trkpt><trkpt lat="45.44385" lon="11.7498983"><ele>17.0</ele><time>2026-03-28T08:08:00.08Z</time></trkpt><trkpt lat="45.4438517" lon="11.74974"><ele>17.2</ele><time>2026-03-28T08:08:01.08Z</time></trkpt><trkpt lat="45.4438533" lon="11.7495817"><ele>17.4</ele><time>2026-03-28T08:08:02.08Z</time></trkpt><trkpt lat="45.4438567" lon="11.7494333"><ele>17.6</ele><time>2026-03-28T08:08:03.079Z</time></trkpt><trkpt lat="45.443865" lon="11.7492883"><ele>17.8</ele><time>2026-03-28T08:08:04.08Z</time></trkpt><trkpt lat="45.443875" lon="11.749145"><ele>18.0</ele><time>2026-03-28T08:08:05.08Z</time></trkpt><trkpt lat="45.443885" lon="11.74901"><ele>18.0</ele><time>2026-03-28T08:08:06.079Z</time></trkpt><trkpt lat="45.4438933" lon="11.7488783"><ele>18.0</ele><time>2026-03-28T08:08:07.08Z</time></trkpt><trkpt lat="45.4439033" lon="11.74876"><ele>18.0</ele><time>2026-03-28T08:08:08.08Z</time></trkpt><trkpt lat="45.4439233" lon="11.748635"><ele>18.0</ele><time>2026-03-28T08:08:09.079Z</time></trkpt><trkpt lat="45.443965" lon="11.7485"><ele>18.0</ele><time>2026-03-28T08:08:10.08Z</time></trkpt><trkpt lat="45.444" lon="11.7483583"><ele>17.8</ele><time>2026-03-28T08:08:11.08Z</time></trkpt><trkpt lat="45.4440217" lon="11.7482133"><ele>17.6</ele><time>2026-03-28T08:08:12.08Z</time></trkpt><trkpt lat="45.4440117" lon="11.7480617"><ele>17.4</ele><time>2026-03-28T08:08:13.08Z</time></trkpt><trkpt lat="45.4440017" lon="11.7479067"><ele>17.2</ele><time>2026-03-28T08:08:14.08Z</time></trkpt><trkpt lat="45.4440017" lon="11.747745"><ele>17.0</ele><time>2026-03-28T08:08:15.08Z</time></trkpt><trkpt lat="45.44402" lon="11.7475833"><ele>17.0</ele><time>2026-03-28T08:08:16.079Z</time></trkpt><trkpt lat="45.4440383" lon="11.747445"><ele>17.0</ele><time>2026-03-28T08:08:17.08Z</time></trkpt><trkpt lat="45.44405" lon="11.7473117"><ele>17.0</ele><time>2026-03-28T08:08:18.08Z</time></trkpt><trkpt lat="45.4440683" lon="11.7471933"><ele>17.0</ele><time>2026-03-28T08:08:19.08Z</time></trkpt><trkpt lat="45.4440833" lon="11.74708"><ele>17.0</ele><time>2026-03-28T08:08:20.08Z</time></trkpt><trkpt lat="45.4441033" lon="11.7469517"><ele>17.2</ele><time>2026-03-28T08:08:21.08Z</time></trkpt><trkpt lat="45.4441233" lon="11.7468167"><ele>17.4</ele><time>2026-03-28T08:08:22.08Z</time></trkpt><trkpt lat="45.44414" lon="11.7466717"><ele>17.6</ele><time>2026-03-28T08:08:23.08Z</time></trkpt><trkpt lat="45.444165" lon="11.7465333"><ele>17.8</ele><time>2026-03-28T08:08:24.08Z</time></trkpt><trkpt lat="45.4441833" lon="11.74639"><ele>18.0</ele><time>2026-03-28T08:08:25.08Z</time></trkpt><trkpt lat="45.44421" lon="11.7462317"><ele>18.0</ele><time>2026-03-28T08:08:26.079Z</time></trkpt><trkpt lat="45.4442333" lon="11.7460767"><ele>18.0</ele><time>2026-03-28T08:08:27.08Z</time></trkpt><trkpt lat="45.4442567" lon="11.745915"><ele>18.0</ele><time>2026-03-28T08:08:28.079Z</time></trkpt><trkpt lat="45.4442817" lon="11.7457433"><ele>18.0</ele><time>2026-03-28T08:08:29.08Z</time></trkpt><trkpt lat="45.444305" lon="11.745565"><ele>17.5</ele><time>2026-03-28T08:08:30.08Z</time></trkpt><trkpt lat="45.4443367" lon="11.7453783"><ele>17.0</ele><time>2026-03-28T08:08:31.08Z</time></trkpt><trkpt lat="45.4443667" lon="11.745185"><ele>16.5</ele><time>2026-03-28T08:08:32.08Z</time></trkpt><trkpt lat="45.444405" lon="11.7449933"><ele>16.0</ele><time>2026-03-28T08:08:33.079Z</time></trkpt><trkpt lat="45.4444433" lon="11.744805"><ele>16.0</ele><time>2026-03-28T08:08:34.079Z</time></trkpt><trkpt lat="45.44448" lon="11.7446333"><ele>16.0</ele><time>2026-03-28T08:08:35.08Z</time></trkpt><trkpt lat="45.4445183" lon="11.7444683"><ele>16.0</ele><time>2026-03-28T08:08:36.08Z</time></trkpt><trkpt lat="45.4445533" lon="11.74431"><ele>16.0</ele><time>2026-03-28T08:08:37.08Z</time></trkpt><trkpt lat="45.4445917" lon="11.74416"><ele>16.5</ele><time>2026-03-28T08:08:38.08Z</time></trkpt><trkpt lat="45.444635" lon="11.744005"><ele>17.0</ele><time>2026-03-28T08:08:39.08Z</time></trkpt><trkpt lat="45.4446717" lon="11.74385"><ele>17.5</ele><time>2026-03-28T08:08:40.08Z</time></trkpt><trkpt lat="45.4447033" lon="11.74369"><ele>18.0</ele><time>2026-03-28T08:08:41.08Z</time></trkpt><trkpt lat="45.4447417" lon="11.743535"><ele>18.25</ele><time>2026-03-28T08:08:42.08Z</time></trkpt><trkpt lat="45.4447833" lon="11.7433767"><ele>18.5</ele><time>2026-03-28T08:08:43.08Z</time></trkpt><trkpt lat="45.444825" lon="11.743215"><ele>18.75</ele><time>2026-03-28T08:08:44.08Z</time></trkpt><trkpt lat="45.44487" lon="11.7430583"><ele>19.0</ele><time>2026-03-28T08:08:45.08Z</time></trkpt><trkpt lat="45.4449133" lon="11.7428933"><ele>19.0</ele><time>2026-03-28T08:08:46.08Z</time></trkpt><trkpt lat="45.444955" lon="11.74273"><ele>19.0</ele><time>2026-03-28T08:08:47.08Z</time></trkpt><trkpt lat="45.4450083" lon="11.7425717"><ele>19.0</ele><time>2026-03-28T08:08:48.08Z</time></trkpt><trkpt lat="45.44506" lon="11.7424117"><ele>19.0</ele><time>2026-03-28T08:08:49.08Z</time></trkpt><trkpt lat="45.44511" lon="11.7422667"><ele>18.5</ele><time>2026-03-28T08:08:50.08Z</time></trkpt><trkpt lat="45.4451567" lon="11.742115"><ele>18.0</ele><time>2026-03-28T08:08:51.08Z</time></trkpt><trkpt lat="45.4452" lon="11.741965"><ele>17.5</ele><time>2026-03-28T08:08:52.079Z</time></trkpt><trkpt lat="45.4452467" lon="11.7418233"><ele>17.0</ele><time>2026-03-28T08:08:53.08Z</time></trkpt><trkpt lat="45.4452933" lon="11.7416733"><ele>17.0</ele><time>2026-03-28T08:08:54.08Z</time></trkpt><trkpt lat="45.4453417" lon="11.7415233"><ele>17.0</ele><time>2026-03-28T08:08:55.079Z</time></trkpt><trkpt lat="45.4453867" lon="11.7413683"><ele>17.0</ele><time>2026-03-28T08:08:56.08Z</time></trkpt><trkpt lat="45.4454383" lon="11.741215"><ele>17.0</ele><time>2026-03-28T08:08:57.08Z</time></trkpt><trkpt lat="45.4454833" lon="11.741065"><ele>17.25</ele><time>2026-03-28T08:08:58.08Z</time></trkpt><trkpt lat="45.4455267" lon="11.740915"><ele>17.5</ele><time>2026-03-28T08:08:59.08Z</time></trkpt><trkpt lat="45.4455683" lon="11.7407583"><ele>17.75</ele><time>2026-03-28T08:09:00.079Z</time></trkpt><trkpt lat="45.4456083" lon="11.7406017"><ele>18.0</ele><time>2026-03-28T08:09:01.08Z</time></trkpt><trkpt lat="45.4456433" lon="11.7404333"><ele>18.0</ele><time>2026-03-28T08:09:02.08Z</time></trkpt><trkpt lat="45.445675" lon="11.7402717"><ele>18.0</ele><time>2026-03-28T08:09:03.079Z</time></trkpt><trkpt lat="45.4457083" lon="11.7401067"><ele>18.0</ele><time>2026-03-28T08:09:04.079Z</time></trkpt><trkpt lat="45.4457467" lon="11.7399433"><ele>18.0</ele><time>2026-03-28T08:09:05.079Z</time></trkpt><trkpt lat="45.44578" lon="11.739775"><ele>18.0</ele><time>2026-03-28T08:09:06.08Z</time></trkpt><trkpt lat="45.44581" lon="11.739605"><ele>18.0</ele><time>2026-03-28T08:09:07.08Z</time></trkpt><trkpt lat="45.4458383" lon="11.73944"><ele>18.0</ele><time>2026-03-28T08:09:08.079Z</time></trkpt><trkpt lat="45.4458683" lon="11.7392833"><ele>18.0</ele><time>2026-03-28T08:09:09.079Z</time></trkpt><trkpt lat="45.445895" lon="11.7391333"><ele>18.2</ele><time>2026-03-28T08:09:10.08Z</time></trkpt><trkpt lat="45.4459267" lon="11.7389817"><ele>18.4</ele><time>2026-03-28T08:09:11.08Z</time></trkpt><trkpt lat="45.4459617" lon="11.738835"><ele>18.599999999999998</ele><time>2026-03-28T08:09:12.079Z</time></trkpt><trkpt lat="45.445995" lon="11.7386917"><ele>18.8</ele><time>2026-03-28T08:09:13.08Z</time></trkpt><trkpt lat="45.4460267" lon="11.7385467"><ele>19.0</ele><time>2026-03-28T08:09:14.08Z</time></trkpt><trkpt lat="45.4460667" lon="11.7384033"><ele>19.0</ele><time>2026-03-28T08:09:15.08Z</time></trkpt><trkpt lat="45.4461017" lon="11.7382567"><ele>19.0</ele><time>2026-03-28T08:09:16.08Z</time></trkpt><trkpt lat="45.44614" lon="11.7381083"><ele>19.0</ele><time>2026-03-28T08:09:17.079Z</time></trkpt><trkpt lat="45.4461817" lon="11.7379533"><ele>19.0</ele><time>2026-03-28T08:09:18.08Z</time></trkpt><trkpt lat="45.446225" lon="11.7377917"><ele>18.75</ele><time>2026-03-28T08:09:19.08Z</time></trkpt><trkpt lat="45.44625" lon="11.73761"><ele>18.5</ele><time>2026-03-28T08:09:20.079Z</time></trkpt><trkpt lat="45.446305" lon="11.73745"><ele>18.25</ele><time>2026-03-28T08:09:21.08Z</time></trkpt><trkpt lat="45.4463567" lon="11.7372833"><ele>18.0</ele><time>2026-03-28T08:09:22.08Z</time></trkpt><trkpt lat="45.44641" lon="11.737115"><ele>18.0</ele><time>2026-03-28T08:09:23.08Z</time></trkpt><trkpt lat="45.446465" lon="11.7369467"><ele>18.0</ele><time>2026-03-28T08:09:24.08Z</time></trkpt><trkpt lat="45.4465217" lon="11.7367783"><ele>18.0</ele><time>2026-03-28T08:09:25.079Z</time></trkpt><trkpt lat="45.4465833" lon="11.736615"><ele>18.0</ele><time>2026-03-28T08:09:26.08Z</time></trkpt><trkpt lat="45.4466467" lon="11.736455"><ele>18.0</ele><time>2026-03-28T08:09:27.08Z</time></trkpt><trkpt lat="45.4467067" lon="11.7362917"><ele>18.0</ele><time>2026-03-28T08:09:28.08Z</time></trkpt><trkpt lat="45.4467683" lon="11.7361417"><ele>18.0</ele><time>2026-03-28T08:09:29.08Z</time></trkpt><trkpt lat="45.446825" lon="11.736"><ele>18.0</ele><time>2026-03-28T08:09:30.08Z</time></trkpt><trkpt lat="45.4468817" lon="11.735865"><ele>18.2</ele><time>2026-03-28T08:09:31.08Z</time></trkpt><trkpt lat="45.4469367" lon="11.7357383"><ele>18.4</ele><time>2026-03-28T08:09:32.079Z</time></trkpt><trkpt lat="45.4469983" lon="11.7356183"><ele>18.599999999999998</ele><time>2026-03-28T08:09:33.08Z</time></trkpt><trkpt lat="45.44705" lon="11.7355"><ele>18.8</ele><time>2026-03-28T08:09:34.08Z</time></trkpt><trkpt lat="45.447105" lon="11.7353817"><ele>19.0</ele><time>2026-03-28T08:09:35.08Z</time></trkpt><trkpt lat="45.4471533" lon="11.7352717"><ele>19.0</ele><time>2026-03-28T08:09:36.079Z</time></trkpt><trkpt lat="45.4472017" lon="11.7351617"><ele>19.0</ele><time>2026-03-28T08:09:37.08Z</time></trkpt><trkpt lat="45.4472517" lon="11.73508"><ele>19.0</ele><time>2026-03-28T08:09:38.08Z</time></trkpt><trkpt lat="45.4473017" lon="11.735005"><ele>19.0</ele><time>2026-03-28T08:09:39.08Z</time></trkpt><trkpt lat="45.44739" lon="11.7348783"><ele>19.0</ele><time>2026-03-28T08:09:41.08Z</time></trkpt><trkpt lat="45.4474383" lon="11.734815"><ele>19.0</ele><time>2026-03-28T08:09:42.08Z</time></trkpt><trkpt lat="45.4475033" lon="11.7347367"><ele>19.0</ele><time>2026-03-28T08:09:43.08Z</time></trkpt><trkpt lat="45.4475667" lon="11.7346217"><ele>19.0</ele><time>2026-03-28T08:09:44.08Z</time></trkpt><trkpt lat="45.4476267" lon="11.7344833"><ele>19.0</ele><time>2026-03-28T08:09:45.08Z</time></trkpt><trkpt lat="45.4476867" lon="11.73434"><ele>19.0</ele><time>2026-03-28T08:09:46.08Z</time></trkpt><trkpt lat="45.4477433" lon="11.734195"><ele>18.75</ele><time>2026-03-28T08:09:47.08Z</time></trkpt><trkpt lat="45.4478117" lon="11.7340467"><ele>18.5</ele><time>2026-03-28T08:09:48.08Z</time></trkpt><trkpt lat="45.447895" lon="11.7339"><ele>18.25</ele><time>2026-03-28T08:09:49.079Z</time></trkpt><trkpt lat="45.44799" lon="11.73374"><ele>18.0</ele><time>2026-03-28T08:09:50.08Z</time></trkpt><trkpt lat="45.4480867" lon="11.7335833"><ele>18.666666666666668</ele><time>2026-03-28T08:09:51.08Z</time></trkpt><trkpt lat="45.4481867" lon="11.73342"><ele>19.333333333333336</ele><time>2026-03-28T08:09:52.08Z</time></trkpt><trkpt lat="45.4482817" lon="11.7332517"><ele>20.0</ele><time>2026-03-28T08:09:53.08Z</time></trkpt><trkpt lat="45.4483833" lon="11.7330633"><ele>20.0</ele><time>2026-03-28T08:09:54.08Z</time></trkpt><trkpt lat="45.4484883" lon="11.7328633"><ele>20.0</ele><time>2026-03-28T08:09:55.08Z</time></trkpt><trkpt lat="45.4485983" lon="11.7326583"><ele>20.0</ele><time>2026-03-28T08:09:56.08Z</time></trkpt><trkpt lat="45.448715" lon="11.7324383"><ele>19.666666666666668</ele><time>2026-03-28T08:09:57.08Z</time></trkpt><trkpt lat="45.4488283" lon="11.7322"><ele>19.333333333333332</ele><time>2026-03-28T08:09:58.08Z</time></trkpt><trkpt lat="45.44895" lon="11.7319483"><ele>19.0</ele><time>2026-03-28T08:09:59.08Z</time></trkpt><trkpt lat="45.4490733" lon="11.7316833"><ele>19.0</ele><time>2026-03-28T08:10:00.08Z</time></trkpt><trkpt lat="45.44919" lon="11.73143"><ele>19.0</ele><time>2026-03-28T08:10:01.08Z</time></trkpt><trkpt lat="45.449295" lon="11.7311767"><ele>19.0</ele><time>2026-03-28T08:10:02.08Z</time></trkpt><trkpt lat="45.4493917" lon="11.730925"><ele>18.666666666666664</ele><time>2026-03-28T08:10:03.079Z</time></trkpt><trkpt lat="45.449505" lon="11.7306917"><ele>18.333333333333332</ele><time>2026-03-28T08:10:04.079Z</time></trkpt><trkpt lat="45.44962" lon="11.73047"><ele>18.0</ele><time>2026-03-28T08:10:05.08Z</time></trkpt><trkpt lat="45.4497467" lon="11.730265"><ele>17.333333333333332</ele><time>2026-03-28T08:10:06.08Z</time></trkpt><trkpt lat="45.4498783" lon="11.7300783"><ele>16.666666666666664</ele><time>2026-03-28T08:10:07.08Z</time></trkpt><trkpt lat="45.450005" lon="11.7299017"><ele>16.0</ele><time>2026-03-28T08:10:08.08Z</time></trkpt><trkpt lat="45.450135" lon="11.7297233"><ele>16.0</ele><time>2026-03-28T08:10:09.079Z</time></trkpt><trkpt lat="45.45028" lon="11.729535"><ele>16.0</ele><time>2026-03-28T08:10:10.08Z</time></trkpt><trkpt lat="45.4504283" lon="11.7293283"><ele>16.0</ele><time>2026-03-28T08:10:11.08Z</time></trkpt><trkpt lat="45.4505767" lon="11.7291267"><ele>16.333333333333332</ele><time>2026-03-28T08:10:12.079Z</time></trkpt><trkpt lat="45.450725" lon="11.72894"><ele>16.666666666666668</ele><time>2026-03-28T08:10:13.079Z</time></trkpt><trkpt lat="45.4508683" lon="11.728765"><ele>17.0</ele><time>2026-03-28T08:10:14.08Z</time></trkpt><trkpt lat="45.4509967" lon="11.728605"><ele>17.0</ele><time>2026-03-28T08:10:15.08Z</time></trkpt><trkpt lat="45.451125" lon="11.7284567"><ele>17.0</ele><time>2026-03-28T08:10:16.08Z</time></trkpt><trkpt lat="45.45125" lon="11.7283"><ele>17.0</ele><time>2026-03-28T08:10:17.079Z</time></trkpt><trkpt lat="45.4513683" lon="11.7281533"><ele>17.333333333333336</ele><time>2026-03-28T08:10:18.08Z</time></trkpt><trkpt lat="45.451485" lon="11.7280133"><ele>17.666666666666668</ele><time>2026-03-28T08:10:19.079Z</time></trkpt><trkpt lat="45.4516067" lon="11.7278717"><ele>18.0</ele><time>2026-03-28T08:10:20.08Z</time></trkpt><trkpt lat="45.4517283" lon="11.72773"><ele>17.333333333333332</ele><time>2026-03-28T08:10:21.08Z</time></trkpt><trkpt lat="45.4518433" lon="11.7275867"><ele>16.666666666666664</ele><time>2026-03-28T08:10:22.08Z</time></trkpt><trkpt lat="45.4519567" lon="11.72745"><ele>16.0</ele><time>2026-03-28T08:10:23.079Z</time></trkpt><trkpt lat="45.4520733" lon="11.727315"><ele>16.0</ele><time>2026-03-28T08:10:24.08Z</time></trkpt><trkpt lat="45.4521833" lon="11.7271867"><ele>16.0</ele><time>2026-03-28T08:10:25.08Z</time></trkpt><trkpt lat="45.45229" lon="11.7270567"><ele>16.0</ele><time>2026-03-28T08:10:26.08Z</time></trkpt><trkpt lat="45.4523933" lon="11.7269317"><ele>16.0</ele><time>2026-03-28T08:10:27.079Z</time></trkpt><trkpt lat="45.4524967" lon="11.7268033"><ele>16.0</ele><time>2026-03-28T08:10:28.079Z</time></trkpt><trkpt lat="45.4526083" lon="11.7266733"><ele>16.0</ele><time>2026-03-28T08:10:29.08Z</time></trkpt><trkpt lat="45.4527133" lon="11.726545"><ele>16.0</ele><time>2026-03-28T08:10:30.08Z</time></trkpt><trkpt lat="45.4528217" lon="11.7264117"><ele>16.0</ele><time>2026-03-28T08:10:31.08Z</time></trkpt><trkpt lat="45.4529333" lon="11.726275"><ele>16.25</ele><time>2026-03-28T08:10:32.08Z</time></trkpt><trkpt lat="45.4530417" lon="11.726135"><ele>16.5</ele><time>2026-03-28T08:10:33.08Z</time></trkpt><trkpt lat="45.4531517" lon="11.72599"><ele>16.75</ele><time>2026-03-28T08:10:34.079Z</time></trkpt><trkpt lat="45.4532583" lon="11.725845"><ele>17.0</ele><time>2026-03-28T08:10:35.08Z</time></trkpt><trkpt lat="45.4533583" lon="11.7257"><ele>17.0</ele><time>2026-03-28T08:10:36.08Z</time></trkpt><trkpt lat="45.4534667" lon="11.7255483"><ele>17.0</ele><time>2026-03-28T08:10:37.079Z</time></trkpt><trkpt lat="45.45357" lon="11.7254"><ele>17.0</ele><time>2026-03-28T08:10:38.08Z</time></trkpt><trkpt lat="45.4536667" lon="11.7252433"><ele>17.0</ele><time>2026-03-28T08:10:39.08Z</time></trkpt><trkpt lat="45.4537583" lon="11.72509"><ele>16.75</ele><time>2026-03-28T08:10:40.079Z</time></trkpt><trkpt lat="45.4538517" lon="11.7249317"><ele>16.5</ele><time>2026-03-28T08:10:41.079Z</time></trkpt><trkpt lat="45.4539483" lon="11.724775"><ele>16.25</ele><time>2026-03-28T08:10:42.079Z</time></trkpt><trkpt lat="45.4540333" lon="11.7246167"><ele>16.0</ele><time>2026-03-28T08:10:43.079Z</time></trkpt><trkpt lat="45.454125" lon="11.7244567"><ele>16.0</ele><time>2026-03-28T08:10:44.08Z</time></trkpt><trkpt lat="45.45421" lon="11.7242933"><ele>16.0</ele><time>2026-03-28T08:10:45.079Z</time></trkpt><trkpt lat="45.4543033" lon="11.724125"><ele>16.0</ele><time>2026-03-28T08:10:46.08Z</time></trkpt><trkpt lat="45.4543917" lon="11.7239433"><ele>16.0</ele><time>2026-03-28T08:10:47.08Z</time></trkpt><trkpt lat="45.4544817" lon="11.7237667"><ele>16.0</ele><time>2026-03-28T08:10:48.079Z</time></trkpt><trkpt lat="45.4545633" lon="11.72359"><ele>16.0</ele><time>2026-03-28T08:10:49.08Z</time></trkpt><trkpt lat="45.4546367" lon="11.7234067"><ele>16.0</ele><time>2026-03-28T08:10:50.079Z</time></trkpt><trkpt lat="45.4547133" lon="11.7232283"><ele>16.0</ele><time>2026-03-28T08:10:51.08Z</time></trkpt><trkpt lat="45.4547867" lon="11.7230517"><ele>15.75</ele><time>2026-03-28T08:10:52.08Z</time></trkpt><trkpt lat="45.454865" lon="11.7228817"><ele>15.5</ele><time>2026-03-28T08:10:53.079Z</time></trkpt><trkpt lat="45.4549533" lon="11.7227167"><ele>15.25</ele><time>2026-03-28T08:10:54.08Z</time></trkpt><trkpt lat="45.4550567" lon="11.7225633"><ele>15.0</ele><time>2026-03-28T08:10:55.08Z</time></trkpt><trkpt lat="45.4551733" lon="11.7224233"><ele>15.666666666666668</ele><time>2026-03-28T08:10:56.079Z</time></trkpt><trkpt lat="45.4552933" lon="11.7222967"><ele>16.333333333333336</ele><time>2026-03-28T08:10:57.08Z</time></trkpt><trkpt lat="45.45542" lon="11.7221817"><ele>17.0</ele><time>2026-03-28T08:10:58.08Z</time></trkpt><trkpt lat="45.455555" lon="11.7220683"><ele>17.0</ele><time>2026-03-28T08:10:59.08Z</time></trkpt><trkpt lat="45.4556933" lon="11.7219683"><ele>17.0</ele><time>2026-03-28T08:11:00.08Z</time></trkpt><trkpt lat="45.4558367" lon="11.721875"><ele>17.0</ele><time>2026-03-28T08:11:01.08Z</time></trkpt><trkpt lat="45.4559883" lon="11.7217967"><ele>17.0</ele><time>2026-03-28T08:11:02.079Z</time></trkpt><trkpt lat="45.456145" lon="11.72172"><ele>17.0</ele><time>2026-03-28T08:11:03.08Z</time></trkpt><trkpt lat="45.4563017" lon="11.7216433"><ele>17.0</ele><time>2026-03-28T08:11:04.079Z</time></trkpt><trkpt lat="45.45645" lon="11.7215733"><ele>17.5</ele><time>2026-03-28T08:11:05.08Z</time></trkpt><trkpt lat="45.4565967" lon="11.7214983"><ele>18.0</ele><time>2026-03-28T08:11:06.08Z</time></trkpt><trkpt lat="45.4567317" lon="11.7214383"><ele>18.5</ele><time>2026-03-28T08:11:07.08Z</time></trkpt><trkpt lat="45.45686" lon="11.7213783"><ele>19.0</ele><time>2026-03-28T08:11:08.08Z</time></trkpt><trkpt lat="45.4569833" lon="11.7213167"><ele>19.0</ele><time>2026-03-28T08:11:09.08Z</time></trkpt><trkpt lat="45.4571083" lon="11.7212533"><ele>19.0</ele><time>2026-03-28T08:11:10.079Z</time></trkpt><trkpt lat="45.4572333" lon="11.7211933"><ele>19.0</ele><time>2026-03-28T08:11:11.08Z</time></trkpt><trkpt lat="45.457355" lon="11.7211417"><ele>19.0</ele><time>2026-03-28T08:11:12.08Z</time></trkpt><trkpt lat="45.4574717" lon="11.7210917"><ele>18.75</ele><time>2026-03-28T08:11:13.08Z</time></trkpt><trkpt lat="45.4575917" lon="11.7210367"><ele>18.5</ele><time>2026-03-28T08:11:14.08Z</time></trkpt><trkpt lat="45.4577133" lon="11.7209767"><ele>18.25</ele><time>2026-03-28T08:11:15.08Z</time></trkpt><trkpt lat="45.4578433" lon="11.7209183"><ele>18.0</ele><time>2026-03-28T08:11:16.08Z</time></trkpt><trkpt lat="45.4579767" lon="11.7208667"><ele>19.0</ele><time>2026-03-28T08:11:17.08Z</time></trkpt><trkpt lat="45.4581233" lon="11.7208017"><ele>20.0</ele><time>2026-03-28T08:11:18.08Z</time></trkpt><trkpt lat="45.4582683" lon="11.7207383"><ele>21.0</ele><time>2026-03-28T08:11:19.08Z</time></trkpt><trkpt lat="45.4584133" lon="11.7206767"><ele>21.0</ele><time>2026-03-28T08:11:20.08Z</time></trkpt><trkpt lat="45.45856" lon="11.7205967"><ele>21.0</ele><time>2026-03-28T08:11:21.08Z</time></trkpt><trkpt lat="45.4586983" lon="11.7205283"><ele>21.0</ele><time>2026-03-28T08:11:22.08Z</time></trkpt><trkpt lat="45.4588417" lon="11.7204583"><ele>20.75</ele><time>2026-03-28T08:11:23.08Z</time></trkpt><trkpt lat="45.45898" lon="11.7204017"><ele>20.5</ele><time>2026-03-28T08:11:24.08Z</time></trkpt><trkpt lat="45.45912" lon="11.720325"><ele>20.25</ele><time>2026-03-28T08:11:25.079Z</time></trkpt><trkpt lat="45.45926" lon="11.7202583"><ele>20.0</ele><time>2026-03-28T08:11:26.079Z</time></trkpt><trkpt lat="45.45939" lon="11.7201883"><ele>19.75</ele><time>2026-03-28T08:11:27.08Z</time></trkpt><trkpt lat="45.4595183" lon="11.7201183"><ele>19.5</ele><time>2026-03-28T08:11:28.08Z</time></trkpt><trkpt lat="45.4596417" lon="11.7200383"><ele>19.25</ele><time>2026-03-28T08:11:29.08Z</time></trkpt><trkpt lat="45.4597533" lon="11.719955"><ele>19.0</ele><time>2026-03-28T08:11:30.079Z</time></trkpt><trkpt lat="45.459855" lon="11.7198633"><ele>19.5</ele><time>2026-03-28T08:11:31.079Z</time></trkpt><trkpt lat="45.45996" lon="11.7197733"><ele>20.0</ele><time>2026-03-28T08:11:32.08Z</time></trkpt><trkpt lat="45.460055" lon="11.7196817"><ele>20.5</ele><time>2026-03-28T08:11:33.08Z</time></trkpt><trkpt lat="45.4601433" lon="11.7195833"><ele>21.0</ele><time>2026-03-28T08:11:34.079Z</time></trkpt><trkpt lat="45.4602333" lon="11.7194783"><ele>20.75</ele><time>2026-03-28T08:11:35.079Z</time></trkpt><trkpt lat="45.460315" lon="11.7193767"><ele>20.5</ele><time>2026-03-28T08:11:36.079Z</time></trkpt><trkpt lat="45.4603967" lon="11.7192583"><ele>20.25</ele><time>2026-03-28T08:11:37.08Z</time></trkpt><trkpt lat="45.4604767" lon="11.719145"><ele>20.0</ele><time>2026-03-28T08:11:38.08Z</time></trkpt><trkpt lat="45.4605533" lon="11.7190233"><ele>20.0</ele><time>2026-03-28T08:11:39.079Z</time></trkpt><trkpt lat="45.460625" lon="11.718905"><ele>20.0</ele><time>2026-03-28T08:11:40.08Z</time></trkpt><trkpt lat="45.4606983" lon="11.718775"><ele>20.0</ele><time>2026-03-28T08:11:41.08Z</time></trkpt><trkpt lat="45.4607767" lon="11.7186367"><ele>20.0</ele><time>2026-03-28T08:11:42.079Z</time></trkpt><trkpt lat="45.4608567" lon="11.718495"><ele>19.75</ele><time>2026-03-28T08:11:43.08Z</time></trkpt><trkpt lat="45.4609417" lon="11.7183433"><ele>19.5</ele><time>2026-03-28T08:11:44.08Z</time></trkpt><trkpt lat="45.46103" lon="11.718185"><ele>19.25</ele><time>2026-03-28T08:11:45.08Z</time></trkpt><trkpt lat="45.461125" lon="11.71802"><ele>19.0</ele><time>2026-03-28T08:11:46.079Z</time></trkpt><trkpt lat="45.46123" lon="11.7178517"><ele>19.0</ele><time>2026-03-28T08:11:47.08Z</time></trkpt><trkpt lat="45.4613467" lon="11.7176983"><ele>19.0</ele><time>2026-03-28T08:11:48.08Z</time></trkpt><trkpt lat="45.4614533" lon="11.7175283"><ele>19.0</ele><time>2026-03-28T08:11:49.079Z</time></trkpt><trkpt lat="45.461565" lon="11.7173633"><ele>19.0</ele><time>2026-03-28T08:11:50.08Z</time></trkpt><trkpt lat="45.461675" lon="11.7172217"><ele>19.0</ele><time>2026-03-28T08:11:51.08Z</time></trkpt><trkpt lat="45.46179" lon="11.7170767"><ele>19.0</ele><time>2026-03-28T08:11:52.08Z</time></trkpt><trkpt lat="45.4619067" lon="11.71695"><ele>19.0</ele><time>2026-03-28T08:11:53.08Z</time></trkpt><trkpt lat="45.4620267" lon="11.71683"><ele>19.25</ele><time>2026-03-28T08:11:54.08Z</time></trkpt><trkpt lat="45.4621533" lon="11.7167133"><ele>19.5</ele><time>2026-03-28T08:11:55.08Z</time></trkpt><trkpt lat="45.46228" lon="11.7166"><ele>19.75</ele><time>2026-03-28T08:11:56.08Z</time></trkpt><trkpt lat="45.4623967" lon="11.7164817"><ele>20.0</ele><time>2026-03-28T08:11:57.08Z</time></trkpt><trkpt lat="45.4625133" lon="11.71636"><ele>20.0</ele><time>2026-03-28T08:11:58.079Z</time></trkpt><trkpt lat="45.462625" lon="11.716245"><ele>20.0</ele><time>2026-03-28T08:11:59.08Z</time></trkpt><trkpt lat="45.4627433" lon="11.7161317"><ele>20.0</ele><time>2026-03-28T08:12:00.079Z</time></trkpt><trkpt lat="45.46286" lon="11.71602"><ele>20.0</ele><time>2026-03-28T08:12:01.08Z</time></trkpt><trkpt lat="45.4629867" lon="11.7159167"><ele>20.666666666666668</ele><time>2026-03-28T08:12:02.08Z</time></trkpt><trkpt lat="45.46312" lon="11.715805"><ele>21.333333333333332</ele><time>2026-03-28T08:12:03.079Z</time></trkpt><trkpt lat="45.4632533" lon="11.7156967"><ele>22.0</ele><time>2026-03-28T08:12:04.08Z</time></trkpt><trkpt lat="45.4633833" lon="11.715585"><ele>22.0</ele><time>2026-03-28T08:12:05.08Z</time></trkpt><trkpt lat="45.463525" lon="11.7154733"><ele>22.0</ele><time>2026-03-28T08:12:06.08Z</time></trkpt><trkpt lat="45.46366" lon="11.7153583"><ele>22.0</ele><time>2026-03-28T08:12:07.08Z</time></trkpt><trkpt lat="45.4637983" lon="11.71524"><ele>21.333333333333332</ele><time>2026-03-28T08:12:08.079Z</time></trkpt><trkpt lat="45.463925" lon="11.7151083"><ele>20.666666666666668</ele><time>2026-03-28T08:12:09.08Z</time></trkpt><trkpt lat="45.4640633" lon="11.7149933"><ele>20.0</ele><time>2026-03-28T08:12:10.08Z</time></trkpt><trkpt lat="45.464215" lon="11.7148817"><ele>20.0</ele><time>2026-03-28T08:12:11.079Z</time></trkpt><trkpt lat="45.464365" lon="11.71478"><ele>20.0</ele><time>2026-03-28T08:12:12.08Z</time></trkpt><trkpt lat="45.464525" lon="11.7146733"><ele>20.0</ele><time>2026-03-28T08:12:13.08Z</time></trkpt><trkpt lat="45.4646833" lon="11.7145733"><ele>19.666666666666668</ele><time>2026-03-28T08:12:14.08Z</time></trkpt><trkpt lat="45.4648433" lon="11.7144783"><ele>19.333333333333332</ele><time>2026-03-28T08:12:15.08Z</time></trkpt><trkpt lat="45.4649967" lon="11.7143817"><ele>19.0</ele><time>2026-03-28T08:12:16.08Z</time></trkpt><trkpt lat="45.4651567" lon="11.71428"><ele>19.0</ele><time>2026-03-28T08:12:17.08Z</time></trkpt><trkpt lat="45.46532" lon="11.7141717"><ele>19.0</ele><time>2026-03-28T08:12:18.08Z</time></trkpt><trkpt lat="45.4654783" lon="11.7140533"><ele>19.0</ele><time>2026-03-28T08:12:19.08Z</time></trkpt><trkpt lat="45.4656367" lon="11.7139183"><ele>19.333333333333332</ele><time>2026-03-28T08:12:20.079Z</time></trkpt><trkpt lat="45.46579" lon="11.7137783"><ele>19.666666666666668</ele><time>2026-03-28T08:12:21.08Z</time></trkpt><trkpt lat="45.4659283" lon="11.71363"><ele>20.0</ele><time>2026-03-28T08:12:22.08Z</time></trkpt><trkpt lat="45.4660533" lon="11.7134983"><ele>20.0</ele><time>2026-03-28T08:12:23.079Z</time></trkpt><trkpt lat="45.4661717" lon="11.7133717"><ele>20.0</ele><time>2026-03-28T08:12:24.08Z</time></trkpt><trkpt lat="45.466285" lon="11.713245"><ele>20.0</ele><time>2026-03-28T08:12:25.08Z</time></trkpt><trkpt lat="45.4663967" lon="11.7131167"><ele>20.0</ele><time>2026-03-28T08:12:26.08Z</time></trkpt><trkpt lat="45.4665083" lon="11.713"><ele>20.0</ele><time>2026-03-28T08:12:27.08Z</time></trkpt><trkpt lat="45.466625" lon="11.7128717"><ele>20.0</ele><time>2026-03-28T08:12:28.08Z</time></trkpt><trkpt lat="45.46674" lon="11.71275"><ele>20.0</ele><time>2026-03-28T08:12:29.08Z</time></trkpt><trkpt lat="45.466855" lon="11.712625"><ele>20.0</ele><time>2026-03-28T08:12:30.079Z</time></trkpt><trkpt lat="45.4669733" lon="11.7125033"><ele>19.666666666666668</ele><time>2026-03-28T08:12:31.08Z</time></trkpt><trkpt lat="45.4670983" lon="11.71238"><ele>19.333333333333332</ele><time>2026-03-28T08:12:32.08Z</time></trkpt><trkpt lat="45.4672267" lon="11.7122583"><ele>19.0</ele><time>2026-03-28T08:12:33.08Z</time></trkpt><trkpt lat="45.467365" lon="11.712135"><ele>19.0</ele><time>2026-03-28T08:12:34.08Z</time></trkpt><trkpt lat="45.46751" lon="11.712"><ele>19.0</ele><time>2026-03-28T08:12:35.079Z</time></trkpt><trkpt lat="45.4676533" lon="11.7118733"><ele>19.0</ele><time>2026-03-28T08:12:36.08Z</time></trkpt><trkpt lat="45.4677933" lon="11.7117483"><ele>19.333333333333332</ele><time>2026-03-28T08:12:37.079Z</time></trkpt><trkpt lat="45.4679433" lon="11.71162"><ele>19.666666666666668</ele><time>2026-03-28T08:12:38.08Z</time></trkpt><trkpt lat="45.46809" lon="11.7114967"><ele>20.0</ele><time>2026-03-28T08:12:39.08Z</time></trkpt><trkpt lat="45.4682417" lon="11.7113767"><ele>19.333333333333336</ele><time>2026-03-28T08:12:40.079Z</time></trkpt><trkpt lat="45.4683933" lon="11.71126"><ele>18.666666666666668</ele><time>2026-03-28T08:12:41.08Z</time></trkpt><trkpt lat="45.4685417" lon="11.7111483"><ele>18.0</ele><time>2026-03-28T08:12:42.079Z</time></trkpt><trkpt lat="45.4686767" lon="11.7110417"><ele>18.5</ele><time>2026-03-28T08:12:43.08Z</time></trkpt><trkpt lat="45.4688067" lon="11.7109417"><ele>19.0</ele><time>2026-03-28T08:12:44.08Z</time></trkpt><trkpt lat="45.46893" lon="11.7108417"><ele>19.5</ele><time>2026-03-28T08:12:45.079Z</time></trkpt><trkpt lat="45.4690533" lon="11.7107517"><ele>20.0</ele><time>2026-03-28T08:12:46.08Z</time></trkpt><trkpt lat="45.4691783" lon="11.7106633"><ele>20.0</ele><time>2026-03-28T08:12:47.08Z</time></trkpt><trkpt lat="45.4692967" lon="11.7105717"><ele>20.0</ele><time>2026-03-28T08:12:48.08Z</time></trkpt><trkpt lat="45.46942" lon="11.7104833"><ele>20.0</ele><time>2026-03-28T08:12:49.08Z</time></trkpt><trkpt lat="45.46954" lon="11.7103967"><ele>20.0</ele><time>2026-03-28T08:12:50.08Z</time></trkpt><trkpt lat="45.469665" lon="11.7103117"><ele>19.75</ele><time>2026-03-28T08:12:51.08Z</time></trkpt><trkpt lat="45.469785" lon="11.7102217"><ele>19.5</ele><time>2026-03-28T08:12:52.08Z</time></trkpt><trkpt lat="45.4699033" lon="11.710135"><ele>19.25</ele><time>2026-03-28T08:12:53.08Z</time></trkpt><trkpt lat="45.47002" lon="11.7100417"><ele>19.0</ele><time>2026-03-28T08:12:54.079Z</time></trkpt><trkpt lat="45.4701367" lon="11.7099567"><ele>19.0</ele><time>2026-03-28T08:12:55.08Z</time></trkpt><trkpt lat="45.470245" lon="11.7098733"><ele>19.0</ele><time>2026-03-28T08:12:56.079Z</time></trkpt><trkpt lat="45.4703583" lon="11.7098"><ele>19.0</ele><time>2026-03-28T08:12:57.08Z</time></trkpt><trkpt lat="45.4704717" lon="11.7097233"><ele>19.0</ele><time>2026-03-28T08:12:58.08Z</time></trkpt><trkpt lat="45.4705867" lon="11.70965"><ele>19.0</ele><time>2026-03-28T08:12:59.08Z</time></trkpt><trkpt lat="45.4707017" lon="11.7095733"><ele>19.0</ele><time>2026-03-28T08:13:00.08Z</time></trkpt><trkpt lat="45.4708133" lon="11.7095033"><ele>19.0</ele><time>2026-03-28T08:13:01.08Z</time></trkpt><trkpt lat="45.4709167" lon="11.709425"><ele>19.0</ele><time>2026-03-28T08:13:02.079Z</time></trkpt><trkpt lat="45.4710133" lon="11.70934"><ele>19.0</ele><time>2026-03-28T08:13:03.079Z</time></trkpt><trkpt lat="45.4711017" lon="11.7092533"><ele>19.0</ele><time>2026-03-28T08:13:04.079Z</time></trkpt><trkpt lat="45.4711883" lon="11.70918"><ele>19.0</ele><time>2026-03-28T08:13:05.08Z</time></trkpt><trkpt lat="45.471275" lon="11.70912"><ele>19.0</ele><time>2026-03-28T08:13:06.08Z</time></trkpt><trkpt lat="45.471375" lon="11.7090833"><ele>19.0</ele><time>2026-03-28T08:13:07.08Z</time></trkpt><trkpt lat="45.4714733" lon="11.7090717"><ele>19.75</ele><time>2026-03-28T08:13:08.08Z</time></trkpt><trkpt lat="45.4715767" lon="11.7090467"><ele>20.5</ele><time>2026-03-28T08:13:09.08Z</time></trkpt><trkpt lat="45.4716817" lon="11.7089783"><ele>21.25</ele><time>2026-03-28T08:13:10.079Z</time></trkpt><trkpt lat="45.4717783" lon="11.70889"><ele>22.0</ele><time>2026-03-28T08:13:11.08Z</time></trkpt><trkpt lat="45.4718967" lon="11.7088267"><ele>22.0</ele><time>2026-03-28T08:13:12.08Z</time></trkpt><trkpt lat="45.47203" lon="11.7087967"><ele>22.0</ele><time>2026-03-28T08:13:13.079Z</time></trkpt><trkpt lat="45.472165" lon="11.7087617"><ele>22.0</ele><time>2026-03-28T08:13:14.08Z</time></trkpt><trkpt lat="45.4723" lon="11.7086817"><ele>22.0</ele><time>2026-03-28T08:13:15.08Z</time></trkpt><trkpt lat="45.47243" lon="11.7085783"><ele>21.0</ele><time>2026-03-28T08:13:16.08Z</time></trkpt><trkpt lat="45.4725667" lon="11.7084717"><ele>20.0</ele><time>2026-03-28T08:13:17.08Z</time></trkpt><trkpt lat="45.4727067" lon="11.7083567"><ele>19.0</ele><time>2026-03-28T08:13:18.08Z</time></trkpt><trkpt lat="45.4728467" lon="11.7082367"><ele>19.5</ele><time>2026-03-28T08:13:19.08Z</time></trkpt><trkpt lat="45.47298" lon="11.708105"><ele>20.0</ele><time>2026-03-28T08:13:20.08Z</time></trkpt><trkpt lat="45.4731017" lon="11.7079883"><ele>20.5</ele><time>2026-03-28T08:13:21.08Z</time></trkpt><trkpt lat="45.4732167" lon="11.7078783"><ele>21.0</ele><time>2026-03-28T08:13:22.079Z</time></trkpt><trkpt lat="45.4733367" lon="11.7077633"><ele>20.666666666666668</ele><time>2026-03-28T08:13:23.079Z</time></trkpt><trkpt lat="45.4734517" lon="11.7076367"><ele>20.333333333333336</ele><time>2026-03-28T08:13:24.08Z</time></trkpt><trkpt lat="45.47356" lon="11.707495"><ele>20.0</ele><time>2026-03-28T08:13:25.08Z</time></trkpt><trkpt lat="45.4736717" lon="11.7073317"><ele>20.333333333333336</ele><time>2026-03-28T08:13:26.08Z</time></trkpt><trkpt lat="45.4737733" lon="11.7071667"><ele>20.666666666666668</ele><time>2026-03-28T08:13:27.08Z</time></trkpt><trkpt lat="45.473865" lon="11.706985"><ele>21.0</ele><time>2026-03-28T08:13:28.08Z</time></trkpt><trkpt lat="45.4739433" lon="11.706805"><ele>21.0</ele><time>2026-03-28T08:13:29.08Z</time></trkpt><trkpt lat="45.47402" lon="11.70661"><ele>21.0</ele><time>2026-03-28T08:13:30.079Z</time></trkpt><trkpt lat="45.4740867" lon="11.706405"><ele>21.0</ele><time>2026-03-28T08:13:31.079Z</time></trkpt><trkpt lat="45.4741367" lon="11.7062017"><ele>21.0</ele><time>2026-03-28T08:13:32.079Z</time></trkpt><trkpt lat="45.47419" lon="11.705995"><ele>21.0</ele><time>2026-03-28T08:13:33.08Z</time></trkpt><trkpt lat="45.47424" lon="11.705785"><ele>21.0</ele><time>2026-03-28T08:13:34.079Z</time></trkpt><trkpt lat="45.4742883" lon="11.7055667"><ele>21.0</ele><time>2026-03-28T08:13:35.079Z</time></trkpt><trkpt lat="45.47434" lon="11.705355"><ele>21.0</ele><time>2026-03-28T08:13:36.08Z</time></trkpt><trkpt lat="45.4743883" lon="11.70515"><ele>21.0</ele><time>2026-03-28T08:13:37.08Z</time></trkpt><trkpt lat="45.4744383" lon="11.704945"><ele>20.666666666666668</ele><time>2026-03-28T08:13:38.08Z</time></trkpt><trkpt lat="45.4744817" lon="11.7047367"><ele>20.333333333333336</ele><time>2026-03-28T08:13:39.08Z</time></trkpt><trkpt lat="45.4745317" lon="11.70453"><ele>20.0</ele><time>2026-03-28T08:13:40.079Z</time></trkpt><trkpt lat="45.4745783" lon="11.70432"><ele>19.0</ele><time>2026-03-28T08:13:41.08Z</time></trkpt><trkpt lat="45.4746283" lon="11.7041083"><ele>18.0</ele><time>2026-03-28T08:13:42.08Z</time></trkpt><trkpt lat="45.4746767" lon="11.703895"><ele>17.0</ele><time>2026-03-28T08:13:43.08Z</time></trkpt><trkpt lat="45.4747283" lon="11.7036817"><ele>17.75</ele><time>2026-03-28T08:13:44.08Z</time></trkpt><trkpt lat="45.4747817" lon="11.7034767"><ele>18.5</ele><time>2026-03-28T08:13:45.08Z</time></trkpt><trkpt lat="45.47484" lon="11.70328"><ele>19.25</ele><time>2026-03-28T08:13:46.08Z</time></trkpt><trkpt lat="45.4748867" lon="11.703085"><ele>20.0</ele><time>2026-03-28T08:13:47.08Z</time></trkpt><trkpt lat="45.4749217" lon="11.7028917"><ele>20.75</ele><time>2026-03-28T08:13:48.08Z</time></trkpt><trkpt lat="45.4749733" lon="11.7027117"><ele>21.5</ele><time>2026-03-28T08:13:49.08Z</time></trkpt><trkpt lat="45.4750117" lon="11.7025183"><ele>22.25</ele><time>2026-03-28T08:13:50.08Z</time></trkpt><trkpt lat="45.47505" lon="11.7023317"><ele>23.0</ele><time>2026-03-28T08:13:51.079Z</time></trkpt><trkpt lat="45.4750933" lon="11.7021567"><ele>23.0</ele><time>2026-03-28T08:13:52.079Z</time></trkpt><trkpt lat="45.4751333" lon="11.7019867"><ele>23.0</ele><time>2026-03-28T08:13:53.079Z</time></trkpt><trkpt lat="45.475175" lon="11.7018217"><ele>23.0</ele><time>2026-03-28T08:13:54.08Z</time></trkpt><trkpt lat="45.4752133" lon="11.7016633"><ele>23.0</ele><time>2026-03-28T08:13:55.08Z</time></trkpt><trkpt lat="45.4752517" lon="11.7015217"><ele>22.833333333333336</ele><time>2026-03-28T08:13:56.079Z</time></trkpt><trkpt lat="45.4752867" lon="11.7013917"><ele>22.666666666666668</ele><time>2026-03-28T08:13:57.08Z</time></trkpt><trkpt lat="45.475315" lon="11.701265"><ele>22.5</ele><time>2026-03-28T08:13:58.079Z</time></trkpt><trkpt lat="45.47534" lon="11.7011567"><ele>22.333333333333332</ele><time>2026-03-28T08:13:59.08Z</time></trkpt><trkpt lat="45.4753667" lon="11.7010533"><ele>22.166666666666664</ele><time>2026-03-28T08:14:00.08Z</time></trkpt><trkpt lat="45.4753967" lon="11.7009633"><ele>22.0</ele><time>2026-03-28T08:14:01.079Z</time></trkpt><trkpt lat="45.4754367" lon="11.7008933"><ele>22.0</ele><time>2026-03-28T08:14:02.08Z</time></trkpt><trkpt lat="45.475505" lon="11.7008"><ele>22.0</ele><time>2026-03-28T08:14:04.08Z</time></trkpt><trkpt lat="45.47553" lon="11.700715"><ele>22.0</ele><time>2026-03-28T08:14:07.079Z</time></trkpt><trkpt lat="45.4755133" lon="11.7005867"><ele>22.0</ele><time>2026-03-28T08:14:11.08Z</time></trkpt><trkpt lat="45.4754633" lon="11.7004967"><ele>22.0</ele><time>2026-03-28T08:14:13.08Z</time></trkpt><trkpt lat="45.47541" lon="11.7003417"><ele>22.0</ele><time>2026-03-28T08:14:15.08Z</time></trkpt><trkpt lat="45.47538" lon="11.7001583"><ele>22.0</ele><time>2026-03-28T08:14:17.08Z</time></trkpt><trkpt lat="45.475365" lon="11.700055"><ele>22.0</ele><time>2026-03-28T08:14:18.08Z</time></trkpt><trkpt lat="45.4753533" lon="11.69993"><ele>22.0</ele><time>2026-03-28T08:14:19.08Z</time></trkpt><trkpt lat="45.4753417" lon="11.6997933"><ele>22.0</ele><time>2026-03-28T08:14:20.079Z</time></trkpt><trkpt lat="45.4753283" lon="11.699655"><ele>22.0</ele><time>2026-03-28T08:14:21.08Z</time></trkpt><trkpt lat="45.475325" lon="11.6995"><ele>22.0</ele><time>2026-03-28T08:14:22.08Z</time></trkpt><trkpt lat="45.4753267" lon="11.6993433"><ele>22.0</ele><time>2026-03-28T08:14:23.08Z</time></trkpt><trkpt lat="45.4753383" lon="11.6991817"><ele>22.0</ele><time>2026-03-28T08:14:24.08Z</time></trkpt><trkpt lat="45.475355" lon="11.6990217"><ele>22.0</ele><time>2026-03-28T08:14:25.079Z</time></trkpt><trkpt lat="45.4753933" lon="11.6988567"><ele>22.0</ele><time>2026-03-28T08:14:26.08Z</time></trkpt><trkpt lat="45.47543" lon="11.6986817"><ele>22.0</ele><time>2026-03-28T08:14:27.08Z</time></trkpt><trkpt lat="45.4754817" lon="11.6985033"><ele>22.0</ele><time>2026-03-28T08:14:28.079Z</time></trkpt><trkpt lat="45.4755467" lon="11.6983183"><ele>22.0</ele><time>2026-03-28T08:14:29.08Z</time></trkpt><trkpt lat="45.475615" lon="11.6981367"><ele>22.0</ele><time>2026-03-28T08:14:30.079Z</time></trkpt><trkpt lat="45.4756967" lon="11.69796"><ele>22.0</ele><time>2026-03-28T08:14:31.08Z</time></trkpt><trkpt lat="45.4757833" lon="11.6977867"><ele>22.0</ele><time>2026-03-28T08:14:32.08Z</time></trkpt><trkpt lat="45.4758767" lon="11.6976117"><ele>22.0</ele><time>2026-03-28T08:14:33.079Z</time></trkpt><trkpt lat="45.47598" lon="11.6974367"><ele>22.0</ele><time>2026-03-28T08:14:34.08Z</time></trkpt><trkpt lat="45.4760783" lon="11.6972517"><ele>22.0</ele><time>2026-03-28T08:14:35.08Z</time></trkpt><trkpt lat="45.476185" lon="11.697055"><ele>21.333333333333332</ele><time>2026-03-28T08:14:36.08Z</time></trkpt><trkpt lat="45.476295" lon="11.6968333"><ele>20.666666666666668</ele><time>2026-03-28T08:14:37.079Z</time></trkpt><trkpt lat="45.476415" lon="11.6966167"><ele>20.0</ele><time>2026-03-28T08:14:38.08Z</time></trkpt><trkpt lat="45.4765483" lon="11.696375"><ele>20.0</ele><time>2026-03-28T08:14:39.08Z</time></trkpt><trkpt lat="45.4766717" lon="11.69614"><ele>20.0</ele><time>2026-03-28T08:14:40.08Z</time></trkpt><trkpt lat="45.4768" lon="11.695905"><ele>20.0</ele><time>2026-03-28T08:14:41.079Z</time></trkpt><trkpt lat="45.4769283" lon="11.695665"><ele>20.0</ele><time>2026-03-28T08:14:42.08Z</time></trkpt><trkpt lat="45.4770517" lon="11.69542"><ele>20.0</ele><time>2026-03-28T08:14:43.079Z</time></trkpt><trkpt lat="45.477165" lon="11.695165"><ele>20.0</ele><time>2026-03-28T08:14:44.08Z</time></trkpt><trkpt lat="45.477275" lon="11.6949033"><ele>20.0</ele><time>2026-03-28T08:14:45.08Z</time></trkpt><trkpt lat="45.4773833" lon="11.69464"><ele>20.0</ele><time>2026-03-28T08:14:46.08Z</time></trkpt><trkpt lat="45.4775017" lon="11.6943817"><ele>20.0</ele><time>2026-03-28T08:14:47.079Z</time></trkpt><trkpt lat="45.4776117" lon="11.6941317"><ele>20.0</ele><time>2026-03-28T08:14:48.08Z</time></trkpt><trkpt lat="45.4777217" lon="11.6938717"><ele>20.0</ele><time>2026-03-28T08:14:49.08Z</time></trkpt><trkpt lat="45.47783" lon="11.6936183"><ele>20.0</ele><time>2026-03-28T08:14:50.08Z</time></trkpt><trkpt lat="45.4779317" lon="11.6933683"><ele>19.666666666666668</ele><time>2026-03-28T08:14:51.08Z</time></trkpt><trkpt lat="45.4780317" lon="11.69312"><ele>19.333333333333332</ele><time>2026-03-28T08:14:52.079Z</time></trkpt><trkpt lat="45.4781367" lon="11.6928783"><ele>19.0</ele><time>2026-03-28T08:14:53.08Z</time></trkpt><trkpt lat="45.4782483" lon="11.6926367"><ele>19.0</ele><time>2026-03-28T08:14:54.08Z</time></trkpt><trkpt lat="45.4783617" lon="11.6924017"><ele>19.0</ele><time>2026-03-28T08:14:55.08Z</time></trkpt><trkpt lat="45.4784783" lon="11.6921767"><ele>19.0</ele><time>2026-03-28T08:14:56.08Z</time></trkpt><trkpt lat="45.478605" lon="11.6919633"><ele>19.333333333333332</ele><time>2026-03-28T08:14:57.08Z</time></trkpt><trkpt lat="45.4787317" lon="11.6917567"><ele>19.666666666666668</ele><time>2026-03-28T08:14:58.079Z</time></trkpt><trkpt lat="45.4788533" lon="11.6915467"><ele>20.0</ele><time>2026-03-28T08:14:59.08Z</time></trkpt><trkpt lat="45.4789733" lon="11.691355"><ele>20.0</ele><time>2026-03-28T08:15:00.08Z</time></trkpt><trkpt lat="45.47909" lon="11.6911617"><ele>20.0</ele><time>2026-03-28T08:15:01.08Z</time></trkpt><trkpt lat="45.4792" lon="11.6909767"><ele>20.0</ele><time>2026-03-28T08:15:02.08Z</time></trkpt><trkpt lat="45.47931" lon="11.6907967"><ele>20.0</ele><time>2026-03-28T08:15:03.079Z</time></trkpt><trkpt lat="45.4794167" lon="11.69061"><ele>20.0</ele><time>2026-03-28T08:15:04.079Z</time></trkpt><trkpt lat="45.4795267" lon="11.6904267"><ele>20.0</ele><time>2026-03-28T08:15:05.08Z</time></trkpt><trkpt lat="45.479625" lon="11.690255"><ele>20.0</ele><time>2026-03-28T08:15:06.08Z</time></trkpt><trkpt lat="45.47972" lon="11.69009"><ele>20.0</ele><time>2026-03-28T08:15:07.08Z</time></trkpt><trkpt lat="45.479805" lon="11.6899417"><ele>20.0</ele><time>2026-03-28T08:15:08.08Z</time></trkpt><trkpt lat="45.479885" lon="11.6898017"><ele>20.0</ele><time>2026-03-28T08:15:09.08Z</time></trkpt><trkpt lat="45.479965" lon="11.689665"><ele>20.0</ele><time>2026-03-28T08:15:10.079Z</time></trkpt><trkpt lat="45.480035" lon="11.6895317"><ele>20.0</ele><time>2026-03-28T08:15:11.079Z</time></trkpt><trkpt lat="45.4801067" lon="11.6893867"><ele>20.0</ele><time>2026-03-28T08:15:12.08Z</time></trkpt><trkpt lat="45.4801783" lon="11.6892317"><ele>20.0</ele><time>2026-03-28T08:15:13.08Z</time></trkpt><trkpt lat="45.4802533" lon="11.6890767"><ele>20.25</ele><time>2026-03-28T08:15:14.08Z</time></trkpt><trkpt lat="45.4803217" lon="11.688915"><ele>20.5</ele><time>2026-03-28T08:15:15.08Z</time></trkpt><trkpt lat="45.4804033" lon="11.6887583"><ele>20.75</ele><time>2026-03-28T08:15:16.08Z</time></trkpt><trkpt lat="45.48048" lon="11.6886"><ele>21.0</ele><time>2026-03-28T08:15:17.08Z</time></trkpt><trkpt lat="45.4805567" lon="11.6884417"><ele>21.5</ele><time>2026-03-28T08:15:18.08Z</time></trkpt><trkpt lat="45.480645" lon="11.68828"><ele>22.0</ele><time>2026-03-28T08:15:19.08Z</time></trkpt><trkpt lat="45.4807283" lon="11.6881267"><ele>22.5</ele><time>2026-03-28T08:15:20.08Z</time></trkpt><trkpt lat="45.4808083" lon="11.6879667"><ele>23.0</ele><time>2026-03-28T08:15:21.08Z</time></trkpt><trkpt lat="45.4808917" lon="11.687835"><ele>22.75</ele><time>2026-03-28T08:15:22.08Z</time></trkpt><trkpt lat="45.4809783" lon="11.6876983"><ele>22.5</ele><time>2026-03-28T08:15:23.08Z</time></trkpt><trkpt lat="45.4810567" lon="11.6875667"><ele>22.25</ele><time>2026-03-28T08:15:24.08Z</time></trkpt><trkpt lat="45.481135" lon="11.68744"><ele>22.0</ele><time>2026-03-28T08:15:25.08Z</time></trkpt><trkpt lat="45.4812133" lon="11.687305"><ele>22.25</ele><time>2026-03-28T08:15:26.08Z</time></trkpt><trkpt lat="45.481305" lon="11.6871683"><ele>22.5</ele><time>2026-03-28T08:15:27.079Z</time></trkpt><trkpt lat="45.4814017" lon="11.68703"><ele>22.75</ele><time>2026-03-28T08:15:28.079Z</time></trkpt><trkpt lat="45.481505" lon="11.6868917"><ele>23.0</ele><time>2026-03-28T08:15:29.079Z</time></trkpt><trkpt lat="45.4816017" lon="11.6867533"><ele>23.0</ele><time>2026-03-28T08:15:30.08Z</time></trkpt><trkpt lat="45.4816867" lon="11.686615"><ele>23.0</ele><time>2026-03-28T08:15:31.08Z</time></trkpt><trkpt lat="45.4817867" lon="11.6864883"><ele>23.0</ele><time>2026-03-28T08:15:32.08Z</time></trkpt><trkpt lat="45.4818783" lon="11.6863483"><ele>23.0</ele><time>2026-03-28T08:15:33.08Z</time></trkpt><trkpt lat="45.4819667" lon="11.6862083"><ele>22.75</ele><time>2026-03-28T08:15:34.08Z</time></trkpt><trkpt lat="45.4820617" lon="11.6860733"><ele>22.5</ele><time>2026-03-28T08:15:35.079Z</time></trkpt><trkpt lat="45.482155" lon="11.68593"><ele>22.25</ele><time>2026-03-28T08:15:36.08Z</time></trkpt><trkpt lat="45.48225" lon="11.6857817"><ele>22.0</ele><time>2026-03-28T08:15:37.08Z</time></trkpt><trkpt lat="45.4823433" lon="11.6856267"><ele>22.0</ele><time>2026-03-28T08:15:38.08Z</time></trkpt><trkpt lat="45.4824317" lon="11.6854667"><ele>22.0</ele><time>2026-03-28T08:15:39.079Z</time></trkpt><trkpt lat="45.4825183" lon="11.6853"><ele>22.0</ele><time>2026-03-28T08:15:40.08Z</time></trkpt><trkpt lat="45.4825717" lon="11.6850967"><ele>22.0</ele><time>2026-03-28T08:15:41.08Z</time></trkpt><trkpt lat="45.4826367" lon="11.6848933"><ele>21.666666666666664</ele><time>2026-03-28T08:15:42.08Z</time></trkpt><trkpt lat="45.48269" lon="11.6846767"><ele>21.333333333333332</ele><time>2026-03-28T08:15:43.08Z</time></trkpt><trkpt lat="45.4827117" lon="11.6844417"><ele>21.0</ele><time>2026-03-28T08:15:44.08Z</time></trkpt><trkpt lat="45.4827217" lon="11.68419"><ele>21.0</ele><time>2026-03-28T08:15:45.08Z</time></trkpt><trkpt lat="45.4827217" lon="11.683935"><ele>21.0</ele><time>2026-03-28T08:15:46.08Z</time></trkpt><trkpt lat="45.4827083" lon="11.6836817"><ele>21.0</ele><time>2026-03-28T08:15:47.08Z</time></trkpt><trkpt lat="45.4826883" lon="11.6834383"><ele>20.666666666666668</ele><time>2026-03-28T08:15:48.079Z</time></trkpt><trkpt lat="45.4826767" lon="11.6832083"><ele>20.333333333333336</ele><time>2026-03-28T08:15:49.08Z</time></trkpt><trkpt lat="45.48266" lon="11.6829867"><ele>20.0</ele><time>2026-03-28T08:15:50.08Z</time></trkpt><trkpt lat="45.4826467" lon="11.6827683"><ele>20.25</ele><time>2026-03-28T08:15:51.079Z</time></trkpt><trkpt lat="45.4826433" lon="11.68256"><ele>20.5</ele><time>2026-03-28T08:15:52.08Z</time></trkpt><trkpt lat="45.4826583" lon="11.682355"><ele>20.75</ele><time>2026-03-28T08:15:53.08Z</time></trkpt><trkpt lat="45.482685" lon="11.6821517"><ele>21.0</ele><time>2026-03-28T08:15:54.079Z</time></trkpt><trkpt lat="45.482735" lon="11.6819533"><ele>21.0</ele><time>2026-03-28T08:15:55.08Z</time></trkpt><trkpt lat="45.4827983" lon="11.6817567"><ele>21.0</ele><time>2026-03-28T08:15:56.08Z</time></trkpt><trkpt lat="45.4828767" lon="11.6815717"><ele>21.0</ele><time>2026-03-28T08:15:57.08Z</time></trkpt><trkpt lat="45.4829683" lon="11.6813967"><ele>21.333333333333332</ele><time>2026-03-28T08:15:58.08Z</time></trkpt><trkpt lat="45.4830783" lon="11.6812367"><ele>21.666666666666664</ele><time>2026-03-28T08:15:59.08Z</time></trkpt><trkpt lat="45.4831933" lon="11.6810767"><ele>22.0</ele><time>2026-03-28T08:16:00.08Z</time></trkpt><trkpt lat="45.4833167" lon="11.680925"><ele>22.0</ele><time>2026-03-28T08:16:01.08Z</time></trkpt><trkpt lat="45.48343" lon="11.680775"><ele>22.0</ele><time>2026-03-28T08:16:02.08Z</time></trkpt><trkpt lat="45.483545" lon="11.6806267"><ele>22.0</ele><time>2026-03-28T08:16:03.08Z</time></trkpt><trkpt lat="45.483665" lon="11.680475"><ele>21.333333333333332</ele><time>2026-03-28T08:16:04.08Z</time></trkpt><trkpt lat="45.4837883" lon="11.6803233"><ele>20.666666666666668</ele><time>2026-03-28T08:16:05.079Z</time></trkpt><trkpt lat="45.483905" lon="11.6801717"><ele>20.0</ele><time>2026-03-28T08:16:06.08Z</time></trkpt><trkpt lat="45.4840217" lon="11.6800167"><ele>20.0</ele><time>2026-03-28T08:16:07.08Z</time></trkpt><trkpt lat="45.4841317" lon="11.6798683"><ele>20.0</ele><time>2026-03-28T08:16:08.08Z</time></trkpt><trkpt lat="45.48424" lon="11.6797283"><ele>20.0</ele><time>2026-03-28T08:16:09.08Z</time></trkpt><trkpt lat="45.4843433" lon="11.6796"><ele>20.0</ele><time>2026-03-28T08:16:10.08Z</time></trkpt><trkpt lat="45.4844467" lon="11.679475"><ele>20.0</ele><time>2026-03-28T08:16:11.079Z</time></trkpt><trkpt lat="45.48455" lon="11.6793417"><ele>20.0</ele><time>2026-03-28T08:16:12.08Z</time></trkpt><trkpt lat="45.4846583" lon="11.6792083"><ele>20.0</ele><time>2026-03-28T08:16:13.08Z</time></trkpt><trkpt lat="45.4847667" lon="11.6790683"><ele>20.0</ele><time>2026-03-28T08:16:14.08Z</time></trkpt><trkpt lat="45.48488" lon="11.67893"><ele>20.0</ele><time>2026-03-28T08:16:15.08Z</time></trkpt><trkpt lat="45.48499" lon="11.6787867"><ele>20.0</ele><time>2026-03-28T08:16:16.079Z</time></trkpt><trkpt lat="45.4851067" lon="11.67864"><ele>20.0</ele><time>2026-03-28T08:16:17.08Z</time></trkpt><trkpt lat="45.4852233" lon="11.6784933"><ele>20.0</ele><time>2026-03-28T08:16:18.08Z</time></trkpt><trkpt lat="45.4853383" lon="11.678355"><ele>20.0</ele><time>2026-03-28T08:16:19.079Z</time></trkpt><trkpt lat="45.48546" lon="11.6782233"><ele>20.0</ele><time>2026-03-28T08:16:20.08Z</time></trkpt><trkpt lat="45.4855817" lon="11.6781067"><ele>20.333333333333336</ele><time>2026-03-28T08:16:21.08Z</time></trkpt><trkpt lat="45.4857133" lon="11.677985"><ele>20.666666666666668</ele><time>2026-03-28T08:16:22.079Z</time></trkpt><trkpt lat="45.4858517" lon="11.677865"><ele>21.0</ele><time>2026-03-28T08:16:23.079Z</time></trkpt><trkpt lat="45.485985" lon="11.6777467"><ele>21.0</ele><time>2026-03-28T08:16:24.08Z</time></trkpt><trkpt lat="45.486125" lon="11.6776233"><ele>21.0</ele><time>2026-03-28T08:16:25.08Z</time></trkpt><trkpt lat="45.486265" lon="11.6774917"><ele>21.0</ele><time>2026-03-28T08:16:26.079Z</time></trkpt><trkpt lat="45.4864" lon="11.67735"><ele>21.0</ele><time>2026-03-28T08:16:27.08Z</time></trkpt><trkpt lat="45.486535" lon="11.6771967"><ele>21.0</ele><time>2026-03-28T08:16:28.08Z</time></trkpt><trkpt lat="45.48666" lon="11.6770217"><ele>21.0</ele><time>2026-03-28T08:16:29.08Z</time></trkpt><trkpt lat="45.48678" lon="11.6768233"><ele>21.333333333333332</ele><time>2026-03-28T08:16:30.08Z</time></trkpt><trkpt lat="45.4868967" lon="11.6766117"><ele>21.666666666666664</ele><time>2026-03-28T08:16:31.08Z</time></trkpt><trkpt lat="45.4870117" lon="11.676385"><ele>22.0</ele><time>2026-03-28T08:16:32.08Z</time></trkpt><trkpt lat="45.4871233" lon="11.676145"><ele>21.666666666666664</ele><time>2026-03-28T08:16:33.079Z</time></trkpt><trkpt lat="45.4872383" lon="11.6758983"><ele>21.333333333333332</ele><time>2026-03-28T08:16:34.08Z</time></trkpt><trkpt lat="45.4873483" lon="11.6756483"><ele>21.0</ele><time>2026-03-28T08:16:35.08Z</time></trkpt><trkpt lat="45.4874517" lon="11.6753933"><ele>21.333333333333332</ele><time>2026-03-28T08:16:36.08Z</time></trkpt><trkpt lat="45.4875483" lon="11.6751467"><ele>21.666666666666664</ele><time>2026-03-28T08:16:37.08Z</time></trkpt><trkpt lat="45.487645" lon="11.6749017"><ele>22.0</ele><time>2026-03-28T08:16:38.08Z</time></trkpt><trkpt lat="45.4877367" lon="11.6746583"><ele>22.0</ele><time>2026-03-28T08:16:39.08Z</time></trkpt><trkpt lat="45.48783" lon="11.6744133"><ele>22.0</ele><time>2026-03-28T08:16:40.079Z</time></trkpt><trkpt lat="45.4879233" lon="11.67417"><ele>22.0</ele><time>2026-03-28T08:16:41.08Z</time></trkpt><trkpt lat="45.4880183" lon="11.673935"><ele>22.0</ele><time>2026-03-28T08:16:42.08Z</time></trkpt><trkpt lat="45.48811" lon="11.6737"><ele>22.0</ele><time>2026-03-28T08:16:43.079Z</time></trkpt><trkpt lat="45.4882017" lon="11.6734667"><ele>22.0</ele><time>2026-03-28T08:16:44.079Z</time></trkpt><trkpt lat="45.48829" lon="11.6732283"><ele>22.0</ele><time>2026-03-28T08:16:45.08Z</time></trkpt><trkpt lat="45.488385" lon="11.6729917"><ele>22.0</ele><time>2026-03-28T08:16:46.08Z</time></trkpt><trkpt lat="45.4884767" lon="11.6727467"><ele>22.0</ele><time>2026-03-28T08:16:47.079Z</time></trkpt><trkpt lat="45.4885683" lon="11.6725017"><ele>21.666666666666664</ele><time>2026-03-28T08:16:48.08Z</time></trkpt><trkpt lat="45.4886633" lon="11.6722433"><ele>21.333333333333332</ele><time>2026-03-28T08:16:49.079Z</time></trkpt><trkpt lat="45.48876" lon="11.67199"><ele>21.0</ele><time>2026-03-28T08:16:50.08Z</time></trkpt><trkpt lat="45.4888617" lon="11.67173"><ele>21.666666666666668</ele><time>2026-03-28T08:16:51.08Z</time></trkpt><trkpt lat="45.4889617" lon="11.6714767"><ele>22.333333333333336</ele><time>2026-03-28T08:16:52.08Z</time></trkpt><trkpt lat="45.4890633" lon="11.6712017"><ele>23.0</ele><time>2026-03-28T08:16:53.08Z</time></trkpt><trkpt lat="45.4891633" lon="11.6709267"><ele>23.5</ele><time>2026-03-28T08:16:54.08Z</time></trkpt><trkpt lat="45.489265" lon="11.6706467"><ele>24.0</ele><time>2026-03-28T08:16:55.079Z</time></trkpt><trkpt lat="45.4893733" lon="11.6703517"><ele>23.5</ele><time>2026-03-28T08:16:56.08Z</time></trkpt><trkpt lat="45.489485" lon="11.6700517"><ele>23.0</ele><time>2026-03-28T08:16:57.08Z</time></trkpt><trkpt lat="45.4895933" lon="11.6697483"><ele>22.0</ele><time>2026-03-28T08:16:58.08Z</time></trkpt><trkpt lat="45.4897033" lon="11.6694467"><ele>21.0</ele><time>2026-03-28T08:16:59.079Z</time></trkpt><trkpt lat="45.4898217" lon="11.669145"><ele>21.0</ele><time>2026-03-28T08:17:00.079Z</time></trkpt><trkpt lat="45.489945" lon="11.66885"><ele>21.0</ele><time>2026-03-28T08:17:01.08Z</time></trkpt><trkpt lat="45.4900617" lon="11.6685583"><ele>22.0</ele><time>2026-03-28T08:17:02.08Z</time></trkpt><trkpt lat="45.4901717" lon="11.6682717"><ele>23.0</ele><time>2026-03-28T08:17:03.08Z</time></trkpt><trkpt lat="45.49028" lon="11.6680017"><ele>24.0</ele><time>2026-03-28T08:17:04.079Z</time></trkpt><trkpt lat="45.4903767" lon="11.6677233"><ele>24.0</ele><time>2026-03-28T08:17:05.08Z</time></trkpt><trkpt lat="45.490465" lon="11.6674417"><ele>24.0</ele><time>2026-03-28T08:17:06.079Z</time></trkpt><trkpt lat="45.490525" lon="11.6671467"><ele>24.0</ele><time>2026-03-28T08:17:07.079Z</time></trkpt><trkpt lat="45.49056" lon="11.6668333"><ele>25.0</ele><time>2026-03-28T08:17:08.08Z</time></trkpt><trkpt lat="45.4905883" lon="11.6665117"><ele>26.0</ele><time>2026-03-28T08:17:09.08Z</time></trkpt><trkpt lat="45.4906117" lon="11.666185"><ele>26.0</ele><time>2026-03-28T08:17:10.08Z</time></trkpt><trkpt lat="45.4906483" lon="11.6658683"><ele>26.0</ele><time>2026-03-28T08:17:11.08Z</time></trkpt><trkpt lat="45.4906917" lon="11.6655567"><ele>26.0</ele><time>2026-03-28T08:17:12.08Z</time></trkpt><trkpt lat="45.4907533" lon="11.66525"><ele>26.0</ele><time>2026-03-28T08:17:13.08Z</time></trkpt><trkpt lat="45.490845" lon="11.6649617"><ele>26.0</ele><time>2026-03-28T08:17:14.079Z</time></trkpt><trkpt lat="45.4909667" lon="11.66468"><ele>26.0</ele><time>2026-03-28T08:17:15.08Z</time></trkpt><trkpt lat="45.491105" lon="11.66442"><ele>26.0</ele><time>2026-03-28T08:17:16.08Z</time></trkpt><trkpt lat="45.4912717" lon="11.664185"><ele>26.0</ele><time>2026-03-28T08:17:17.079Z</time></trkpt><trkpt lat="45.4914567" lon="11.6639867"><ele>26.0</ele><time>2026-03-28T08:17:18.08Z</time></trkpt><trkpt lat="45.4916533" lon="11.66382"><ele>26.0</ele><time>2026-03-28T08:17:19.08Z</time></trkpt><trkpt lat="45.4918533" lon="11.6636817"><ele>26.0</ele><time>2026-03-28T08:17:20.08Z</time></trkpt><trkpt lat="45.4920517" lon="11.6635583"><ele>26.0</ele><time>2026-03-28T08:17:21.08Z</time></trkpt><trkpt lat="45.4922467" lon="11.6634483"><ele>26.0</ele><time>2026-03-28T08:17:22.079Z</time></trkpt><trkpt lat="45.4924333" lon="11.663335"><ele>26.0</ele><time>2026-03-28T08:17:23.08Z</time></trkpt><trkpt lat="45.4926217" lon="11.6632183"><ele>26.0</ele><time>2026-03-28T08:17:24.08Z</time></trkpt><trkpt lat="45.4928067" lon="11.6630967"><ele>25.666666666666664</ele><time>2026-03-28T08:17:25.079Z</time></trkpt><trkpt lat="45.49298" lon="11.6629683"><ele>25.333333333333336</ele><time>2026-03-28T08:17:26.08Z</time></trkpt><trkpt lat="45.4931467" lon="11.6628217"><ele>25.0</ele><time>2026-03-28T08:17:27.08Z</time></trkpt><trkpt lat="45.4933033" lon="11.6626617"><ele>25.0</ele><time>2026-03-28T08:17:28.08Z</time></trkpt><trkpt lat="45.4934433" lon="11.6624833"><ele>25.0</ele><time>2026-03-28T08:17:29.08Z</time></trkpt><trkpt lat="45.493575" lon="11.6622783"><ele>25.0</ele><time>2026-03-28T08:17:30.08Z</time></trkpt><trkpt lat="45.493695" lon="11.6620583"><ele>25.0</ele><time>2026-03-28T08:17:31.08Z</time></trkpt><trkpt lat="45.4938167" lon="11.6618317"><ele>25.0</ele><time>2026-03-28T08:17:32.08Z</time></trkpt><trkpt lat="45.4939333" lon="11.6615983"><ele>25.0</ele><time>2026-03-28T08:17:33.08Z</time></trkpt><trkpt lat="45.4940567" lon="11.6613683"><ele>25.0</ele><time>2026-03-28T08:17:34.08Z</time></trkpt><trkpt lat="45.4941767" lon="11.6611383"><ele>25.0</ele><time>2026-03-28T08:17:35.08Z</time></trkpt><trkpt lat="45.4943017" lon="11.6609133"><ele>25.0</ele><time>2026-03-28T08:17:36.08Z</time></trkpt><trkpt lat="45.49442" lon="11.6606933"><ele>25.0</ele><time>2026-03-28T08:17:37.08Z</time></trkpt><trkpt lat="45.4945417" lon="11.6604733"><ele>25.0</ele><time>2026-03-28T08:17:38.079Z</time></trkpt><trkpt lat="45.4946617" lon="11.660255"><ele>25.0</ele><time>2026-03-28T08:17:39.08Z</time></trkpt><trkpt lat="45.4947833" lon="11.6600217"><ele>25.0</ele><time>2026-03-28T08:17:40.08Z</time></trkpt><trkpt lat="45.494905" lon="11.659795"><ele>25.0</ele><time>2026-03-28T08:17:41.079Z</time></trkpt><trkpt lat="45.4950317" lon="11.6595667"><ele>25.0</ele><time>2026-03-28T08:17:42.08Z</time></trkpt><trkpt lat="45.4951533" lon="11.6593333"><ele>25.333333333333336</ele><time>2026-03-28T08:17:43.08Z</time></trkpt><trkpt lat="45.4952833" lon="11.659095"><ele>25.666666666666664</ele><time>2026-03-28T08:17:44.08Z</time></trkpt><trkpt lat="45.49541" lon="11.6588583"><ele>26.0</ele><time>2026-03-28T08:17:45.08Z</time></trkpt><trkpt lat="45.4955383" lon="11.6586317"><ele>25.666666666666664</ele><time>2026-03-28T08:17:46.08Z</time></trkpt><trkpt lat="45.4956633" lon="11.6584133"><ele>25.333333333333336</ele><time>2026-03-28T08:17:47.08Z</time></trkpt><trkpt lat="45.49578" lon="11.6581867"><ele>25.0</ele><time>2026-03-28T08:17:48.079Z</time></trkpt><trkpt lat="45.495895" lon="11.6579483"><ele>24.666666666666668</ele><time>2026-03-28T08:17:49.08Z</time></trkpt><trkpt lat="45.4960033" lon="11.6577117"><ele>24.333333333333336</ele><time>2026-03-28T08:17:50.08Z</time></trkpt><trkpt lat="45.4961183" lon="11.6574583"><ele>24.0</ele><time>2026-03-28T08:17:51.08Z</time></trkpt><trkpt lat="45.4962267" lon="11.6572033"><ele>24.666666666666664</ele><time>2026-03-28T08:17:52.079Z</time></trkpt><trkpt lat="45.496335" lon="11.65695"><ele>25.333333333333332</ele><time>2026-03-28T08:17:53.08Z</time></trkpt><trkpt lat="45.4964417" lon="11.6566933"><ele>26.0</ele><time>2026-03-28T08:17:54.08Z</time></trkpt><trkpt lat="45.4965467" lon="11.656435"><ele>26.0</ele><time>2026-03-28T08:17:55.08Z</time></trkpt><trkpt lat="45.4966567" lon="11.656175"><ele>26.0</ele><time>2026-03-28T08:17:56.079Z</time></trkpt><trkpt lat="45.49676" lon="11.6559033"><ele>26.0</ele><time>2026-03-28T08:17:57.08Z</time></trkpt><trkpt lat="45.496875" lon="11.655635"><ele>25.5</ele><time>2026-03-28T08:17:58.08Z</time></trkpt><trkpt lat="45.496985" lon="11.6553583"><ele>25.0</ele><time>2026-03-28T08:17:59.079Z</time></trkpt><trkpt lat="45.497105" lon="11.6550733"><ele>24.5</ele><time>2026-03-28T08:18:00.08Z</time></trkpt><trkpt lat="45.4972183" lon="11.6547883"><ele>24.0</ele><time>2026-03-28T08:18:01.08Z</time></trkpt><trkpt lat="45.4973333" lon="11.6545033"><ele>25.0</ele><time>2026-03-28T08:18:02.08Z</time></trkpt><trkpt lat="45.49745" lon="11.6542167"><ele>26.0</ele><time>2026-03-28T08:18:03.08Z</time></trkpt><trkpt lat="45.4975683" lon="11.653925"><ele>26.0</ele><time>2026-03-28T08:18:04.079Z</time></trkpt><trkpt lat="45.497685" lon="11.6536417"><ele>26.0</ele><time>2026-03-28T08:18:05.08Z</time></trkpt><trkpt lat="45.4977983" lon="11.6533633"><ele>26.0</ele><time>2026-03-28T08:18:06.08Z</time></trkpt><trkpt lat="45.4979083" lon="11.6531"><ele>26.0</ele><time>2026-03-28T08:18:07.079Z</time></trkpt><trkpt lat="45.4980167" lon="11.65285"><ele>26.0</ele><time>2026-03-28T08:18:08.08Z</time></trkpt><trkpt lat="45.498115" lon="11.6526033"><ele>26.333333333333332</ele><time>2026-03-28T08:18:09.08Z</time></trkpt><trkpt lat="45.498215" lon="11.6523617"><ele>26.666666666666664</ele><time>2026-03-28T08:18:10.08Z</time></trkpt><trkpt lat="45.4983083" lon="11.6521217"><ele>27.0</ele><time>2026-03-28T08:18:11.08Z</time></trkpt><trkpt lat="45.4984033" lon="11.6518833"><ele>27.0</ele><time>2026-03-28T08:18:12.08Z</time></trkpt><trkpt lat="45.4984867" lon="11.6516433"><ele>27.0</ele><time>2026-03-28T08:18:13.08Z</time></trkpt><trkpt lat="45.4985617" lon="11.6514117"><ele>27.0</ele><time>2026-03-28T08:18:14.08Z</time></trkpt><trkpt lat="45.4986367" lon="11.6511767"><ele>27.0</ele><time>2026-03-28T08:18:15.079Z</time></trkpt><trkpt lat="45.4987117" lon="11.650935"><ele>27.0</ele><time>2026-03-28T08:18:16.08Z</time></trkpt><trkpt lat="45.4987867" lon="11.6506967"><ele>27.0</ele><time>2026-03-28T08:18:17.08Z</time></trkpt><trkpt lat="45.4988617" lon="11.65046"><ele>26.333333333333336</ele><time>2026-03-28T08:18:18.08Z</time></trkpt><trkpt lat="45.498935" lon="11.6502183"><ele>25.666666666666668</ele><time>2026-03-28T08:18:19.079Z</time></trkpt><trkpt lat="45.4990083" lon="11.649975"><ele>25.0</ele><time>2026-03-28T08:18:20.079Z</time></trkpt><trkpt lat="45.49908" lon="11.649725"><ele>25.0</ele><time>2026-03-28T08:18:21.08Z</time></trkpt><trkpt lat="45.4991583" lon="11.649475"><ele>25.0</ele><time>2026-03-28T08:18:22.079Z</time></trkpt><trkpt lat="45.4992383" lon="11.6492183"><ele>25.0</ele><time>2026-03-28T08:18:23.08Z</time></trkpt><trkpt lat="45.4993167" lon="11.648965"><ele>25.0</ele><time>2026-03-28T08:18:24.08Z</time></trkpt><trkpt lat="45.499395" lon="11.6487033"><ele>25.0</ele><time>2026-03-28T08:18:25.08Z</time></trkpt><trkpt lat="45.4994683" lon="11.6484383"><ele>25.0</ele><time>2026-03-28T08:18:26.08Z</time></trkpt><trkpt lat="45.4995433" lon="11.648175"><ele>24.666666666666668</ele><time>2026-03-28T08:18:27.08Z</time></trkpt><trkpt lat="45.4996267" lon="11.6479167"><ele>24.333333333333336</ele><time>2026-03-28T08:18:28.08Z</time></trkpt><trkpt lat="45.49971" lon="11.6476683"><ele>24.0</ele><time>2026-03-28T08:18:29.08Z</time></trkpt><trkpt lat="45.49979" lon="11.6474167"><ele>24.0</ele><time>2026-03-28T08:18:30.08Z</time></trkpt><trkpt lat="45.4998683" lon="11.6471667"><ele>24.0</ele><time>2026-03-28T08:18:31.08Z</time></trkpt><trkpt lat="45.4999467" lon="11.6469267"><ele>24.0</ele><time>2026-03-28T08:18:32.08Z</time></trkpt><trkpt lat="45.5000333" lon="11.64669"><ele>24.666666666666664</ele><time>2026-03-28T08:18:33.079Z</time></trkpt><trkpt lat="45.5001183" lon="11.6464567"><ele>25.333333333333332</ele><time>2026-03-28T08:18:34.08Z</time></trkpt><trkpt lat="45.5001967" lon="11.64623"><ele>26.0</ele><time>2026-03-28T08:18:35.079Z</time></trkpt><trkpt lat="45.50027" lon="11.646005"><ele>26.0</ele><time>2026-03-28T08:18:36.079Z</time></trkpt><trkpt lat="45.5003417" lon="11.645795"><ele>26.0</ele><time>2026-03-28T08:18:37.08Z</time></trkpt><trkpt lat="45.500405" lon="11.645595"><ele>26.0</ele><time>2026-03-28T08:18:38.08Z</time></trkpt><trkpt lat="45.5004683" lon="11.6454067"><ele>25.0</ele><time>2026-03-28T08:18:39.08Z</time></trkpt><trkpt lat="45.50053" lon="11.6452267"><ele>24.0</ele><time>2026-03-28T08:18:40.08Z</time></trkpt><trkpt lat="45.50059" lon="11.6450583"><ele>23.0</ele><time>2026-03-28T08:18:41.08Z</time></trkpt><trkpt lat="45.5006383" lon="11.6449"><ele>22.0</ele><time>2026-03-28T08:18:42.08Z</time></trkpt><trkpt lat="45.5006917" lon="11.6447533"><ele>22.0</ele><time>2026-03-28T08:18:43.079Z</time></trkpt><trkpt lat="45.50075" lon="11.6445917"><ele>22.0</ele><time>2026-03-28T08:18:44.079Z</time></trkpt><trkpt lat="45.5008167" lon="11.644435"><ele>22.0</ele><time>2026-03-28T08:18:45.08Z</time></trkpt><trkpt lat="45.5008883" lon="11.6442567"><ele>22.0</ele><time>2026-03-28T08:18:46.08Z</time></trkpt><trkpt lat="45.5009633" lon="11.64407"><ele>23.0</ele><time>2026-03-28T08:18:47.08Z</time></trkpt><trkpt lat="45.501035" lon="11.643875"><ele>24.0</ele><time>2026-03-28T08:18:48.079Z</time></trkpt><trkpt lat="45.5011033" lon="11.6436717"><ele>25.0</ele><time>2026-03-28T08:18:49.08Z</time></trkpt><trkpt lat="45.5011817" lon="11.6434767"><ele>24.666666666666668</ele><time>2026-03-28T08:18:50.079Z</time></trkpt><trkpt lat="45.50127" lon="11.64328"><ele>24.333333333333336</ele><time>2026-03-28T08:18:51.079Z</time></trkpt><trkpt lat="45.5013633" lon="11.6430933"><ele>24.0</ele><time>2026-03-28T08:18:52.08Z</time></trkpt><trkpt lat="45.5014683" lon="11.6429083"><ele>24.333333333333336</ele><time>2026-03-28T08:18:53.08Z</time></trkpt><trkpt lat="45.5015767" lon="11.642715"><ele>24.666666666666668</ele><time>2026-03-28T08:18:54.079Z</time></trkpt><trkpt lat="45.5016917" lon="11.6425283"><ele>25.0</ele><time>2026-03-28T08:18:55.079Z</time></trkpt><trkpt lat="45.501805" lon="11.6423517"><ele>25.0</ele><time>2026-03-28T08:18:56.08Z</time></trkpt><trkpt lat="45.5019267" lon="11.6421667"><ele>25.0</ele><time>2026-03-28T08:18:57.08Z</time></trkpt><trkpt lat="45.5020417" lon="11.64199"><ele>25.0</ele><time>2026-03-28T08:18:58.079Z</time></trkpt><trkpt lat="45.5021567" lon="11.6418267"><ele>24.666666666666668</ele><time>2026-03-28T08:18:59.079Z</time></trkpt><trkpt lat="45.50227" lon="11.6416617"><ele>24.333333333333336</ele><time>2026-03-28T08:19:00.08Z</time></trkpt><trkpt lat="45.5023767" lon="11.6415133"><ele>24.0</ele><time>2026-03-28T08:19:01.08Z</time></trkpt><trkpt lat="45.50248" lon="11.64136"><ele>24.0</ele><time>2026-03-28T08:19:02.08Z</time></trkpt><trkpt lat="45.5025867" lon="11.6412033"><ele>24.0</ele><time>2026-03-28T08:19:03.079Z</time></trkpt><trkpt lat="45.5026967" lon="11.6410533"><ele>24.0</ele><time>2026-03-28T08:19:04.08Z</time></trkpt><trkpt lat="45.5028" lon="11.6409017"><ele>24.0</ele><time>2026-03-28T08:19:05.08Z</time></trkpt><trkpt lat="45.50291" lon="11.6407417"><ele>24.0</ele><time>2026-03-28T08:19:06.079Z</time></trkpt><trkpt lat="45.5030217" lon="11.6405933"><ele>24.0</ele><time>2026-03-28T08:19:07.08Z</time></trkpt><trkpt lat="45.5031333" lon="11.6404367"><ele>24.0</ele><time>2026-03-28T08:19:08.08Z</time></trkpt><trkpt lat="45.5032433" lon="11.6402833"><ele>24.0</ele><time>2026-03-28T08:19:09.08Z</time></trkpt><trkpt lat="45.5033517" lon="11.6401267"><ele>24.0</ele><time>2026-03-28T08:19:10.079Z</time></trkpt><trkpt lat="45.5034583" lon="11.639975"><ele>24.0</ele><time>2026-03-28T08:19:11.079Z</time></trkpt><trkpt lat="45.50357" lon="11.639815"><ele>24.0</ele><time>2026-03-28T08:19:12.079Z</time></trkpt><trkpt lat="45.5036867" lon="11.6396433"><ele>24.0</ele><time>2026-03-28T08:19:13.08Z</time></trkpt><trkpt lat="45.503805" lon="11.6394733"><ele>24.333333333333336</ele><time>2026-03-28T08:19:14.079Z</time></trkpt><trkpt lat="45.50393" lon="11.6393017"><ele>24.666666666666668</ele><time>2026-03-28T08:19:15.08Z</time></trkpt><trkpt lat="45.504055" lon="11.6391233"><ele>25.0</ele><time>2026-03-28T08:19:16.079Z</time></trkpt><trkpt lat="45.5041833" lon="11.6389433"><ele>25.0</ele><time>2026-03-28T08:19:17.08Z</time></trkpt><trkpt lat="45.5043133" lon="11.638765"><ele>25.0</ele><time>2026-03-28T08:19:18.08Z</time></trkpt><trkpt lat="45.5044417" lon="11.6385817"><ele>25.0</ele><time>2026-03-28T08:19:19.08Z</time></trkpt><trkpt lat="45.5045717" lon="11.638395"><ele>25.0</ele><time>2026-03-28T08:19:20.08Z</time></trkpt><trkpt lat="45.5046983" lon="11.63821"><ele>25.0</ele><time>2026-03-28T08:19:21.08Z</time></trkpt><trkpt lat="45.5048317" lon="11.6380133"><ele>25.0</ele><time>2026-03-28T08:19:22.08Z</time></trkpt><trkpt lat="45.5049617" lon="11.6378283"><ele>25.0</ele><time>2026-03-28T08:19:23.079Z</time></trkpt><trkpt lat="45.5050967" lon="11.6376433"><ele>25.0</ele><time>2026-03-28T08:19:24.08Z</time></trkpt><trkpt lat="45.5052317" lon="11.6374517"><ele>25.0</ele><time>2026-03-28T08:19:25.08Z</time></trkpt><trkpt lat="45.5053717" lon="11.63726"><ele>24.333333333333336</ele><time>2026-03-28T08:19:26.08Z</time></trkpt><trkpt lat="45.5055117" lon="11.63707"><ele>23.666666666666668</ele><time>2026-03-28T08:19:27.08Z</time></trkpt><trkpt lat="45.5056483" lon="11.63687"><ele>23.0</ele><time>2026-03-28T08:19:28.079Z</time></trkpt><trkpt lat="45.5057933" lon="11.6366683"><ele>23.0</ele><time>2026-03-28T08:19:29.08Z</time></trkpt><trkpt lat="45.5059383" lon="11.6364633"><ele>23.0</ele><time>2026-03-28T08:19:30.08Z</time></trkpt><trkpt lat="45.5060817" lon="11.63625"><ele>23.0</ele><time>2026-03-28T08:19:31.08Z</time></trkpt><trkpt lat="45.506225" lon="11.636035"><ele>23.666666666666668</ele><time>2026-03-28T08:19:32.08Z</time></trkpt><trkpt lat="45.506375" lon="11.63583"><ele>24.333333333333336</ele><time>2026-03-28T08:19:33.08Z</time></trkpt><trkpt lat="45.506525" lon="11.6356183"><ele>25.0</ele><time>2026-03-28T08:19:34.08Z</time></trkpt><trkpt lat="45.5066733" lon="11.6354117"><ele>25.0</ele><time>2026-03-28T08:19:35.08Z</time></trkpt><trkpt lat="45.50682" lon="11.6352033"><ele>25.0</ele><time>2026-03-28T08:19:36.08Z</time></trkpt><trkpt lat="45.5069633" lon="11.6349967"><ele>25.0</ele><time>2026-03-28T08:19:37.08Z</time></trkpt><trkpt lat="45.5071083" lon="11.63479"><ele>25.0</ele><time>2026-03-28T08:19:38.08Z</time></trkpt><trkpt lat="45.50725" lon="11.634585"><ele>25.0</ele><time>2026-03-28T08:19:39.079Z</time></trkpt><trkpt lat="45.5073933" lon="11.6343867"><ele>25.0</ele><time>2026-03-28T08:19:40.079Z</time></trkpt><trkpt lat="45.50753" lon="11.6341833"><ele>24.666666666666668</ele><time>2026-03-28T08:19:41.079Z</time></trkpt><trkpt lat="45.507675" lon="11.6339917"><ele>24.333333333333336</ele><time>2026-03-28T08:19:42.08Z</time></trkpt><trkpt lat="45.5078133" lon="11.6337967"><ele>24.0</ele><time>2026-03-28T08:19:43.08Z</time></trkpt><trkpt lat="45.5079483" lon="11.6336117"><ele>24.666666666666664</ele><time>2026-03-28T08:19:44.08Z</time></trkpt><trkpt lat="45.5080767" lon="11.6334333"><ele>25.333333333333332</ele><time>2026-03-28T08:19:45.08Z</time></trkpt><trkpt lat="45.5082017" lon="11.6332617"><ele>26.0</ele><time>2026-03-28T08:19:46.08Z</time></trkpt><trkpt lat="45.5083183" lon="11.633095"><ele>26.0</ele><time>2026-03-28T08:19:47.08Z</time></trkpt><trkpt lat="45.5084333" lon="11.632945"><ele>26.0</ele><time>2026-03-28T08:19:48.08Z</time></trkpt><trkpt lat="45.50854" lon="11.6328133"><ele>26.0</ele><time>2026-03-28T08:19:49.08Z</time></trkpt><trkpt lat="45.5086417" lon="11.6326867"><ele>26.0</ele><time>2026-03-28T08:19:50.08Z</time></trkpt><trkpt lat="45.5087367" lon="11.6325733"><ele>26.200000000000003</ele><time>2026-03-28T08:19:51.08Z</time></trkpt><trkpt lat="45.5088217" lon="11.6324683"><ele>26.400000000000002</ele><time>2026-03-28T08:19:52.08Z</time></trkpt><trkpt lat="45.508915" lon="11.6323983"><ele>26.6</ele><time>2026-03-28T08:19:53.08Z</time></trkpt><trkpt lat="45.50901" lon="11.63235"><ele>26.8</ele><time>2026-03-28T08:19:54.08Z</time></trkpt><trkpt lat="45.50911" lon="11.63231"><ele>27.0</ele><time>2026-03-28T08:19:55.08Z</time></trkpt><trkpt lat="45.509195" lon="11.6322367"><ele>27.0</ele><time>2026-03-28T08:19:56.08Z</time></trkpt><trkpt lat="45.509265" lon="11.6321233"><ele>27.000000000000004</ele><time>2026-03-28T08:19:57.08Z</time></trkpt><trkpt lat="45.5093017" lon="11.631985"><ele>27.000000000000004</ele><time>2026-03-28T08:19:58.08Z</time></trkpt><trkpt lat="45.5093233" lon="11.6318333"><ele>27.0</ele><time>2026-03-28T08:19:59.079Z</time></trkpt><trkpt lat="45.5093617" lon="11.6316967"><ele>27.0</ele><time>2026-03-28T08:20:00.08Z</time></trkpt><trkpt lat="45.5094167" lon="11.6315733"><ele>27.0</ele><time>2026-03-28T08:20:01.079Z</time></trkpt><trkpt lat="45.5094867" lon="11.6314583"><ele>27.0</ele><time>2026-03-28T08:20:02.08Z</time></trkpt><trkpt lat="45.5095617" lon="11.63134"><ele>27.0</ele><time>2026-03-28T08:20:03.08Z</time></trkpt><trkpt lat="45.50965" lon="11.63121"><ele>27.0</ele><time>2026-03-28T08:20:04.08Z</time></trkpt><trkpt lat="45.509745" lon="11.6310717"><ele>27.0</ele><time>2026-03-28T08:20:05.08Z</time></trkpt><trkpt lat="45.5098533" lon="11.6309283"><ele>27.0</ele><time>2026-03-28T08:20:06.08Z</time></trkpt><trkpt lat="45.5099667" lon="11.63077"><ele>27.0</ele><time>2026-03-28T08:20:07.079Z</time></trkpt><trkpt lat="45.5100867" lon="11.6306017"><ele>27.0</ele><time>2026-03-28T08:20:08.079Z</time></trkpt><trkpt lat="45.5102083" lon="11.6304283"><ele>27.0</ele><time>2026-03-28T08:20:09.08Z</time></trkpt><trkpt lat="45.5103367" lon="11.6302467"><ele>27.0</ele><time>2026-03-28T08:20:10.08Z</time></trkpt><trkpt lat="45.5104633" lon="11.6300733"><ele>26.666666666666664</ele><time>2026-03-28T08:20:11.08Z</time></trkpt><trkpt lat="45.51059" lon="11.6298967"><ele>26.333333333333332</ele><time>2026-03-28T08:20:12.08Z</time></trkpt><trkpt lat="45.5107217" lon="11.6297117"><ele>26.0</ele><time>2026-03-28T08:20:13.08Z</time></trkpt><trkpt lat="45.5108533" lon="11.629515"><ele>26.333333333333332</ele><time>2026-03-28T08:20:14.079Z</time></trkpt><trkpt lat="45.510975" lon="11.6293317"><ele>26.666666666666664</ele><time>2026-03-28T08:20:15.08Z</time></trkpt><trkpt lat="45.5110917" lon="11.629155"><ele>27.0</ele><time>2026-03-28T08:20:16.08Z</time></trkpt><trkpt lat="45.5112067" lon="11.628985"><ele>27.666666666666664</ele><time>2026-03-28T08:20:17.08Z</time></trkpt><trkpt lat="45.5113183" lon="11.6288133"><ele>28.333333333333332</ele><time>2026-03-28T08:20:18.079Z</time></trkpt><trkpt lat="45.5114283" lon="11.62864"><ele>29.0</ele><time>2026-03-28T08:20:19.08Z</time></trkpt><trkpt lat="45.5115383" lon="11.6284683"><ele>29.0</ele><time>2026-03-28T08:20:20.08Z</time></trkpt><trkpt lat="45.511645" lon="11.6282983"><ele>29.0</ele><time>2026-03-28T08:20:21.079Z</time></trkpt><trkpt lat="45.51176" lon="11.628125"><ele>29.0</ele><time>2026-03-28T08:20:22.079Z</time></trkpt><trkpt lat="45.5118717" lon="11.6279583"><ele>29.333333333333332</ele><time>2026-03-28T08:20:23.079Z</time></trkpt><trkpt lat="45.5119783" lon="11.62779"><ele>29.666666666666664</ele><time>2026-03-28T08:20:24.08Z</time></trkpt><trkpt lat="45.512085" lon="11.6276283"><ele>30.0</ele><time>2026-03-28T08:20:25.079Z</time></trkpt><trkpt lat="45.5121883" lon="11.6274767"><ele>30.666666666666664</ele><time>2026-03-28T08:20:26.079Z</time></trkpt><trkpt lat="45.51229" lon="11.6273217"><ele>31.333333333333332</ele><time>2026-03-28T08:20:27.08Z</time></trkpt><trkpt lat="45.5123917" lon="11.6271567"><ele>32.0</ele><time>2026-03-28T08:20:28.08Z</time></trkpt><trkpt lat="45.5124917" lon="11.626985"><ele>32.0</ele><time>2026-03-28T08:20:29.08Z</time></trkpt><trkpt lat="45.5125717" lon="11.6268017"><ele>32.0</ele><time>2026-03-28T08:20:30.08Z</time></trkpt><trkpt lat="45.5126483" lon="11.62661"><ele>32.0</ele><time>2026-03-28T08:20:31.08Z</time></trkpt><trkpt lat="45.5127183" lon="11.6263983"><ele>32.0</ele><time>2026-03-28T08:20:32.08Z</time></trkpt><trkpt lat="45.5127717" lon="11.626185"><ele>32.0</ele><time>2026-03-28T08:20:33.08Z</time></trkpt><trkpt lat="45.5128167" lon="11.6259617"><ele>32.0</ele><time>2026-03-28T08:20:34.079Z</time></trkpt><trkpt lat="45.5128417" lon="11.6257267"><ele>30.666666666666664</ele><time>2026-03-28T08:20:35.08Z</time></trkpt><trkpt lat="45.5128467" lon="11.62549"><ele>29.333333333333336</ele><time>2026-03-28T08:20:36.079Z</time></trkpt><trkpt lat="45.51284" lon="11.625245"><ele>28.0</ele><time>2026-03-28T08:20:37.08Z</time></trkpt><trkpt lat="45.5128217" lon="11.6250133"><ele>28.0</ele><time>2026-03-28T08:20:38.08Z</time></trkpt><trkpt lat="45.51279" lon="11.6247883"><ele>28.0</ele><time>2026-03-28T08:20:39.08Z</time></trkpt><trkpt lat="45.5127433" lon="11.624565"><ele>28.0</ele><time>2026-03-28T08:20:40.08Z</time></trkpt><trkpt lat="45.51268" lon="11.62434"><ele>28.333333333333336</ele><time>2026-03-28T08:20:41.08Z</time></trkpt><trkpt lat="45.5126067" lon="11.6241333"><ele>28.666666666666664</ele><time>2026-03-28T08:20:42.08Z</time></trkpt><trkpt lat="45.51252" lon="11.6239283"><ele>29.0</ele><time>2026-03-28T08:20:43.08Z</time></trkpt><trkpt lat="45.5124167" lon="11.6237333"><ele>29.333333333333332</ele><time>2026-03-28T08:20:44.079Z</time></trkpt><trkpt lat="45.512305" lon="11.6235383"><ele>29.666666666666664</ele><time>2026-03-28T08:20:45.08Z</time></trkpt><trkpt lat="45.5121917" lon="11.6233583"><ele>30.0</ele><time>2026-03-28T08:20:46.08Z</time></trkpt><trkpt lat="45.5120867" lon="11.6231717"><ele>29.666666666666664</ele><time>2026-03-28T08:20:47.079Z</time></trkpt><trkpt lat="45.5119767" lon="11.6229733"><ele>29.333333333333332</ele><time>2026-03-28T08:20:48.08Z</time></trkpt><trkpt lat="45.5118783" lon="11.622755"><ele>29.0</ele><time>2026-03-28T08:20:49.079Z</time></trkpt><trkpt lat="45.5117917" lon="11.6225283"><ele>27.0</ele><time>2026-03-28T08:20:50.08Z</time></trkpt><trkpt lat="45.5117267" lon="11.6222833"><ele>25.0</ele><time>2026-03-28T08:20:51.08Z</time></trkpt><trkpt lat="45.5116733" lon="11.62203"><ele>23.0</ele><time>2026-03-28T08:20:52.079Z</time></trkpt><trkpt lat="45.5116217" lon="11.6217817"><ele>22.333333333333336</ele><time>2026-03-28T08:20:53.079Z</time></trkpt><trkpt lat="45.5115817" lon="11.6215117"><ele>21.666666666666668</ele><time>2026-03-28T08:20:54.08Z</time></trkpt><trkpt lat="45.511555" lon="11.621225"><ele>21.0</ele><time>2026-03-28T08:20:55.079Z</time></trkpt><trkpt lat="45.5115317" lon="11.620945"><ele>22.333333333333336</ele><time>2026-03-28T08:20:56.079Z</time></trkpt><trkpt lat="45.511515" lon="11.6206683"><ele>23.666666666666668</ele><time>2026-03-28T08:20:57.08Z</time></trkpt><trkpt lat="45.5115" lon="11.620395"><ele>25.0</ele><time>2026-03-28T08:20:58.08Z</time></trkpt><trkpt lat="45.5114783" lon="11.6201417"><ele>25.333333333333336</ele><time>2026-03-28T08:20:59.08Z</time></trkpt><trkpt lat="45.5114583" lon="11.6198833"><ele>25.666666666666664</ele><time>2026-03-28T08:21:00.08Z</time></trkpt><trkpt lat="45.5114367" lon="11.6196517"><ele>26.0</ele><time>2026-03-28T08:21:01.08Z</time></trkpt><trkpt lat="45.5114" lon="11.6194067"><ele>25.333333333333332</ele><time>2026-03-28T08:21:02.08Z</time></trkpt><trkpt lat="45.5113383" lon="11.61918"><ele>24.666666666666664</ele><time>2026-03-28T08:21:03.08Z</time></trkpt><trkpt lat="45.5112833" lon="11.61898"><ele>24.0</ele><time>2026-03-28T08:21:04.08Z</time></trkpt><trkpt lat="45.5112217" lon="11.6187867"><ele>24.75</ele><time>2026-03-28T08:21:05.08Z</time></trkpt><trkpt lat="45.5111517" lon="11.618595"><ele>25.5</ele><time>2026-03-28T08:21:06.08Z</time></trkpt><trkpt lat="45.5110933" lon="11.618415"><ele>26.25</ele><time>2026-03-28T08:21:07.08Z</time></trkpt><trkpt lat="45.5110183" lon="11.61823"><ele>27.0</ele><time>2026-03-28T08:21:08.08Z</time></trkpt><trkpt lat="45.5109183" lon="11.6180567"><ele>27.0</ele><time>2026-03-28T08:21:09.079Z</time></trkpt><trkpt lat="45.5108117" lon="11.6178817"><ele>27.0</ele><time>2026-03-28T08:21:10.08Z</time></trkpt><trkpt lat="45.510705" lon="11.6177083"><ele>27.0</ele><time>2026-03-28T08:21:11.079Z</time></trkpt><trkpt lat="45.5105933" lon="11.617535"><ele>27.0</ele><time>2026-03-28T08:21:12.08Z</time></trkpt><trkpt lat="45.51047" lon="11.6173433"><ele>27.0</ele><time>2026-03-28T08:21:13.08Z</time></trkpt><trkpt lat="45.5103583" lon="11.617165"><ele>27.0</ele><time>2026-03-28T08:21:14.079Z</time></trkpt><trkpt lat="45.5102483" lon="11.616995"><ele>26.333333333333336</ele><time>2026-03-28T08:21:15.08Z</time></trkpt><trkpt lat="45.5101417" lon="11.6168183"><ele>25.666666666666668</ele><time>2026-03-28T08:21:16.079Z</time></trkpt><trkpt lat="45.51003" lon="11.6166483"><ele>25.0</ele><time>2026-03-28T08:21:17.079Z</time></trkpt><trkpt lat="45.5099233" lon="11.61648"><ele>25.0</ele><time>2026-03-28T08:21:18.08Z</time></trkpt><trkpt lat="45.5098167" lon="11.616325"><ele>25.0</ele><time>2026-03-28T08:21:19.08Z</time></trkpt><trkpt lat="45.509725" lon="11.6161817"><ele>25.0</ele><time>2026-03-28T08:21:20.08Z</time></trkpt><trkpt lat="45.5096283" lon="11.6160383"><ele>25.0</ele><time>2026-03-28T08:21:21.08Z</time></trkpt><trkpt lat="45.5095283" lon="11.6158817"><ele>25.25</ele><time>2026-03-28T08:21:22.079Z</time></trkpt><trkpt lat="45.5094367" lon="11.6157317"><ele>25.5</ele><time>2026-03-28T08:21:23.08Z</time></trkpt><trkpt lat="45.509335" lon="11.6155817"><ele>25.75</ele><time>2026-03-28T08:21:24.08Z</time></trkpt><trkpt lat="45.509235" lon="11.6154333"><ele>26.0</ele><time>2026-03-28T08:21:25.08Z</time></trkpt><trkpt lat="45.5091367" lon="11.6152817"><ele>26.333333333333332</ele><time>2026-03-28T08:21:26.08Z</time></trkpt><trkpt lat="45.5090333" lon="11.6151233"><ele>26.666666666666664</ele><time>2026-03-28T08:21:27.08Z</time></trkpt><trkpt lat="45.5089283" lon="11.614955"><ele>27.0</ele><time>2026-03-28T08:21:28.08Z</time></trkpt><trkpt lat="45.5088267" lon="11.6147783"><ele>26.333333333333336</ele><time>2026-03-28T08:21:29.08Z</time></trkpt><trkpt lat="45.5087317" lon="11.614595"><ele>25.666666666666668</ele><time>2026-03-28T08:21:30.079Z</time></trkpt><trkpt lat="45.5086517" lon="11.6144017"><ele>25.0</ele><time>2026-03-28T08:21:31.08Z</time></trkpt><trkpt lat="45.508595" lon="11.6141933"><ele>25.0</ele><time>2026-03-28T08:21:32.08Z</time></trkpt><trkpt lat="45.50855" lon="11.6139933"><ele>25.0</ele><time>2026-03-28T08:21:33.08Z</time></trkpt><trkpt lat="45.508525" lon="11.613775"><ele>25.0</ele><time>2026-03-28T08:21:34.08Z</time></trkpt><trkpt lat="45.5085167" lon="11.6135467"><ele>25.666666666666668</ele><time>2026-03-28T08:21:35.08Z</time></trkpt><trkpt lat="45.5085283" lon="11.6133033"><ele>26.333333333333336</ele><time>2026-03-28T08:21:36.079Z</time></trkpt><trkpt lat="45.5085483" lon="11.6130617"><ele>27.0</ele><time>2026-03-28T08:21:37.08Z</time></trkpt><trkpt lat="45.5085867" lon="11.6128383"><ele>27.333333333333336</ele><time>2026-03-28T08:21:38.079Z</time></trkpt><trkpt lat="45.5086383" lon="11.612625"><ele>27.666666666666668</ele><time>2026-03-28T08:21:39.08Z</time></trkpt><trkpt lat="45.508695" lon="11.6124217"><ele>28.0</ele><time>2026-03-28T08:21:40.08Z</time></trkpt><trkpt lat="45.50876" lon="11.6122083"><ele>28.333333333333336</ele><time>2026-03-28T08:21:41.08Z</time></trkpt><trkpt lat="45.508815" lon="11.6120033"><ele>28.666666666666664</ele><time>2026-03-28T08:21:42.08Z</time></trkpt><trkpt lat="45.5088733" lon="11.6117767"><ele>29.0</ele><time>2026-03-28T08:21:43.08Z</time></trkpt><trkpt lat="45.5089367" lon="11.611555"><ele>28.333333333333332</ele><time>2026-03-28T08:21:44.079Z</time></trkpt><trkpt lat="45.5090067" lon="11.611335"><ele>27.666666666666664</ele><time>2026-03-28T08:21:45.079Z</time></trkpt><trkpt lat="45.5090783" lon="11.6111217"><ele>27.0</ele><time>2026-03-28T08:21:46.079Z</time></trkpt><trkpt lat="45.50914" lon="11.6109"><ele>27.0</ele><time>2026-03-28T08:21:47.08Z</time></trkpt><trkpt lat="45.50921" lon="11.6106767"><ele>27.0</ele><time>2026-03-28T08:21:48.079Z</time></trkpt><trkpt lat="45.5092767" lon="11.61045"><ele>27.0</ele><time>2026-03-28T08:21:49.08Z</time></trkpt><trkpt lat="45.509345" lon="11.6102167"><ele>27.0</ele><time>2026-03-28T08:21:50.08Z</time></trkpt><trkpt lat="45.50941" lon="11.6099867"><ele>27.0</ele><time>2026-03-28T08:21:51.079Z</time></trkpt><trkpt lat="45.5094833" lon="11.6097533"><ele>27.0</ele><time>2026-03-28T08:21:52.079Z</time></trkpt><trkpt lat="45.5095467" lon="11.6095233"><ele>26.666666666666664</ele><time>2026-03-28T08:21:53.079Z</time></trkpt><trkpt lat="45.509615" lon="11.6092917"><ele>26.333333333333332</ele><time>2026-03-28T08:21:54.08Z</time></trkpt><trkpt lat="45.5096767" lon="11.6090683"><ele>26.0</ele><time>2026-03-28T08:21:55.08Z</time></trkpt><trkpt lat="45.5097367" lon="11.60885"><ele>26.333333333333332</ele><time>2026-03-28T08:21:56.079Z</time></trkpt><trkpt lat="45.5098033" lon="11.6086367"><ele>26.666666666666664</ele><time>2026-03-28T08:21:57.079Z</time></trkpt><trkpt lat="45.50987" lon="11.6084133"><ele>27.0</ele><time>2026-03-28T08:21:58.08Z</time></trkpt><trkpt lat="45.5099317" lon="11.6081967"><ele>27.0</ele><time>2026-03-28T08:21:59.079Z</time></trkpt><trkpt lat="45.5099983" lon="11.6079783"><ele>27.0</ele><time>2026-03-28T08:22:00.08Z</time></trkpt><trkpt lat="45.510055" lon="11.607765"><ele>27.0</ele><time>2026-03-28T08:22:01.08Z</time></trkpt><trkpt lat="45.5101217" lon="11.60757"><ele>27.0</ele><time>2026-03-28T08:22:02.08Z</time></trkpt><trkpt lat="45.5101783" lon="11.6073583"><ele>27.0</ele><time>2026-03-28T08:22:03.08Z</time></trkpt><trkpt lat="45.51024" lon="11.6071683"><ele>27.0</ele><time>2026-03-28T08:22:04.08Z</time></trkpt><trkpt lat="45.5102983" lon="11.6069733"><ele>27.0</ele><time>2026-03-28T08:22:05.08Z</time></trkpt><trkpt lat="45.5103567" lon="11.6067783"><ele>27.0</ele><time>2026-03-28T08:22:06.08Z</time></trkpt><trkpt lat="45.5104233" lon="11.60658"><ele>27.0</ele><time>2026-03-28T08:22:07.08Z</time></trkpt><trkpt lat="45.5104833" lon="11.6063817"><ele>27.0</ele><time>2026-03-28T08:22:08.08Z</time></trkpt><trkpt lat="45.510555" lon="11.606165"><ele>27.0</ele><time>2026-03-28T08:22:09.08Z</time></trkpt><trkpt lat="45.510615" lon="11.6059433"><ele>27.0</ele><time>2026-03-28T08:22:10.08Z</time></trkpt><trkpt lat="45.51068" lon="11.6057283"><ele>27.0</ele><time>2026-03-28T08:22:11.08Z</time></trkpt><trkpt lat="45.5107483" lon="11.6055033"><ele>27.0</ele><time>2026-03-28T08:22:12.08Z</time></trkpt><trkpt lat="45.5108117" lon="11.605265"><ele>27.0</ele><time>2026-03-28T08:22:13.08Z</time></trkpt><trkpt lat="45.5108883" lon="11.6050417"><ele>27.0</ele><time>2026-03-28T08:22:14.079Z</time></trkpt><trkpt lat="45.5109717" lon="11.60482"><ele>27.0</ele><time>2026-03-28T08:22:15.079Z</time></trkpt><trkpt lat="45.5110667" lon="11.6046083"><ele>27.0</ele><time>2026-03-28T08:22:16.08Z</time></trkpt><trkpt lat="45.51118" lon="11.6044183"><ele>27.333333333333336</ele><time>2026-03-28T08:22:17.079Z</time></trkpt><trkpt lat="45.5113033" lon="11.6042417"><ele>27.666666666666668</ele><time>2026-03-28T08:22:18.08Z</time></trkpt><trkpt lat="45.511435" lon="11.6040867"><ele>28.0</ele><time>2026-03-28T08:22:19.08Z</time></trkpt><trkpt lat="45.5115767" lon="11.6039633"><ele>28.0</ele><time>2026-03-28T08:22:20.079Z</time></trkpt><trkpt lat="45.5117233" lon="11.6038617"><ele>28.0</ele><time>2026-03-28T08:22:21.08Z</time></trkpt><trkpt lat="45.5118733" lon="11.6037617"><ele>28.0</ele><time>2026-03-28T08:22:22.08Z</time></trkpt><trkpt lat="45.5120267" lon="11.6036717"><ele>28.0</ele><time>2026-03-28T08:22:23.08Z</time></trkpt><trkpt lat="45.5121817" lon="11.603575"><ele>28.0</ele><time>2026-03-28T08:22:24.08Z</time></trkpt><trkpt lat="45.5123317" lon="11.60348"><ele>28.0</ele><time>2026-03-28T08:22:25.08Z</time></trkpt><trkpt lat="45.5124867" lon="11.6033917"><ele>28.0</ele><time>2026-03-28T08:22:26.08Z</time></trkpt><trkpt lat="45.51264" lon="11.6032817"><ele>28.0</ele><time>2026-03-28T08:22:27.08Z</time></trkpt><trkpt lat="45.5128" lon="11.60315"><ele>28.0</ele><time>2026-03-28T08:22:28.079Z</time></trkpt><trkpt lat="45.5129567" lon="11.6029867"><ele>28.333333333333336</ele><time>2026-03-28T08:22:29.08Z</time></trkpt><trkpt lat="45.5131033" lon="11.6027867"><ele>28.666666666666664</ele><time>2026-03-28T08:22:30.08Z</time></trkpt><trkpt lat="45.5132367" lon="11.6025683"><ele>29.0</ele><time>2026-03-28T08:22:31.08Z</time></trkpt><trkpt lat="45.5133583" lon="11.6023283"><ele>29.0</ele><time>2026-03-28T08:22:32.08Z</time></trkpt><trkpt lat="45.51346" lon="11.602065"><ele>29.0</ele><time>2026-03-28T08:22:33.08Z</time></trkpt><trkpt lat="45.5135467" lon="11.6017683"><ele>29.0</ele><time>2026-03-28T08:22:34.079Z</time></trkpt><trkpt lat="45.5136067" lon="11.6014483"><ele>29.5</ele><time>2026-03-28T08:22:35.081Z</time></trkpt><trkpt lat="45.51366" lon="11.6011267"><ele>30.0</ele><time>2026-03-28T08:22:36.081Z</time></trkpt><trkpt lat="45.5137033" lon="11.600795"><ele>30.0</ele><time>2026-03-28T08:22:37.08Z</time></trkpt><trkpt lat="45.5137517" lon="11.6004733"><ele>30.0</ele><time>2026-03-28T08:22:38.081Z</time></trkpt><trkpt lat="45.5138083" lon="11.600145"><ele>30.0</ele><time>2026-03-28T08:22:39.081Z</time></trkpt><trkpt lat="45.513865" lon="11.5998167"><ele>30.0</ele><time>2026-03-28T08:22:40.08Z</time></trkpt><trkpt lat="45.5139167" lon="11.5994783"><ele>30.0</ele><time>2026-03-28T08:22:41.081Z</time></trkpt><trkpt lat="45.5139617" lon="11.5991367"><ele>30.0</ele><time>2026-03-28T08:22:42.081Z</time></trkpt><trkpt lat="45.5139883" lon="11.598785"><ele>28.5</ele><time>2026-03-28T08:22:43.081Z</time></trkpt><trkpt lat="45.514" lon="11.5984283"><ele>27.0</ele><time>2026-03-28T08:22:44.081Z</time></trkpt><trkpt lat="45.513975" lon="11.5980617"><ele>26.5</ele><time>2026-03-28T08:22:45.08Z</time></trkpt><trkpt lat="45.5139217" lon="11.59771"><ele>26.0</ele><time>2026-03-28T08:22:46.08Z</time></trkpt><trkpt lat="45.5138583" lon="11.5973683"><ele>26.0</ele><time>2026-03-28T08:22:47.081Z</time></trkpt><trkpt lat="45.51379" lon="11.597035"><ele>26.0</ele><time>2026-03-28T08:22:48.08Z</time></trkpt><trkpt lat="45.513735" lon="11.5966983"><ele>26.0</ele><time>2026-03-28T08:22:49.08Z</time></trkpt><trkpt lat="45.5137017" lon="11.5963583"><ele>26.0</ele><time>2026-03-28T08:22:50.08Z</time></trkpt><trkpt lat="45.5136867" lon="11.59601"><ele>26.0</ele><time>2026-03-28T08:22:51.081Z</time></trkpt><trkpt lat="45.5137067" lon="11.5956717"><ele>26.0</ele><time>2026-03-28T08:22:52.081Z</time></trkpt><trkpt lat="45.5137717" lon="11.5953417"><ele>26.333333333333332</ele><time>2026-03-28T08:22:53.08Z</time></trkpt><trkpt lat="45.51385" lon="11.5950283"><ele>26.666666666666664</ele><time>2026-03-28T08:22:54.081Z</time></trkpt><trkpt lat="45.5139217" lon="11.594745"><ele>27.0</ele><time>2026-03-28T08:22:55.081Z</time></trkpt><trkpt lat="45.514" lon="11.5944883"><ele>27.0</ele><time>2026-03-28T08:22:56.08Z</time></trkpt><trkpt lat="45.5140717" lon="11.594255"><ele>27.0</ele><time>2026-03-28T08:22:57.081Z</time></trkpt><trkpt lat="45.51414" lon="11.5940317"><ele>27.0</ele><time>2026-03-28T08:22:58.081Z</time></trkpt><trkpt lat="45.5142083" lon="11.5938117"><ele>27.0</ele><time>2026-03-28T08:22:59.08Z</time></trkpt><trkpt lat="45.5142733" lon="11.59359"><ele>27.0</ele><time>2026-03-28T08:23:00.081Z</time></trkpt><trkpt lat="45.5143367" lon="11.5933633"><ele>27.0</ele><time>2026-03-28T08:23:01.081Z</time></trkpt><trkpt lat="45.5144033" lon="11.5931433"><ele>27.0</ele><time>2026-03-28T08:23:02.08Z</time></trkpt><trkpt lat="45.514465" lon="11.592935"><ele>27.0</ele><time>2026-03-28T08:23:03.081Z</time></trkpt><trkpt lat="45.5145233" lon="11.5927167"><ele>27.0</ele><time>2026-03-28T08:23:04.081Z</time></trkpt><trkpt lat="45.514585" lon="11.5924867"><ele>26.333333333333336</ele><time>2026-03-28T08:23:05.081Z</time></trkpt><trkpt lat="45.5146517" lon="11.5922533"><ele>25.666666666666668</ele><time>2026-03-28T08:23:06.08Z</time></trkpt><trkpt lat="45.5147267" lon="11.5920117"><ele>25.0</ele><time>2026-03-28T08:23:07.081Z</time></trkpt><trkpt lat="45.514805" lon="11.591755"><ele>25.0</ele><time>2026-03-28T08:23:08.081Z</time></trkpt><trkpt lat="45.514885" lon="11.591475"><ele>25.0</ele><time>2026-03-28T08:23:09.081Z</time></trkpt><trkpt lat="45.514975" lon="11.5911833"><ele>25.0</ele><time>2026-03-28T08:23:10.081Z</time></trkpt><trkpt lat="45.5150683" lon="11.5908817"><ele>25.333333333333336</ele><time>2026-03-28T08:23:11.08Z</time></trkpt><trkpt lat="45.5151417" lon="11.5905917"><ele>25.666666666666664</ele><time>2026-03-28T08:23:12.081Z</time></trkpt><trkpt lat="45.515225" lon="11.5903"><ele>26.0</ele><time>2026-03-28T08:23:13.08Z</time></trkpt><trkpt lat="45.5153017" lon="11.5900067"><ele>26.5</ele><time>2026-03-28T08:23:14.081Z</time></trkpt><trkpt lat="45.51539" lon="11.5897033"><ele>27.0</ele><time>2026-03-28T08:23:15.08Z</time></trkpt><trkpt lat="45.5154733" lon="11.5894033"><ele>27.5</ele><time>2026-03-28T08:23:16.081Z</time></trkpt><trkpt lat="45.515565" lon="11.5890933"><ele>28.0</ele><time>2026-03-28T08:23:17.081Z</time></trkpt><trkpt lat="45.5156533" lon="11.5887767"><ele>28.0</ele><time>2026-03-28T08:23:18.081Z</time></trkpt><trkpt lat="45.5157483" lon="11.5884417"><ele>28.0</ele><time>2026-03-28T08:23:19.081Z</time></trkpt><trkpt lat="45.5158483" lon="11.5881017"><ele>27.5</ele><time>2026-03-28T08:23:20.081Z</time></trkpt><trkpt lat="45.5159467" lon="11.5877583"><ele>27.0</ele><time>2026-03-28T08:23:21.081Z</time></trkpt><trkpt lat="45.5160467" lon="11.5874067"><ele>27.0</ele><time>2026-03-28T08:23:22.08Z</time></trkpt><trkpt lat="45.51615" lon="11.58705"><ele>27.0</ele><time>2026-03-28T08:23:23.08Z</time></trkpt><trkpt lat="45.516255" lon="11.5866983"><ele>27.5</ele><time>2026-03-28T08:23:24.08Z</time></trkpt><trkpt lat="45.5163583" lon="11.5863583"><ele>28.0</ele><time>2026-03-28T08:23:25.081Z</time></trkpt><trkpt lat="45.5164633" lon="11.586025"><ele>29.0</ele><time>2026-03-28T08:23:26.081Z</time></trkpt><trkpt lat="45.5165617" lon="11.5857067"><ele>30.0</ele><time>2026-03-28T08:23:27.081Z</time></trkpt><trkpt lat="45.51666" lon="11.5853933"><ele>30.0</ele><time>2026-03-28T08:23:28.081Z</time></trkpt><trkpt lat="45.5167517" lon="11.5850983"><ele>30.0</ele><time>2026-03-28T08:23:29.081Z</time></trkpt><trkpt lat="45.5168383" lon="11.58481"><ele>30.0</ele><time>2026-03-28T08:23:30.081Z</time></trkpt><trkpt lat="45.5169217" lon="11.584525"><ele>29.0</ele><time>2026-03-28T08:23:31.081Z</time></trkpt><trkpt lat="45.516995" lon="11.5842433"><ele>28.0</ele><time>2026-03-28T08:23:32.08Z</time></trkpt><trkpt lat="45.5170567" lon="11.583955"><ele>27.0</ele><time>2026-03-28T08:23:33.081Z</time></trkpt><trkpt lat="45.5171133" lon="11.5836617"><ele>26.666666666666664</ele><time>2026-03-28T08:23:34.08Z</time></trkpt><trkpt lat="45.517165" lon="11.583365"><ele>26.333333333333332</ele><time>2026-03-28T08:23:35.08Z</time></trkpt><trkpt lat="45.5172167" lon="11.58306"><ele>26.0</ele><time>2026-03-28T08:23:36.081Z</time></trkpt><trkpt lat="45.5172667" lon="11.582755"><ele>26.0</ele><time>2026-03-28T08:23:37.081Z</time></trkpt><trkpt lat="45.517315" lon="11.5824433"><ele>26.0</ele><time>2026-03-28T08:23:38.081Z</time></trkpt><trkpt lat="45.5173483" lon="11.582135"><ele>26.0</ele><time>2026-03-28T08:23:39.081Z</time></trkpt><trkpt lat="45.51738" lon="11.58182"><ele>26.0</ele><time>2026-03-28T08:23:40.081Z</time></trkpt><trkpt lat="45.517405" lon="11.5814967"><ele>26.0</ele><time>2026-03-28T08:23:41.081Z</time></trkpt><trkpt lat="45.5174267" lon="11.5811767"><ele>26.0</ele><time>2026-03-28T08:23:42.081Z</time></trkpt><trkpt lat="45.5174433" lon="11.58085"><ele>26.0</ele><time>2026-03-28T08:23:43.081Z</time></trkpt><trkpt lat="45.5174533" lon="11.58053"><ele>26.5</ele><time>2026-03-28T08:23:44.08Z</time></trkpt><trkpt lat="45.5174583" lon="11.5802033"><ele>27.0</ele><time>2026-03-28T08:23:45.081Z</time></trkpt><trkpt lat="45.51746" lon="11.5798767"><ele>27.0</ele><time>2026-03-28T08:23:46.081Z</time></trkpt><trkpt lat="45.5174533" lon="11.5795533"><ele>27.0</ele><time>2026-03-28T08:23:47.08Z</time></trkpt><trkpt lat="45.5174383" lon="11.5792317"><ele>27.0</ele><time>2026-03-28T08:23:48.08Z</time></trkpt><trkpt lat="45.5174217" lon="11.5789033"><ele>27.0</ele><time>2026-03-28T08:23:49.081Z</time></trkpt><trkpt lat="45.5173983" lon="11.5785767"><ele>27.0</ele><time>2026-03-28T08:23:50.08Z</time></trkpt><trkpt lat="45.517375" lon="11.5782483"><ele>27.0</ele><time>2026-03-28T08:23:51.081Z</time></trkpt><trkpt lat="45.517355" lon="11.57792"><ele>26.0</ele><time>2026-03-28T08:23:52.08Z</time></trkpt><trkpt lat="45.51733" lon="11.5775917"><ele>25.0</ele><time>2026-03-28T08:23:53.081Z</time></trkpt><trkpt lat="45.5173083" lon="11.5772583"><ele>25.5</ele><time>2026-03-28T08:23:54.081Z</time></trkpt><trkpt lat="45.517285" lon="11.57692"><ele>26.0</ele><time>2026-03-28T08:23:55.08Z</time></trkpt><trkpt lat="45.5172617" lon="11.5765883"><ele>26.0</ele><time>2026-03-28T08:23:56.081Z</time></trkpt><trkpt lat="45.51724" lon="11.576265"><ele>26.0</ele><time>2026-03-28T08:23:57.081Z</time></trkpt><trkpt lat="45.5172183" lon="11.5759433"><ele>25.666666666666664</ele><time>2026-03-28T08:23:58.081Z</time></trkpt><trkpt lat="45.5171967" lon="11.57563"><ele>25.333333333333336</ele><time>2026-03-28T08:23:59.08Z</time></trkpt><trkpt lat="45.51717" lon="11.5753217"><ele>25.0</ele><time>2026-03-28T08:24:00.08Z</time></trkpt><trkpt lat="45.5171483" lon="11.57501"><ele>25.0</ele><time>2026-03-28T08:24:01.081Z</time></trkpt><trkpt lat="45.5171267" lon="11.5747033"><ele>25.0</ele><time>2026-03-28T08:24:02.08Z</time></trkpt><trkpt lat="45.5171067" lon="11.574405"><ele>25.0</ele><time>2026-03-28T08:24:03.08Z</time></trkpt><trkpt lat="45.5170917" lon="11.57411"><ele>26.333333333333336</ele><time>2026-03-28T08:24:04.08Z</time></trkpt><trkpt lat="45.5170683" lon="11.5738117"><ele>27.666666666666664</ele><time>2026-03-28T08:24:05.081Z</time></trkpt><trkpt lat="45.5170483" lon="11.5735133"><ele>29.0</ele><time>2026-03-28T08:24:06.081Z</time></trkpt><trkpt lat="45.5170217" lon="11.5732183"><ele>29.0</ele><time>2026-03-28T08:24:07.08Z</time></trkpt><trkpt lat="45.516995" lon="11.572925"><ele>29.0</ele><time>2026-03-28T08:24:08.081Z</time></trkpt><trkpt lat="45.5169733" lon="11.572625"><ele>29.0</ele><time>2026-03-28T08:24:09.081Z</time></trkpt><trkpt lat="45.5169583" lon="11.572325"><ele>29.666666666666664</ele><time>2026-03-28T08:24:10.081Z</time></trkpt><trkpt lat="45.51694" lon="11.5720233"><ele>30.333333333333336</ele><time>2026-03-28T08:24:11.081Z</time></trkpt><trkpt lat="45.51692" lon="11.571715"><ele>31.0</ele><time>2026-03-28T08:24:12.08Z</time></trkpt><trkpt lat="45.516905" lon="11.5714067"><ele>31.0</ele><time>2026-03-28T08:24:13.08Z</time></trkpt><trkpt lat="45.51688" lon="11.571095"><ele>31.0</ele><time>2026-03-28T08:24:14.081Z</time></trkpt><trkpt lat="45.5168567" lon="11.5707783"><ele>31.0</ele><time>2026-03-28T08:24:15.08Z</time></trkpt><trkpt lat="45.51683" lon="11.5704567"><ele>31.0</ele><time>2026-03-28T08:24:16.081Z</time></trkpt><trkpt lat="45.5168" lon="11.5701317"><ele>31.0</ele><time>2026-03-28T08:24:17.081Z</time></trkpt><trkpt lat="45.5167783" lon="11.5698017"><ele>31.0</ele><time>2026-03-28T08:24:18.08Z</time></trkpt><trkpt lat="45.51675" lon="11.5694683"><ele>31.0</ele><time>2026-03-28T08:24:19.081Z</time></trkpt><trkpt lat="45.5167133" lon="11.5691417"><ele>31.0</ele><time>2026-03-28T08:24:20.08Z</time></trkpt><trkpt lat="45.5166767" lon="11.5688133"><ele>31.0</ele><time>2026-03-28T08:24:21.081Z</time></trkpt><trkpt lat="45.5166367" lon="11.568495"><ele>30.333333333333336</ele><time>2026-03-28T08:24:22.081Z</time></trkpt><trkpt lat="45.5166" lon="11.5681833"><ele>29.666666666666664</ele><time>2026-03-28T08:24:23.081Z</time></trkpt><trkpt lat="45.5165617" lon="11.5678767"><ele>29.0</ele><time>2026-03-28T08:24:24.081Z</time></trkpt><trkpt lat="45.51652" lon="11.56757"><ele>29.0</ele><time>2026-03-28T08:24:25.081Z</time></trkpt><trkpt lat="45.5164833" lon="11.56727"><ele>29.0</ele><time>2026-03-28T08:24:26.081Z</time></trkpt><trkpt lat="45.5164433" lon="11.566965"><ele>29.0</ele><time>2026-03-28T08:24:27.081Z</time></trkpt><trkpt lat="45.5164067" lon="11.566665"><ele>29.0</ele><time>2026-03-28T08:24:28.081Z</time></trkpt><trkpt lat="45.5163667" lon="11.566365"><ele>29.0</ele><time>2026-03-28T08:24:29.08Z</time></trkpt><trkpt lat="45.5163517" lon="11.56605"><ele>29.0</ele><time>2026-03-28T08:24:30.081Z</time></trkpt><trkpt lat="45.5163483" lon="11.5657283"><ele>29.0</ele><time>2026-03-28T08:24:31.081Z</time></trkpt><trkpt lat="45.5163733" lon="11.565415"><ele>29.0</ele><time>2026-03-28T08:24:32.08Z</time></trkpt><trkpt lat="45.5164083" lon="11.5650917"><ele>29.5</ele><time>2026-03-28T08:24:33.081Z</time></trkpt><trkpt lat="45.5164567" lon="11.5647683"><ele>30.0</ele><time>2026-03-28T08:24:34.08Z</time></trkpt><trkpt lat="45.516515" lon="11.5644467"><ele>29.0</ele><time>2026-03-28T08:24:35.081Z</time></trkpt><trkpt lat="45.5165767" lon="11.5641217"><ele>28.0</ele><time>2026-03-28T08:24:36.081Z</time></trkpt><trkpt lat="45.5166317" lon="11.5637983"><ele>28.0</ele><time>2026-03-28T08:24:37.081Z</time></trkpt><trkpt lat="45.5166683" lon="11.5634717"><ele>28.0</ele><time>2026-03-28T08:24:38.08Z</time></trkpt><trkpt lat="45.5166767" lon="11.5631467"><ele>28.0</ele><time>2026-03-28T08:24:39.081Z</time></trkpt><trkpt lat="45.51667" lon="11.5628233"><ele>28.0</ele><time>2026-03-28T08:24:40.081Z</time></trkpt><trkpt lat="45.5166467" lon="11.5625033"><ele>28.0</ele><time>2026-03-28T08:24:41.081Z</time></trkpt><trkpt lat="45.516615" lon="11.56219"><ele>28.0</ele><time>2026-03-28T08:24:42.081Z</time></trkpt><trkpt lat="45.51656" lon="11.5618933"><ele>28.0</ele><time>2026-03-28T08:24:43.081Z</time></trkpt><trkpt lat="45.5165033" lon="11.561605"><ele>28.333333333333336</ele><time>2026-03-28T08:24:44.081Z</time></trkpt><trkpt lat="45.516445" lon="11.56132"><ele>28.666666666666664</ele><time>2026-03-28T08:24:45.081Z</time></trkpt><trkpt lat="45.5163883" lon="11.5610233"><ele>29.0</ele><time>2026-03-28T08:24:46.081Z</time></trkpt><trkpt lat="45.516335" lon="11.560735"><ele>29.0</ele><time>2026-03-28T08:24:47.081Z</time></trkpt><trkpt lat="45.5162867" lon="11.5604383"><ele>29.0</ele><time>2026-03-28T08:24:48.081Z</time></trkpt><trkpt lat="45.5162433" lon="11.5601383"><ele>29.0</ele><time>2026-03-28T08:24:49.081Z</time></trkpt><trkpt lat="45.5162067" lon="11.559835"><ele>29.666666666666664</ele><time>2026-03-28T08:24:50.081Z</time></trkpt><trkpt lat="45.5161733" lon="11.5595233"><ele>30.333333333333336</ele><time>2026-03-28T08:24:51.08Z</time></trkpt><trkpt lat="45.516145" lon="11.5592"><ele>31.0</ele><time>2026-03-28T08:24:52.081Z</time></trkpt><trkpt lat="45.5161233" lon="11.55888"><ele>31.5</ele><time>2026-03-28T08:24:53.081Z</time></trkpt><trkpt lat="45.5161083" lon="11.55856"><ele>32.0</ele><time>2026-03-28T08:24:54.08Z</time></trkpt><trkpt lat="45.5160983" lon="11.5582317"><ele>32.0</ele><time>2026-03-28T08:24:55.081Z</time></trkpt><trkpt lat="45.516095" lon="11.557905"><ele>32.0</ele><time>2026-03-28T08:24:56.08Z</time></trkpt><trkpt lat="45.5160983" lon="11.5575767"><ele>33.5</ele><time>2026-03-28T08:24:57.081Z</time></trkpt><trkpt lat="45.516105" lon="11.5572483"><ele>35.0</ele><time>2026-03-28T08:24:58.081Z</time></trkpt><trkpt lat="45.516115" lon="11.5569183"><ele>36.5</ele><time>2026-03-28T08:24:59.081Z</time></trkpt><trkpt lat="45.5161267" lon="11.5565917"><ele>38.0</ele><time>2026-03-28T08:25:00.081Z</time></trkpt><trkpt lat="45.5161383" lon="11.5562533"><ele>38.5</ele><time>2026-03-28T08:25:01.081Z</time></trkpt><trkpt lat="45.5161517" lon="11.555915"><ele>39.0</ele><time>2026-03-28T08:25:02.081Z</time></trkpt><trkpt lat="45.51616" lon="11.5555783"><ele>38.0</ele><time>2026-03-28T08:25:03.08Z</time></trkpt><trkpt lat="45.5161633" lon="11.5552417"><ele>37.0</ele><time>2026-03-28T08:25:04.08Z</time></trkpt><trkpt lat="45.5161633" lon="11.5549067"><ele>37.0</ele><time>2026-03-28T08:25:05.081Z</time></trkpt><trkpt lat="45.5161617" lon="11.5545683"><ele>37.0</ele><time>2026-03-28T08:25:06.08Z</time></trkpt><trkpt lat="45.5161567" lon="11.5542467"><ele>36.66666666666667</ele><time>2026-03-28T08:25:07.08Z</time></trkpt><trkpt lat="45.51615" lon="11.5539267"><ele>36.333333333333336</ele><time>2026-03-28T08:25:08.081Z</time></trkpt><trkpt lat="45.5161417" lon="11.55362"><ele>36.0</ele><time>2026-03-28T08:25:09.081Z</time></trkpt><trkpt lat="45.516135" lon="11.5533183"><ele>36.0</ele><time>2026-03-28T08:25:10.081Z</time></trkpt><trkpt lat="45.5161317" lon="11.5530167"><ele>36.0</ele><time>2026-03-28T08:25:11.08Z</time></trkpt><trkpt lat="45.516135" lon="11.55272"><ele>36.0</ele><time>2026-03-28T08:25:12.081Z</time></trkpt><trkpt lat="45.5161383" lon="11.5524167"><ele>36.333333333333336</ele><time>2026-03-28T08:25:13.081Z</time></trkpt><trkpt lat="45.5161467" lon="11.5521"><ele>36.66666666666667</ele><time>2026-03-28T08:25:14.081Z</time></trkpt><trkpt lat="45.5161567" lon="11.5517767"><ele>37.0</ele><time>2026-03-28T08:25:15.081Z</time></trkpt><trkpt lat="45.5161767" lon="11.5514483"><ele>39.0</ele><time>2026-03-28T08:25:16.081Z</time></trkpt><trkpt lat="45.5161967" lon="11.5511133"><ele>41.0</ele><time>2026-03-28T08:25:17.081Z</time></trkpt><trkpt lat="45.51622" lon="11.5507767"><ele>41.0</ele><time>2026-03-28T08:25:18.081Z</time></trkpt><trkpt lat="45.516235" lon="11.5504267"><ele>41.0</ele><time>2026-03-28T08:25:19.08Z</time></trkpt><trkpt lat="45.5162583" lon="11.5500717"><ele>50.0</ele><time>2026-03-28T08:25:20.08Z</time></trkpt><trkpt lat="45.51629" lon="11.5497233"><ele>59.0</ele><time>2026-03-28T08:25:21.081Z</time></trkpt><trkpt lat="45.5163167" lon="11.5493817"><ele>60.5</ele><time>2026-03-28T08:25:22.081Z</time></trkpt><trkpt lat="45.5163467" lon="11.5490583"><ele>62.0</ele><time>2026-03-28T08:25:23.081Z</time></trkpt><trkpt lat="45.5163717" lon="11.54874"><ele>67.0</ele><time>2026-03-28T08:25:24.081Z</time></trkpt><trkpt lat="45.5163983" lon="11.5484267"><ele>72.0</ele><time>2026-03-28T08:25:25.081Z</time></trkpt><trkpt lat="45.5164267" lon="11.5481233"><ele>77.0</ele><time>2026-03-28T08:25:26.081Z</time></trkpt><trkpt lat="45.5164667" lon="11.5478033"><ele>85.0</ele><time>2026-03-28T08:25:27.081Z</time></trkpt><trkpt lat="45.5165033" lon="11.5475"><ele>93.0</ele><time>2026-03-28T08:25:28.081Z</time></trkpt><trkpt lat="45.5165483" lon="11.5471983"><ele>101.0</ele><time>2026-03-28T08:25:29.08Z</time></trkpt><trkpt lat="45.5166167" lon="11.546915"><ele>109.0</ele><time>2026-03-28T08:25:30.081Z</time></trkpt><trkpt lat="45.5166617" lon="11.5466167"><ele>117.0</ele><time>2026-03-28T08:25:31.081Z</time></trkpt><trkpt lat="45.5167083" lon="11.546315"><ele>125.0</ele><time>2026-03-28T08:25:32.08Z</time></trkpt><trkpt lat="45.5167533" lon="11.5460067"><ele>133.5</ele><time>2026-03-28T08:25:33.081Z</time></trkpt><trkpt lat="45.516795" lon="11.5456967"><ele>142.0</ele><time>2026-03-28T08:25:34.081Z</time></trkpt><trkpt lat="45.51683" lon="11.545365"><ele>142.0</ele><time>2026-03-28T08:25:35.08Z</time></trkpt><trkpt lat="45.5168617" lon="11.54501"><ele>142.0</ele><time>2026-03-28T08:25:36.081Z</time></trkpt><trkpt lat="45.5168833" lon="11.54469"><ele>60.0</ele><time>2026-03-28T08:25:37.081Z</time></trkpt><trkpt lat="45.5168067" lon="11.5415233"><ele>52.5</ele><time>2026-03-28T08:25:46.084Z</time></trkpt><trkpt lat="45.516915" lon="11.5411867"><ele>45.0</ele><time>2026-03-28T08:25:47.083Z</time></trkpt><trkpt lat="45.516955" lon="11.5408183"><ele>45.0</ele><time>2026-03-28T08:25:48.084Z</time></trkpt><trkpt lat="45.5169883" lon="11.5404783"><ele>45.0</ele><time>2026-03-28T08:25:49.083Z</time></trkpt><trkpt lat="45.5170267" lon="11.5401567"><ele>43.333333333333336</ele><time>2026-03-28T08:25:50.084Z</time></trkpt><trkpt lat="45.517055" lon="11.539845"><ele>41.66666666666667</ele><time>2026-03-28T08:25:51.084Z</time></trkpt><trkpt lat="45.5170833" lon="11.53955"><ele>40.0</ele><time>2026-03-28T08:25:52.084Z</time></trkpt><trkpt lat="45.517115" lon="11.539255"><ele>39.333333333333336</ele><time>2026-03-28T08:25:53.083Z</time></trkpt><trkpt lat="45.5171417" lon="11.538955"><ele>38.666666666666664</ele><time>2026-03-28T08:25:54.084Z</time></trkpt><trkpt lat="45.5171717" lon="11.53865"><ele>38.0</ele><time>2026-03-28T08:25:55.084Z</time></trkpt><trkpt lat="45.5171967" lon="11.5383433"><ele>36.666666666666664</ele><time>2026-03-28T08:25:56.084Z</time></trkpt><trkpt lat="45.517215" lon="11.5380433"><ele>35.333333333333336</ele><time>2026-03-28T08:25:57.083Z</time></trkpt><trkpt lat="45.5172333" lon="11.537755"><ele>34.0</ele><time>2026-03-28T08:25:58.084Z</time></trkpt><trkpt lat="45.5172567" lon="11.5374583"><ele>33.333333333333336</ele><time>2026-03-28T08:25:59.084Z</time></trkpt><trkpt lat="45.517275" lon="11.5371683"><ele>32.666666666666664</ele><time>2026-03-28T08:26:00.084Z</time></trkpt><trkpt lat="45.5173017" lon="11.5368717"><ele>32.0</ele><time>2026-03-28T08:26:01.083Z</time></trkpt><trkpt lat="45.5173217" lon="11.53657"><ele>32.0</ele><time>2026-03-28T08:26:02.084Z</time></trkpt><trkpt lat="45.5173517" lon="11.53626"><ele>32.0</ele><time>2026-03-28T08:26:03.083Z</time></trkpt><trkpt lat="45.5173767" lon="11.535945"><ele>32.0</ele><time>2026-03-28T08:26:04.083Z</time></trkpt><trkpt lat="45.5174017" lon="11.5356217"><ele>40.0</ele><time>2026-03-28T08:26:05.083Z</time></trkpt><trkpt lat="45.51743" lon="11.5353"><ele>48.0</ele><time>2026-03-28T08:26:06.084Z</time></trkpt><trkpt lat="45.5174483" lon="11.53498"><ele>48.0</ele><time>2026-03-28T08:26:07.084Z</time></trkpt><trkpt lat="45.5174617" lon="11.53465"><ele>48.0</ele><time>2026-03-28T08:26:08.084Z</time></trkpt><trkpt lat="45.51748" lon="11.5343183"><ele>49.5</ele><time>2026-03-28T08:26:09.084Z</time></trkpt><trkpt lat="45.5175067" lon="11.5339867"><ele>51.0</ele><time>2026-03-28T08:26:10.083Z</time></trkpt><trkpt lat="45.5175367" lon="11.5336467"><ele>51.0</ele><time>2026-03-28T08:26:11.083Z</time></trkpt><trkpt lat="45.517545" lon="11.533295"><ele>51.0</ele><time>2026-03-28T08:26:12.084Z</time></trkpt><trkpt lat="45.5175533" lon="11.5329"><ele>42.0</ele><time>2026-03-28T08:26:13.084Z</time></trkpt><trkpt lat="45.5175983" lon="11.5325483"><ele>33.0</ele><time>2026-03-28T08:26:14.084Z</time></trkpt><trkpt lat="45.5176233" lon="11.5321717"><ele>31.5</ele><time>2026-03-28T08:26:15.083Z</time></trkpt><trkpt lat="45.5176367" lon="11.5317917"><ele>30.0</ele><time>2026-03-28T08:26:16.083Z</time></trkpt><trkpt lat="45.517665" lon="11.5314267"><ele>29.0</ele><time>2026-03-28T08:26:17.083Z</time></trkpt><trkpt lat="45.5177" lon="11.5310667"><ele>28.0</ele><time>2026-03-28T08:26:18.083Z</time></trkpt><trkpt lat="45.5177217" lon="11.5307083"><ele>29.0</ele><time>2026-03-28T08:26:19.083Z</time></trkpt><trkpt lat="45.51775" lon="11.530355"><ele>30.0</ele><time>2026-03-28T08:26:20.083Z</time></trkpt><trkpt lat="45.51778" lon="11.5300083"><ele>30.0</ele><time>2026-03-28T08:26:21.084Z</time></trkpt><trkpt lat="45.51781" lon="11.529665"><ele>30.0</ele><time>2026-03-28T08:26:22.084Z</time></trkpt><trkpt lat="45.5178417" lon="11.5293233"><ele>29.666666666666664</ele><time>2026-03-28T08:26:23.084Z</time></trkpt><trkpt lat="45.517875" lon="11.52901"><ele>29.333333333333332</ele><time>2026-03-28T08:26:24.084Z</time></trkpt><trkpt lat="45.5179133" lon="11.5286933"><ele>29.0</ele><time>2026-03-28T08:26:25.084Z</time></trkpt><trkpt lat="45.5179533" lon="11.52839"><ele>29.0</ele><time>2026-03-28T08:26:26.084Z</time></trkpt><trkpt lat="45.5179933" lon="11.5280967"><ele>29.0</ele><time>2026-03-28T08:26:27.084Z</time></trkpt><trkpt lat="45.5180283" lon="11.5278083"><ele>29.0</ele><time>2026-03-28T08:26:28.084Z</time></trkpt><trkpt lat="45.518075" lon="11.527525"><ele>28.666666666666664</ele><time>2026-03-28T08:26:29.084Z</time></trkpt><trkpt lat="45.5181167" lon="11.527245"><ele>28.333333333333336</ele><time>2026-03-28T08:26:30.084Z</time></trkpt><trkpt lat="45.5181567" lon="11.52697"><ele>28.0</ele><time>2026-03-28T08:26:31.084Z</time></trkpt><trkpt lat="45.5181933" lon="11.5266967"><ele>27.666666666666668</ele><time>2026-03-28T08:26:32.084Z</time></trkpt><trkpt lat="45.518225" lon="11.5264333"><ele>27.333333333333336</ele><time>2026-03-28T08:26:33.084Z</time></trkpt><trkpt lat="45.5182483" lon="11.52617"><ele>27.0</ele><time>2026-03-28T08:26:34.084Z</time></trkpt><trkpt lat="45.51827" lon="11.5259117"><ele>27.666666666666664</ele><time>2026-03-28T08:26:35.084Z</time></trkpt><trkpt lat="45.5182933" lon="11.52564"><ele>28.333333333333332</ele><time>2026-03-28T08:26:36.084Z</time></trkpt><trkpt lat="45.51832" lon="11.5253583"><ele>29.0</ele><time>2026-03-28T08:26:37.084Z</time></trkpt><trkpt lat="45.5183383" lon="11.5250683"><ele>29.0</ele><time>2026-03-28T08:26:38.084Z</time></trkpt><trkpt lat="45.5183633" lon="11.5247617"><ele>29.0</ele><time>2026-03-28T08:26:39.084Z</time></trkpt><trkpt lat="45.51838" lon="11.5244533"><ele>29.0</ele><time>2026-03-28T08:26:40.084Z</time></trkpt><trkpt lat="45.5184" lon="11.5241317"><ele>29.0</ele><time>2026-03-28T08:26:41.083Z</time></trkpt><trkpt lat="45.51842" lon="11.5237983"><ele>29.0</ele><time>2026-03-28T08:26:42.084Z</time></trkpt><trkpt lat="45.5184283" lon="11.523465"><ele>29.0</ele><time>2026-03-28T08:26:43.084Z</time></trkpt><trkpt lat="45.5184333" lon="11.5231267"><ele>29.0</ele><time>2026-03-28T08:26:44.084Z</time></trkpt><trkpt lat="45.5184367" lon="11.5227833"><ele>29.5</ele><time>2026-03-28T08:26:45.084Z</time></trkpt><trkpt lat="45.5184417" lon="11.52244"><ele>30.0</ele><time>2026-03-28T08:26:46.083Z</time></trkpt><trkpt lat="45.518445" lon="11.5220967"><ele>30.5</ele><time>2026-03-28T08:26:47.083Z</time></trkpt><trkpt lat="45.51844" lon="11.52176"><ele>31.0</ele><time>2026-03-28T08:26:48.084Z</time></trkpt><trkpt lat="45.5184383" lon="11.5214283"><ele>31.333333333333336</ele><time>2026-03-28T08:26:49.084Z</time></trkpt><trkpt lat="45.518435" lon="11.5211217"><ele>31.666666666666664</ele><time>2026-03-28T08:26:50.084Z</time></trkpt><trkpt lat="45.5184317" lon="11.5208317"><ele>32.0</ele><time>2026-03-28T08:26:51.083Z</time></trkpt><trkpt lat="45.518435" lon="11.5205483"><ele>31.666666666666664</ele><time>2026-03-28T08:26:52.084Z</time></trkpt><trkpt lat="45.51843" lon="11.5202683"><ele>31.333333333333336</ele><time>2026-03-28T08:26:53.084Z</time></trkpt><trkpt lat="45.5184267" lon="11.5199867"><ele>31.0</ele><time>2026-03-28T08:26:54.083Z</time></trkpt><trkpt lat="45.5184283" lon="11.5197033"><ele>30.0</ele><time>2026-03-28T08:26:55.084Z</time></trkpt><trkpt lat="45.518425" lon="11.5194283"><ele>29.0</ele><time>2026-03-28T08:26:56.084Z</time></trkpt><trkpt lat="45.518425" lon="11.5191417"><ele>28.0</ele><time>2026-03-28T08:26:57.083Z</time></trkpt><trkpt lat="45.5184317" lon="11.5188533"><ele>28.0</ele><time>2026-03-28T08:26:58.084Z</time></trkpt><trkpt lat="45.5184283" lon="11.5185567"><ele>28.0</ele><time>2026-03-28T08:26:59.084Z</time></trkpt><trkpt lat="45.5184217" lon="11.51827"><ele>28.0</ele><time>2026-03-28T08:27:00.083Z</time></trkpt><trkpt lat="45.5184183" lon="11.517975"><ele>28.0</ele><time>2026-03-28T08:27:01.084Z</time></trkpt><trkpt lat="45.5184117" lon="11.5176733"><ele>28.0</ele><time>2026-03-28T08:27:02.083Z</time></trkpt><trkpt lat="45.5184083" lon="11.5173667"><ele>28.0</ele><time>2026-03-28T08:27:03.083Z</time></trkpt><trkpt lat="45.5184067" lon="11.5170617"><ele>28.0</ele><time>2026-03-28T08:27:04.084Z</time></trkpt><trkpt lat="45.5184033" lon="11.5167567"><ele>28.0</ele><time>2026-03-28T08:27:05.084Z</time></trkpt><trkpt lat="45.5184017" lon="11.51645"><ele>28.0</ele><time>2026-03-28T08:27:06.083Z</time></trkpt><trkpt lat="45.5184033" lon="11.516145"><ele>28.333333333333336</ele><time>2026-03-28T08:27:07.084Z</time></trkpt><trkpt lat="45.5183983" lon="11.51583"><ele>28.666666666666664</ele><time>2026-03-28T08:27:08.084Z</time></trkpt><trkpt lat="45.518405" lon="11.51552"><ele>29.0</ele><time>2026-03-28T08:27:09.084Z</time></trkpt><trkpt lat="45.5184033" lon="11.5152083"><ele>29.0</ele><time>2026-03-28T08:27:10.084Z</time></trkpt><trkpt lat="45.5184017" lon="11.5149033"><ele>29.0</ele><time>2026-03-28T08:27:11.084Z</time></trkpt><trkpt lat="45.518395" lon="11.514595"><ele>29.0</ele><time>2026-03-28T08:27:12.084Z</time></trkpt><trkpt lat="45.5183933" lon="11.5142733"><ele>30.0</ele><time>2026-03-28T08:27:13.084Z</time></trkpt><trkpt lat="45.5183883" lon="11.513955"><ele>31.0</ele><time>2026-03-28T08:27:14.084Z</time></trkpt><trkpt lat="45.5183883" lon="11.5136383"><ele>32.0</ele><time>2026-03-28T08:27:15.084Z</time></trkpt><trkpt lat="45.51838" lon="11.5133233"><ele>32.0</ele><time>2026-03-28T08:27:16.083Z</time></trkpt><trkpt lat="45.51837" lon="11.5130033"><ele>32.0</ele><time>2026-03-28T08:27:17.084Z</time></trkpt><trkpt lat="45.51836" lon="11.51269"><ele>32.0</ele><time>2026-03-28T08:27:18.083Z</time></trkpt><trkpt lat="45.5183433" lon="11.5123833"><ele>32.0</ele><time>2026-03-28T08:27:19.084Z</time></trkpt><trkpt lat="45.518335" lon="11.5120933"><ele>32.0</ele><time>2026-03-28T08:27:20.084Z</time></trkpt><trkpt lat="45.51833" lon="11.5118167"><ele>32.0</ele><time>2026-03-28T08:27:21.083Z</time></trkpt><trkpt lat="45.5183317" lon="11.5115433"><ele>31.666666666666664</ele><time>2026-03-28T08:27:22.084Z</time></trkpt><trkpt lat="45.5183383" lon="11.5112867"><ele>31.333333333333336</ele><time>2026-03-28T08:27:23.084Z</time></trkpt><trkpt lat="45.5183467" lon="11.511045"><ele>31.0</ele><time>2026-03-28T08:27:24.084Z</time></trkpt><trkpt lat="45.518355" lon="11.510805"><ele>31.0</ele><time>2026-03-28T08:27:25.084Z</time></trkpt><trkpt lat="45.5183617" lon="11.51058"><ele>31.0</ele><time>2026-03-28T08:27:26.084Z</time></trkpt><trkpt lat="45.518365" lon="11.5103667"><ele>31.0</ele><time>2026-03-28T08:27:27.084Z</time></trkpt><trkpt lat="45.518365" lon="11.5101583"><ele>31.0</ele><time>2026-03-28T08:27:28.083Z</time></trkpt><trkpt lat="45.5183717" lon="11.5099383"><ele>31.0</ele><time>2026-03-28T08:27:29.083Z</time></trkpt><trkpt lat="45.5183783" lon="11.5097217"><ele>31.0</ele><time>2026-03-28T08:27:30.084Z</time></trkpt><trkpt lat="45.5183833" lon="11.5095183"><ele>31.0</ele><time>2026-03-28T08:27:31.083Z</time></trkpt><trkpt lat="45.5183833" lon="11.50932"><ele>31.25</ele><time>2026-03-28T08:27:32.084Z</time></trkpt><trkpt lat="45.51838" lon="11.5091317"><ele>31.5</ele><time>2026-03-28T08:27:33.084Z</time></trkpt><trkpt lat="45.5183833" lon="11.5089533"><ele>31.75</ele><time>2026-03-28T08:27:34.084Z</time></trkpt><trkpt lat="45.5183883" lon="11.5087733"><ele>32.0</ele><time>2026-03-28T08:27:35.084Z</time></trkpt><trkpt lat="45.5183967" lon="11.5085983"><ele>32.0</ele><time>2026-03-28T08:27:36.084Z</time></trkpt><trkpt lat="45.51841" lon="11.5084283"><ele>32.0</ele><time>2026-03-28T08:27:37.084Z</time></trkpt><trkpt lat="45.5184217" lon="11.5082583"><ele>32.0</ele><time>2026-03-28T08:27:38.084Z</time></trkpt><trkpt lat="45.518435" lon="11.508095"><ele>32.0</ele><time>2026-03-28T08:27:39.084Z</time></trkpt><trkpt lat="45.5184483" lon="11.5079283"><ele>32.0</ele><time>2026-03-28T08:27:40.084Z</time></trkpt><trkpt lat="45.5184733" lon="11.507755"><ele>32.0</ele><time>2026-03-28T08:27:41.084Z</time></trkpt><trkpt lat="45.5185033" lon="11.50758"><ele>32.0</ele><time>2026-03-28T08:27:42.084Z</time></trkpt><trkpt lat="45.5185467" lon="11.5074"><ele>32.0</ele><time>2026-03-28T08:27:43.083Z</time></trkpt><trkpt lat="45.5186083" lon="11.5072233"><ele>31.0</ele><time>2026-03-28T08:27:44.084Z</time></trkpt><trkpt lat="45.5186933" lon="11.507055"><ele>30.0</ele><time>2026-03-28T08:27:45.084Z</time></trkpt><trkpt lat="45.5188033" lon="11.5069083"><ele>29.0</ele><time>2026-03-28T08:27:46.084Z</time></trkpt><trkpt lat="45.5189317" lon="11.506785"><ele>28.666666666666664</ele><time>2026-03-28T08:27:47.084Z</time></trkpt><trkpt lat="45.5190683" lon="11.5066867"><ele>28.333333333333336</ele><time>2026-03-28T08:27:48.084Z</time></trkpt><trkpt lat="45.519215" lon="11.506625"><ele>28.0</ele><time>2026-03-28T08:27:49.083Z</time></trkpt><trkpt lat="45.5193633" lon="11.5066017"><ele>28.0</ele><time>2026-03-28T08:27:50.084Z</time></trkpt><trkpt lat="45.5195117" lon="11.50661"><ele>28.0</ele><time>2026-03-28T08:27:51.084Z</time></trkpt><trkpt lat="45.519655" lon="11.5066233"><ele>28.0</ele><time>2026-03-28T08:27:52.084Z</time></trkpt><trkpt lat="45.51978" lon="11.506625"><ele>28.0</ele><time>2026-03-28T08:27:53.084Z</time></trkpt><trkpt lat="45.5199083" lon="11.5066167"><ele>28.75</ele><time>2026-03-28T08:27:54.084Z</time></trkpt><trkpt lat="45.520035" lon="11.5065883"><ele>29.5</ele><time>2026-03-28T08:27:55.084Z</time></trkpt><trkpt lat="45.5201583" lon="11.5065583"><ele>30.25</ele><time>2026-03-28T08:27:56.084Z</time></trkpt><trkpt lat="45.5202833" lon="11.50652"><ele>31.0</ele><time>2026-03-28T08:27:57.084Z</time></trkpt><trkpt lat="45.5204083" lon="11.5064767"><ele>31.5</ele><time>2026-03-28T08:27:58.084Z</time></trkpt><trkpt lat="45.5205333" lon="11.5064283"><ele>32.0</ele><time>2026-03-28T08:27:59.084Z</time></trkpt><trkpt lat="45.520665" lon="11.5063883"><ele>32.5</ele><time>2026-03-28T08:28:00.084Z</time></trkpt><trkpt lat="45.5207933" lon="11.5063667"><ele>33.0</ele><time>2026-03-28T08:28:01.084Z</time></trkpt><trkpt lat="45.52091" lon="11.5063667"><ele>33.0</ele><time>2026-03-28T08:28:02.084Z</time></trkpt><trkpt lat="45.521025" lon="11.5063833"><ele>33.0</ele><time>2026-03-28T08:28:03.084Z</time></trkpt><trkpt lat="45.521125" lon="11.50641"><ele>33.0</ele><time>2026-03-28T08:28:04.084Z</time></trkpt><trkpt lat="45.5212067" lon="11.5064417"><ele>33.0</ele><time>2026-03-28T08:28:05.084Z</time></trkpt><trkpt lat="45.5212683" lon="11.5064783"><ele>33.0</ele><time>2026-03-28T08:28:06.084Z</time></trkpt><trkpt lat="45.5213683" lon="11.5065233"><ele>32.8</ele><time>2026-03-28T08:28:08.084Z</time></trkpt><trkpt lat="45.5214483" lon="11.506555"><ele>32.599999999999994</ele><time>2026-03-28T08:28:10.084Z</time></trkpt><trkpt lat="45.521535" lon="11.5065833"><ele>32.400000000000006</ele><time>2026-03-28T08:28:12.083Z</time></trkpt><trkpt lat="45.5216133" lon="11.5066167"><ele>32.2</ele><time>2026-03-28T08:28:16.084Z</time></trkpt><trkpt lat="45.5217417" lon="11.50666"><ele>32.0</ele><time>2026-03-28T08:28:18.084Z</time></trkpt><trkpt lat="45.521835" lon="11.5066983"><ele>32.0</ele><time>2026-03-28T08:28:19.083Z</time></trkpt><trkpt lat="45.5219383" lon="11.50675"><ele>32.0</ele><time>2026-03-28T08:28:20.083Z</time></trkpt><trkpt lat="45.522055" lon="11.506805"><ele>32.0</ele><time>2026-03-28T08:28:21.084Z</time></trkpt><trkpt lat="45.522175" lon="11.5068633"><ele>32.0</ele><time>2026-03-28T08:28:22.084Z</time></trkpt><trkpt lat="45.5223017" lon="11.5069183"><ele>31.75</ele><time>2026-03-28T08:28:23.083Z</time></trkpt><trkpt lat="45.522435" lon="11.5069617"><ele>31.5</ele><time>2026-03-28T08:28:24.084Z</time></trkpt><trkpt lat="45.5225733" lon="11.5070117"><ele>31.25</ele><time>2026-03-28T08:28:25.083Z</time></trkpt><trkpt lat="45.5227133" lon="11.50707"><ele>31.0</ele><time>2026-03-28T08:28:26.084Z</time></trkpt><trkpt lat="45.522855" lon="11.5071217"><ele>31.666666666666668</ele><time>2026-03-28T08:28:27.084Z</time></trkpt><trkpt lat="45.523" lon="11.5071683"><ele>32.333333333333336</ele><time>2026-03-28T08:28:28.083Z</time></trkpt><trkpt lat="45.52315" lon="11.5072167"><ele>33.0</ele><time>2026-03-28T08:28:29.083Z</time></trkpt><trkpt lat="45.5232983" lon="11.50727"><ele>33.0</ele><time>2026-03-28T08:28:30.084Z</time></trkpt><trkpt lat="45.52344" lon="11.50733"><ele>33.0</ele><time>2026-03-28T08:28:31.084Z</time></trkpt><trkpt lat="45.5235767" lon="11.5073933"><ele>33.0</ele><time>2026-03-28T08:28:32.083Z</time></trkpt><trkpt lat="45.523705" lon="11.5074517"><ele>33.0</ele><time>2026-03-28T08:28:33.084Z</time></trkpt><trkpt lat="45.5238283" lon="11.5075033"><ele>32.75</ele><time>2026-03-28T08:28:34.084Z</time></trkpt><trkpt lat="45.523955" lon="11.5075567"><ele>32.5</ele><time>2026-03-28T08:28:35.084Z</time></trkpt><trkpt lat="45.52408" lon="11.507595"><ele>32.25</ele><time>2026-03-28T08:28:36.083Z</time></trkpt><trkpt lat="45.524195" lon="11.5076433"><ele>32.0</ele><time>2026-03-28T08:28:37.084Z</time></trkpt><trkpt lat="45.5243067" lon="11.5076917"><ele>32.0</ele><time>2026-03-28T08:28:38.084Z</time></trkpt><trkpt lat="45.5244117" lon="11.5077433"><ele>32.0</ele><time>2026-03-28T08:28:39.083Z</time></trkpt><trkpt lat="45.5245183" lon="11.5077917"><ele>32.0</ele><time>2026-03-28T08:28:40.083Z</time></trkpt><trkpt lat="45.52462" lon="11.50783"><ele>32.0</ele><time>2026-03-28T08:28:41.083Z</time></trkpt><trkpt lat="45.5247183" lon="11.5078583"><ele>32.0</ele><time>2026-03-28T08:28:42.083Z</time></trkpt><trkpt lat="45.5248183" lon="11.5078933"><ele>32.0</ele><time>2026-03-28T08:28:43.083Z</time></trkpt><trkpt lat="45.5249233" lon="11.50793"><ele>32.0</ele><time>2026-03-28T08:28:44.083Z</time></trkpt><trkpt lat="45.52503" lon="11.5079717"><ele>32.0</ele><time>2026-03-28T08:28:45.084Z</time></trkpt><trkpt lat="45.52514" lon="11.5080117"><ele>32.0</ele><time>2026-03-28T08:28:46.084Z</time></trkpt><trkpt lat="45.5252483" lon="11.50805"><ele>32.0</ele><time>2026-03-28T08:28:47.084Z</time></trkpt><trkpt lat="45.525355" lon="11.508085"><ele>32.2</ele><time>2026-03-28T08:28:48.084Z</time></trkpt><trkpt lat="45.5254533" lon="11.508125"><ele>32.400000000000006</ele><time>2026-03-28T08:28:49.083Z</time></trkpt><trkpt lat="45.5255567" lon="11.5081567"><ele>32.599999999999994</ele><time>2026-03-28T08:28:50.083Z</time></trkpt><trkpt lat="45.52566" lon="11.5081917"><ele>32.8</ele><time>2026-03-28T08:28:51.084Z</time></trkpt><trkpt lat="45.52578" lon="11.5082317"><ele>33.0</ele><time>2026-03-28T08:28:52.083Z</time></trkpt><trkpt lat="45.5259167" lon="11.508275"><ele>33.0</ele><time>2026-03-28T08:28:53.084Z</time></trkpt><trkpt lat="45.52607" lon="11.5083233"><ele>33.0</ele><time>2026-03-28T08:28:54.083Z</time></trkpt><trkpt lat="45.5262367" lon="11.5083783"><ele>33.0</ele><time>2026-03-28T08:28:55.083Z</time></trkpt><trkpt lat="45.5264133" lon="11.5084417"><ele>33.0</ele><time>2026-03-28T08:28:56.084Z</time></trkpt><trkpt lat="45.52659" lon="11.50851"><ele>33.0</ele><time>2026-03-28T08:28:57.083Z</time></trkpt><trkpt lat="45.5267617" lon="11.5085767"><ele>33.0</ele><time>2026-03-28T08:28:58.084Z</time></trkpt><trkpt lat="45.5269267" lon="11.5086483"><ele>32.333333333333336</ele><time>2026-03-28T08:28:59.083Z</time></trkpt><trkpt lat="45.52708" lon="11.5087033"><ele>31.666666666666668</ele><time>2026-03-28T08:29:00.084Z</time></trkpt><trkpt lat="45.5272333" lon="11.5087567"><ele>31.0</ele><time>2026-03-28T08:29:01.083Z</time></trkpt><trkpt lat="45.5273783" lon="11.5088083"><ele>31.0</ele><time>2026-03-28T08:29:02.084Z</time></trkpt><trkpt lat="45.5275217" lon="11.5088583"><ele>31.0</ele><time>2026-03-28T08:29:03.084Z</time></trkpt><trkpt lat="45.5276667" lon="11.5089033"><ele>31.0</ele><time>2026-03-28T08:29:04.083Z</time></trkpt><trkpt lat="45.5278183" lon="11.5089583"><ele>31.333333333333336</ele><time>2026-03-28T08:29:05.084Z</time></trkpt><trkpt lat="45.5279683" lon="11.5090117"><ele>31.666666666666664</ele><time>2026-03-28T08:29:06.084Z</time></trkpt><trkpt lat="45.5281133" lon="11.5090717"><ele>32.0</ele><time>2026-03-28T08:29:07.083Z</time></trkpt><trkpt lat="45.52826" lon="11.5091317"><ele>32.0</ele><time>2026-03-28T08:29:08.084Z</time></trkpt><trkpt lat="45.52841" lon="11.5091933"><ele>32.0</ele><time>2026-03-28T08:29:09.084Z</time></trkpt><trkpt lat="45.528565" lon="11.5092583"><ele>32.0</ele><time>2026-03-28T08:29:10.083Z</time></trkpt><trkpt lat="45.52872" lon="11.50932"><ele>32.666666666666664</ele><time>2026-03-28T08:29:11.084Z</time></trkpt><trkpt lat="45.528875" lon="11.5093767"><ele>33.333333333333336</ele><time>2026-03-28T08:29:12.084Z</time></trkpt><trkpt lat="45.5290383" lon="11.50944"><ele>34.0</ele><time>2026-03-28T08:29:13.084Z</time></trkpt><trkpt lat="45.529205" lon="11.5095"><ele>34.0</ele><time>2026-03-28T08:29:14.083Z</time></trkpt><trkpt lat="45.5293717" lon="11.509565"><ele>34.0</ele><time>2026-03-28T08:29:15.084Z</time></trkpt><trkpt lat="45.5295433" lon="11.5096233"><ele>34.0</ele><time>2026-03-28T08:29:16.084Z</time></trkpt><trkpt lat="45.5297133" lon="11.509685"><ele>32.66666666666667</ele><time>2026-03-28T08:29:17.083Z</time></trkpt><trkpt lat="45.529885" lon="11.5097467"><ele>31.333333333333336</ele><time>2026-03-28T08:29:18.083Z</time></trkpt><trkpt lat="45.530055" lon="11.5098017"><ele>30.0</ele><time>2026-03-28T08:29:19.084Z</time></trkpt><trkpt lat="45.5302283" lon="11.5098483"><ele>29.666666666666664</ele><time>2026-03-28T08:29:20.084Z</time></trkpt><trkpt lat="45.5304133" lon="11.5098817"><ele>29.333333333333332</ele><time>2026-03-28T08:29:21.084Z</time></trkpt><trkpt lat="45.5306083" lon="11.5099067"><ele>29.0</ele><time>2026-03-28T08:29:22.084Z</time></trkpt><trkpt lat="45.5308067" lon="11.5099083"><ele>29.0</ele><time>2026-03-28T08:29:23.084Z</time></trkpt><trkpt lat="45.531005" lon="11.50989"><ele>29.0</ele><time>2026-03-28T08:29:24.084Z</time></trkpt><trkpt lat="45.5312033" lon="11.5098483"><ele>29.0</ele><time>2026-03-28T08:29:25.084Z</time></trkpt><trkpt lat="45.5314083" lon="11.50979"><ele>30.0</ele><time>2026-03-28T08:29:26.084Z</time></trkpt><trkpt lat="45.5315983" lon="11.5097067"><ele>31.0</ele><time>2026-03-28T08:29:27.084Z</time></trkpt><trkpt lat="45.53178" lon="11.50961"><ele>32.0</ele><time>2026-03-28T08:29:28.084Z</time></trkpt><trkpt lat="45.5319483" lon="11.5095067"><ele>32.33333333333333</ele><time>2026-03-28T08:29:29.084Z</time></trkpt><trkpt lat="45.5321017" lon="11.5094017"><ele>32.666666666666664</ele><time>2026-03-28T08:29:30.084Z</time></trkpt><trkpt lat="45.532245" lon="11.5093033"><ele>33.0</ele><time>2026-03-28T08:29:31.084Z</time></trkpt><trkpt lat="45.53238" lon="11.5092033"><ele>33.0</ele><time>2026-03-28T08:29:32.083Z</time></trkpt><trkpt lat="45.532515" lon="11.50911"><ele>33.0</ele><time>2026-03-28T08:29:33.083Z</time></trkpt><trkpt lat="45.5326567" lon="11.5090233"><ele>33.0</ele><time>2026-03-28T08:29:34.084Z</time></trkpt><trkpt lat="45.5327917" lon="11.5089283"><ele>33.0</ele><time>2026-03-28T08:29:35.084Z</time></trkpt><trkpt lat="45.532935" lon="11.508825"><ele>33.0</ele><time>2026-03-28T08:29:36.083Z</time></trkpt><trkpt lat="45.5330817" lon="11.5087267"><ele>33.0</ele><time>2026-03-28T08:29:37.084Z</time></trkpt><trkpt lat="45.533235" lon="11.5086217"><ele>33.666666666666664</ele><time>2026-03-28T08:29:38.084Z</time></trkpt><trkpt lat="45.533385" lon="11.5085217"><ele>34.33333333333333</ele><time>2026-03-28T08:29:39.083Z</time></trkpt><trkpt lat="45.5335433" lon="11.5084283"><ele>35.0</ele><time>2026-03-28T08:29:40.083Z</time></trkpt><trkpt lat="45.533695" lon="11.508345"><ele>34.666666666666664</ele><time>2026-03-28T08:29:41.084Z</time></trkpt><trkpt lat="45.5338517" lon="11.5082617"><ele>34.333333333333336</ele><time>2026-03-28T08:29:42.084Z</time></trkpt><trkpt lat="45.5340167" lon="11.5082017"><ele>34.0</ele><time>2026-03-28T08:29:43.084Z</time></trkpt><trkpt lat="45.53418" lon="11.5081683"><ele>34.0</ele><time>2026-03-28T08:29:44.084Z</time></trkpt><trkpt lat="45.5343483" lon="11.5081467"><ele>34.0</ele><time>2026-03-28T08:29:45.084Z</time></trkpt><trkpt lat="45.5345167" lon="11.5081317"><ele>34.0</ele><time>2026-03-28T08:29:46.084Z</time></trkpt><trkpt lat="45.5346883" lon="11.5081183"><ele>34.0</ele><time>2026-03-28T08:29:47.084Z</time></trkpt><trkpt lat="45.53485" lon="11.5081017"><ele>34.0</ele><time>2026-03-28T08:29:48.083Z</time></trkpt><trkpt lat="45.5350167" lon="11.508075"><ele>34.0</ele><time>2026-03-28T08:29:49.084Z</time></trkpt><trkpt lat="45.5351783" lon="11.50805"><ele>34.0</ele><time>2026-03-28T08:29:50.084Z</time></trkpt><trkpt lat="45.5353467" lon="11.5080317"><ele>34.0</ele><time>2026-03-28T08:29:51.083Z</time></trkpt><trkpt lat="45.535525" lon="11.508015"><ele>34.0</ele><time>2026-03-28T08:29:52.084Z</time></trkpt><trkpt lat="45.5357033" lon="11.5079833"><ele>35.333333333333336</ele><time>2026-03-28T08:29:53.084Z</time></trkpt><trkpt lat="45.5358767" lon="11.50796"><ele>36.666666666666664</ele><time>2026-03-28T08:29:54.084Z</time></trkpt><trkpt lat="45.5360517" lon="11.5079417"><ele>38.0</ele><time>2026-03-28T08:29:55.084Z</time></trkpt><trkpt lat="45.5362283" lon="11.5079233"><ele>38.0</ele><time>2026-03-28T08:29:56.084Z</time></trkpt><trkpt lat="45.5364217" lon="11.50791"><ele>38.0</ele><time>2026-03-28T08:29:57.084Z</time></trkpt><trkpt lat="45.5366083" lon="11.5079167"><ele>38.0</ele><time>2026-03-28T08:29:58.084Z</time></trkpt><trkpt lat="45.5368" lon="11.5079333"><ele>38.0</ele><time>2026-03-28T08:29:59.084Z</time></trkpt><trkpt lat="45.5369983" lon="11.50795"><ele>38.0</ele><time>2026-03-28T08:30:00.084Z</time></trkpt><trkpt lat="45.5371883" lon="11.5079583"><ele>38.0</ele><time>2026-03-28T08:30:01.084Z</time></trkpt><trkpt lat="45.53739" lon="11.5079867"><ele>37.33333333333333</ele><time>2026-03-28T08:30:02.084Z</time></trkpt><trkpt lat="45.537595" lon="11.5080217"><ele>36.666666666666664</ele><time>2026-03-28T08:30:03.083Z</time></trkpt><trkpt lat="45.5378" lon="11.5080567"><ele>36.0</ele><time>2026-03-28T08:30:04.084Z</time></trkpt><trkpt lat="45.5380083" lon="11.5080933"><ele>35.666666666666664</ele><time>2026-03-28T08:30:05.084Z</time></trkpt><trkpt lat="45.5382167" lon="11.5081217"><ele>35.33333333333333</ele><time>2026-03-28T08:30:06.083Z</time></trkpt><trkpt lat="45.538425" lon="11.5081417"><ele>35.0</ele><time>2026-03-28T08:30:07.084Z</time></trkpt><trkpt lat="45.53863" lon="11.50817"><ele>34.0</ele><time>2026-03-28T08:30:08.084Z</time></trkpt><trkpt lat="45.5388467" lon="11.5081883"><ele>33.0</ele><time>2026-03-28T08:30:09.084Z</time></trkpt><trkpt lat="45.5390683" lon="11.50821"><ele>32.0</ele><time>2026-03-28T08:30:10.084Z</time></trkpt><trkpt lat="45.539295" lon="11.508235"><ele>32.0</ele><time>2026-03-28T08:30:11.083Z</time></trkpt><trkpt lat="45.53951" lon="11.5082733"><ele>32.0</ele><time>2026-03-28T08:30:12.084Z</time></trkpt><trkpt lat="45.5397133" lon="11.5083017"><ele>32.0</ele><time>2026-03-28T08:30:13.084Z</time></trkpt><trkpt lat="45.5399033" lon="11.50832"><ele>31.666666666666664</ele><time>2026-03-28T08:30:14.083Z</time></trkpt><trkpt lat="45.5400867" lon="11.5083317"><ele>31.333333333333336</ele><time>2026-03-28T08:30:15.083Z</time></trkpt><trkpt lat="45.5402717" lon="11.5083483"><ele>31.0</ele><time>2026-03-28T08:30:16.084Z</time></trkpt><trkpt lat="45.5404583" lon="11.5083633"><ele>30.666666666666668</ele><time>2026-03-28T08:30:17.084Z</time></trkpt><trkpt lat="45.540635" lon="11.508365"><ele>30.333333333333336</ele><time>2026-03-28T08:30:18.084Z</time></trkpt><trkpt lat="45.540825" lon="11.5083633"><ele>30.0</ele><time>2026-03-28T08:30:19.084Z</time></trkpt><trkpt lat="45.5410117" lon="11.5083583"><ele>30.0</ele><time>2026-03-28T08:30:20.083Z</time></trkpt><trkpt lat="45.5411967" lon="11.5083467"><ele>30.0</ele><time>2026-03-28T08:30:21.083Z</time></trkpt><trkpt lat="45.54138" lon="11.5083217"><ele>30.0</ele><time>2026-03-28T08:30:22.084Z</time></trkpt><trkpt lat="45.541565" lon="11.5082867"><ele>30.333333333333336</ele><time>2026-03-28T08:30:23.084Z</time></trkpt><trkpt lat="45.5417517" lon="11.50826"><ele>30.666666666666668</ele><time>2026-03-28T08:30:24.084Z</time></trkpt><trkpt lat="45.5419267" lon="11.5082117"><ele>31.0</ele><time>2026-03-28T08:30:25.084Z</time></trkpt><trkpt lat="45.542105" lon="11.5081567"><ele>31.666666666666668</ele><time>2026-03-28T08:30:26.084Z</time></trkpt><trkpt lat="45.5422717" lon="11.508105"><ele>32.333333333333336</ele><time>2026-03-28T08:30:27.084Z</time></trkpt><trkpt lat="45.5424283" lon="11.5080583"><ele>33.0</ele><time>2026-03-28T08:30:28.083Z</time></trkpt><trkpt lat="45.5425733" lon="11.5080067"><ele>33.0</ele><time>2026-03-28T08:30:29.084Z</time></trkpt><trkpt lat="45.54272" lon="11.5079467"><ele>33.0</ele><time>2026-03-28T08:30:30.084Z</time></trkpt><trkpt lat="45.5428733" lon="11.5078833"><ele>33.0</ele><time>2026-03-28T08:30:31.084Z</time></trkpt><trkpt lat="45.54302" lon="11.5078267"><ele>32.666666666666664</ele><time>2026-03-28T08:30:32.084Z</time></trkpt><trkpt lat="45.5431783" lon="11.5077633"><ele>32.33333333333333</ele><time>2026-03-28T08:30:33.084Z</time></trkpt><trkpt lat="45.5433367" lon="11.5076917"><ele>32.0</ele><time>2026-03-28T08:30:34.084Z</time></trkpt><trkpt lat="45.5434967" lon="11.5076133"><ele>32.0</ele><time>2026-03-28T08:30:35.084Z</time></trkpt><trkpt lat="45.5436583" lon="11.5075283"><ele>32.0</ele><time>2026-03-28T08:30:36.084Z</time></trkpt><trkpt lat="45.54382" lon="11.5074367"><ele>32.0</ele><time>2026-03-28T08:30:37.084Z</time></trkpt><trkpt lat="45.5439867" lon="11.507335"><ele>31.333333333333332</ele><time>2026-03-28T08:30:38.084Z</time></trkpt><trkpt lat="45.5441517" lon="11.5072267"><ele>30.666666666666664</ele><time>2026-03-28T08:30:39.083Z</time></trkpt><trkpt lat="45.5443217" lon="11.5071183"><ele>30.0</ele><time>2026-03-28T08:30:40.084Z</time></trkpt><trkpt lat="45.5444933" lon="11.507"><ele>30.666666666666664</ele><time>2026-03-28T08:30:41.084Z</time></trkpt><trkpt lat="45.54467" lon="11.5068767"><ele>31.333333333333332</ele><time>2026-03-28T08:30:42.084Z</time></trkpt><trkpt lat="45.54484" lon="11.5067367"><ele>32.0</ele><time>2026-03-28T08:30:43.083Z</time></trkpt><trkpt lat="45.54502" lon="11.50659"><ele>32.0</ele><time>2026-03-28T08:30:44.084Z</time></trkpt><trkpt lat="45.5452017" lon="11.5064333"><ele>32.0</ele><time>2026-03-28T08:30:45.084Z</time></trkpt><trkpt lat="45.5453833" lon="11.5062733"><ele>32.0</ele><time>2026-03-28T08:30:46.084Z</time></trkpt><trkpt lat="45.5455667" lon="11.5060967"><ele>33.5</ele><time>2026-03-28T08:30:47.084Z</time></trkpt><trkpt lat="45.545755" lon="11.5059217"><ele>35.0</ele><time>2026-03-28T08:30:48.083Z</time></trkpt><trkpt lat="45.545945" lon="11.5057417"><ele>35.0</ele><time>2026-03-28T08:30:49.084Z</time></trkpt><trkpt lat="45.5461383" lon="11.505555"><ele>35.0</ele><time>2026-03-28T08:30:50.084Z</time></trkpt><trkpt lat="45.54633" lon="11.5053617"><ele>34.0</ele><time>2026-03-28T08:30:51.084Z</time></trkpt><trkpt lat="45.5465183" lon="11.5051617"><ele>33.0</ele><time>2026-03-28T08:30:52.083Z</time></trkpt><trkpt lat="45.5467067" lon="11.5049667"><ele>33.0</ele><time>2026-03-28T08:30:53.084Z</time></trkpt><trkpt lat="45.5468933" lon="11.5047683"><ele>33.0</ele><time>2026-03-28T08:30:54.084Z</time></trkpt><trkpt lat="45.5470833" lon="11.5045767"><ele>32.0</ele><time>2026-03-28T08:30:55.083Z</time></trkpt><trkpt lat="45.547275" lon="11.5044"><ele>31.0</ele><time>2026-03-28T08:30:56.084Z</time></trkpt><trkpt lat="45.5474633" lon="11.5042217"><ele>31.0</ele><time>2026-03-28T08:30:57.083Z</time></trkpt><trkpt lat="45.54766" lon="11.50406"><ele>31.0</ele><time>2026-03-28T08:30:58.083Z</time></trkpt><trkpt lat="45.5478617" lon="11.5039"><ele>31.333333333333336</ele><time>2026-03-28T08:30:59.084Z</time></trkpt><trkpt lat="45.5480533" lon="11.503735"><ele>31.666666666666664</ele><time>2026-03-28T08:31:00.084Z</time></trkpt><trkpt lat="45.5482417" lon="11.5035833"><ele>32.0</ele><time>2026-03-28T08:31:01.084Z</time></trkpt><trkpt lat="45.548415" lon="11.5034517"><ele>32.0</ele><time>2026-03-28T08:31:02.083Z</time></trkpt><trkpt lat="45.5485983" lon="11.5033267"><ele>32.0</ele><time>2026-03-28T08:31:03.083Z</time></trkpt><trkpt lat="45.54878" lon="11.5032167"><ele>32.0</ele><time>2026-03-28T08:31:04.084Z</time></trkpt><trkpt lat="45.5489567" lon="11.503095"><ele>31.666666666666664</ele><time>2026-03-28T08:31:05.084Z</time></trkpt><trkpt lat="45.5491383" lon="11.5029733"><ele>31.333333333333336</ele><time>2026-03-28T08:31:06.084Z</time></trkpt><trkpt lat="45.5493233" lon="11.5028567"><ele>31.0</ele><time>2026-03-28T08:31:07.083Z</time></trkpt><trkpt lat="45.5495" lon="11.502735"><ele>31.333333333333336</ele><time>2026-03-28T08:31:08.084Z</time></trkpt><trkpt lat="45.5496767" lon="11.5026133"><ele>31.666666666666664</ele><time>2026-03-28T08:31:09.083Z</time></trkpt><trkpt lat="45.549855" lon="11.502495"><ele>32.0</ele><time>2026-03-28T08:31:10.084Z</time></trkpt><trkpt lat="45.5500417" lon="11.5023667"><ele>32.0</ele><time>2026-03-28T08:31:11.084Z</time></trkpt><trkpt lat="45.5502333" lon="11.5022317"><ele>32.0</ele><time>2026-03-28T08:31:12.084Z</time></trkpt><trkpt lat="45.5504217" lon="11.5021"><ele>32.0</ele><time>2026-03-28T08:31:13.084Z</time></trkpt><trkpt lat="45.5506117" lon="11.50197"><ele>32.33333333333333</ele><time>2026-03-28T08:31:14.083Z</time></trkpt><trkpt lat="45.55081" lon="11.5018433"><ele>32.666666666666664</ele><time>2026-03-28T08:31:15.084Z</time></trkpt><trkpt lat="45.5510117" lon="11.5017183"><ele>33.0</ele><time>2026-03-28T08:31:16.084Z</time></trkpt><trkpt lat="45.5512067" lon="11.50158"><ele>33.0</ele><time>2026-03-28T08:31:17.084Z</time></trkpt><trkpt lat="45.551405" lon="11.5014517"><ele>33.0</ele><time>2026-03-28T08:31:18.084Z</time></trkpt><trkpt lat="45.5516" lon="11.5013167"><ele>33.0</ele><time>2026-03-28T08:31:19.084Z</time></trkpt><trkpt lat="45.5517967" lon="11.50118"><ele>33.0</ele><time>2026-03-28T08:31:20.083Z</time></trkpt><trkpt lat="45.5519883" lon="11.5010367"><ele>33.0</ele><time>2026-03-28T08:31:21.084Z</time></trkpt><trkpt lat="45.5521867" lon="11.5008983"><ele>33.0</ele><time>2026-03-28T08:31:22.083Z</time></trkpt><trkpt lat="45.5523867" lon="11.5007683"><ele>32.5</ele><time>2026-03-28T08:31:23.084Z</time></trkpt><trkpt lat="45.5525867" lon="11.50063"><ele>32.0</ele><time>2026-03-28T08:31:24.084Z</time></trkpt><trkpt lat="45.5527967" lon="11.5004783"><ele>33.0</ele><time>2026-03-28T08:31:25.083Z</time></trkpt><trkpt lat="45.553005" lon="11.500335"><ele>34.0</ele><time>2026-03-28T08:31:26.084Z</time></trkpt><trkpt lat="45.5532217" lon="11.500185"><ele>34.0</ele><time>2026-03-28T08:31:27.084Z</time></trkpt><trkpt lat="45.5534383" lon="11.500035"><ele>34.0</ele><time>2026-03-28T08:31:28.084Z</time></trkpt><trkpt lat="45.553655" lon="11.49989"><ele>33.0</ele><time>2026-03-28T08:31:29.083Z</time></trkpt><trkpt lat="45.55387" lon="11.4997517"><ele>32.0</ele><time>2026-03-28T08:31:30.084Z</time></trkpt><trkpt lat="45.5540783" lon="11.4996117"><ele>32.5</ele><time>2026-03-28T08:31:31.084Z</time></trkpt><trkpt lat="45.55429" lon="11.4994733"><ele>33.0</ele><time>2026-03-28T08:31:32.084Z</time></trkpt><trkpt lat="45.5545117" lon="11.499345"><ele>33.5</ele><time>2026-03-28T08:31:33.084Z</time></trkpt><trkpt lat="45.5547167" lon="11.4992117"><ele>34.0</ele><time>2026-03-28T08:31:34.084Z</time></trkpt><trkpt lat="45.5549217" lon="11.49907"><ele>34.0</ele><time>2026-03-28T08:31:35.084Z</time></trkpt><trkpt lat="45.5551283" lon="11.4989333"><ele>34.0</ele><time>2026-03-28T08:31:36.084Z</time></trkpt><trkpt lat="45.5553333" lon="11.4987983"><ele>34.5</ele><time>2026-03-28T08:31:37.084Z</time></trkpt><trkpt lat="45.55554" lon="11.4986617"><ele>35.0</ele><time>2026-03-28T08:31:38.083Z</time></trkpt><trkpt lat="45.5557433" lon="11.498515"><ele>35.0</ele><time>2026-03-28T08:31:39.083Z</time></trkpt><trkpt lat="45.5559517" lon="11.4983717"><ele>35.0</ele><time>2026-03-28T08:31:40.084Z</time></trkpt><trkpt lat="45.55616" lon="11.4982333"><ele>34.0</ele><time>2026-03-28T08:31:41.084Z</time></trkpt><trkpt lat="45.5563717" lon="11.498095"><ele>33.0</ele><time>2026-03-28T08:31:42.084Z</time></trkpt><trkpt lat="45.5565833" lon="11.4979433"><ele>33.0</ele><time>2026-03-28T08:31:43.084Z</time></trkpt><trkpt lat="45.5568" lon="11.4977833"><ele>33.0</ele><time>2026-03-28T08:31:44.084Z</time></trkpt><trkpt lat="45.55702" lon="11.4976433"><ele>33.5</ele><time>2026-03-28T08:31:45.083Z</time></trkpt><trkpt lat="45.5572417" lon="11.4974967"><ele>34.0</ele><time>2026-03-28T08:31:46.084Z</time></trkpt><trkpt lat="45.55746" lon="11.4973517"><ele>34.0</ele><time>2026-03-28T08:31:47.084Z</time></trkpt><trkpt lat="45.5576733" lon="11.4972117"><ele>34.0</ele><time>2026-03-28T08:31:48.084Z</time></trkpt><trkpt lat="45.5578833" lon="11.4970767"><ele>34.0</ele><time>2026-03-28T08:31:49.084Z</time></trkpt><trkpt lat="45.5580883" lon="11.4969417"><ele>34.0</ele><time>2026-03-28T08:31:50.083Z</time></trkpt><trkpt lat="45.5582917" lon="11.4968083"><ele>34.0</ele><time>2026-03-28T08:31:51.083Z</time></trkpt><trkpt lat="45.558495" lon="11.49668"><ele>34.0</ele><time>2026-03-28T08:31:52.084Z</time></trkpt><trkpt lat="45.5587133" lon="11.4965533"><ele>34.5</ele><time>2026-03-28T08:31:53.084Z</time></trkpt><trkpt lat="45.5589267" lon="11.4964233"><ele>35.0</ele><time>2026-03-28T08:31:54.084Z</time></trkpt><trkpt lat="45.5591383" lon="11.4962817"><ele>34.5</ele><time>2026-03-28T08:31:55.084Z</time></trkpt><trkpt lat="45.5593517" lon="11.4961517"><ele>34.0</ele><time>2026-03-28T08:31:56.084Z</time></trkpt><trkpt lat="45.559555" lon="11.49602"><ele>33.0</ele><time>2026-03-28T08:31:57.084Z</time></trkpt><trkpt lat="45.5597667" lon="11.4958867"><ele>32.0</ele><time>2026-03-28T08:31:58.084Z</time></trkpt><trkpt lat="45.5599833" lon="11.49576"><ele>32.0</ele><time>2026-03-28T08:31:59.083Z</time></trkpt><trkpt lat="45.560195" lon="11.4956433"><ele>32.0</ele><time>2026-03-28T08:32:00.083Z</time></trkpt><trkpt lat="45.56041" lon="11.4955333"><ele>33.0</ele><time>2026-03-28T08:32:01.084Z</time></trkpt><trkpt lat="45.5606183" lon="11.4954383"><ele>34.0</ele><time>2026-03-28T08:32:02.084Z</time></trkpt><trkpt lat="45.5608283" lon="11.4953517"><ele>35.0</ele><time>2026-03-28T08:32:03.084Z</time></trkpt><trkpt lat="45.561035" lon="11.4952667"><ele>36.0</ele><time>2026-03-28T08:32:04.084Z</time></trkpt><trkpt lat="45.5612317" lon="11.4951967"><ele>37.0</ele><time>2026-03-28T08:32:05.084Z</time></trkpt><trkpt lat="45.5614267" lon="11.4951333"><ele>38.0</ele><time>2026-03-28T08:32:06.083Z</time></trkpt><trkpt lat="45.5616167" lon="11.49508"><ele>38.0</ele><time>2026-03-28T08:32:07.084Z</time></trkpt><trkpt lat="45.5618033" lon="11.4950267"><ele>38.0</ele><time>2026-03-28T08:32:08.084Z</time></trkpt><trkpt lat="45.5619883" lon="11.494985"><ele>38.0</ele><time>2026-03-28T08:32:09.084Z</time></trkpt><trkpt lat="45.56218" lon="11.4949367"><ele>37.0</ele><time>2026-03-28T08:32:10.084Z</time></trkpt><trkpt lat="45.5623717" lon="11.4948983"><ele>36.0</ele><time>2026-03-28T08:32:11.084Z</time></trkpt><trkpt lat="45.562565" lon="11.494865"><ele>35.0</ele><time>2026-03-28T08:32:12.084Z</time></trkpt><trkpt lat="45.56277" lon="11.4948333"><ele>35.33333333333333</ele><time>2026-03-28T08:32:13.084Z</time></trkpt><trkpt lat="45.56298" lon="11.4947983"><ele>35.666666666666664</ele><time>2026-03-28T08:32:14.084Z</time></trkpt><trkpt lat="45.56318" lon="11.4947667"><ele>36.0</ele><time>2026-03-28T08:32:15.084Z</time></trkpt><trkpt lat="45.56338" lon="11.4947367"><ele>36.0</ele><time>2026-03-28T08:32:16.084Z</time></trkpt><trkpt lat="45.56358" lon="11.4947167"><ele>36.0</ele><time>2026-03-28T08:32:17.084Z</time></trkpt><trkpt lat="45.56377" lon="11.4946867"><ele>36.0</ele><time>2026-03-28T08:32:18.083Z</time></trkpt><trkpt lat="45.56395" lon="11.4946633"><ele>36.666666666666664</ele><time>2026-03-28T08:32:19.084Z</time></trkpt><trkpt lat="45.56414" lon="11.4946483"><ele>37.33333333333333</ele><time>2026-03-28T08:32:20.084Z</time></trkpt><trkpt lat="45.5643317" lon="11.4946367"><ele>38.0</ele><time>2026-03-28T08:32:21.084Z</time></trkpt><trkpt lat="45.5645283" lon="11.49461"><ele>37.0</ele><time>2026-03-28T08:32:22.084Z</time></trkpt><trkpt lat="45.564725" lon="11.4945833"><ele>36.0</ele><time>2026-03-28T08:32:23.084Z</time></trkpt><trkpt lat="45.5649283" lon="11.4945567"><ele>35.0</ele><time>2026-03-28T08:32:24.084Z</time></trkpt><trkpt lat="45.565135" lon="11.494535"><ele>35.0</ele><time>2026-03-28T08:32:25.084Z</time></trkpt><trkpt lat="45.56534" lon="11.4945067"><ele>35.0</ele><time>2026-03-28T08:32:26.084Z</time></trkpt><trkpt lat="45.5655633" lon="11.4944767"><ele>35.0</ele><time>2026-03-28T08:32:27.083Z</time></trkpt><trkpt lat="45.5657883" lon="11.4944433"><ele>35.5</ele><time>2026-03-28T08:32:28.084Z</time></trkpt><trkpt lat="45.56602" lon="11.49441"><ele>36.0</ele><time>2026-03-28T08:32:29.083Z</time></trkpt><trkpt lat="45.5662567" lon="11.4943733"><ele>37.0</ele><time>2026-03-28T08:32:30.084Z</time></trkpt><trkpt lat="45.5665067" lon="11.4943333"><ele>38.0</ele><time>2026-03-28T08:32:31.084Z</time></trkpt><trkpt lat="45.5667567" lon="11.49429"><ele>38.0</ele><time>2026-03-28T08:32:32.084Z</time></trkpt><trkpt lat="45.5670067" lon="11.4942467"><ele>38.0</ele><time>2026-03-28T08:32:33.084Z</time></trkpt><trkpt lat="45.56726" lon="11.49421"><ele>37.5</ele><time>2026-03-28T08:32:34.084Z</time></trkpt><trkpt lat="45.5675083" lon="11.4941783"><ele>37.0</ele><time>2026-03-28T08:32:35.083Z</time></trkpt><trkpt lat="45.5677583" lon="11.4941483"><ele>36.5</ele><time>2026-03-28T08:32:36.084Z</time></trkpt><trkpt lat="45.567995" lon="11.49413"><ele>36.0</ele><time>2026-03-28T08:32:37.084Z</time></trkpt><trkpt lat="45.5682217" lon="11.494105"><ele>36.0</ele><time>2026-03-28T08:32:38.084Z</time></trkpt><trkpt lat="45.568435" lon="11.494085"><ele>36.0</ele><time>2026-03-28T08:32:39.084Z</time></trkpt><trkpt lat="45.56864" lon="11.4940767"><ele>36.0</ele><time>2026-03-28T08:32:40.084Z</time></trkpt><trkpt lat="45.568845" lon="11.4940733"><ele>36.666666666666664</ele><time>2026-03-28T08:32:41.083Z</time></trkpt><trkpt lat="45.5690417" lon="11.4940833"><ele>37.33333333333333</ele><time>2026-03-28T08:32:42.084Z</time></trkpt><trkpt lat="45.56924" lon="11.4940967"><ele>38.0</ele><time>2026-03-28T08:32:43.084Z</time></trkpt><trkpt lat="45.5694333" lon="11.49412"><ele>38.0</ele><time>2026-03-28T08:32:44.083Z</time></trkpt><trkpt lat="45.56963" lon="11.4941567"><ele>38.0</ele><time>2026-03-28T08:32:45.083Z</time></trkpt><trkpt lat="45.5698267" lon="11.4941917"><ele>38.0</ele><time>2026-03-28T08:32:46.084Z</time></trkpt><trkpt lat="45.5700217" lon="11.49424"><ele>38.0</ele><time>2026-03-28T08:32:47.083Z</time></trkpt><trkpt lat="45.570215" lon="11.4942967"><ele>38.0</ele><time>2026-03-28T08:32:48.084Z</time></trkpt><trkpt lat="45.5704117" lon="11.49436"><ele>38.0</ele><time>2026-03-28T08:32:49.084Z</time></trkpt><trkpt lat="45.570615" lon="11.4944333"><ele>38.0</ele><time>2026-03-28T08:32:50.084Z</time></trkpt><trkpt lat="45.5708183" lon="11.494515"><ele>38.0</ele><time>2026-03-28T08:32:51.084Z</time></trkpt><trkpt lat="45.571015" lon="11.4946067"><ele>38.0</ele><time>2026-03-28T08:32:52.083Z</time></trkpt><trkpt lat="45.571215" lon="11.4947117"><ele>37.0</ele><time>2026-03-28T08:32:53.083Z</time></trkpt><trkpt lat="45.5714383" lon="11.4948267"><ele>36.0</ele><time>2026-03-28T08:32:54.083Z</time></trkpt><trkpt lat="45.5716767" lon="11.4949567"><ele>36.0</ele><time>2026-03-28T08:32:55.084Z</time></trkpt><trkpt lat="45.57193" lon="11.495125"><ele>36.0</ele><time>2026-03-28T08:32:56.084Z</time></trkpt><trkpt lat="45.57219" lon="11.4953317"><ele>37.0</ele><time>2026-03-28T08:32:57.084Z</time></trkpt><trkpt lat="45.572455" lon="11.4955733"><ele>38.0</ele><time>2026-03-28T08:32:58.084Z</time></trkpt><trkpt lat="45.5727233" lon="11.495825"><ele>38.0</ele><time>2026-03-28T08:32:59.083Z</time></trkpt><trkpt lat="45.57298" lon="11.4960933"><ele>38.0</ele><time>2026-03-28T08:33:00.084Z</time></trkpt><trkpt lat="45.573225" lon="11.49637"><ele>38.0</ele><time>2026-03-28T08:33:01.083Z</time></trkpt><trkpt lat="45.573455" lon="11.4966467"><ele>38.0</ele><time>2026-03-28T08:33:02.083Z</time></trkpt><trkpt lat="45.5736817" lon="11.4969383"><ele>38.0</ele><time>2026-03-28T08:33:03.084Z</time></trkpt><trkpt lat="45.5738833" lon="11.49725"><ele>38.0</ele><time>2026-03-28T08:33:04.084Z</time></trkpt><trkpt lat="45.574075" lon="11.49755"><ele>38.0</ele><time>2026-03-28T08:33:05.084Z</time></trkpt><trkpt lat="45.5742633" lon="11.4978533"><ele>38.0</ele><time>2026-03-28T08:33:06.084Z</time></trkpt><trkpt lat="45.574435" lon="11.4981633"><ele>38.0</ele><time>2026-03-28T08:33:07.084Z</time></trkpt><trkpt lat="45.574605" lon="11.4984733"><ele>38.0</ele><time>2026-03-28T08:33:08.084Z</time></trkpt><trkpt lat="45.5747767" lon="11.498775"><ele>38.0</ele><time>2026-03-28T08:33:09.083Z</time></trkpt><trkpt lat="45.5749483" lon="11.4990767"><ele>38.0</ele><time>2026-03-28T08:33:10.084Z</time></trkpt><trkpt lat="45.5751167" lon="11.49938"><ele>38.5</ele><time>2026-03-28T08:33:11.084Z</time></trkpt><trkpt lat="45.575285" lon="11.4996667"><ele>39.0</ele><time>2026-03-28T08:33:12.084Z</time></trkpt><trkpt lat="45.5754517" lon="11.4999667"><ele>39.0</ele><time>2026-03-28T08:33:13.083Z</time></trkpt><trkpt lat="45.5756167" lon="11.50025"><ele>39.0</ele><time>2026-03-28T08:33:14.083Z</time></trkpt><trkpt lat="45.5757783" lon="11.500535"><ele>39.0</ele><time>2026-03-28T08:33:15.084Z</time></trkpt><trkpt lat="45.57594" lon="11.500815"><ele>39.0</ele><time>2026-03-28T08:33:16.083Z</time></trkpt><trkpt lat="45.5760967" lon="11.5010983"><ele>38.5</ele><time>2026-03-28T08:33:17.084Z</time></trkpt><trkpt lat="45.5762517" lon="11.5013767"><ele>38.0</ele><time>2026-03-28T08:33:18.083Z</time></trkpt><trkpt lat="45.5764017" lon="11.5016467"><ele>38.0</ele><time>2026-03-28T08:33:19.083Z</time></trkpt><trkpt lat="45.5765567" lon="11.50192"><ele>38.0</ele><time>2026-03-28T08:33:20.084Z</time></trkpt><trkpt lat="45.5767033" lon="11.50218"><ele>38.0</ele><time>2026-03-28T08:33:21.084Z</time></trkpt><trkpt lat="45.57685" lon="11.5024383"><ele>38.0</ele><time>2026-03-28T08:33:22.084Z</time></trkpt><trkpt lat="45.57699" lon="11.5026917"><ele>38.33333333333333</ele><time>2026-03-28T08:33:23.084Z</time></trkpt><trkpt lat="45.5771283" lon="11.5029383"><ele>38.666666666666664</ele><time>2026-03-28T08:33:24.084Z</time></trkpt><trkpt lat="45.5772633" lon="11.5031833"><ele>39.0</ele><time>2026-03-28T08:33:25.083Z</time></trkpt><trkpt lat="45.5773983" lon="11.5034167"><ele>39.0</ele><time>2026-03-28T08:33:26.083Z</time></trkpt><trkpt lat="45.5775317" lon="11.5036517"><ele>39.0</ele><time>2026-03-28T08:33:27.084Z</time></trkpt><trkpt lat="45.577665" lon="11.50389"><ele>39.0</ele><time>2026-03-28T08:33:28.083Z</time></trkpt><trkpt lat="45.5778" lon="11.50412"><ele>39.0</ele><time>2026-03-28T08:33:29.084Z</time></trkpt><trkpt lat="45.57793" lon="11.5043567"><ele>39.0</ele><time>2026-03-28T08:33:30.083Z</time></trkpt><trkpt lat="45.5780583" lon="11.50459"><ele>39.0</ele><time>2026-03-28T08:33:31.084Z</time></trkpt><trkpt lat="45.57819" lon="11.5048167"><ele>39.0</ele><time>2026-03-28T08:33:32.084Z</time></trkpt><trkpt lat="45.5783183" lon="11.5050417"><ele>39.0</ele><time>2026-03-28T08:33:33.084Z</time></trkpt><trkpt lat="45.57845" lon="11.5052633"><ele>39.0</ele><time>2026-03-28T08:33:34.084Z</time></trkpt><trkpt lat="45.578575" lon="11.505485"><ele>39.333333333333336</ele><time>2026-03-28T08:33:35.084Z</time></trkpt><trkpt lat="45.578695" lon="11.5057033"><ele>39.66666666666667</ele><time>2026-03-28T08:33:36.084Z</time></trkpt><trkpt lat="45.5788083" lon="11.5059167"><ele>40.0</ele><time>2026-03-28T08:33:37.084Z</time></trkpt><trkpt lat="45.5789167" lon="11.50613"><ele>40.0</ele><time>2026-03-28T08:33:38.083Z</time></trkpt><trkpt lat="45.5790133" lon="11.5063283"><ele>40.0</ele><time>2026-03-28T08:33:39.084Z</time></trkpt><trkpt lat="45.5791067" lon="11.50652"><ele>40.0</ele><time>2026-03-28T08:33:40.084Z</time></trkpt><trkpt lat="45.579195" lon="11.5067083"><ele>40.0</ele><time>2026-03-28T08:33:41.084Z</time></trkpt><trkpt lat="45.5792817" lon="11.5068833"><ele>40.0</ele><time>2026-03-28T08:33:42.084Z</time></trkpt><trkpt lat="45.579365" lon="11.50706"><ele>40.0</ele><time>2026-03-28T08:33:43.084Z</time></trkpt><trkpt lat="45.57944" lon="11.507245"><ele>40.0</ele><time>2026-03-28T08:33:44.083Z</time></trkpt><trkpt lat="45.5795183" lon="11.5074367"><ele>40.0</ele><time>2026-03-28T08:33:45.084Z</time></trkpt><trkpt lat="45.5795983" lon="11.50763"><ele>40.0</ele><time>2026-03-28T08:33:46.084Z</time></trkpt><trkpt lat="45.57967" lon="11.50781"><ele>40.0</ele><time>2026-03-28T08:33:47.084Z</time></trkpt><trkpt lat="45.5797333" lon="11.5079867"><ele>40.0</ele><time>2026-03-28T08:33:48.084Z</time></trkpt><trkpt lat="45.579785" lon="11.508155"><ele>40.0</ele><time>2026-03-28T08:33:49.084Z</time></trkpt><trkpt lat="45.579835" lon="11.50831"><ele>40.0</ele><time>2026-03-28T08:33:50.084Z</time></trkpt><trkpt lat="45.5798867" lon="11.508455"><ele>40.0</ele><time>2026-03-28T08:33:51.084Z</time></trkpt><trkpt lat="45.5799267" lon="11.5086033"><ele>40.0</ele><time>2026-03-28T08:33:52.084Z</time></trkpt><trkpt lat="45.5799617" lon="11.5087467"><ele>40.0</ele><time>2026-03-28T08:33:53.083Z</time></trkpt><trkpt lat="45.579985" lon="11.5088733"><ele>40.0</ele><time>2026-03-28T08:33:54.084Z</time></trkpt><trkpt lat="45.5799817" lon="11.5089783"><ele>40.0</ele><time>2026-03-28T08:33:55.084Z</time></trkpt><trkpt lat="45.5799633" lon="11.50909"><ele>40.0</ele><time>2026-03-28T08:33:56.083Z</time></trkpt><trkpt lat="45.5799233" lon="11.5091933"><ele>40.0</ele><time>2026-03-28T08:33:57.083Z</time></trkpt><trkpt lat="45.5798633" lon="11.5093083"><ele>40.0</ele><time>2026-03-28T08:33:58.084Z</time></trkpt><trkpt lat="45.5798033" lon="11.5094567"><ele>39.75</ele><time>2026-03-28T08:33:59.084Z</time></trkpt><trkpt lat="45.5797667" lon="11.5096167"><ele>39.5</ele><time>2026-03-28T08:34:00.084Z</time></trkpt><trkpt lat="45.5797783" lon="11.5097983"><ele>39.25</ele><time>2026-03-28T08:34:01.084Z</time></trkpt><trkpt lat="45.57983" lon="11.5099733"><ele>39.0</ele><time>2026-03-28T08:34:02.083Z</time></trkpt><trkpt lat="45.57991" lon="11.510125"><ele>39.0</ele><time>2026-03-28T08:34:03.084Z</time></trkpt><trkpt lat="45.5800133" lon="11.5102317"><ele>39.0</ele><time>2026-03-28T08:34:04.084Z</time></trkpt><trkpt lat="45.5801183" lon="11.5102833"><ele>39.0</ele><time>2026-03-28T08:34:05.083Z</time></trkpt><trkpt lat="45.5802233" lon="11.5102883"><ele>39.0</ele><time>2026-03-28T08:34:06.083Z</time></trkpt><trkpt lat="45.5803183" lon="11.51026"><ele>39.0</ele><time>2026-03-28T08:34:07.084Z</time></trkpt><trkpt lat="45.5804017" lon="11.510215"><ele>39.0</ele><time>2026-03-28T08:34:08.084Z</time></trkpt><trkpt lat="45.5804767" lon="11.51016"><ele>39.0</ele><time>2026-03-28T08:34:09.083Z</time></trkpt><trkpt lat="45.5805433" lon="11.51008"><ele>39.0</ele><time>2026-03-28T08:34:10.084Z</time></trkpt><trkpt lat="45.5805967" lon="11.5099817"><ele>39.0</ele><time>2026-03-28T08:34:11.084Z</time></trkpt><trkpt lat="45.5806433" lon="11.5098617"><ele>39.0</ele><time>2026-03-28T08:34:12.084Z</time></trkpt><trkpt lat="45.5806683" lon="11.5097367"><ele>39.0</ele><time>2026-03-28T08:34:13.084Z</time></trkpt><trkpt lat="45.5806883" lon="11.509605"><ele>39.2</ele><time>2026-03-28T08:34:14.084Z</time></trkpt><trkpt lat="45.5807233" lon="11.5094967"><ele>39.4</ele><time>2026-03-28T08:34:15.084Z</time></trkpt><trkpt lat="45.58078" lon="11.5094083"><ele>39.6</ele><time>2026-03-28T08:34:16.084Z</time></trkpt><trkpt lat="45.5808517" lon="11.50934"><ele>39.8</ele><time>2026-03-28T08:34:17.084Z</time></trkpt><trkpt lat="45.5809333" lon="11.50927"><ele>40.0</ele><time>2026-03-28T08:34:18.084Z</time></trkpt><trkpt lat="45.581015" lon="11.5091833"><ele>40.0</ele><time>2026-03-28T08:34:19.084Z</time></trkpt><trkpt lat="45.5811017" lon="11.509085"><ele>40.0</ele><time>2026-03-28T08:34:20.084Z</time></trkpt><trkpt lat="45.58118" lon="11.5089733"><ele>40.0</ele><time>2026-03-28T08:34:21.084Z</time></trkpt><trkpt lat="45.5812533" lon="11.50887"><ele>40.0</ele><time>2026-03-28T08:34:22.083Z</time></trkpt><trkpt lat="45.5813233" lon="11.50877"><ele>40.0</ele><time>2026-03-28T08:34:23.084Z</time></trkpt><trkpt lat="45.5813917" lon="11.508675"><ele>39.8</ele><time>2026-03-28T08:34:24.084Z</time></trkpt><trkpt lat="45.5814617" lon="11.5085833"><ele>39.6</ele><time>2026-03-28T08:34:25.084Z</time></trkpt><trkpt lat="45.5815367" lon="11.5084767"><ele>39.4</ele><time>2026-03-28T08:34:26.083Z</time></trkpt><trkpt lat="45.581615" lon="11.5083633"><ele>39.2</ele><time>2026-03-28T08:34:27.084Z</time></trkpt><trkpt lat="45.5816967" lon="11.5082417"><ele>39.0</ele><time>2026-03-28T08:34:28.083Z</time></trkpt><trkpt lat="45.5817733" lon="11.5081167"><ele>39.0</ele><time>2026-03-28T08:34:29.084Z</time></trkpt><trkpt lat="45.5818367" lon="11.507985"><ele>39.0</ele><time>2026-03-28T08:34:30.084Z</time></trkpt><trkpt lat="45.5818917" lon="11.507855"><ele>39.0</ele><time>2026-03-28T08:34:31.084Z</time></trkpt><trkpt lat="45.5819367" lon="11.5077117"><ele>39.0</ele><time>2026-03-28T08:34:32.084Z</time></trkpt><trkpt lat="45.5819683" lon="11.5075633"><ele>39.0</ele><time>2026-03-28T08:34:33.084Z</time></trkpt><trkpt lat="45.581995" lon="11.5074217"><ele>39.2</ele><time>2026-03-28T08:34:34.084Z</time></trkpt><trkpt lat="45.5820183" lon="11.5072933"><ele>39.4</ele><time>2026-03-28T08:34:35.083Z</time></trkpt><trkpt lat="45.5820533" lon="11.50717"><ele>39.6</ele><time>2026-03-28T08:34:36.083Z</time></trkpt><trkpt lat="45.582105" lon="11.5070517"><ele>39.8</ele><time>2026-03-28T08:34:37.084Z</time></trkpt><trkpt lat="45.582175" lon="11.506935"><ele>40.0</ele><time>2026-03-28T08:34:38.084Z</time></trkpt><trkpt lat="45.5822467" lon="11.506805"><ele>40.25</ele><time>2026-03-28T08:34:39.084Z</time></trkpt><trkpt lat="45.5822867" lon="11.5066467"><ele>40.5</ele><time>2026-03-28T08:34:40.084Z</time></trkpt><trkpt lat="45.5823" lon="11.5064783"><ele>40.75</ele><time>2026-03-28T08:34:41.084Z</time></trkpt><trkpt lat="45.5823283" lon="11.506305"><ele>41.0</ele><time>2026-03-28T08:34:42.084Z</time></trkpt><trkpt lat="45.582405" lon="11.5061433"><ele>40.33333333333333</ele><time>2026-03-28T08:34:43.083Z</time></trkpt><trkpt lat="45.582515" lon="11.506"><ele>39.666666666666664</ele><time>2026-03-28T08:34:44.084Z</time></trkpt><trkpt lat="45.5826467" lon="11.5058633"><ele>39.0</ele><time>2026-03-28T08:34:45.084Z</time></trkpt><trkpt lat="45.5827917" lon="11.5057283"><ele>39.333333333333336</ele><time>2026-03-28T08:34:46.084Z</time></trkpt><trkpt lat="45.5829367" lon="11.5055833"><ele>39.66666666666667</ele><time>2026-03-28T08:34:47.084Z</time></trkpt><trkpt lat="45.58309" lon="11.5054433"><ele>40.0</ele><time>2026-03-28T08:34:48.083Z</time></trkpt><trkpt lat="45.5832483" lon="11.5053133"><ele>40.333333333333336</ele><time>2026-03-28T08:34:49.084Z</time></trkpt><trkpt lat="45.5834067" lon="11.5051783"><ele>40.666666666666664</ele><time>2026-03-28T08:34:50.084Z</time></trkpt><trkpt lat="45.583565" lon="11.5050483"><ele>41.0</ele><time>2026-03-28T08:34:51.084Z</time></trkpt><trkpt lat="45.5837133" lon="11.5049233"><ele>41.0</ele><time>2026-03-28T08:34:52.084Z</time></trkpt><trkpt lat="45.58386" lon="11.504795"><ele>41.0</ele><time>2026-03-28T08:34:53.084Z</time></trkpt><trkpt lat="45.5839983" lon="11.504675"><ele>41.0</ele><time>2026-03-28T08:34:54.084Z</time></trkpt><trkpt lat="45.5841233" lon="11.504565"><ele>41.25</ele><time>2026-03-28T08:34:55.084Z</time></trkpt><trkpt lat="45.584245" lon="11.5044733"><ele>41.5</ele><time>2026-03-28T08:34:56.084Z</time></trkpt><trkpt lat="45.5843583" lon="11.5043783"><ele>41.75</ele><time>2026-03-28T08:34:57.084Z</time></trkpt><trkpt lat="45.5844633" lon="11.5042833"><ele>42.0</ele><time>2026-03-28T08:34:58.084Z</time></trkpt><trkpt lat="45.58458" lon="11.5041867"><ele>42.0</ele><time>2026-03-28T08:34:59.084Z</time></trkpt><trkpt lat="45.5846983" lon="11.5040883"><ele>42.0</ele><time>2026-03-28T08:35:00.084Z</time></trkpt><trkpt lat="45.58481" lon="11.503985"><ele>42.0</ele><time>2026-03-28T08:35:01.083Z</time></trkpt><trkpt lat="45.5849217" lon="11.5038867"><ele>42.0</ele><time>2026-03-28T08:35:02.083Z</time></trkpt><trkpt lat="45.5850283" lon="11.5037933"><ele>42.25</ele><time>2026-03-28T08:35:03.084Z</time></trkpt><trkpt lat="45.5851417" lon="11.5036883"><ele>42.5</ele><time>2026-03-28T08:35:04.083Z</time></trkpt><trkpt lat="45.58526" lon="11.5035833"><ele>42.75</ele><time>2026-03-28T08:35:05.084Z</time></trkpt><trkpt lat="45.5853833" lon="11.503485"><ele>43.0</ele><time>2026-03-28T08:35:06.083Z</time></trkpt><trkpt lat="45.585515" lon="11.503385"><ele>43.0</ele><time>2026-03-28T08:35:07.083Z</time></trkpt><trkpt lat="45.5856467" lon="11.5032883"><ele>43.0</ele><time>2026-03-28T08:35:08.084Z</time></trkpt><trkpt lat="45.5857783" lon="11.5031883"><ele>43.0</ele><time>2026-03-28T08:35:09.083Z</time></trkpt><trkpt lat="45.58591" lon="11.5030817"><ele>43.0</ele><time>2026-03-28T08:35:10.084Z</time></trkpt><trkpt lat="45.5860383" lon="11.5029617"><ele>43.0</ele><time>2026-03-28T08:35:11.084Z</time></trkpt><trkpt lat="45.58617" lon="11.5028417"><ele>43.0</ele><time>2026-03-28T08:35:12.084Z</time></trkpt><trkpt lat="45.5863067" lon="11.5027233"><ele>43.0</ele><time>2026-03-28T08:35:13.084Z</time></trkpt><trkpt lat="45.586445" lon="11.5026067"><ele>43.333333333333336</ele><time>2026-03-28T08:35:14.084Z</time></trkpt><trkpt lat="45.586595" lon="11.502495"><ele>43.666666666666664</ele><time>2026-03-28T08:35:15.084Z</time></trkpt><trkpt lat="45.5867333" lon="11.5023733"><ele>44.0</ele><time>2026-03-28T08:35:16.084Z</time></trkpt><trkpt lat="45.5868733" lon="11.502245"><ele>44.0</ele><time>2026-03-28T08:35:17.083Z</time></trkpt><trkpt lat="45.58701" lon="11.50212"><ele>44.0</ele><time>2026-03-28T08:35:18.084Z</time></trkpt><trkpt lat="45.58715" lon="11.5020017"><ele>44.0</ele><time>2026-03-28T08:35:19.084Z</time></trkpt><trkpt lat="45.5872917" lon="11.5018733"><ele>44.0</ele><time>2026-03-28T08:35:20.084Z</time></trkpt><trkpt lat="45.58743" lon="11.501755"><ele>44.0</ele><time>2026-03-28T08:35:21.084Z</time></trkpt><trkpt lat="45.5875633" lon="11.501645"><ele>44.0</ele><time>2026-03-28T08:35:22.084Z</time></trkpt><trkpt lat="45.587695" lon="11.5015367"><ele>44.0</ele><time>2026-03-28T08:35:23.084Z</time></trkpt><trkpt lat="45.5878283" lon="11.5014267"><ele>44.0</ele><time>2026-03-28T08:35:24.084Z</time></trkpt><trkpt lat="45.5879567" lon="11.501315"><ele>44.0</ele><time>2026-03-28T08:35:25.084Z</time></trkpt><trkpt lat="45.58809" lon="11.5012017"><ele>44.33333333333333</ele><time>2026-03-28T08:35:26.084Z</time></trkpt><trkpt lat="45.58822" lon="11.5010883"><ele>44.666666666666664</ele><time>2026-03-28T08:35:27.084Z</time></trkpt><trkpt lat="45.5883517" lon="11.5009733"><ele>45.0</ele><time>2026-03-28T08:35:28.083Z</time></trkpt><trkpt lat="45.5884867" lon="11.50086"><ele>45.0</ele><time>2026-03-28T08:35:29.084Z</time></trkpt><trkpt lat="45.5886167" lon="11.5007467"><ele>45.0</ele><time>2026-03-28T08:35:30.084Z</time></trkpt><trkpt lat="45.5887483" lon="11.5006317"><ele>45.0</ele><time>2026-03-28T08:35:31.083Z</time></trkpt><trkpt lat="45.5888767" lon="11.5005183"><ele>45.666666666666664</ele><time>2026-03-28T08:35:32.084Z</time></trkpt><trkpt lat="45.58901" lon="11.5004017"><ele>46.33333333333333</ele><time>2026-03-28T08:35:33.084Z</time></trkpt><trkpt lat="45.5891467" lon="11.500285"><ele>47.0</ele><time>2026-03-28T08:35:34.084Z</time></trkpt><trkpt lat="45.589285" lon="11.5001667"><ele>47.0</ele><time>2026-03-28T08:35:35.084Z</time></trkpt><trkpt lat="45.58942" lon="11.50005"><ele>47.0</ele><time>2026-03-28T08:35:36.084Z</time></trkpt><trkpt lat="45.589555" lon="11.4999333"><ele>47.0</ele><time>2026-03-28T08:35:37.084Z</time></trkpt><trkpt lat="45.5896867" lon="11.49982"><ele>47.0</ele><time>2026-03-28T08:35:38.084Z</time></trkpt><trkpt lat="45.589815" lon="11.4997067"><ele>47.0</ele><time>2026-03-28T08:35:39.084Z</time></trkpt><trkpt lat="45.5899433" lon="11.4995983"><ele>47.0</ele><time>2026-03-28T08:35:40.084Z</time></trkpt><trkpt lat="45.59007" lon="11.4994967"><ele>47.0</ele><time>2026-03-28T08:35:41.084Z</time></trkpt><trkpt lat="45.5901983" lon="11.49939"><ele>46.5</ele><time>2026-03-28T08:35:42.083Z</time></trkpt><trkpt lat="45.5903217" lon="11.499285"><ele>46.0</ele><time>2026-03-28T08:35:43.084Z</time></trkpt><trkpt lat="45.5904383" lon="11.4991833"><ele>45.5</ele><time>2026-03-28T08:35:44.083Z</time></trkpt><trkpt lat="45.5905583" lon="11.4990867"><ele>45.0</ele><time>2026-03-28T08:35:45.084Z</time></trkpt><trkpt lat="45.5906817" lon="11.4989817"><ele>45.0</ele><time>2026-03-28T08:35:46.084Z</time></trkpt><trkpt lat="45.590805" lon="11.49888"><ele>45.0</ele><time>2026-03-28T08:35:47.084Z</time></trkpt><trkpt lat="45.5909267" lon="11.49877"><ele>45.0</ele><time>2026-03-28T08:35:48.084Z</time></trkpt><trkpt lat="45.5910533" lon="11.498655"><ele>45.0</ele><time>2026-03-28T08:35:49.084Z</time></trkpt><trkpt lat="45.5911767" lon="11.4985417"><ele>45.0</ele><time>2026-03-28T08:35:50.083Z</time></trkpt><trkpt lat="45.5912983" lon="11.498435"><ele>45.0</ele><time>2026-03-28T08:35:51.084Z</time></trkpt><trkpt lat="45.59141" lon="11.4983367"><ele>45.0</ele><time>2026-03-28T08:35:52.083Z</time></trkpt><trkpt lat="45.59152" lon="11.49824"><ele>45.0</ele><time>2026-03-28T08:35:53.084Z</time></trkpt><trkpt lat="45.5916167" lon="11.4981517"><ele>45.0</ele><time>2026-03-28T08:35:54.084Z</time></trkpt><trkpt lat="45.5917033" lon="11.498085"><ele>45.0</ele><time>2026-03-28T08:35:55.084Z</time></trkpt><trkpt lat="45.5917767" lon="11.4980433"><ele>45.0</ele><time>2026-03-28T08:35:56.084Z</time></trkpt><trkpt lat="45.59187" lon="11.4980083"><ele>45.0</ele><time>2026-03-28T08:35:58.083Z</time></trkpt><trkpt lat="45.591935" lon="11.49801"><ele>45.0</ele><time>2026-03-28T08:36:00.084Z</time></trkpt><trkpt lat="45.5920433" lon="11.4980233"><ele>45.0</ele><time>2026-03-28T08:36:02.083Z</time></trkpt><trkpt lat="45.5921633" lon="11.4980133"><ele>45.57142857142857</ele><time>2026-03-28T08:36:04.084Z</time></trkpt><trkpt lat="45.592225" lon="11.4979767"><ele>46.142857142857146</ele><time>2026-03-28T08:36:05.083Z</time></trkpt><trkpt lat="45.5922783" lon="11.4979133"><ele>46.714285714285715</ele><time>2026-03-28T08:36:06.083Z</time></trkpt><trkpt lat="45.59231" lon="11.4978267"><ele>47.285714285714285</ele><time>2026-03-28T08:36:07.084Z</time></trkpt><trkpt lat="45.5923317" lon="11.4977333"><ele>47.85714285714286</ele><time>2026-03-28T08:36:08.084Z</time></trkpt><trkpt lat="45.5923633" lon="11.4976433"><ele>48.42857142857143</ele><time>2026-03-28T08:36:09.084Z</time></trkpt><trkpt lat="45.5924117" lon="11.4975567"><ele>49.0</ele><time>2026-03-28T08:36:10.084Z</time></trkpt><trkpt lat="45.5924717" lon="11.4974733"><ele>49.0</ele><time>2026-03-28T08:36:11.084Z</time></trkpt><trkpt lat="45.59254" lon="11.4973933"><ele>49.0</ele><time>2026-03-28T08:36:12.083Z</time></trkpt><trkpt lat="45.5926167" lon="11.4973267"><ele>49.0</ele><time>2026-03-28T08:36:13.084Z</time></trkpt><trkpt lat="45.592715" lon="11.4972833"><ele>49.0</ele><time>2026-03-28T08:36:14.084Z</time></trkpt><trkpt lat="45.5928133" lon="11.4972667"><ele>49.0</ele><time>2026-03-28T08:36:15.083Z</time></trkpt><trkpt lat="45.5929117" lon="11.4972467"><ele>48.800000000000004</ele><time>2026-03-28T08:36:16.084Z</time></trkpt><trkpt lat="45.5930133" lon="11.497235"><ele>48.6</ele><time>2026-03-28T08:36:17.084Z</time></trkpt><trkpt lat="45.593115" lon="11.49722"><ele>48.4</ele><time>2026-03-28T08:36:18.084Z</time></trkpt><trkpt lat="45.5932167" lon="11.4972083"><ele>48.2</ele><time>2026-03-28T08:36:19.084Z</time></trkpt><trkpt lat="45.5933267" lon="11.4971917"><ele>48.0</ele><time>2026-03-28T08:36:20.084Z</time></trkpt><trkpt lat="45.59343" lon="11.497175"><ele>48.0</ele><time>2026-03-28T08:36:21.083Z</time></trkpt><trkpt lat="45.59353" lon="11.4971633"><ele>48.0</ele><time>2026-03-28T08:36:22.084Z</time></trkpt><trkpt lat="45.5936283" lon="11.49715"><ele>48.0</ele><time>2026-03-28T08:36:23.084Z</time></trkpt><trkpt lat="45.593725" lon="11.497135"><ele>48.0</ele><time>2026-03-28T08:36:24.084Z</time></trkpt><trkpt lat="45.5938283" lon="11.4971167"><ele>48.0</ele><time>2026-03-28T08:36:25.084Z</time></trkpt><trkpt lat="45.5939367" lon="11.4970933"><ele>47.5</ele><time>2026-03-28T08:36:26.084Z</time></trkpt><trkpt lat="45.594055" lon="11.4970633"><ele>47.0</ele><time>2026-03-28T08:36:27.083Z</time></trkpt><trkpt lat="45.594185" lon="11.4970283"><ele>46.5</ele><time>2026-03-28T08:36:28.084Z</time></trkpt><trkpt lat="45.594315" lon="11.497"><ele>46.0</ele><time>2026-03-28T08:36:29.084Z</time></trkpt><trkpt lat="45.594435" lon="11.4969817"><ele>46.199999999999996</ele><time>2026-03-28T08:36:30.084Z</time></trkpt><trkpt lat="45.5945333" lon="11.4969617"><ele>46.4</ele><time>2026-03-28T08:36:31.084Z</time></trkpt><trkpt lat="45.5946033" lon="11.496945"><ele>46.6</ele><time>2026-03-28T08:36:32.084Z</time></trkpt><trkpt lat="45.5947167" lon="11.4969467"><ele>46.8</ele><time>2026-03-28T08:36:34.084Z</time></trkpt><trkpt lat="45.594805" lon="11.4970583"><ele>47.0</ele><time>2026-03-28T08:36:36.083Z</time></trkpt><trkpt lat="45.5948533" lon="11.4971367"><ele>47.0</ele><time>2026-03-28T08:36:37.084Z</time></trkpt><trkpt lat="45.5949133" lon="11.497185"><ele>47.0</ele><time>2026-03-28T08:36:38.084Z</time></trkpt><trkpt lat="45.5949817" lon="11.497185"><ele>47.0</ele><time>2026-03-28T08:36:39.084Z</time></trkpt><trkpt lat="45.59505" lon="11.4971367"><ele>47.0</ele><time>2026-03-28T08:36:40.083Z</time></trkpt><trkpt lat="45.5950933" lon="11.49705"><ele>47.0</ele><time>2026-03-28T08:36:41.083Z</time></trkpt><trkpt lat="45.59513" lon="11.49695"><ele>47.0</ele><time>2026-03-28T08:36:42.084Z</time></trkpt><trkpt lat="45.5952183" lon="11.4968083"><ele>47.0</ele><time>2026-03-28T08:36:44.084Z</time></trkpt><trkpt lat="45.5952933" lon="11.4967517"><ele>47.0</ele><time>2026-03-28T08:36:45.084Z</time></trkpt><trkpt lat="45.5953867" lon="11.49671"><ele>47.0</ele><time>2026-03-28T08:36:46.084Z</time></trkpt><trkpt lat="45.595485" lon="11.4966733"><ele>47.0</ele><time>2026-03-28T08:36:47.084Z</time></trkpt><trkpt lat="45.59559" lon="11.4966267"><ele>47.0</ele><time>2026-03-28T08:36:48.084Z</time></trkpt><trkpt lat="45.5957083" lon="11.4965883"><ele>47.400000000000006</ele><time>2026-03-28T08:36:49.084Z</time></trkpt><trkpt lat="45.5958233" lon="11.4965433"><ele>47.800000000000004</ele><time>2026-03-28T08:36:50.084Z</time></trkpt><trkpt lat="45.595935" lon="11.4965167"><ele>48.2</ele><time>2026-03-28T08:36:51.083Z</time></trkpt><trkpt lat="45.5960433" lon="11.4964867"><ele>48.6</ele><time>2026-03-28T08:36:52.084Z</time></trkpt><trkpt lat="45.5961367" lon="11.4964583"><ele>49.0</ele><time>2026-03-28T08:36:53.083Z</time></trkpt><trkpt lat="45.5962167" lon="11.496435"><ele>48.99999999999999</ele><time>2026-03-28T08:36:54.083Z</time></trkpt><trkpt lat="45.5962817" lon="11.4964167"><ele>49.0</ele><time>2026-03-28T08:36:55.084Z</time></trkpt><trkpt lat="45.5963617" lon="11.496395"><ele>49.0</ele><time>2026-03-28T08:36:57.084Z</time></trkpt><trkpt lat="45.5964433" lon="11.49637"><ele>49.0</ele><time>2026-03-28T08:37:02.084Z</time></trkpt><trkpt lat="45.5965217" lon="11.49635"><ele>48.99999999999999</ele><time>2026-03-28T08:37:05.084Z</time></trkpt><trkpt lat="45.5966067" lon="11.4963217"><ele>49.0</ele><time>2026-03-28T08:37:08.084Z</time></trkpt><trkpt lat="45.5966817" lon="11.4962883"><ele>49.0</ele><time>2026-03-28T08:37:12.084Z</time></trkpt><trkpt lat="45.5967833" lon="11.496225"><ele>49.0</ele><time>2026-03-28T08:37:27.083Z</time></trkpt><trkpt lat="45.5968967" lon="11.4961833"><ele>49.0</ele><time>2026-03-28T08:37:29.083Z</time></trkpt><trkpt lat="45.5970133" lon="11.4961317"><ele>49.0</ele><time>2026-03-28T08:37:31.084Z</time></trkpt><trkpt lat="45.597125" lon="11.4960767"><ele>49.166666666666664</ele><time>2026-03-28T08:37:33.084Z</time></trkpt><trkpt lat="45.5971833" lon="11.4960417"><ele>49.33333333333333</ele><time>2026-03-28T08:37:34.083Z</time></trkpt><trkpt lat="45.5972533" lon="11.496015"><ele>49.5</ele><time>2026-03-28T08:37:35.083Z</time></trkpt><trkpt lat="45.5973317" lon="11.4959683"><ele>49.66666666666667</ele><time>2026-03-28T08:37:36.083Z</time></trkpt><trkpt lat="45.597415" lon="11.495945"><ele>49.833333333333336</ele><time>2026-03-28T08:37:37.084Z</time></trkpt><trkpt lat="45.597495" lon="11.4959267"><ele>50.0</ele><time>2026-03-28T08:37:38.084Z</time></trkpt><trkpt lat="45.5975617" lon="11.4959083"><ele>50.0</ele><time>2026-03-28T08:37:39.084Z</time></trkpt><trkpt lat="45.597625" lon="11.4958933"><ele>50.0</ele><time>2026-03-28T08:37:40.084Z</time></trkpt><trkpt lat="45.5977367" lon="11.4958667"><ele>50.0</ele><time>2026-03-28T08:37:42.084Z</time></trkpt><trkpt lat="45.597865" lon="11.4958217"><ele>50.0</ele><time>2026-03-28T08:37:44.084Z</time></trkpt><trkpt lat="45.597945" lon="11.495785"><ele>50.0</ele><time>2026-03-28T08:37:45.084Z</time></trkpt><trkpt lat="45.5980283" lon="11.4957533"><ele>50.4</ele><time>2026-03-28T08:37:46.084Z</time></trkpt><trkpt lat="45.59812" lon="11.4957317"><ele>50.8</ele><time>2026-03-28T08:37:47.084Z</time></trkpt><trkpt lat="45.5982083" lon="11.495695"><ele>51.2</ele><time>2026-03-28T08:37:48.084Z</time></trkpt><trkpt lat="45.5983033" lon="11.49566"><ele>51.6</ele><time>2026-03-28T08:37:49.084Z</time></trkpt><trkpt lat="45.598405" lon="11.4956233"><ele>52.0</ele><time>2026-03-28T08:37:50.084Z</time></trkpt><trkpt lat="45.5985033" lon="11.49559"><ele>52.0</ele><time>2026-03-28T08:37:51.084Z</time></trkpt><trkpt lat="45.5986033" lon="11.4955433"><ele>52.0</ele><time>2026-03-28T08:37:52.084Z</time></trkpt><trkpt lat="45.59871" lon="11.49549"><ele>52.0</ele><time>2026-03-28T08:37:53.083Z</time></trkpt><trkpt lat="45.5988183" lon="11.4954467"><ele>52.0</ele><time>2026-03-28T08:37:54.084Z</time></trkpt><trkpt lat="45.5989167" lon="11.4954083"><ele>52.0</ele><time>2026-03-28T08:37:55.084Z</time></trkpt><trkpt lat="45.5990083" lon="11.49537"><ele>51.6</ele><time>2026-03-28T08:37:56.083Z</time></trkpt><trkpt lat="45.5991067" lon="11.4953383"><ele>51.2</ele><time>2026-03-28T08:37:57.083Z</time></trkpt><trkpt lat="45.5992033" lon="11.4953033"><ele>50.8</ele><time>2026-03-28T08:37:58.083Z</time></trkpt><trkpt lat="45.5993083" lon="11.4952683"><ele>50.4</ele><time>2026-03-28T08:37:59.084Z</time></trkpt><trkpt lat="45.5994017" lon="11.4952333"><ele>50.0</ele><time>2026-03-28T08:38:00.084Z</time></trkpt><trkpt lat="45.5994917" lon="11.4952017"><ele>49.66666666666667</ele><time>2026-03-28T08:38:01.084Z</time></trkpt><trkpt lat="45.5995733" lon="11.49517"><ele>49.333333333333336</ele><time>2026-03-28T08:38:02.084Z</time></trkpt><trkpt lat="45.5996567" lon="11.4951467"><ele>49.0</ele><time>2026-03-28T08:38:03.084Z</time></trkpt><trkpt lat="45.5997267" lon="11.495125"><ele>48.66666666666667</ele><time>2026-03-28T08:38:04.084Z</time></trkpt><trkpt lat="45.599795" lon="11.49511"><ele>48.333333333333336</ele><time>2026-03-28T08:38:05.084Z</time></trkpt><trkpt lat="45.59986" lon="11.49511"><ele>48.0</ele><time>2026-03-28T08:38:06.084Z</time></trkpt><trkpt lat="45.599935" lon="11.49512"><ele>48.0</ele><time>2026-03-28T08:38:07.083Z</time></trkpt><trkpt lat="45.6000167" lon="11.4951133"><ele>48.0</ele><time>2026-03-28T08:38:08.084Z</time></trkpt><trkpt lat="45.600105" lon="11.495085"><ele>48.0</ele><time>2026-03-28T08:38:09.084Z</time></trkpt><trkpt lat="45.6001917" lon="11.4950133"><ele>48.0</ele><time>2026-03-28T08:38:10.084Z</time></trkpt><trkpt lat="45.60029" lon="11.49493"><ele>48.0</ele><time>2026-03-28T08:38:11.084Z</time></trkpt><trkpt lat="45.6004017" lon="11.494865"><ele>48.25</ele><time>2026-03-28T08:38:12.084Z</time></trkpt><trkpt lat="45.6005167" lon="11.494805"><ele>48.5</ele><time>2026-03-28T08:38:13.083Z</time></trkpt><trkpt lat="45.600635" lon="11.4947567"><ele>48.75</ele><time>2026-03-28T08:38:14.084Z</time></trkpt><trkpt lat="45.6007533" lon="11.4947233"><ele>49.0</ele><time>2026-03-28T08:38:15.084Z</time></trkpt><trkpt lat="45.6008683" lon="11.49469"><ele>49.0</ele><time>2026-03-28T08:38:16.084Z</time></trkpt><trkpt lat="45.60098" lon="11.494655"><ele>49.0</ele><time>2026-03-28T08:38:17.084Z</time></trkpt><trkpt lat="45.6010883" lon="11.494615"><ele>49.0</ele><time>2026-03-28T08:38:18.084Z</time></trkpt><trkpt lat="45.6011983" lon="11.494575"><ele>49.0</ele><time>2026-03-28T08:38:19.084Z</time></trkpt><trkpt lat="45.6013067" lon="11.4945217"><ele>49.0</ele><time>2026-03-28T08:38:20.084Z</time></trkpt><trkpt lat="45.6014083" lon="11.4944883"><ele>49.0</ele><time>2026-03-28T08:38:21.084Z</time></trkpt><trkpt lat="45.60151" lon="11.494445"><ele>49.0</ele><time>2026-03-28T08:38:22.084Z</time></trkpt><trkpt lat="45.6016067" lon="11.4944117"><ele>49.0</ele><time>2026-03-28T08:38:23.084Z</time></trkpt><trkpt lat="45.6016983" lon="11.4943867"><ele>49.0</ele><time>2026-03-28T08:38:24.084Z</time></trkpt><trkpt lat="45.60179" lon="11.4943517"><ele>49.0</ele><time>2026-03-28T08:38:25.084Z</time></trkpt><trkpt lat="45.601875" lon="11.4943233"><ele>49.0</ele><time>2026-03-28T08:38:26.083Z</time></trkpt><trkpt lat="45.60197" lon="11.4942867"><ele>49.0</ele><time>2026-03-28T08:38:27.084Z</time></trkpt><trkpt lat="45.6020617" lon="11.4942583"><ele>49.0</ele><time>2026-03-28T08:38:28.083Z</time></trkpt><trkpt lat="45.602155" lon="11.4942267"><ele>49.0</ele><time>2026-03-28T08:38:29.083Z</time></trkpt><trkpt lat="45.60225" lon="11.49419"><ele>49.2</ele><time>2026-03-28T08:38:30.083Z</time></trkpt><trkpt lat="45.6023483" lon="11.4941533"><ele>49.400000000000006</ele><time>2026-03-28T08:38:31.084Z</time></trkpt><trkpt lat="45.6024433" lon="11.4941117"><ele>49.6</ele><time>2026-03-28T08:38:32.083Z</time></trkpt><trkpt lat="45.6025417" lon="11.4940717"><ele>49.8</ele><time>2026-03-28T08:38:33.084Z</time></trkpt><trkpt lat="45.602645" lon="11.494035"><ele>50.0</ele><time>2026-03-28T08:38:34.084Z</time></trkpt><trkpt lat="45.6027517" lon="11.4939933"><ele>50.25</ele><time>2026-03-28T08:38:35.083Z</time></trkpt><trkpt lat="45.6028617" lon="11.4939417"><ele>50.5</ele><time>2026-03-28T08:38:36.083Z</time></trkpt><trkpt lat="45.6029683" lon="11.4938883"><ele>50.75</ele><time>2026-03-28T08:38:37.083Z</time></trkpt><trkpt lat="45.603085" lon="11.4938233"><ele>51.0</ele><time>2026-03-28T08:38:38.084Z</time></trkpt><trkpt lat="45.6031917" lon="11.4937417"><ele>51.199999999999996</ele><time>2026-03-28T08:38:39.084Z</time></trkpt><trkpt lat="45.6032867" lon="11.49365"><ele>51.4</ele><time>2026-03-28T08:38:40.084Z</time></trkpt><trkpt lat="45.6033767" lon="11.4935867"><ele>51.6</ele><time>2026-03-28T08:38:41.084Z</time></trkpt><trkpt lat="45.6034683" lon="11.4935633"><ele>51.8</ele><time>2026-03-28T08:38:42.084Z</time></trkpt><trkpt lat="45.6035533" lon="11.4935667"><ele>52.0</ele><time>2026-03-28T08:38:43.083Z</time></trkpt><trkpt lat="45.6036467" lon="11.493565"><ele>52.166666666666664</ele><time>2026-03-28T08:38:44.083Z</time></trkpt><trkpt lat="45.603735" lon="11.49354"><ele>52.33333333333333</ele><time>2026-03-28T08:38:45.084Z</time></trkpt><trkpt lat="45.6038117" lon="11.49348"><ele>52.5</ele><time>2026-03-28T08:38:46.084Z</time></trkpt><trkpt lat="45.603875" lon="11.4934033"><ele>52.66666666666667</ele><time>2026-03-28T08:38:47.084Z</time></trkpt><trkpt lat="45.6039117" lon="11.493315"><ele>52.833333333333336</ele><time>2026-03-28T08:38:48.084Z</time></trkpt><trkpt lat="45.6039083" lon="11.4932217"><ele>53.0</ele><time>2026-03-28T08:38:49.083Z</time></trkpt><trkpt lat="45.603875" lon="11.493095"><ele>53.00000000000001</ele><time>2026-03-28T08:38:51.084Z</time></trkpt><trkpt lat="45.6038283" lon="11.492995"><ele>53.0</ele><time>2026-03-28T08:38:54.084Z</time></trkpt><trkpt lat="45.60379" lon="11.49292"><ele>53.0</ele><time>2026-03-28T08:38:56.083Z</time></trkpt><trkpt lat="45.6037233" lon="11.492865"><ele>53.0</ele><time>2026-03-28T08:38:58.084Z</time></trkpt><trkpt lat="45.6035967" lon="11.492915"><ele>53.00000000000001</ele><time>2026-03-28T08:39:00.084Z</time></trkpt><trkpt lat="45.6035333" lon="11.4929783"><ele>53.0</ele><time>2026-03-28T08:39:01.084Z</time></trkpt><trkpt lat="45.603485" lon="11.4930817"><ele>53.00000000000001</ele><time>2026-03-28T08:39:02.084Z</time></trkpt><trkpt lat="45.60347" lon="11.4932083"><ele>53.0</ele><time>2026-03-28T08:39:03.084Z</time></trkpt><trkpt lat="45.60349" lon="11.4933317"><ele>53.0</ele><time>2026-03-28T08:39:04.084Z</time></trkpt><trkpt lat="45.6035333" lon="11.4934333"><ele>53.0</ele><time>2026-03-28T08:39:05.084Z</time></trkpt><trkpt lat="45.6036" lon="11.4935083"><ele>53.00000000000001</ele><time>2026-03-28T08:39:06.084Z</time></trkpt><trkpt lat="45.6036867" lon="11.4935383"><ele>53.0</ele><time>2026-03-28T08:39:07.084Z</time></trkpt><trkpt lat="45.6037867" lon="11.4935267"><ele>53.0</ele><time>2026-03-28T08:39:08.083Z</time></trkpt><trkpt lat="45.6038917" lon="11.4934967"><ele>53.0</ele><time>2026-03-28T08:39:09.084Z</time></trkpt><trkpt lat="45.6039833" lon="11.4934467"><ele>53.0</ele><time>2026-03-28T08:39:10.084Z</time></trkpt><trkpt lat="45.6040667" lon="11.4934017"><ele>53.0</ele><time>2026-03-28T08:39:11.084Z</time></trkpt><trkpt lat="45.6041483" lon="11.493365"><ele>53.0</ele><time>2026-03-28T08:39:12.084Z</time></trkpt><trkpt lat="45.6042267" lon="11.4933283"><ele>53.0</ele><time>2026-03-28T08:39:13.084Z</time></trkpt><trkpt lat="45.6042933" lon="11.4932917"><ele>53.0</ele><time>2026-03-28T08:39:14.083Z</time></trkpt><trkpt lat="45.6043583" lon="11.4932667"><ele>53.0</ele><time>2026-03-28T08:39:15.084Z</time></trkpt><trkpt lat="45.60442" lon="11.4932133"><ele>53.0</ele><time>2026-03-28T08:39:16.084Z</time></trkpt><trkpt lat="45.60448" lon="11.4931433"><ele>53.0</ele><time>2026-03-28T08:39:17.084Z</time></trkpt><trkpt lat="45.604515" lon="11.4930583"><ele>53.0</ele><time>2026-03-28T08:39:18.084Z</time></trkpt><trkpt lat="45.6045233" lon="11.4929433"><ele>53.0</ele><time>2026-03-28T08:39:19.083Z</time></trkpt><trkpt lat="45.6045117" lon="11.4928233"><ele>53.00000000000001</ele><time>2026-03-28T08:39:20.084Z</time></trkpt><trkpt lat="45.6044867" lon="11.4927033"><ele>53.0</ele><time>2026-03-28T08:39:21.083Z</time></trkpt><trkpt lat="45.6044633" lon="11.4925867"><ele>53.0</ele><time>2026-03-28T08:39:22.083Z</time></trkpt><trkpt lat="45.6044483" lon="11.4924683"><ele>53.0</ele><time>2026-03-28T08:39:23.084Z</time></trkpt><trkpt lat="45.604455" lon="11.49234"><ele>53.00000000000001</ele><time>2026-03-28T08:39:24.083Z</time></trkpt><trkpt lat="45.6044817" lon="11.4921983"><ele>53.0</ele><time>2026-03-28T08:39:25.083Z</time></trkpt><trkpt lat="45.6045333" lon="11.49206"><ele>53.0</ele><time>2026-03-28T08:39:26.083Z</time></trkpt><trkpt lat="45.604595" lon="11.4919217"><ele>53.0</ele><time>2026-03-28T08:39:27.084Z</time></trkpt><trkpt lat="45.60466" lon="11.4918"><ele>53.0</ele><time>2026-03-28T08:39:28.084Z</time></trkpt><trkpt lat="45.6047183" lon="11.4916933"><ele>53.0</ele><time>2026-03-28T08:39:29.084Z</time></trkpt><trkpt lat="45.6047667" lon="11.491595"><ele>53.0</ele><time>2026-03-28T08:39:30.084Z</time></trkpt><trkpt lat="45.6048067" lon="11.4915033"><ele>53.0</ele><time>2026-03-28T08:39:31.084Z</time></trkpt><trkpt lat="45.604845" lon="11.4914033"><ele>53.0</ele><time>2026-03-28T08:39:32.083Z</time></trkpt><trkpt lat="45.6048917" lon="11.4912933"><ele>53.0</ele><time>2026-03-28T08:39:33.083Z</time></trkpt><trkpt lat="45.60494" lon="11.491175"><ele>53.0</ele><time>2026-03-28T08:39:34.084Z</time></trkpt><trkpt lat="45.6049883" lon="11.491045"><ele>53.0</ele><time>2026-03-28T08:39:35.084Z</time></trkpt><trkpt lat="45.6050367" lon="11.4909117"><ele>53.0</ele><time>2026-03-28T08:39:36.084Z</time></trkpt><trkpt lat="45.6050817" lon="11.4907833"><ele>53.0</ele><time>2026-03-28T08:39:37.083Z</time></trkpt><trkpt lat="45.60513" lon="11.490655"><ele>53.0</ele><time>2026-03-28T08:39:38.083Z</time></trkpt><trkpt lat="45.605175" lon="11.4905233"><ele>53.0</ele><time>2026-03-28T08:39:39.084Z</time></trkpt><trkpt lat="45.6052283" lon="11.4903817"><ele>53.0</ele><time>2026-03-28T08:39:40.083Z</time></trkpt><trkpt lat="45.60528" lon="11.4902267"><ele>52.75</ele><time>2026-03-28T08:39:41.084Z</time></trkpt><trkpt lat="45.6053367" lon="11.4900617"><ele>52.5</ele><time>2026-03-28T08:39:42.083Z</time></trkpt><trkpt lat="45.6053983" lon="11.4898883"><ele>52.25</ele><time>2026-03-28T08:39:43.083Z</time></trkpt><trkpt lat="45.6054617" lon="11.4897117"><ele>52.0</ele><time>2026-03-28T08:39:44.084Z</time></trkpt><trkpt lat="45.60553" lon="11.4895283"><ele>52.0</ele><time>2026-03-28T08:39:45.084Z</time></trkpt><trkpt lat="45.6055967" lon="11.4893483"><ele>52.0</ele><time>2026-03-28T08:39:46.084Z</time></trkpt><trkpt lat="45.6056617" lon="11.48917"><ele>52.0</ele><time>2026-03-28T08:39:47.083Z</time></trkpt><trkpt lat="45.6057233" lon="11.4889867"><ele>52.0</ele><time>2026-03-28T08:39:48.084Z</time></trkpt><trkpt lat="45.6057867" lon="11.4888017"><ele>52.25</ele><time>2026-03-28T08:39:49.084Z</time></trkpt><trkpt lat="45.60585" lon="11.4886167"><ele>52.5</ele><time>2026-03-28T08:39:50.084Z</time></trkpt><trkpt lat="45.6059133" lon="11.4884267"><ele>52.75</ele><time>2026-03-28T08:39:51.084Z</time></trkpt><trkpt lat="45.60598" lon="11.4882417"><ele>53.0</ele><time>2026-03-28T08:39:52.084Z</time></trkpt><trkpt lat="45.606045" lon="11.4880533"><ele>53.25</ele><time>2026-03-28T08:39:53.083Z</time></trkpt><trkpt lat="45.60611" lon="11.4878633"><ele>53.5</ele><time>2026-03-28T08:39:54.084Z</time></trkpt><trkpt lat="45.6061733" lon="11.4876717"><ele>53.75</ele><time>2026-03-28T08:39:55.084Z</time></trkpt><trkpt lat="45.6062433" lon="11.4874817"><ele>54.0</ele><time>2026-03-28T08:39:56.084Z</time></trkpt><trkpt lat="45.6063133" lon="11.4872933"><ele>53.0</ele><time>2026-03-28T08:39:57.083Z</time></trkpt><trkpt lat="45.6063817" lon="11.48709"><ele>52.0</ele><time>2026-03-28T08:39:58.084Z</time></trkpt><trkpt lat="45.606445" lon="11.4868833"><ele>51.0</ele><time>2026-03-28T08:39:59.083Z</time></trkpt><trkpt lat="45.6065183" lon="11.4866717"><ele>51.0</ele><time>2026-03-28T08:40:00.084Z</time></trkpt><trkpt lat="45.6065867" lon="11.48646"><ele>51.0</ele><time>2026-03-28T08:40:01.083Z</time></trkpt><trkpt lat="45.6066633" lon="11.4862383"><ele>51.0</ele><time>2026-03-28T08:40:02.084Z</time></trkpt><trkpt lat="45.6067367" lon="11.4860117"><ele>51.66666666666667</ele><time>2026-03-28T08:40:03.083Z</time></trkpt><trkpt lat="45.606815" lon="11.48578"><ele>52.333333333333336</ele><time>2026-03-28T08:40:04.084Z</time></trkpt><trkpt lat="45.6069033" lon="11.4855417"><ele>53.0</ele><time>2026-03-28T08:40:05.083Z</time></trkpt><trkpt lat="45.6069883" lon="11.4853033"><ele>54.0</ele><time>2026-03-28T08:40:06.083Z</time></trkpt><trkpt lat="45.607075" lon="11.485065"><ele>55.0</ele><time>2026-03-28T08:40:07.083Z</time></trkpt><trkpt lat="45.6071633" lon="11.484815"><ele>56.0</ele><time>2026-03-28T08:40:08.084Z</time></trkpt><trkpt lat="45.6072517" lon="11.484555"><ele>56.333333333333336</ele><time>2026-03-28T08:40:09.083Z</time></trkpt><trkpt lat="45.6073433" lon="11.4842967"><ele>56.66666666666667</ele><time>2026-03-28T08:40:10.083Z</time></trkpt><trkpt lat="45.60744" lon="11.484025"><ele>57.0</ele><time>2026-03-28T08:40:11.084Z</time></trkpt><trkpt lat="45.6075333" lon="11.4837667"><ele>57.0</ele><time>2026-03-28T08:40:12.084Z</time></trkpt><trkpt lat="45.6076183" lon="11.4835067"><ele>57.0</ele><time>2026-03-28T08:40:13.084Z</time></trkpt><trkpt lat="45.60771" lon="11.483255"><ele>57.0</ele><time>2026-03-28T08:40:14.084Z</time></trkpt><trkpt lat="45.607795" lon="11.4829967"><ele>56.66666666666667</ele><time>2026-03-28T08:40:15.083Z</time></trkpt><trkpt lat="45.6078833" lon="11.48274"><ele>56.333333333333336</ele><time>2026-03-28T08:40:16.084Z</time></trkpt><trkpt lat="45.6079667" lon="11.4824783"><ele>56.0</ele><time>2026-03-28T08:40:17.084Z</time></trkpt><trkpt lat="45.6080483" lon="11.4822183"><ele>56.333333333333336</ele><time>2026-03-28T08:40:18.084Z</time></trkpt><trkpt lat="45.6081267" lon="11.4819617"><ele>56.66666666666667</ele><time>2026-03-28T08:40:19.084Z</time></trkpt><trkpt lat="45.6081967" lon="11.48171"><ele>57.0</ele><time>2026-03-28T08:40:20.084Z</time></trkpt><trkpt lat="45.6082633" lon="11.4814483"><ele>57.0</ele><time>2026-03-28T08:40:21.084Z</time></trkpt><trkpt lat="45.6083367" lon="11.481185"><ele>57.0</ele><time>2026-03-28T08:40:22.084Z</time></trkpt><trkpt lat="45.608405" lon="11.48091"><ele>57.0</ele><time>2026-03-28T08:40:23.084Z</time></trkpt><trkpt lat="45.6084767" lon="11.48063"><ele>56.66666666666667</ele><time>2026-03-28T08:40:24.083Z</time></trkpt><trkpt lat="45.6085483" lon="11.4803517"><ele>56.333333333333336</ele><time>2026-03-28T08:40:25.083Z</time></trkpt><trkpt lat="45.608615" lon="11.4800733"><ele>56.0</ele><time>2026-03-28T08:40:26.083Z</time></trkpt><trkpt lat="45.60868" lon="11.4797833"><ele>56.0</ele><time>2026-03-28T08:40:27.083Z</time></trkpt><trkpt lat="45.6087417" lon="11.47949"><ele>56.0</ele><time>2026-03-28T08:40:28.084Z</time></trkpt><trkpt lat="45.6088033" lon="11.4791967"><ele>56.0</ele><time>2026-03-28T08:40:29.083Z</time></trkpt><trkpt lat="45.6088667" lon="11.4788967"><ele>56.333333333333336</ele><time>2026-03-28T08:40:30.084Z</time></trkpt><trkpt lat="45.60893" lon="11.4785933"><ele>56.66666666666667</ele><time>2026-03-28T08:40:31.083Z</time></trkpt><trkpt lat="45.6089883" lon="11.4782917"><ele>57.0</ele><time>2026-03-28T08:40:32.084Z</time></trkpt><trkpt lat="45.6090417" lon="11.4779917"><ele>57.0</ele><time>2026-03-28T08:40:33.083Z</time></trkpt><trkpt lat="45.6090933" lon="11.4776867"><ele>57.0</ele><time>2026-03-28T08:40:34.084Z</time></trkpt><trkpt lat="45.6091367" lon="11.4773883"><ele>57.0</ele><time>2026-03-28T08:40:35.084Z</time></trkpt><trkpt lat="45.609175" lon="11.477095"><ele>58.0</ele><time>2026-03-28T08:40:36.083Z</time></trkpt><trkpt lat="45.6092217" lon="11.4767917"><ele>59.0</ele><time>2026-03-28T08:40:37.083Z</time></trkpt><trkpt lat="45.6092667" lon="11.47649"><ele>60.0</ele><time>2026-03-28T08:40:38.084Z</time></trkpt><trkpt lat="45.6093" lon="11.476185"><ele>60.66666666666667</ele><time>2026-03-28T08:40:39.084Z</time></trkpt><trkpt lat="45.609335" lon="11.4758783"><ele>61.333333333333336</ele><time>2026-03-28T08:40:40.083Z</time></trkpt><trkpt lat="45.6093667" lon="11.4755717"><ele>62.0</ele><time>2026-03-28T08:40:41.084Z</time></trkpt><trkpt lat="45.6093917" lon="11.4752667"><ele>62.0</ele><time>2026-03-28T08:40:42.084Z</time></trkpt><trkpt lat="45.6094133" lon="11.4749533"><ele>62.0</ele><time>2026-03-28T08:40:43.083Z</time></trkpt><trkpt lat="45.6094267" lon="11.4746417"><ele>62.0</ele><time>2026-03-28T08:40:44.083Z</time></trkpt><trkpt lat="45.6094467" lon="11.4743383"><ele>61.333333333333336</ele><time>2026-03-28T08:40:45.084Z</time></trkpt><trkpt lat="45.6094783" lon="11.4740283"><ele>60.66666666666667</ele><time>2026-03-28T08:40:46.083Z</time></trkpt><trkpt lat="45.6095067" lon="11.4737167"><ele>60.0</ele><time>2026-03-28T08:40:47.084Z</time></trkpt><trkpt lat="45.6095317" lon="11.4734167"><ele>59.66666666666667</ele><time>2026-03-28T08:40:48.084Z</time></trkpt><trkpt lat="45.6095567" lon="11.4731183"><ele>59.333333333333336</ele><time>2026-03-28T08:40:49.083Z</time></trkpt><trkpt lat="45.609585" lon="11.4728283"><ele>59.0</ele><time>2026-03-28T08:40:50.084Z</time></trkpt><trkpt lat="45.60962" lon="11.4725333"><ele>59.0</ele><time>2026-03-28T08:40:51.084Z</time></trkpt><trkpt lat="45.6096733" lon="11.47225"><ele>59.0</ele><time>2026-03-28T08:40:52.084Z</time></trkpt><trkpt lat="45.609745" lon="11.471975"><ele>59.0</ele><time>2026-03-28T08:40:53.084Z</time></trkpt><trkpt lat="45.609845" lon="11.471715"><ele>59.333333333333336</ele><time>2026-03-28T08:40:54.083Z</time></trkpt><trkpt lat="45.60996" lon="11.471465"><ele>59.66666666666667</ele><time>2026-03-28T08:40:55.084Z</time></trkpt><trkpt lat="45.6100817" lon="11.4712283"><ele>60.0</ele><time>2026-03-28T08:40:56.084Z</time></trkpt><trkpt lat="45.6102183" lon="11.4710183"><ele>60.33333333333333</ele><time>2026-03-28T08:40:57.084Z</time></trkpt><trkpt lat="45.6103667" lon="11.4708283"><ele>60.666666666666664</ele><time>2026-03-28T08:40:58.084Z</time></trkpt><trkpt lat="45.61052" lon="11.4706583"><ele>61.0</ele><time>2026-03-28T08:40:59.083Z</time></trkpt><trkpt lat="45.6106717" lon="11.4705017"><ele>61.33333333333333</ele><time>2026-03-28T08:41:00.084Z</time></trkpt><trkpt lat="45.610825" lon="11.4703533"><ele>61.66666666666667</ele><time>2026-03-28T08:41:01.084Z</time></trkpt><trkpt lat="45.6109817" lon="11.4702067"><ele>62.0</ele><time>2026-03-28T08:41:02.084Z</time></trkpt><trkpt lat="45.6111433" lon="11.4700533"><ele>61.66666666666667</ele><time>2026-03-28T08:41:03.084Z</time></trkpt><trkpt lat="45.6113067" lon="11.469895"><ele>61.33333333333333</ele><time>2026-03-28T08:41:04.084Z</time></trkpt><trkpt lat="45.611475" lon="11.46973"><ele>61.0</ele><time>2026-03-28T08:41:05.083Z</time></trkpt><trkpt lat="45.6116383" lon="11.469555"><ele>61.0</ele><time>2026-03-28T08:41:06.084Z</time></trkpt><trkpt lat="45.6117933" lon="11.469375"><ele>61.0</ele><time>2026-03-28T08:41:07.084Z</time></trkpt><trkpt lat="45.611945" lon="11.4691933"><ele>61.0</ele><time>2026-03-28T08:41:08.084Z</time></trkpt><trkpt lat="45.6120883" lon="11.4690067"><ele>61.33333333333333</ele><time>2026-03-28T08:41:09.083Z</time></trkpt><trkpt lat="45.6122433" lon="11.4688233"><ele>61.66666666666667</ele><time>2026-03-28T08:41:10.084Z</time></trkpt><trkpt lat="45.6124017" lon="11.46865"><ele>62.0</ele><time>2026-03-28T08:41:11.084Z</time></trkpt><trkpt lat="45.6125583" lon="11.4684867"><ele>62.0</ele><time>2026-03-28T08:41:12.084Z</time></trkpt><trkpt lat="45.6127117" lon="11.46834"><ele>62.0</ele><time>2026-03-28T08:41:13.084Z</time></trkpt><trkpt lat="45.61286" lon="11.46821"><ele>62.0</ele><time>2026-03-28T08:41:14.084Z</time></trkpt><trkpt lat="45.613005" lon="11.4680983"><ele>62.0</ele><time>2026-03-28T08:41:15.084Z</time></trkpt><trkpt lat="45.6131367" lon="11.4679933"><ele>62.0</ele><time>2026-03-28T08:41:16.083Z</time></trkpt><trkpt lat="45.6132617" lon="11.4679"><ele>62.0</ele><time>2026-03-28T08:41:17.084Z</time></trkpt><trkpt lat="45.6133767" lon="11.467815"><ele>62.0</ele><time>2026-03-28T08:41:18.084Z</time></trkpt><trkpt lat="45.6134783" lon="11.4677367"><ele>62.00000000000001</ele><time>2026-03-28T08:41:19.083Z</time></trkpt><trkpt lat="45.6135633" lon="11.467675"><ele>62.0</ele><time>2026-03-28T08:41:20.084Z</time></trkpt><trkpt lat="45.6136417" lon="11.4676217"><ele>62.0</ele><time>2026-03-28T08:41:21.083Z</time></trkpt><trkpt lat="45.6137033" lon="11.4675767"><ele>62.0</ele><time>2026-03-28T08:41:22.083Z</time></trkpt><trkpt lat="45.6137983" lon="11.4675183"><ele>62.00000000000001</ele><time>2026-03-28T08:41:24.084Z</time></trkpt><trkpt lat="45.613875" lon="11.467465"><ele>62.0</ele><time>2026-03-28T08:41:27.084Z</time></trkpt><trkpt lat="45.613955" lon="11.46737"><ele>62.2</ele><time>2026-03-28T08:42:21.083Z</time></trkpt><trkpt lat="45.6140617" lon="11.46726"><ele>62.400000000000006</ele><time>2026-03-28T08:42:23.083Z</time></trkpt><trkpt lat="45.6141217" lon="11.4671967"><ele>62.599999999999994</ele><time>2026-03-28T08:42:24.084Z</time></trkpt><trkpt lat="45.61419" lon="11.467125"><ele>62.8</ele><time>2026-03-28T08:42:25.084Z</time></trkpt><trkpt lat="45.614265" lon="11.4670433"><ele>63.0</ele><time>2026-03-28T08:42:26.084Z</time></trkpt><trkpt lat="45.6143533" lon="11.46696"><ele>63.0</ele><time>2026-03-28T08:42:27.084Z</time></trkpt><trkpt lat="45.6144333" lon="11.4668683"><ele>63.0</ele><time>2026-03-28T08:42:28.083Z</time></trkpt><trkpt lat="45.6145167" lon="11.466775"><ele>63.0</ele><time>2026-03-28T08:42:29.084Z</time></trkpt><trkpt lat="45.6146017" lon="11.4666767"><ele>63.0</ele><time>2026-03-28T08:42:30.084Z</time></trkpt><trkpt lat="45.6146867" lon="11.4665767"><ele>63.0</ele><time>2026-03-28T08:42:31.083Z</time></trkpt><trkpt lat="45.6147733" lon="11.466475"><ele>63.0</ele><time>2026-03-28T08:42:32.084Z</time></trkpt><trkpt lat="45.61486" lon="11.466375"><ele>63.0</ele><time>2026-03-28T08:42:33.084Z</time></trkpt><trkpt lat="45.61495" lon="11.4662683"><ele>63.0</ele><time>2026-03-28T08:42:34.084Z</time></trkpt><trkpt lat="45.6150433" lon="11.466165"><ele>63.0</ele><time>2026-03-28T08:42:35.084Z</time></trkpt><trkpt lat="45.6151417" lon="11.4660583"><ele>63.25</ele><time>2026-03-28T08:42:36.084Z</time></trkpt><trkpt lat="45.6152417" lon="11.4659417"><ele>63.5</ele><time>2026-03-28T08:42:37.084Z</time></trkpt><trkpt lat="45.6153533" lon="11.4658167"><ele>63.75</ele><time>2026-03-28T08:42:38.084Z</time></trkpt><trkpt lat="45.6154617" lon="11.4657033"><ele>64.0</ele><time>2026-03-28T08:42:39.083Z</time></trkpt><trkpt lat="45.6155717" lon="11.4655917"><ele>64.0</ele><time>2026-03-28T08:42:40.084Z</time></trkpt><trkpt lat="45.6156817" lon="11.4654833"><ele>64.0</ele><time>2026-03-28T08:42:41.083Z</time></trkpt><trkpt lat="45.6157867" lon="11.465375"><ele>64.0</ele><time>2026-03-28T08:42:42.084Z</time></trkpt><trkpt lat="45.6158917" lon="11.4652633"><ele>64.0</ele><time>2026-03-28T08:42:43.084Z</time></trkpt><trkpt lat="45.6159967" lon="11.4651533"><ele>64.0</ele><time>2026-03-28T08:42:44.083Z</time></trkpt><trkpt lat="45.6160883" lon="11.46506"><ele>64.0</ele><time>2026-03-28T08:42:45.084Z</time></trkpt><trkpt lat="45.6161783" lon="11.4649683"><ele>64.0</ele><time>2026-03-28T08:42:46.084Z</time></trkpt><trkpt lat="45.6162567" lon="11.4648783"><ele>64.0</ele><time>2026-03-28T08:42:47.083Z</time></trkpt><trkpt lat="45.616335" lon="11.4648017"><ele>64.0</ele><time>2026-03-28T08:42:48.084Z</time></trkpt><trkpt lat="45.61641" lon="11.4647283"><ele>63.83333333333333</ele><time>2026-03-28T08:42:49.083Z</time></trkpt><trkpt lat="45.6164817" lon="11.464665"><ele>63.666666666666664</ele><time>2026-03-28T08:42:50.084Z</time></trkpt><trkpt lat="45.616545" lon="11.4646033"><ele>63.5</ele><time>2026-03-28T08:42:51.083Z</time></trkpt><trkpt lat="45.6165983" lon="11.4645483"><ele>63.33333333333333</ele><time>2026-03-28T08:42:52.083Z</time></trkpt><trkpt lat="45.6166767" lon="11.464455"><ele>63.166666666666664</ele><time>2026-03-28T08:42:54.083Z</time></trkpt><trkpt lat="45.6167483" lon="11.4644033"><ele>63.0</ele><time>2026-03-28T08:42:57.083Z</time></trkpt><trkpt lat="45.6168167" lon="11.4643583"><ele>63.0</ele><time>2026-03-28T08:43:00.084Z</time></trkpt><trkpt lat="45.6169067" lon="11.4643267"><ele>63.0</ele><time>2026-03-28T08:43:03.084Z</time></trkpt><trkpt lat="45.6169883" lon="11.464255"><ele>63.0</ele><time>2026-03-28T08:43:05.084Z</time></trkpt><trkpt lat="45.6170633" lon="11.4641867"><ele>63.0</ele><time>2026-03-28T08:43:07.084Z</time></trkpt><trkpt lat="45.6171283" lon="11.46413"><ele>63.0</ele><time>2026-03-28T08:43:09.083Z</time></trkpt><trkpt lat="45.6171883" lon="11.4640817"><ele>63.0</ele><time>2026-03-28T08:43:12.083Z</time></trkpt><trkpt lat="45.6172467" lon="11.4639067"><ele>63.599999999999994</ele><time>2026-03-28T08:43:44.084Z</time></trkpt><trkpt lat="45.617345" lon="11.4638017"><ele>64.19999999999999</ele><time>2026-03-28T08:43:46.084Z</time></trkpt><trkpt lat="45.61741" lon="11.4637383"><ele>64.8</ele><time>2026-03-28T08:43:47.083Z</time></trkpt><trkpt lat="45.6174833" lon="11.4636767"><ele>65.39999999999999</ele><time>2026-03-28T08:43:48.084Z</time></trkpt><trkpt lat="45.617565" lon="11.4636083"><ele>66.0</ele><time>2026-03-28T08:43:49.083Z</time></trkpt><trkpt lat="45.6176483" lon="11.46354"><ele>66.0</ele><time>2026-03-28T08:43:50.084Z</time></trkpt><trkpt lat="45.6177283" lon="11.4634667"><ele>66.0</ele><time>2026-03-28T08:43:51.084Z</time></trkpt><trkpt lat="45.617805" lon="11.4633867"><ele>66.0</ele><time>2026-03-28T08:43:52.083Z</time></trkpt><trkpt lat="45.6178733" lon="11.4633083"><ele>66.0</ele><time>2026-03-28T08:43:53.083Z</time></trkpt><trkpt lat="45.617945" lon="11.463235"><ele>66.0</ele><time>2026-03-28T08:43:54.083Z</time></trkpt><trkpt lat="45.618015" lon="11.4631617"><ele>66.0</ele><time>2026-03-28T08:43:55.084Z</time></trkpt><trkpt lat="45.6180867" lon="11.463085"><ele>66.0</ele><time>2026-03-28T08:43:56.084Z</time></trkpt><trkpt lat="45.61816" lon="11.4630067"><ele>66.0</ele><time>2026-03-28T08:43:57.084Z</time></trkpt><trkpt lat="45.61823" lon="11.4629233"><ele>66.0</ele><time>2026-03-28T08:43:58.084Z</time></trkpt><trkpt lat="45.6183067" lon="11.4628417"><ele>66.0</ele><time>2026-03-28T08:43:59.084Z</time></trkpt><trkpt lat="45.618385" lon="11.4627567"><ele>66.0</ele><time>2026-03-28T08:44:00.083Z</time></trkpt><trkpt lat="45.6184683" lon="11.462665"><ele>66.0</ele><time>2026-03-28T08:44:01.084Z</time></trkpt><trkpt lat="45.6185483" lon="11.46257"><ele>66.0</ele><time>2026-03-28T08:44:02.083Z</time></trkpt><trkpt lat="45.6186367" lon="11.4624733"><ele>66.0</ele><time>2026-03-28T08:44:03.084Z</time></trkpt><trkpt lat="45.6187317" lon="11.4623783"><ele>66.0</ele><time>2026-03-28T08:44:04.084Z</time></trkpt><trkpt lat="45.6188267" lon="11.4622833"><ele>66.0</ele><time>2026-03-28T08:44:05.083Z</time></trkpt><trkpt lat="45.6189183" lon="11.4621983"><ele>66.0</ele><time>2026-03-28T08:44:06.084Z</time></trkpt><trkpt lat="45.61901" lon="11.4621067"><ele>66.0</ele><time>2026-03-28T08:44:07.084Z</time></trkpt><trkpt lat="45.6191017" lon="11.4620083"><ele>66.0</ele><time>2026-03-28T08:44:08.084Z</time></trkpt><trkpt lat="45.6191933" lon="11.4619133"><ele>66.0</ele><time>2026-03-28T08:44:09.084Z</time></trkpt><trkpt lat="45.6192833" lon="11.4618117"><ele>66.0</ele><time>2026-03-28T08:44:10.084Z</time></trkpt><trkpt lat="45.619375" lon="11.4617083"><ele>66.0</ele><time>2026-03-28T08:44:11.084Z</time></trkpt><trkpt lat="45.61946" lon="11.4615983"><ele>66.0</ele><time>2026-03-28T08:44:12.084Z</time></trkpt><trkpt lat="45.619545" lon="11.4614867"><ele>66.0</ele><time>2026-03-28T08:44:13.084Z</time></trkpt><trkpt lat="45.619625" lon="11.461365"><ele>66.25</ele><time>2026-03-28T08:44:14.084Z</time></trkpt><trkpt lat="45.6197017" lon="11.4612367"><ele>66.5</ele><time>2026-03-28T08:44:15.083Z</time></trkpt><trkpt lat="45.6197733" lon="11.4611"><ele>66.75</ele><time>2026-03-28T08:44:16.084Z</time></trkpt><trkpt lat="45.6198517" lon="11.460965"><ele>67.0</ele><time>2026-03-28T08:44:17.083Z</time></trkpt><trkpt lat="45.6199367" lon="11.46082"><ele>67.0</ele><time>2026-03-28T08:44:18.084Z</time></trkpt><trkpt lat="45.6200233" lon="11.4606617"><ele>67.0</ele><time>2026-03-28T08:44:19.083Z</time></trkpt><trkpt lat="45.6201183" lon="11.46049"><ele>67.0</ele><time>2026-03-28T08:44:20.084Z</time></trkpt><trkpt lat="45.62022" lon="11.4603083"><ele>67.0</ele><time>2026-03-28T08:44:21.083Z</time></trkpt><trkpt lat="45.62033" lon="11.460115"><ele>67.0</ele><time>2026-03-28T08:44:22.083Z</time></trkpt><trkpt lat="45.62044" lon="11.4599217"><ele>67.0</ele><time>2026-03-28T08:44:23.084Z</time></trkpt><trkpt lat="45.6205433" lon="11.4597433"><ele>66.33333333333333</ele><time>2026-03-28T08:44:24.083Z</time></trkpt><trkpt lat="45.6206417" lon="11.4595767"><ele>65.66666666666667</ele><time>2026-03-28T08:44:25.084Z</time></trkpt><trkpt lat="45.62074" lon="11.4594083"><ele>65.0</ele><time>2026-03-28T08:44:26.084Z</time></trkpt><trkpt lat="45.6208367" lon="11.4592283"><ele>65.0</ele><time>2026-03-28T08:44:27.084Z</time></trkpt><trkpt lat="45.620935" lon="11.4590467"><ele>65.0</ele><time>2026-03-28T08:44:28.083Z</time></trkpt><trkpt lat="45.6210383" lon="11.4588617"><ele>65.0</ele><time>2026-03-28T08:44:29.084Z</time></trkpt><trkpt lat="45.62115" lon="11.4586683"><ele>65.0</ele><time>2026-03-28T08:44:30.084Z</time></trkpt><trkpt lat="45.6212617" lon="11.4584717"><ele>65.0</ele><time>2026-03-28T08:44:31.084Z</time></trkpt><trkpt lat="45.6213733" lon="11.45827"><ele>65.0</ele><time>2026-03-28T08:44:32.084Z</time></trkpt><trkpt lat="45.6214817" lon="11.458065"><ele>65.33333333333334</ele><time>2026-03-28T08:44:33.084Z</time></trkpt><trkpt lat="45.6215883" lon="11.4578533"><ele>65.66666666666667</ele><time>2026-03-28T08:44:34.083Z</time></trkpt><trkpt lat="45.6216917" lon="11.4576267"><ele>66.0</ele><time>2026-03-28T08:44:35.083Z</time></trkpt><trkpt lat="45.621795" lon="11.45739"><ele>66.0</ele><time>2026-03-28T08:44:36.084Z</time></trkpt><trkpt lat="45.621895" lon="11.45715"><ele>66.0</ele><time>2026-03-28T08:44:37.083Z</time></trkpt><trkpt lat="45.6219933" lon="11.4569083"><ele>66.0</ele><time>2026-03-28T08:44:38.084Z</time></trkpt><trkpt lat="45.6220917" lon="11.45667"><ele>66.33333333333333</ele><time>2026-03-28T08:44:39.084Z</time></trkpt><trkpt lat="45.6221817" lon="11.456415"><ele>66.66666666666666</ele><time>2026-03-28T08:44:40.083Z</time></trkpt><trkpt lat="45.6222767" lon="11.4561517"><ele>67.0</ele><time>2026-03-28T08:44:41.084Z</time></trkpt><trkpt lat="45.622385" lon="11.4558933"><ele>67.0</ele><time>2026-03-28T08:44:42.083Z</time></trkpt><trkpt lat="45.6225083" lon="11.4556417"><ele>67.0</ele><time>2026-03-28T08:44:43.084Z</time></trkpt><trkpt lat="45.6226367" lon="11.4553867"><ele>67.0</ele><time>2026-03-28T08:44:44.084Z</time></trkpt><trkpt lat="45.622765" lon="11.4551267"><ele>67.33333333333333</ele><time>2026-03-28T08:44:45.084Z</time></trkpt><trkpt lat="45.6228883" lon="11.454865"><ele>67.66666666666667</ele><time>2026-03-28T08:44:46.084Z</time></trkpt><trkpt lat="45.6230067" lon="11.4546083"><ele>68.0</ele><time>2026-03-28T08:44:47.083Z</time></trkpt><trkpt lat="45.62312" lon="11.454355"><ele>68.0</ele><time>2026-03-28T08:44:48.083Z</time></trkpt><trkpt lat="45.6232333" lon="11.4541017"><ele>68.0</ele><time>2026-03-28T08:44:49.084Z</time></trkpt><trkpt lat="45.623345" lon="11.453855"><ele>68.0</ele><time>2026-03-28T08:44:50.084Z</time></trkpt><trkpt lat="45.623455" lon="11.4536117"><ele>68.0</ele><time>2026-03-28T08:44:51.084Z</time></trkpt><trkpt lat="45.623565" lon="11.4533767"><ele>68.0</ele><time>2026-03-28T08:44:52.084Z</time></trkpt><trkpt lat="45.6236683" lon="11.45314"><ele>68.0</ele><time>2026-03-28T08:44:53.084Z</time></trkpt><trkpt lat="45.6237633" lon="11.452905"><ele>69.33333333333334</ele><time>2026-03-28T08:44:54.084Z</time></trkpt><trkpt lat="45.6238467" lon="11.4526583"><ele>70.66666666666667</ele><time>2026-03-28T08:44:55.083Z</time></trkpt><trkpt lat="45.623915" lon="11.4524133"><ele>72.0</ele><time>2026-03-28T08:44:56.084Z</time></trkpt><trkpt lat="45.6239817" lon="11.4521767"><ele>71.33333333333333</ele><time>2026-03-28T08:44:57.084Z</time></trkpt><trkpt lat="45.624045" lon="11.4519483"><ele>70.66666666666666</ele><time>2026-03-28T08:44:58.084Z</time></trkpt><trkpt lat="45.6241067" lon="11.4517233"><ele>70.0</ele><time>2026-03-28T08:44:59.084Z</time></trkpt><trkpt lat="45.6241717" lon="11.4515017"><ele>70.0</ele><time>2026-03-28T08:45:00.083Z</time></trkpt><trkpt lat="45.6242367" lon="11.4512833"><ele>70.0</ele><time>2026-03-28T08:45:01.084Z</time></trkpt><trkpt lat="45.6243" lon="11.4510733"><ele>70.0</ele><time>2026-03-28T08:45:02.084Z</time></trkpt><trkpt lat="45.6243683" lon="11.4508667"><ele>70.0</ele><time>2026-03-28T08:45:03.083Z</time></trkpt><trkpt lat="45.62444" lon="11.4506583"><ele>70.0</ele><time>2026-03-28T08:45:04.084Z</time></trkpt><trkpt lat="45.6245167" lon="11.45045"><ele>70.0</ele><time>2026-03-28T08:45:05.084Z</time></trkpt><trkpt lat="45.6246" lon="11.4502417"><ele>71.0</ele><time>2026-03-28T08:45:06.084Z</time></trkpt><trkpt lat="45.62469" lon="11.4500367"><ele>72.0</ele><time>2026-03-28T08:45:07.084Z</time></trkpt><trkpt lat="45.6247783" lon="11.4498417"><ele>73.0</ele><time>2026-03-28T08:45:08.084Z</time></trkpt><trkpt lat="45.624865" lon="11.44966"><ele>72.75</ele><time>2026-03-28T08:45:09.084Z</time></trkpt><trkpt lat="45.6249517" lon="11.4494883"><ele>72.5</ele><time>2026-03-28T08:45:10.084Z</time></trkpt><trkpt lat="45.6250367" lon="11.449325"><ele>72.25</ele><time>2026-03-28T08:45:11.083Z</time></trkpt><trkpt lat="45.6251217" lon="11.4491667"><ele>72.0</ele><time>2026-03-28T08:45:12.084Z</time></trkpt><trkpt lat="45.6252117" lon="11.44901"><ele>72.0</ele><time>2026-03-28T08:45:13.084Z</time></trkpt><trkpt lat="45.6253067" lon="11.4488567"><ele>72.0</ele><time>2026-03-28T08:45:14.084Z</time></trkpt><trkpt lat="45.6253967" lon="11.448705"><ele>72.0</ele><time>2026-03-28T08:45:15.084Z</time></trkpt><trkpt lat="45.6254917" lon="11.44855"><ele>72.0</ele><time>2026-03-28T08:45:16.084Z</time></trkpt><trkpt lat="45.6255883" lon="11.4484"><ele>72.25</ele><time>2026-03-28T08:45:17.084Z</time></trkpt><trkpt lat="45.6256933" lon="11.4482583"><ele>72.5</ele><time>2026-03-28T08:45:18.084Z</time></trkpt><trkpt lat="45.6257967" lon="11.4481217"><ele>72.75</ele><time>2026-03-28T08:45:19.084Z</time></trkpt><trkpt lat="45.62591" lon="11.447985"><ele>73.0</ele><time>2026-03-28T08:45:20.084Z</time></trkpt><trkpt lat="45.6260183" lon="11.4478567"><ele>73.0</ele><time>2026-03-28T08:45:21.084Z</time></trkpt><trkpt lat="45.6261267" lon="11.447735"><ele>73.0</ele><time>2026-03-28T08:45:22.084Z</time></trkpt><trkpt lat="45.62623" lon="11.4476267"><ele>73.0</ele><time>2026-03-28T08:45:23.084Z</time></trkpt><trkpt lat="45.6263333" lon="11.447525"><ele>73.0</ele><time>2026-03-28T08:45:24.084Z</time></trkpt><trkpt lat="45.6264283" lon="11.4474383"><ele>73.2</ele><time>2026-03-28T08:45:25.084Z</time></trkpt><trkpt lat="45.6265217" lon="11.4473533"><ele>73.4</ele><time>2026-03-28T08:45:26.084Z</time></trkpt><trkpt lat="45.6266017" lon="11.4472833"><ele>73.60000000000001</ele><time>2026-03-28T08:45:27.084Z</time></trkpt><trkpt lat="45.6266717" lon="11.4472283"><ele>73.8</ele><time>2026-03-28T08:45:28.084Z</time></trkpt><trkpt lat="45.6267383" lon="11.4471783"><ele>74.0</ele><time>2026-03-28T08:45:29.083Z</time></trkpt><trkpt lat="45.6268333" lon="11.447085"><ele>74.0</ele><time>2026-03-28T08:45:31.084Z</time></trkpt><trkpt lat="45.626905" lon="11.4470183"><ele>74.0</ele><time>2026-03-28T08:45:33.084Z</time></trkpt><trkpt lat="45.6269683" lon="11.4469433"><ele>74.0</ele><time>2026-03-28T08:45:35.084Z</time></trkpt><trkpt lat="45.6270467" lon="11.44686"><ele>74.0</ele><time>2026-03-28T08:45:37.083Z</time></trkpt><trkpt lat="45.6271117" lon="11.4467933"><ele>74.0</ele><time>2026-03-28T08:45:39.084Z</time></trkpt><trkpt lat="45.627165" lon="11.4467317"><ele>74.0</ele><time>2026-03-28T08:45:41.084Z</time></trkpt><trkpt lat="45.6272283" lon="11.4466417"><ele>74.33333333333334</ele><time>2026-03-28T08:45:43.084Z</time></trkpt><trkpt lat="45.6272917" lon="11.4465633"><ele>74.66666666666667</ele><time>2026-03-28T08:45:45.084Z</time></trkpt><trkpt lat="45.6273467" lon="11.4464933"><ele>75.0</ele><time>2026-03-28T08:45:47.084Z</time></trkpt><trkpt lat="45.6273983" lon="11.4464233"><ele>75.33333333333333</ele><time>2026-03-28T08:45:49.083Z</time></trkpt><trkpt lat="45.6274567" lon="11.44635"><ele>75.66666666666666</ele><time>2026-03-28T08:45:51.084Z</time></trkpt><trkpt lat="45.6275183" lon="11.44626"><ele>76.0</ele><time>2026-03-28T08:45:54.084Z</time></trkpt><trkpt lat="45.6275717" lon="11.4461883"><ele>76.0</ele><time>2026-03-28T08:45:57.083Z</time></trkpt><trkpt lat="45.62761" lon="11.4461133"><ele>76.0</ele><time>2026-03-28T08:45:59.084Z</time></trkpt><trkpt lat="45.6276533" lon="11.4460217"><ele>76.0</ele><time>2026-03-28T08:46:01.084Z</time></trkpt><trkpt lat="45.6277083" lon="11.4459317"><ele>76.0</ele><time>2026-03-28T08:46:03.084Z</time></trkpt><trkpt lat="45.6277817" lon="11.4458533"><ele>76.0</ele><time>2026-03-28T08:46:05.084Z</time></trkpt><trkpt lat="45.6278517" lon="11.445755"><ele>76.0</ele><time>2026-03-28T08:46:07.084Z</time></trkpt><trkpt lat="45.6278883" lon="11.4456417"><ele>76.0</ele><time>2026-03-28T08:46:09.084Z</time></trkpt><trkpt lat="45.6279" lon="11.4455467"><ele>76.0</ele><time>2026-03-28T08:46:11.084Z</time></trkpt><trkpt lat="45.6279083" lon="11.4454383"><ele>76.0</ele><time>2026-03-28T08:46:13.084Z</time></trkpt><trkpt lat="45.6279217" lon="11.4453283"><ele>76.0</ele><time>2026-03-28T08:46:15.084Z</time></trkpt><trkpt lat="45.62794" lon="11.4452067"><ele>76.0</ele><time>2026-03-28T08:46:17.084Z</time></trkpt><trkpt lat="45.6279767" lon="11.4450917"><ele>76.0</ele><time>2026-03-28T08:46:19.084Z</time></trkpt><trkpt lat="45.6279983" lon="11.4449483"><ele>76.0</ele><time>2026-03-28T08:46:21.083Z</time></trkpt><trkpt lat="45.6280533" lon="11.444805"><ele>76.0</ele><time>2026-03-28T08:46:23.084Z</time></trkpt><trkpt lat="45.628115" lon="11.4446417"><ele>76.0</ele><time>2026-03-28T08:46:25.084Z</time></trkpt><trkpt lat="45.6281533" lon="11.4445583"><ele>76.0</ele><time>2026-03-28T08:46:26.083Z</time></trkpt><trkpt lat="45.62819" lon="11.444455"><ele>76.0</ele><time>2026-03-28T08:46:27.084Z</time></trkpt><trkpt lat="45.62823" lon="11.444355"><ele>76.0</ele><time>2026-03-28T08:46:28.084Z</time></trkpt><trkpt lat="45.62827" lon="11.444245"><ele>76.0</ele><time>2026-03-28T08:46:29.083Z</time></trkpt><trkpt lat="45.628315" lon="11.4441483"><ele>76.0</ele><time>2026-03-28T08:46:30.083Z</time></trkpt><trkpt lat="45.62835" lon="11.44404"><ele>76.0</ele><time>2026-03-28T08:46:31.084Z</time></trkpt><trkpt lat="45.6283917" lon="11.4439383"><ele>76.0</ele><time>2026-03-28T08:46:32.084Z</time></trkpt><trkpt lat="45.6284283" lon="11.4438383"><ele>76.0</ele><time>2026-03-28T08:46:33.083Z</time></trkpt><trkpt lat="45.6284667" lon="11.4437317"><ele>76.0</ele><time>2026-03-28T08:46:34.083Z</time></trkpt><trkpt lat="45.628515" lon="11.4436317"><ele>76.0</ele><time>2026-03-28T08:46:35.084Z</time></trkpt><trkpt lat="45.6285633" lon="11.443535"><ele>76.0</ele><time>2026-03-28T08:46:36.084Z</time></trkpt><trkpt lat="45.6286033" lon="11.4434383"><ele>76.0</ele><time>2026-03-28T08:46:37.084Z</time></trkpt><trkpt lat="45.62864" lon="11.4433417"><ele>76.0</ele><time>2026-03-28T08:46:38.084Z</time></trkpt><trkpt lat="45.628675" lon="11.4432567"><ele>76.0</ele><time>2026-03-28T08:46:39.084Z</time></trkpt><trkpt lat="45.6287017" lon="11.443175"><ele>76.33333333333333</ele><time>2026-03-28T08:46:40.083Z</time></trkpt><trkpt lat="45.62873" lon="11.4430883"><ele>76.66666666666666</ele><time>2026-03-28T08:46:41.084Z</time></trkpt><trkpt lat="45.62876" lon="11.443005"><ele>77.0</ele><time>2026-03-28T08:46:42.084Z</time></trkpt><trkpt lat="45.6287967" lon="11.44293"><ele>77.33333333333333</ele><time>2026-03-28T08:46:43.083Z</time></trkpt><trkpt lat="45.6288667" lon="11.4427833"><ele>77.66666666666667</ele><time>2026-03-28T08:46:45.083Z</time></trkpt><trkpt lat="45.62891" lon="11.4427117"><ele>78.0</ele><time>2026-03-28T08:46:46.084Z</time></trkpt><trkpt lat="45.6289517" lon="11.4426367"><ele>78.0</ele><time>2026-03-28T08:46:47.084Z</time></trkpt><trkpt lat="45.628995" lon="11.4425533"><ele>78.0</ele><time>2026-03-28T08:46:48.084Z</time></trkpt><trkpt lat="45.6290417" lon="11.442465"><ele>78.0</ele><time>2026-03-28T08:46:49.083Z</time></trkpt><trkpt lat="45.6290983" lon="11.4423733"><ele>78.0</ele><time>2026-03-28T08:46:50.084Z</time></trkpt><trkpt lat="45.6291567" lon="11.4422767"><ele>78.0</ele><time>2026-03-28T08:46:51.084Z</time></trkpt><trkpt lat="45.6292183" lon="11.4421767"><ele>78.0</ele><time>2026-03-28T08:46:52.083Z</time></trkpt><trkpt lat="45.62928" lon="11.4420717"><ele>78.2</ele><time>2026-03-28T08:46:53.083Z</time></trkpt><trkpt lat="45.6293483" lon="11.4419683"><ele>78.4</ele><time>2026-03-28T08:46:54.084Z</time></trkpt><trkpt lat="45.6294117" lon="11.4418517"><ele>78.60000000000001</ele><time>2026-03-28T08:46:55.084Z</time></trkpt><trkpt lat="45.6294867" lon="11.44175"><ele>78.8</ele><time>2026-03-28T08:46:56.083Z</time></trkpt><trkpt lat="45.62957" lon="11.44164"><ele>79.0</ele><time>2026-03-28T08:46:57.084Z</time></trkpt><trkpt lat="45.6296433" lon="11.4415317"><ele>79.0</ele><time>2026-03-28T08:46:58.084Z</time></trkpt><trkpt lat="45.6297367" lon="11.4414267"><ele>79.0</ele><time>2026-03-28T08:46:59.084Z</time></trkpt><trkpt lat="45.629835" lon="11.4413417"><ele>79.0</ele><time>2026-03-28T08:47:00.084Z</time></trkpt><trkpt lat="45.6299433" lon="11.4412717"><ele>79.0</ele><time>2026-03-28T08:47:01.083Z</time></trkpt><trkpt lat="45.630065" lon="11.441205"><ele>79.0</ele><time>2026-03-28T08:47:02.084Z</time></trkpt><trkpt lat="45.6301933" lon="11.4411533"><ele>79.0</ele><time>2026-03-28T08:47:03.084Z</time></trkpt><trkpt lat="45.6303267" lon="11.4411117"><ele>79.0</ele><time>2026-03-28T08:47:04.084Z</time></trkpt><trkpt lat="45.630455" lon="11.4410883"><ele>79.0</ele><time>2026-03-28T08:47:05.084Z</time></trkpt><trkpt lat="45.6305733" lon="11.4410583"><ele>79.0</ele><time>2026-03-28T08:47:06.083Z</time></trkpt><trkpt lat="45.6306967" lon="11.4410267"><ele>79.0</ele><time>2026-03-28T08:47:07.084Z</time></trkpt><trkpt lat="45.6308217" lon="11.4409983"><ele>79.0</ele><time>2026-03-28T08:47:08.084Z</time></trkpt><trkpt lat="45.6309483" lon="11.440975"><ele>79.0</ele><time>2026-03-28T08:47:09.084Z</time></trkpt><trkpt lat="45.6310767" lon="11.4409333"><ele>79.25</ele><time>2026-03-28T08:47:10.083Z</time></trkpt><trkpt lat="45.6312067" lon="11.4408817"><ele>79.5</ele><time>2026-03-28T08:47:11.084Z</time></trkpt><trkpt lat="45.6313383" lon="11.4408283"><ele>79.75</ele><time>2026-03-28T08:47:12.084Z</time></trkpt><trkpt lat="45.6314667" lon="11.44076"><ele>80.0</ele><time>2026-03-28T08:47:13.084Z</time></trkpt><trkpt lat="45.631585" lon="11.44068"><ele>80.0</ele><time>2026-03-28T08:47:14.084Z</time></trkpt><trkpt lat="45.6317033" lon="11.4405933"><ele>80.0</ele><time>2026-03-28T08:47:15.084Z</time></trkpt><trkpt lat="45.6318233" lon="11.4404983"><ele>80.0</ele><time>2026-03-28T08:47:16.084Z</time></trkpt><trkpt lat="45.6319333" lon="11.4404"><ele>80.0</ele><time>2026-03-28T08:47:17.083Z</time></trkpt><trkpt lat="45.63205" lon="11.4403033"><ele>80.25</ele><time>2026-03-28T08:47:18.084Z</time></trkpt><trkpt lat="45.6321683" lon="11.440205"><ele>80.5</ele><time>2026-03-28T08:47:19.084Z</time></trkpt><trkpt lat="45.632285" lon="11.4401067"><ele>80.75</ele><time>2026-03-28T08:47:20.084Z</time></trkpt><trkpt lat="45.632405" lon="11.440005"><ele>81.0</ele><time>2026-03-28T08:47:21.083Z</time></trkpt><trkpt lat="45.6325267" lon="11.4399033"><ele>81.0</ele><time>2026-03-28T08:47:22.083Z</time></trkpt><trkpt lat="45.6326467" lon="11.4398017"><ele>81.0</ele><time>2026-03-28T08:47:23.084Z</time></trkpt><trkpt lat="45.6327667" lon="11.4396983"><ele>81.0</ele><time>2026-03-28T08:47:24.084Z</time></trkpt><trkpt lat="45.63289" lon="11.4395967"><ele>81.0</ele><time>2026-03-28T08:47:25.084Z</time></trkpt><trkpt lat="45.633015" lon="11.4394967"><ele>80.66666666666667</ele><time>2026-03-28T08:47:26.083Z</time></trkpt><trkpt lat="45.6331467" lon="11.4393867"><ele>80.33333333333334</ele><time>2026-03-28T08:47:27.083Z</time></trkpt><trkpt lat="45.633275" lon="11.4392767"><ele>80.0</ele><time>2026-03-28T08:47:28.084Z</time></trkpt><trkpt lat="45.633405" lon="11.4391733"><ele>80.0</ele><time>2026-03-28T08:47:29.084Z</time></trkpt><trkpt lat="45.63353" lon="11.43907"><ele>80.0</ele><time>2026-03-28T08:47:30.083Z</time></trkpt><trkpt lat="45.6336567" lon="11.438965"><ele>80.0</ele><time>2026-03-28T08:47:31.083Z</time></trkpt><trkpt lat="45.6337817" lon="11.4388583"><ele>80.0</ele><time>2026-03-28T08:47:32.083Z</time></trkpt><trkpt lat="45.6339017" lon="11.438745"><ele>80.5</ele><time>2026-03-28T08:47:33.084Z</time></trkpt><trkpt lat="45.6340283" lon="11.4386383"><ele>81.0</ele><time>2026-03-28T08:47:34.084Z</time></trkpt><trkpt lat="45.634155" lon="11.43853"><ele>81.5</ele><time>2026-03-28T08:47:35.084Z</time></trkpt><trkpt lat="45.63428" lon="11.4384233"><ele>82.0</ele><time>2026-03-28T08:47:36.084Z</time></trkpt><trkpt lat="45.6344067" lon="11.4383117"><ele>82.25</ele><time>2026-03-28T08:47:37.083Z</time></trkpt><trkpt lat="45.63454" lon="11.4381917"><ele>82.5</ele><time>2026-03-28T08:47:38.083Z</time></trkpt><trkpt lat="45.6346683" lon="11.4380867"><ele>82.75</ele><time>2026-03-28T08:47:39.084Z</time></trkpt><trkpt lat="45.6347883" lon="11.4379883"><ele>83.0</ele><time>2026-03-28T08:47:40.083Z</time></trkpt><trkpt lat="45.6348883" lon="11.4378983"><ele>83.0</ele><time>2026-03-28T08:47:41.083Z</time></trkpt><trkpt lat="45.6349667" lon="11.4378283"><ele>83.0</ele><time>2026-03-28T08:47:42.084Z</time></trkpt><trkpt lat="45.635025" lon="11.437785"><ele>83.0</ele><time>2026-03-28T08:47:43.084Z</time></trkpt><trkpt lat="45.63512" lon="11.4377267"><ele>83.0</ele><time>2026-03-28T08:47:45.083Z</time></trkpt><trkpt lat="45.6351783" lon="11.4376833"><ele>83.0</ele><time>2026-03-28T08:47:46.084Z</time></trkpt><trkpt lat="45.6352433" lon="11.437635"><ele>83.0</ele><time>2026-03-28T08:47:47.083Z</time></trkpt><trkpt lat="45.6353133" lon="11.4375683"><ele>83.0</ele><time>2026-03-28T08:47:48.084Z</time></trkpt><trkpt lat="45.6353983" lon="11.4374983"><ele>83.0</ele><time>2026-03-28T08:47:49.084Z</time></trkpt><trkpt lat="45.6354933" lon="11.43742"><ele>83.0</ele><time>2026-03-28T08:47:50.083Z</time></trkpt><trkpt lat="45.6356" lon="11.4373317"><ele>83.0</ele><time>2026-03-28T08:47:51.084Z</time></trkpt><trkpt lat="45.6357167" lon="11.4372317"><ele>83.0</ele><time>2026-03-28T08:47:52.084Z</time></trkpt><trkpt lat="45.63584" lon="11.4371233"><ele>83.0</ele><time>2026-03-28T08:47:53.083Z</time></trkpt><trkpt lat="45.6359617" lon="11.4370167"><ele>83.0</ele><time>2026-03-28T08:47:54.083Z</time></trkpt><trkpt lat="45.6360783" lon="11.436915"><ele>83.0</ele><time>2026-03-28T08:47:55.084Z</time></trkpt><trkpt lat="45.636185" lon="11.4368267"><ele>83.0</ele><time>2026-03-28T08:47:56.083Z</time></trkpt><trkpt lat="45.6362817" lon="11.4367483"><ele>83.0</ele><time>2026-03-28T08:47:57.084Z</time></trkpt><trkpt lat="45.6363717" lon="11.43667"><ele>83.0</ele><time>2026-03-28T08:47:58.084Z</time></trkpt><trkpt lat="45.63646" lon="11.436585"><ele>83.0</ele><time>2026-03-28T08:47:59.083Z</time></trkpt><trkpt lat="45.6365467" lon="11.436515"><ele>83.0</ele><time>2026-03-28T08:48:00.084Z</time></trkpt><trkpt lat="45.636635" lon="11.4364533"><ele>83.0</ele><time>2026-03-28T08:48:01.084Z</time></trkpt><trkpt lat="45.6367333" lon="11.4364"><ele>83.0</ele><time>2026-03-28T08:48:02.084Z</time></trkpt><trkpt lat="45.636835" lon="11.4363733"><ele>83.0</ele><time>2026-03-28T08:48:03.084Z</time></trkpt><trkpt lat="45.6369383" lon="11.4363767"><ele>83.0</ele><time>2026-03-28T08:48:04.084Z</time></trkpt><trkpt lat="45.637035" lon="11.4363567"><ele>83.0</ele><time>2026-03-28T08:48:05.083Z</time></trkpt><trkpt lat="45.637135" lon="11.4362983"><ele>82.80000000000001</ele><time>2026-03-28T08:48:06.083Z</time></trkpt><trkpt lat="45.6372183" lon="11.4361917"><ele>82.6</ele><time>2026-03-28T08:48:07.084Z</time></trkpt><trkpt lat="45.6372817" lon="11.43606"><ele>82.4</ele><time>2026-03-28T08:48:08.083Z</time></trkpt><trkpt lat="45.63734" lon="11.435925"><ele>82.19999999999999</ele><time>2026-03-28T08:48:09.084Z</time></trkpt><trkpt lat="45.6374117" lon="11.4358033"><ele>82.0</ele><time>2026-03-28T08:48:10.084Z</time></trkpt><trkpt lat="45.6375017" lon="11.4357283"><ele>82.0</ele><time>2026-03-28T08:48:11.083Z</time></trkpt><trkpt lat="45.6375983" lon="11.4357017"><ele>82.0</ele><time>2026-03-28T08:48:12.083Z</time></trkpt><trkpt lat="45.63769" lon="11.43568"><ele>82.0</ele><time>2026-03-28T08:48:13.084Z</time></trkpt><trkpt lat="45.637775" lon="11.43564"><ele>82.0</ele><time>2026-03-28T08:48:14.084Z</time></trkpt><trkpt lat="45.6378367" lon="11.4355467"><ele>82.0</ele><time>2026-03-28T08:48:15.083Z</time></trkpt><trkpt lat="45.63788" lon="11.4354117"><ele>83.0</ele><time>2026-03-28T08:48:16.084Z</time></trkpt><trkpt lat="45.63793" lon="11.43526"><ele>84.0</ele><time>2026-03-28T08:48:17.084Z</time></trkpt><trkpt lat="45.6379917" lon="11.43511"><ele>85.0</ele><time>2026-03-28T08:48:18.084Z</time></trkpt><trkpt lat="45.638065" lon="11.4349683"><ele>86.0</ele><time>2026-03-28T08:48:19.084Z</time></trkpt><trkpt lat="45.6381467" lon="11.4348317"><ele>86.0</ele><time>2026-03-28T08:48:20.084Z</time></trkpt><trkpt lat="45.6382283" lon="11.4346983"><ele>86.0</ele><time>2026-03-28T08:48:21.084Z</time></trkpt><trkpt lat="45.63831" lon="11.434565"><ele>86.0</ele><time>2026-03-28T08:48:22.084Z</time></trkpt><trkpt lat="45.6383967" lon="11.4344333"><ele>86.0</ele><time>2026-03-28T08:48:23.084Z</time></trkpt><trkpt lat="45.6384867" lon="11.4343033"><ele>86.0</ele><time>2026-03-28T08:48:24.084Z</time></trkpt><trkpt lat="45.6385767" lon="11.4341667"><ele>86.0</ele><time>2026-03-28T08:48:25.084Z</time></trkpt><trkpt lat="45.63867" lon="11.4340367"><ele>86.0</ele><time>2026-03-28T08:48:26.084Z</time></trkpt><trkpt lat="45.6387567" lon="11.4339017"><ele>86.0</ele><time>2026-03-28T08:48:27.084Z</time></trkpt><trkpt lat="45.6388433" lon="11.4337617"><ele>85.75</ele><time>2026-03-28T08:48:28.084Z</time></trkpt><trkpt lat="45.6389267" lon="11.4336333"><ele>85.5</ele><time>2026-03-28T08:48:29.083Z</time></trkpt><trkpt lat="45.6390067" lon="11.4335067"><ele>85.25</ele><time>2026-03-28T08:48:30.083Z</time></trkpt><trkpt lat="45.6390833" lon="11.43338"><ele>85.0</ele><time>2026-03-28T08:48:31.084Z</time></trkpt><trkpt lat="45.6391667" lon="11.4332533"><ele>85.0</ele><time>2026-03-28T08:48:32.084Z</time></trkpt><trkpt lat="45.6392533" lon="11.4331333"><ele>85.0</ele><time>2026-03-28T08:48:33.083Z</time></trkpt><trkpt lat="45.63934" lon="11.433005"><ele>85.0</ele><time>2026-03-28T08:48:34.084Z</time></trkpt><trkpt lat="45.63942" lon="11.4328783"><ele>85.0</ele><time>2026-03-28T08:48:35.083Z</time></trkpt><trkpt lat="45.6395033" lon="11.4327517"><ele>85.25</ele><time>2026-03-28T08:48:36.083Z</time></trkpt><trkpt lat="45.639585" lon="11.4326317"><ele>85.5</ele><time>2026-03-28T08:48:37.084Z</time></trkpt><trkpt lat="45.6396617" lon="11.4325067"><ele>85.75</ele><time>2026-03-28T08:48:38.083Z</time></trkpt><trkpt lat="45.6397383" lon="11.43238"><ele>86.0</ele><time>2026-03-28T08:48:39.084Z</time></trkpt><trkpt lat="45.6398167" lon="11.4322567"><ele>86.0</ele><time>2026-03-28T08:48:40.084Z</time></trkpt><trkpt lat="45.639895" lon="11.43214"><ele>86.0</ele><time>2026-03-28T08:48:41.084Z</time></trkpt><trkpt lat="45.63997" lon="11.4320283"><ele>86.0</ele><time>2026-03-28T08:48:42.084Z</time></trkpt><trkpt lat="45.6400467" lon="11.4319217"><ele>86.0</ele><time>2026-03-28T08:48:43.084Z</time></trkpt><trkpt lat="45.6401233" lon="11.4318233"><ele>86.0</ele><time>2026-03-28T08:48:44.084Z</time></trkpt><trkpt lat="45.6402033" lon="11.431735"><ele>86.0</ele><time>2026-03-28T08:48:45.084Z</time></trkpt><trkpt lat="45.6402767" lon="11.4316367"><ele>86.0</ele><time>2026-03-28T08:48:46.084Z</time></trkpt><trkpt lat="45.6403517" lon="11.431545"><ele>86.0</ele><time>2026-03-28T08:48:47.084Z</time></trkpt><trkpt lat="45.6404283" lon="11.431455"><ele>86.0</ele><time>2026-03-28T08:48:48.084Z</time></trkpt><trkpt lat="45.6405117" lon="11.4313483"><ele>86.0</ele><time>2026-03-28T08:48:49.084Z</time></trkpt><trkpt lat="45.6405983" lon="11.431235"><ele>86.75</ele><time>2026-03-28T08:48:50.084Z</time></trkpt><trkpt lat="45.640695" lon="11.431115"><ele>87.5</ele><time>2026-03-28T08:48:51.084Z</time></trkpt><trkpt lat="45.6408017" lon="11.4309967"><ele>88.25</ele><time>2026-03-28T08:48:52.083Z</time></trkpt><trkpt lat="45.6409133" lon="11.4308683"><ele>89.0</ele><time>2026-03-28T08:48:53.084Z</time></trkpt><trkpt lat="45.64103" lon="11.43074"><ele>89.0</ele><time>2026-03-28T08:48:54.083Z</time></trkpt><trkpt lat="45.6411467" lon="11.4306067"><ele>89.0</ele><time>2026-03-28T08:48:55.084Z</time></trkpt><trkpt lat="45.641265" lon="11.4304733"><ele>89.0</ele><time>2026-03-28T08:48:56.084Z</time></trkpt><trkpt lat="45.6413833" lon="11.43034"><ele>89.0</ele><time>2026-03-28T08:48:57.084Z</time></trkpt><trkpt lat="45.6415017" lon="11.4301983"><ele>89.0</ele><time>2026-03-28T08:48:58.084Z</time></trkpt><trkpt lat="45.6416167" lon="11.43006"><ele>89.0</ele><time>2026-03-28T08:48:59.084Z</time></trkpt><trkpt lat="45.6417333" lon="11.4299267"><ele>89.0</ele><time>2026-03-28T08:49:00.083Z</time></trkpt><trkpt lat="45.6418417" lon="11.4297817"><ele>89.0</ele><time>2026-03-28T08:49:01.084Z</time></trkpt><trkpt lat="45.6419517" lon="11.4296383"><ele>89.0</ele><time>2026-03-28T08:49:02.084Z</time></trkpt><trkpt lat="45.6420567" lon="11.4294933"><ele>89.0</ele><time>2026-03-28T08:49:03.084Z</time></trkpt><trkpt lat="45.6421567" lon="11.4293483"><ele>89.25</ele><time>2026-03-28T08:49:04.084Z</time></trkpt><trkpt lat="45.6422483" lon="11.4292117"><ele>89.5</ele><time>2026-03-28T08:49:05.083Z</time></trkpt><trkpt lat="45.64233" lon="11.4290717"><ele>89.75</ele><time>2026-03-28T08:49:06.083Z</time></trkpt><trkpt lat="45.6424167" lon="11.428945"><ele>90.0</ele><time>2026-03-28T08:49:07.083Z</time></trkpt><trkpt lat="45.6424983" lon="11.4288267"><ele>90.25</ele><time>2026-03-28T08:49:08.084Z</time></trkpt><trkpt lat="45.6425867" lon="11.428705"><ele>90.5</ele><time>2026-03-28T08:49:09.083Z</time></trkpt><trkpt lat="45.6426767" lon="11.428585"><ele>90.75</ele><time>2026-03-28T08:49:10.083Z</time></trkpt><trkpt lat="45.6427717" lon="11.4284633"><ele>91.0</ele><time>2026-03-28T08:49:11.084Z</time></trkpt><trkpt lat="45.6428733" lon="11.4283417"><ele>91.0</ele><time>2026-03-28T08:49:12.084Z</time></trkpt><trkpt lat="45.6429783" lon="11.4282183"><ele>91.0</ele><time>2026-03-28T08:49:13.084Z</time></trkpt><trkpt lat="45.64309" lon="11.4280967"><ele>91.0</ele><time>2026-03-28T08:49:14.084Z</time></trkpt><trkpt lat="45.6432017" lon="11.4279717"><ele>91.0</ele><time>2026-03-28T08:49:15.084Z</time></trkpt><trkpt lat="45.6433133" lon="11.4278467"><ele>91.0</ele><time>2026-03-28T08:49:16.083Z</time></trkpt><trkpt lat="45.64343" lon="11.4277217"><ele>91.0</ele><time>2026-03-28T08:49:17.084Z</time></trkpt><trkpt lat="45.6435517" lon="11.427605"><ele>91.0</ele><time>2026-03-28T08:49:18.084Z</time></trkpt><trkpt lat="45.643675" lon="11.427495"><ele>91.0</ele><time>2026-03-28T08:49:19.083Z</time></trkpt><trkpt lat="45.6438" lon="11.4273917"><ele>91.0</ele><time>2026-03-28T08:49:20.083Z</time></trkpt><trkpt lat="45.6439233" lon="11.427295"><ele>91.0</ele><time>2026-03-28T08:49:21.084Z</time></trkpt><trkpt lat="45.6440433" lon="11.427205"><ele>91.0</ele><time>2026-03-28T08:49:22.083Z</time></trkpt><trkpt lat="45.64416" lon="11.42712"><ele>91.0</ele><time>2026-03-28T08:49:23.083Z</time></trkpt><trkpt lat="45.6442717" lon="11.4270417"><ele>91.0</ele><time>2026-03-28T08:49:24.084Z</time></trkpt><trkpt lat="45.6443783" lon="11.4269733"><ele>91.0</ele><time>2026-03-28T08:49:25.084Z</time></trkpt><trkpt lat="45.644475" lon="11.4269217"><ele>91.0</ele><time>2026-03-28T08:49:26.084Z</time></trkpt><trkpt lat="45.64456" lon="11.426885"><ele>91.0</ele><time>2026-03-28T08:49:27.083Z</time></trkpt><trkpt lat="45.6446383" lon="11.4268633"><ele>91.0</ele><time>2026-03-28T08:49:28.084Z</time></trkpt><trkpt lat="45.64471" lon="11.42685"><ele>91.28571428571429</ele><time>2026-03-28T08:49:29.084Z</time></trkpt><trkpt lat="45.644775" lon="11.42685"><ele>91.57142857142857</ele><time>2026-03-28T08:49:30.083Z</time></trkpt><trkpt lat="45.6448417" lon="11.4268617"><ele>91.85714285714286</ele><time>2026-03-28T08:49:31.083Z</time></trkpt><trkpt lat="45.644915" lon="11.4268833"><ele>92.14285714285714</ele><time>2026-03-28T08:49:32.084Z</time></trkpt><trkpt lat="45.64499" lon="11.4269167"><ele>92.42857142857143</ele><time>2026-03-28T08:49:33.084Z</time></trkpt><trkpt lat="45.645065" lon="11.4269583"><ele>92.71428571428572</ele><time>2026-03-28T08:49:34.084Z</time></trkpt><trkpt lat="45.6451317" lon="11.4270217"><ele>93.0</ele><time>2026-03-28T08:49:35.084Z</time></trkpt><trkpt lat="45.6451917" lon="11.42711"><ele>92.83333333333333</ele><time>2026-03-28T08:49:36.084Z</time></trkpt><trkpt lat="45.6452583" lon="11.4271883"><ele>92.66666666666667</ele><time>2026-03-28T08:49:37.084Z</time></trkpt><trkpt lat="45.6453333" lon="11.4272367"><ele>92.5</ele><time>2026-03-28T08:49:38.084Z</time></trkpt><trkpt lat="45.645415" lon="11.4272483"><ele>92.33333333333334</ele><time>2026-03-28T08:49:39.084Z</time></trkpt><trkpt lat="45.6454933" lon="11.4272083"><ele>92.16666666666667</ele><time>2026-03-28T08:49:40.084Z</time></trkpt><trkpt lat="45.64556" lon="11.4271367"><ele>92.0</ele><time>2026-03-28T08:49:41.084Z</time></trkpt><trkpt lat="45.6456017" lon="11.4270383"><ele>92.39999999999999</ele><time>2026-03-28T08:49:42.083Z</time></trkpt><trkpt lat="45.64561" lon="11.42692"><ele>92.8</ele><time>2026-03-28T08:49:43.084Z</time></trkpt><trkpt lat="45.6455883" lon="11.42679"><ele>93.2</ele><time>2026-03-28T08:49:44.084Z</time></trkpt><trkpt lat="45.6455917" lon="11.4266567"><ele>93.6</ele><time>2026-03-28T08:49:45.084Z</time></trkpt><trkpt lat="45.64561" lon="11.4265333"><ele>94.0</ele><time>2026-03-28T08:49:46.084Z</time></trkpt><trkpt lat="45.6456533" lon="11.426405"><ele>94.5</ele><time>2026-03-28T08:49:47.084Z</time></trkpt><trkpt lat="45.64572" lon="11.4262333"><ele>95.0</ele><time>2026-03-28T08:49:48.083Z</time></trkpt><trkpt lat="45.6458033" lon="11.42605"><ele>95.5</ele><time>2026-03-28T08:49:49.084Z</time></trkpt><trkpt lat="45.645895" lon="11.4258767"><ele>96.0</ele><time>2026-03-28T08:49:50.084Z</time></trkpt><trkpt lat="45.6459867" lon="11.425725"><ele>96.0</ele><time>2026-03-28T08:49:51.084Z</time></trkpt><trkpt lat="45.646075" lon="11.42559"><ele>96.0</ele><time>2026-03-28T08:49:52.084Z</time></trkpt><trkpt lat="45.6461633" lon="11.42547"><ele>96.0</ele><time>2026-03-28T08:49:53.084Z</time></trkpt><trkpt lat="45.6462517" lon="11.4253633"><ele>96.0</ele><time>2026-03-28T08:49:54.083Z</time></trkpt><trkpt lat="45.6463367" lon="11.4252717"><ele>96.0</ele><time>2026-03-28T08:49:55.084Z</time></trkpt><trkpt lat="45.6464183" lon="11.4251933"><ele>96.0</ele><time>2026-03-28T08:49:56.084Z</time></trkpt><trkpt lat="45.6464967" lon="11.4251183"><ele>96.0</ele><time>2026-03-28T08:49:57.084Z</time></trkpt><trkpt lat="45.646575" lon="11.42505"><ele>96.0</ele><time>2026-03-28T08:49:58.084Z</time></trkpt><trkpt lat="45.6466517" lon="11.4249867"><ele>96.0</ele><time>2026-03-28T08:49:59.084Z</time></trkpt><trkpt lat="45.6467217" lon="11.4249283"><ele>96.0</ele><time>2026-03-28T08:50:00.083Z</time></trkpt><trkpt lat="45.64679" lon="11.4248517"><ele>96.0</ele><time>2026-03-28T08:50:01.084Z</time></trkpt><trkpt lat="45.6468633" lon="11.4247933"><ele>96.0</ele><time>2026-03-28T08:50:02.083Z</time></trkpt><trkpt lat="45.6469383" lon="11.42473"><ele>96.0</ele><time>2026-03-28T08:50:03.084Z</time></trkpt><trkpt lat="45.6470117" lon="11.4246683"><ele>96.0</ele><time>2026-03-28T08:50:04.084Z</time></trkpt><trkpt lat="45.64708" lon="11.4246083"><ele>96.0</ele><time>2026-03-28T08:50:05.084Z</time></trkpt><trkpt lat="45.64714" lon="11.42455"><ele>95.83333333333333</ele><time>2026-03-28T08:50:06.084Z</time></trkpt><trkpt lat="45.6472033" lon="11.4244933"><ele>95.66666666666667</ele><time>2026-03-28T08:50:07.084Z</time></trkpt><trkpt lat="45.6472683" lon="11.4244367"><ele>95.5</ele><time>2026-03-28T08:50:08.084Z</time></trkpt><trkpt lat="45.6473417" lon="11.4243667"><ele>95.33333333333334</ele><time>2026-03-28T08:50:09.083Z</time></trkpt><trkpt lat="45.6474233" lon="11.424295"><ele>95.16666666666667</ele><time>2026-03-28T08:50:10.084Z</time></trkpt><trkpt lat="45.6475117" lon="11.4242033"><ele>95.0</ele><time>2026-03-28T08:50:11.084Z</time></trkpt><trkpt lat="45.6476067" lon="11.4241117"><ele>95.0</ele><time>2026-03-28T08:50:12.084Z</time></trkpt><trkpt lat="45.6477083" lon="11.424025"><ele>95.0</ele><time>2026-03-28T08:50:13.084Z</time></trkpt><trkpt lat="45.6478033" lon="11.4239417"><ele>95.0</ele><time>2026-03-28T08:50:14.084Z</time></trkpt><trkpt lat="45.6479033" lon="11.4238567"><ele>95.0</ele><time>2026-03-28T08:50:15.084Z</time></trkpt><trkpt lat="45.6480033" lon="11.42377"><ele>94.75</ele><time>2026-03-28T08:50:16.084Z</time></trkpt><trkpt lat="45.6481067" lon="11.42368"><ele>94.5</ele><time>2026-03-28T08:50:17.084Z</time></trkpt><trkpt lat="45.6482117" lon="11.4235833"><ele>94.25</ele><time>2026-03-28T08:50:18.083Z</time></trkpt><trkpt lat="45.6483217" lon="11.423475"><ele>94.0</ele><time>2026-03-28T08:50:19.084Z</time></trkpt><trkpt lat="45.6484367" lon="11.4233567"><ele>94.0</ele><time>2026-03-28T08:50:20.083Z</time></trkpt><trkpt lat="45.648555" lon="11.4232367"><ele>94.0</ele><time>2026-03-28T08:50:21.083Z</time></trkpt><trkpt lat="45.6486733" lon="11.4231217"><ele>94.0</ele><time>2026-03-28T08:50:22.083Z</time></trkpt><trkpt lat="45.64879" lon="11.4230083"><ele>94.0</ele><time>2026-03-28T08:50:23.084Z</time></trkpt><trkpt lat="45.6489" lon="11.4229"><ele>95.0</ele><time>2026-03-28T08:50:24.084Z</time></trkpt><trkpt lat="45.64901" lon="11.4227983"><ele>96.0</ele><time>2026-03-28T08:50:25.084Z</time></trkpt><trkpt lat="45.6491217" lon="11.422695"><ele>97.0</ele><time>2026-03-28T08:50:26.084Z</time></trkpt><trkpt lat="45.6492283" lon="11.42259"><ele>98.0</ele><time>2026-03-28T08:50:27.084Z</time></trkpt><trkpt lat="45.649335" lon="11.422485"><ele>98.0</ele><time>2026-03-28T08:50:28.083Z</time></trkpt><trkpt lat="45.6494317" lon="11.4223867"><ele>98.0</ele><time>2026-03-28T08:50:29.083Z</time></trkpt><trkpt lat="45.6495233" lon="11.4222933"><ele>98.0</ele><time>2026-03-28T08:50:30.084Z</time></trkpt><trkpt lat="45.6496117" lon="11.4221983"><ele>98.0</ele><time>2026-03-28T08:50:31.084Z</time></trkpt><trkpt lat="45.6497067" lon="11.4221"><ele>97.75</ele><time>2026-03-28T08:50:32.084Z</time></trkpt><trkpt lat="45.6498067" lon="11.4219967"><ele>97.5</ele><time>2026-03-28T08:50:33.084Z</time></trkpt><trkpt lat="45.6499117" lon="11.4218883"><ele>97.25</ele><time>2026-03-28T08:50:34.084Z</time></trkpt><trkpt lat="45.65002" lon="11.4217767"><ele>97.0</ele><time>2026-03-28T08:50:35.084Z</time></trkpt><trkpt lat="45.6501317" lon="11.4216633"><ele>97.0</ele><time>2026-03-28T08:50:36.084Z</time></trkpt><trkpt lat="45.650245" lon="11.4215417"><ele>97.0</ele><time>2026-03-28T08:50:37.084Z</time></trkpt><trkpt lat="45.6503583" lon="11.421415"><ele>97.0</ele><time>2026-03-28T08:50:38.084Z</time></trkpt><trkpt lat="45.6504767" lon="11.42129"><ele>97.0</ele><time>2026-03-28T08:50:39.084Z</time></trkpt><trkpt lat="45.6505983" lon="11.4211667"><ele>97.5</ele><time>2026-03-28T08:50:40.084Z</time></trkpt><trkpt lat="45.65072" lon="11.4210417"><ele>98.0</ele><time>2026-03-28T08:50:41.084Z</time></trkpt><trkpt lat="45.6508417" lon="11.4209183"><ele>98.5</ele><time>2026-03-28T08:50:42.083Z</time></trkpt><trkpt lat="45.6509633" lon="11.4207933"><ele>99.0</ele><time>2026-03-28T08:50:43.083Z</time></trkpt><trkpt lat="45.6510833" lon="11.420665"><ele>99.75</ele><time>2026-03-28T08:50:44.083Z</time></trkpt><trkpt lat="45.6512033" lon="11.420535"><ele>100.5</ele><time>2026-03-28T08:50:45.084Z</time></trkpt><trkpt lat="45.6513233" lon="11.4204083"><ele>101.25</ele><time>2026-03-28T08:50:46.084Z</time></trkpt><trkpt lat="45.6514417" lon="11.4202833"><ele>102.0</ele><time>2026-03-28T08:50:47.084Z</time></trkpt><trkpt lat="45.6515583" lon="11.4201633"><ele>102.0</ele><time>2026-03-28T08:50:48.083Z</time></trkpt><trkpt lat="45.65167" lon="11.4200483"><ele>102.0</ele><time>2026-03-28T08:50:49.084Z</time></trkpt><trkpt lat="45.6517767" lon="11.419935"><ele>102.0</ele><time>2026-03-28T08:50:50.083Z</time></trkpt><trkpt lat="45.6518817" lon="11.4198267"><ele>102.0</ele><time>2026-03-28T08:50:51.083Z</time></trkpt><trkpt lat="45.6519833" lon="11.419725"><ele>101.75</ele><time>2026-03-28T08:50:52.084Z</time></trkpt><trkpt lat="45.6520883" lon="11.419625"><ele>101.5</ele><time>2026-03-28T08:50:53.084Z</time></trkpt><trkpt lat="45.6522017" lon="11.419525"><ele>101.25</ele><time>2026-03-28T08:50:54.084Z</time></trkpt><trkpt lat="45.6523167" lon="11.4194283"><ele>101.0</ele><time>2026-03-28T08:50:55.084Z</time></trkpt><trkpt lat="45.6524317" lon="11.4193383"><ele>101.0</ele><time>2026-03-28T08:50:56.084Z</time></trkpt><trkpt lat="45.6525483" lon="11.4192533"><ele>101.0</ele><time>2026-03-28T08:50:57.084Z</time></trkpt><trkpt lat="45.6526583" lon="11.4191667"><ele>101.0</ele><time>2026-03-28T08:50:58.083Z</time></trkpt><trkpt lat="45.65277" lon="11.419085"><ele>101.0</ele><time>2026-03-28T08:50:59.083Z</time></trkpt><trkpt lat="45.6528817" lon="11.4190133"><ele>101.0</ele><time>2026-03-28T08:51:00.084Z</time></trkpt><trkpt lat="45.6530017" lon="11.4189433"><ele>101.0</ele><time>2026-03-28T08:51:01.084Z</time></trkpt><trkpt lat="45.6531083" lon="11.4188733"><ele>101.0</ele><time>2026-03-28T08:51:02.084Z</time></trkpt><trkpt lat="45.6532117" lon="11.4187983"><ele>101.0</ele><time>2026-03-28T08:51:03.083Z</time></trkpt><trkpt lat="45.65332" lon="11.41873"><ele>101.25</ele><time>2026-03-28T08:51:04.084Z</time></trkpt><trkpt lat="45.65343" lon="11.418665"><ele>101.5</ele><time>2026-03-28T08:51:05.084Z</time></trkpt><trkpt lat="45.6535383" lon="11.4185917"><ele>101.75</ele><time>2026-03-28T08:51:06.084Z</time></trkpt><trkpt lat="45.6536467" lon="11.4185133"><ele>102.0</ele><time>2026-03-28T08:51:07.084Z</time></trkpt><trkpt lat="45.6537667" lon="11.4184433"><ele>102.5</ele><time>2026-03-28T08:51:08.084Z</time></trkpt><trkpt lat="45.6538767" lon="11.418365"><ele>103.0</ele><time>2026-03-28T08:51:09.084Z</time></trkpt><trkpt lat="45.6540017" lon="11.4182817"><ele>103.5</ele><time>2026-03-28T08:51:10.084Z</time></trkpt><trkpt lat="45.6541183" lon="11.418205"><ele>104.0</ele><time>2026-03-28T08:51:11.084Z</time></trkpt><trkpt lat="45.6542283" lon="11.4181333"><ele>104.0</ele><time>2026-03-28T08:51:12.084Z</time></trkpt><trkpt lat="45.6543467" lon="11.4180583"><ele>104.0</ele><time>2026-03-28T08:51:13.083Z</time></trkpt><trkpt lat="45.65446" lon="11.417975"><ele>104.0</ele><time>2026-03-28T08:51:14.084Z</time></trkpt><trkpt lat="45.6545833" lon="11.41789"><ele>104.0</ele><time>2026-03-28T08:51:15.083Z</time></trkpt><trkpt lat="45.65471" lon="11.417815"><ele>104.0</ele><time>2026-03-28T08:51:16.084Z</time></trkpt><trkpt lat="45.6548383" lon="11.4177267"><ele>104.0</ele><time>2026-03-28T08:51:17.083Z</time></trkpt><trkpt lat="45.6549683" lon="11.4176267"><ele>104.0</ele><time>2026-03-28T08:51:18.084Z</time></trkpt><trkpt lat="45.6550867" lon="11.4175317"><ele>104.0</ele><time>2026-03-28T08:51:19.084Z</time></trkpt><trkpt lat="45.6552133" lon="11.4174433"><ele>104.25</ele><time>2026-03-28T08:51:20.084Z</time></trkpt><trkpt lat="45.65533" lon="11.4173533"><ele>104.5</ele><time>2026-03-28T08:51:21.084Z</time></trkpt><trkpt lat="45.6554417" lon="11.41726"><ele>104.75</ele><time>2026-03-28T08:51:22.084Z</time></trkpt><trkpt lat="45.65556" lon="11.4171633"><ele>105.0</ele><time>2026-03-28T08:51:23.084Z</time></trkpt><trkpt lat="45.6556783" lon="11.4170683"><ele>105.25</ele><time>2026-03-28T08:51:24.084Z</time></trkpt><trkpt lat="45.6557967" lon="11.4169733"><ele>105.5</ele><time>2026-03-28T08:51:25.084Z</time></trkpt><trkpt lat="45.6559133" lon="11.4168767"><ele>105.75</ele><time>2026-03-28T08:51:26.084Z</time></trkpt><trkpt lat="45.656025" lon="11.4167817"><ele>106.0</ele><time>2026-03-28T08:51:27.083Z</time></trkpt><trkpt lat="45.65613" lon="11.41669"><ele>106.19999999999999</ele><time>2026-03-28T08:51:28.084Z</time></trkpt><trkpt lat="45.6562267" lon="11.4166017"><ele>106.39999999999999</ele><time>2026-03-28T08:51:29.083Z</time></trkpt><trkpt lat="45.656315" lon="11.4165167"><ele>106.6</ele><time>2026-03-28T08:51:30.084Z</time></trkpt><trkpt lat="45.6563983" lon="11.4164417"><ele>106.8</ele><time>2026-03-28T08:51:31.084Z</time></trkpt><trkpt lat="45.6564733" lon="11.41637"><ele>107.0</ele><time>2026-03-28T08:51:32.083Z</time></trkpt><trkpt lat="45.65654" lon="11.4163017"><ele>107.00000000000001</ele><time>2026-03-28T08:51:33.083Z</time></trkpt><trkpt lat="45.656605" lon="11.41624"><ele>107.0</ele><time>2026-03-28T08:51:34.084Z</time></trkpt><trkpt lat="45.6566667" lon="11.4161817"><ele>107.0</ele><time>2026-03-28T08:51:35.083Z</time></trkpt><trkpt lat="45.6567283" lon="11.416125"><ele>107.0</ele><time>2026-03-28T08:51:36.084Z</time></trkpt><trkpt lat="45.6567883" lon="11.4160683"><ele>107.0</ele><time>2026-03-28T08:51:37.084Z</time></trkpt><trkpt lat="45.6568417" lon="11.416015"><ele>107.00000000000001</ele><time>2026-03-28T08:51:38.084Z</time></trkpt><trkpt lat="45.6568983" lon="11.4159633"><ele>107.0</ele><time>2026-03-28T08:51:39.084Z</time></trkpt><trkpt lat="45.6569583" lon="11.415905"><ele>106.99999999999999</ele><time>2026-03-28T08:51:40.084Z</time></trkpt><trkpt lat="45.6570217" lon="11.41585"><ele>107.0</ele><time>2026-03-28T08:51:41.084Z</time></trkpt><trkpt lat="45.6570817" lon="11.4157883"><ele>107.0</ele><time>2026-03-28T08:51:42.084Z</time></trkpt><trkpt lat="45.6571367" lon="11.4157383"><ele>107.0</ele><time>2026-03-28T08:51:43.083Z</time></trkpt><trkpt lat="45.6572367" lon="11.4156433"><ele>106.99999999999999</ele><time>2026-03-28T08:51:45.084Z</time></trkpt><trkpt lat="45.65733" lon="11.4155583"><ele>107.0</ele><time>2026-03-28T08:51:47.083Z</time></trkpt><trkpt lat="45.65743" lon="11.4154433"><ele>107.0</ele><time>2026-03-28T08:51:49.084Z</time></trkpt><trkpt lat="45.6574817" lon="11.4153867"><ele>106.99999999999999</ele><time>2026-03-28T08:51:50.084Z</time></trkpt><trkpt lat="45.65758" lon="11.4152833"><ele>106.99999999999999</ele><time>2026-03-28T08:51:52.084Z</time></trkpt><trkpt lat="45.657675" lon="11.4151983"><ele>107.0</ele><time>2026-03-28T08:51:54.084Z</time></trkpt><trkpt lat="45.657755" lon="11.4151283"><ele>107.0</ele><time>2026-03-28T08:51:56.084Z</time></trkpt><trkpt lat="45.65781" lon="11.4150767"><ele>107.39999999999999</ele><time>2026-03-28T08:51:58.084Z</time></trkpt><trkpt lat="45.65788" lon="11.4150117"><ele>107.79999999999998</ele><time>2026-03-28T08:52:01.083Z</time></trkpt><trkpt lat="45.65796" lon="11.4149983"><ele>108.2</ele><time>2026-03-28T08:52:04.084Z</time></trkpt><trkpt lat="45.65804" lon="11.4150383"><ele>108.6</ele><time>2026-03-28T08:52:07.084Z</time></trkpt><trkpt lat="45.65816" lon="11.4150583"><ele>109.0</ele><time>2026-03-28T08:52:09.084Z</time></trkpt><trkpt lat="45.65824" lon="11.4150333"><ele>109.0</ele><time>2026-03-28T08:52:10.084Z</time></trkpt><trkpt lat="45.6583067" lon="11.4149567"><ele>109.0</ele><time>2026-03-28T08:52:11.083Z</time></trkpt><trkpt lat="45.65836" lon="11.4148467"><ele>109.0</ele><time>2026-03-28T08:52:12.084Z</time></trkpt><trkpt lat="45.6583883" lon="11.4147183"><ele>109.0</ele><time>2026-03-28T08:52:13.084Z</time></trkpt><trkpt lat="45.658415" lon="11.4145867"><ele>109.0</ele><time>2026-03-28T08:52:14.083Z</time></trkpt><trkpt lat="45.6584517" lon="11.4144467"><ele>109.0</ele><time>2026-03-28T08:52:15.084Z</time></trkpt><trkpt lat="45.6585067" lon="11.4143333"><ele>109.0</ele><time>2026-03-28T08:52:16.084Z</time></trkpt><trkpt lat="45.6585733" lon="11.414245"><ele>109.0</ele><time>2026-03-28T08:52:17.083Z</time></trkpt><trkpt lat="45.6586683" lon="11.4141633"><ele>109.0</ele><time>2026-03-28T08:52:18.084Z</time></trkpt><trkpt lat="45.6587683" lon="11.4140683"><ele>109.0</ele><time>2026-03-28T08:52:19.084Z</time></trkpt><trkpt lat="45.65887" lon="11.4139717"><ele>109.25</ele><time>2026-03-28T08:52:20.084Z</time></trkpt><trkpt lat="45.6589717" lon="11.4138717"><ele>109.5</ele><time>2026-03-28T08:52:21.084Z</time></trkpt><trkpt lat="45.6590783" lon="11.4137733"><ele>109.75</ele><time>2026-03-28T08:52:22.084Z</time></trkpt><trkpt lat="45.65918" lon="11.4136717"><ele>110.0</ele><time>2026-03-28T08:52:23.084Z</time></trkpt><trkpt lat="45.6592833" lon="11.4135733"><ele>110.0</ele><time>2026-03-28T08:52:24.084Z</time></trkpt><trkpt lat="45.6593933" lon="11.4134867"><ele>110.0</ele><time>2026-03-28T08:52:25.084Z</time></trkpt><trkpt lat="45.659495" lon="11.4133717"><ele>110.0</ele><time>2026-03-28T08:52:26.084Z</time></trkpt><trkpt lat="45.659605" lon="11.4132667"><ele>110.0</ele><time>2026-03-28T08:52:27.084Z</time></trkpt><trkpt lat="45.659715" lon="11.41315"><ele>110.25</ele><time>2026-03-28T08:52:28.084Z</time></trkpt><trkpt lat="45.6598267" lon="11.4130333"><ele>110.5</ele><time>2026-03-28T08:52:29.084Z</time></trkpt><trkpt lat="45.6599417" lon="11.4129167"><ele>110.75</ele><time>2026-03-28T08:52:30.084Z</time></trkpt><trkpt lat="45.6600617" lon="11.412795"><ele>111.0</ele><time>2026-03-28T08:52:31.084Z</time></trkpt><trkpt lat="45.6601817" lon="11.41267"><ele>112.0</ele><time>2026-03-28T08:52:32.083Z</time></trkpt><trkpt lat="45.6603083" lon="11.412545"><ele>113.0</ele><time>2026-03-28T08:52:33.084Z</time></trkpt><trkpt lat="45.6604367" lon="11.41242"><ele>114.0</ele><time>2026-03-28T08:52:34.084Z</time></trkpt><trkpt lat="45.66057" lon="11.4123"><ele>114.0</ele><time>2026-03-28T08:52:35.084Z</time></trkpt><trkpt lat="45.6607017" lon="11.4121717"><ele>114.0</ele><time>2026-03-28T08:52:36.084Z</time></trkpt><trkpt lat="45.6608283" lon="11.412045"><ele>114.0</ele><time>2026-03-28T08:52:37.083Z</time></trkpt><trkpt lat="45.6609533" lon="11.41192"><ele>114.0</ele><time>2026-03-28T08:52:38.084Z</time></trkpt><trkpt lat="45.6610733" lon="11.4117917"><ele>114.0</ele><time>2026-03-28T08:52:39.084Z</time></trkpt><trkpt lat="45.6611983" lon="11.411655"><ele>114.0</ele><time>2026-03-28T08:52:40.083Z</time></trkpt><trkpt lat="45.6613233" lon="11.41153"><ele>114.0</ele><time>2026-03-28T08:52:41.084Z</time></trkpt><trkpt lat="45.6614517" lon="11.4114083"><ele>114.0</ele><time>2026-03-28T08:52:42.084Z</time></trkpt><trkpt lat="45.66158" lon="11.4112833"><ele>114.0</ele><time>2026-03-28T08:52:43.084Z</time></trkpt><trkpt lat="45.6617033" lon="11.4111583"><ele>114.0</ele><time>2026-03-28T08:52:44.084Z</time></trkpt><trkpt lat="45.661825" lon="11.4110417"><ele>114.0</ele><time>2026-03-28T08:52:45.084Z</time></trkpt><trkpt lat="45.66195" lon="11.4109167"><ele>114.0</ele><time>2026-03-28T08:52:46.084Z</time></trkpt><trkpt lat="45.662075" lon="11.4107883"><ele>114.0</ele><time>2026-03-28T08:52:47.083Z</time></trkpt><trkpt lat="45.6622" lon="11.4106583"><ele>114.0</ele><time>2026-03-28T08:52:48.084Z</time></trkpt><trkpt lat="45.6623267" lon="11.4105283"><ele>114.0</ele><time>2026-03-28T08:52:49.084Z</time></trkpt><trkpt lat="45.6624533" lon="11.410395"><ele>114.0</ele><time>2026-03-28T08:52:50.084Z</time></trkpt><trkpt lat="45.6625817" lon="11.4102633"><ele>114.0</ele><time>2026-03-28T08:52:51.083Z</time></trkpt><trkpt lat="45.66271" lon="11.41013"><ele>114.0</ele><time>2026-03-28T08:52:52.084Z</time></trkpt><trkpt lat="45.66284" lon="11.409995"><ele>114.33333333333334</ele><time>2026-03-28T08:52:53.084Z</time></trkpt><trkpt lat="45.66297" lon="11.4098633"><ele>114.66666666666667</ele><time>2026-03-28T08:52:54.084Z</time></trkpt><trkpt lat="45.6630983" lon="11.4097333"><ele>115.0</ele><time>2026-03-28T08:52:55.084Z</time></trkpt><trkpt lat="45.6632267" lon="11.409605"><ele>115.66666666666667</ele><time>2026-03-28T08:52:56.083Z</time></trkpt><trkpt lat="45.6633533" lon="11.4094767"><ele>116.33333333333334</ele><time>2026-03-28T08:52:57.083Z</time></trkpt><trkpt lat="45.66348" lon="11.4093483"><ele>117.0</ele><time>2026-03-28T08:52:58.084Z</time></trkpt><trkpt lat="45.6636033" lon="11.4092217"><ele>118.33333333333334</ele><time>2026-03-28T08:52:59.084Z</time></trkpt><trkpt lat="45.6637267" lon="11.4091"><ele>119.66666666666667</ele><time>2026-03-28T08:53:00.084Z</time></trkpt><trkpt lat="45.6638583" lon="11.4089817"><ele>121.0</ele><time>2026-03-28T08:53:01.084Z</time></trkpt><trkpt lat="45.66399" lon="11.408875"><ele>120.5</ele><time>2026-03-28T08:53:02.083Z</time></trkpt><trkpt lat="45.66412" lon="11.40876"><ele>120.0</ele><time>2026-03-28T08:53:03.084Z</time></trkpt><trkpt lat="45.6642533" lon="11.4086633"><ele>119.5</ele><time>2026-03-28T08:53:04.083Z</time></trkpt><trkpt lat="45.6643683" lon="11.4085483"><ele>119.0</ele><time>2026-03-28T08:53:05.084Z</time></trkpt><trkpt lat="45.664465" lon="11.4084533"><ele>118.99999999999999</ele><time>2026-03-28T08:53:06.084Z</time></trkpt><trkpt lat="45.6645483" lon="11.4083767"><ele>119.0</ele><time>2026-03-28T08:53:07.084Z</time></trkpt><trkpt lat="45.6646183" lon="11.4083083"><ele>119.0</ele><time>2026-03-28T08:53:08.083Z</time></trkpt><trkpt lat="45.6646683" lon="11.4082333"><ele>119.0</ele><time>2026-03-28T08:53:09.084Z</time></trkpt><trkpt lat="45.6647133" lon="11.4081617"><ele>118.99999999999999</ele><time>2026-03-28T08:53:10.084Z</time></trkpt><trkpt lat="45.664805" lon="11.40807"><ele>119.0</ele><time>2026-03-28T08:53:12.084Z</time></trkpt><trkpt lat="45.6649017" lon="11.4079667"><ele>119.0</ele><time>2026-03-28T08:53:14.083Z</time></trkpt><trkpt lat="45.66496" lon="11.4079083"><ele>119.0</ele><time>2026-03-28T08:53:15.084Z</time></trkpt><trkpt lat="45.6650183" lon="11.407845"><ele>119.0</ele><time>2026-03-28T08:53:16.083Z</time></trkpt><trkpt lat="45.6650817" lon="11.4077783"><ele>119.0</ele><time>2026-03-28T08:53:17.083Z</time></trkpt><trkpt lat="45.6651433" lon="11.4077133"><ele>119.0</ele><time>2026-03-28T08:53:18.084Z</time></trkpt><trkpt lat="45.665195" lon="11.4076483"><ele>119.0</ele><time>2026-03-28T08:53:19.083Z</time></trkpt><trkpt lat="45.66525" lon="11.4075883"><ele>119.0</ele><time>2026-03-28T08:53:20.084Z</time></trkpt><trkpt lat="45.6653433" lon="11.407495"><ele>119.16666666666666</ele><time>2026-03-28T08:53:22.083Z</time></trkpt><trkpt lat="45.6654283" lon="11.4074183"><ele>119.33333333333333</ele><time>2026-03-28T08:53:24.084Z</time></trkpt><trkpt lat="45.6655333" lon="11.4073333"><ele>119.5</ele><time>2026-03-28T08:53:26.084Z</time></trkpt><trkpt lat="45.6655967" lon="11.4072883"><ele>119.66666666666666</ele><time>2026-03-28T08:53:27.084Z</time></trkpt><trkpt lat="45.6656617" lon="11.4072417"><ele>119.83333333333333</ele><time>2026-03-28T08:53:28.083Z</time></trkpt><trkpt lat="45.6657267" lon="11.4071967"><ele>120.0</ele><time>2026-03-28T08:53:29.084Z</time></trkpt><trkpt lat="45.66579" lon="11.4071567"><ele>120.0</ele><time>2026-03-28T08:53:30.083Z</time></trkpt><trkpt lat="45.6658583" lon="11.4071333"><ele>120.0</ele><time>2026-03-28T08:53:31.084Z</time></trkpt><trkpt lat="45.6659267" lon="11.4071267"><ele>120.0</ele><time>2026-03-28T08:53:32.084Z</time></trkpt><trkpt lat="45.666005" lon="11.40714"><ele>120.0</ele><time>2026-03-28T08:53:33.084Z</time></trkpt><trkpt lat="45.66609" lon="11.4071467"><ele>120.0</ele><time>2026-03-28T08:53:34.083Z</time></trkpt><trkpt lat="45.6661783" lon="11.40713"><ele>120.0</ele><time>2026-03-28T08:53:35.083Z</time></trkpt><trkpt lat="45.666265" lon="11.4070817"><ele>120.6</ele><time>2026-03-28T08:53:36.083Z</time></trkpt><trkpt lat="45.66634" lon="11.4069917"><ele>121.2</ele><time>2026-03-28T08:53:37.084Z</time></trkpt><trkpt lat="45.6664117" lon="11.4068917"><ele>121.80000000000001</ele><time>2026-03-28T08:53:38.084Z</time></trkpt><trkpt lat="45.66649" lon="11.4067983"><ele>122.4</ele><time>2026-03-28T08:53:39.084Z</time></trkpt><trkpt lat="45.666585" lon="11.4067183"><ele>123.0</ele><time>2026-03-28T08:53:40.083Z</time></trkpt><trkpt lat="45.6666867" lon="11.4066617"><ele>123.0</ele><time>2026-03-28T08:53:41.083Z</time></trkpt><trkpt lat="45.6667883" lon="11.40662"><ele>123.00000000000001</ele><time>2026-03-28T08:53:42.083Z</time></trkpt><trkpt lat="45.6669017" lon="11.4065867"><ele>123.00000000000001</ele><time>2026-03-28T08:53:43.084Z</time></trkpt><trkpt lat="45.6670117" lon="11.4065567"><ele>123.0</ele><time>2026-03-28T08:53:44.084Z</time></trkpt><trkpt lat="45.6671117" lon="11.4065333"><ele>123.0</ele><time>2026-03-28T08:53:45.084Z</time></trkpt><trkpt lat="45.6672083" lon="11.40651"><ele>122.80000000000001</ele><time>2026-03-28T08:53:46.084Z</time></trkpt><trkpt lat="45.667305" lon="11.4064783"><ele>122.60000000000001</ele><time>2026-03-28T08:53:47.084Z</time></trkpt><trkpt lat="45.667405" lon="11.40645"><ele>122.39999999999999</ele><time>2026-03-28T08:53:48.084Z</time></trkpt><trkpt lat="45.667515" lon="11.4064133"><ele>122.19999999999999</ele><time>2026-03-28T08:53:49.083Z</time></trkpt><trkpt lat="45.6676267" lon="11.4063817"><ele>122.0</ele><time>2026-03-28T08:53:50.084Z</time></trkpt><trkpt lat="45.6677433" lon="11.4063467"><ele>122.5</ele><time>2026-03-28T08:53:51.084Z</time></trkpt><trkpt lat="45.6678617" lon="11.4063117"><ele>123.0</ele><time>2026-03-28T08:53:52.084Z</time></trkpt><trkpt lat="45.6679833" lon="11.40628"><ele>123.5</ele><time>2026-03-28T08:53:53.084Z</time></trkpt><trkpt lat="45.6681067" lon="11.4062467"><ele>124.0</ele><time>2026-03-28T08:53:54.084Z</time></trkpt><trkpt lat="45.668225" lon="11.40621"><ele>124.0</ele><time>2026-03-28T08:53:55.084Z</time></trkpt><trkpt lat="45.6683417" lon="11.40618"><ele>124.0</ele><time>2026-03-28T08:53:56.084Z</time></trkpt><trkpt lat="45.6684567" lon="11.4061567"><ele>124.0</ele><time>2026-03-28T08:53:57.084Z</time></trkpt><trkpt lat="45.6685667" lon="11.4061283"><ele>124.0</ele><time>2026-03-28T08:53:58.084Z</time></trkpt><trkpt lat="45.6686767" lon="11.406095"><ele>124.0</ele><time>2026-03-28T08:53:59.084Z</time></trkpt><trkpt lat="45.6687883" lon="11.40606"><ele>124.0</ele><time>2026-03-28T08:54:00.083Z</time></trkpt><trkpt lat="45.6688967" lon="11.406025"><ele>124.0</ele><time>2026-03-28T08:54:01.083Z</time></trkpt><trkpt lat="45.6690033" lon="11.4059917"><ele>124.0</ele><time>2026-03-28T08:54:02.083Z</time></trkpt><trkpt lat="45.66911" lon="11.4059583"><ele>124.0</ele><time>2026-03-28T08:54:03.084Z</time></trkpt><trkpt lat="45.6692217" lon="11.4059317"><ele>124.0</ele><time>2026-03-28T08:54:04.084Z</time></trkpt><trkpt lat="45.66933" lon="11.4059017"><ele>124.0</ele><time>2026-03-28T08:54:05.083Z</time></trkpt><trkpt lat="45.669445" lon="11.405875"><ele>124.0</ele><time>2026-03-28T08:54:06.084Z</time></trkpt><trkpt lat="45.6695583" lon="11.405845"><ele>124.0</ele><time>2026-03-28T08:54:07.084Z</time></trkpt><trkpt lat="45.669675" lon="11.4058133"><ele>124.0</ele><time>2026-03-28T08:54:08.084Z</time></trkpt><trkpt lat="45.66979" lon="11.4057783"><ele>124.0</ele><time>2026-03-28T08:54:09.084Z</time></trkpt><trkpt lat="45.6699083" lon="11.4057433"><ele>124.0</ele><time>2026-03-28T08:54:10.084Z</time></trkpt><trkpt lat="45.6700167" lon="11.4057183"><ele>124.0</ele><time>2026-03-28T08:54:11.084Z</time></trkpt><trkpt lat="45.6701217" lon="11.4056883"><ele>124.0</ele><time>2026-03-28T08:54:12.084Z</time></trkpt><trkpt lat="45.670225" lon="11.4056567"><ele>124.0</ele><time>2026-03-28T08:54:13.084Z</time></trkpt><trkpt lat="45.6703333" lon="11.4056283"><ele>124.0</ele><time>2026-03-28T08:54:14.084Z</time></trkpt><trkpt lat="45.6704433" lon="11.4055983"><ele>124.0</ele><time>2026-03-28T08:54:15.084Z</time></trkpt><trkpt lat="45.6705533" lon="11.405565"><ele>124.0</ele><time>2026-03-28T08:54:16.084Z</time></trkpt><trkpt lat="45.6706617" lon="11.40553"><ele>124.4</ele><time>2026-03-28T08:54:17.084Z</time></trkpt><trkpt lat="45.6707633" lon="11.4054967"><ele>124.80000000000001</ele><time>2026-03-28T08:54:18.084Z</time></trkpt><trkpt lat="45.6708583" lon="11.4054667"><ele>125.19999999999999</ele><time>2026-03-28T08:54:19.084Z</time></trkpt><trkpt lat="45.670945" lon="11.4054383"><ele>125.6</ele><time>2026-03-28T08:54:20.083Z</time></trkpt><trkpt lat="45.6710317" lon="11.40541"><ele>126.0</ele><time>2026-03-28T08:54:21.084Z</time></trkpt><trkpt lat="45.6711217" lon="11.4053833"><ele>126.0</ele><time>2026-03-28T08:54:22.083Z</time></trkpt><trkpt lat="45.6712167" lon="11.4053583"><ele>126.0</ele><time>2026-03-28T08:54:23.084Z</time></trkpt><trkpt lat="45.6713167" lon="11.4053317"><ele>126.0</ele><time>2026-03-28T08:54:24.083Z</time></trkpt><trkpt lat="45.6714167" lon="11.4053017"><ele>126.0</ele><time>2026-03-28T08:54:25.084Z</time></trkpt><trkpt lat="45.6715183" lon="11.4052717"><ele>126.0</ele><time>2026-03-28T08:54:26.083Z</time></trkpt><trkpt lat="45.6716217" lon="11.4052417"><ele>126.0</ele><time>2026-03-28T08:54:27.084Z</time></trkpt><trkpt lat="45.67172" lon="11.4052183"><ele>126.0</ele><time>2026-03-28T08:54:28.083Z</time></trkpt><trkpt lat="45.6718217" lon="11.40519"><ele>126.0</ele><time>2026-03-28T08:54:29.084Z</time></trkpt><trkpt lat="45.671925" lon="11.4051633"><ele>126.0</ele><time>2026-03-28T08:54:30.084Z</time></trkpt><trkpt lat="45.6720267" lon="11.4051367"><ele>126.0</ele><time>2026-03-28T08:54:31.084Z</time></trkpt><trkpt lat="45.6721317" lon="11.4051167"><ele>126.25</ele><time>2026-03-28T08:54:32.083Z</time></trkpt><trkpt lat="45.6722383" lon="11.4050833"><ele>126.5</ele><time>2026-03-28T08:54:33.084Z</time></trkpt><trkpt lat="45.6723467" lon="11.4050467"><ele>126.75</ele><time>2026-03-28T08:54:34.084Z</time></trkpt><trkpt lat="45.67246" lon="11.4050117"><ele>127.0</ele><time>2026-03-28T08:54:35.084Z</time></trkpt><trkpt lat="45.672575" lon="11.4049767"><ele>127.0</ele><time>2026-03-28T08:54:36.084Z</time></trkpt><trkpt lat="45.6726933" lon="11.4049383"><ele>127.0</ele><time>2026-03-28T08:54:37.084Z</time></trkpt><trkpt lat="45.6728133" lon="11.4048967"><ele>127.0</ele><time>2026-03-28T08:54:38.084Z</time></trkpt><trkpt lat="45.6729383" lon="11.4048567"><ele>127.0</ele><time>2026-03-28T08:54:39.083Z</time></trkpt><trkpt lat="45.6730733" lon="11.4048033"><ele>127.0</ele><time>2026-03-28T08:54:40.083Z</time></trkpt><trkpt lat="45.6732067" lon="11.40475"><ele>127.0</ele><time>2026-03-28T08:54:41.084Z</time></trkpt><trkpt lat="45.6733433" lon="11.4046917"><ele>127.0</ele><time>2026-03-28T08:54:42.084Z</time></trkpt><trkpt lat="45.6734817" lon="11.4046317"><ele>127.0</ele><time>2026-03-28T08:54:43.083Z</time></trkpt><trkpt lat="45.6736233" lon="11.404575"><ele>127.66666666666667</ele><time>2026-03-28T08:54:44.083Z</time></trkpt><trkpt lat="45.6737683" lon="11.40451"><ele>128.33333333333334</ele><time>2026-03-28T08:54:45.084Z</time></trkpt><trkpt lat="45.6739133" lon="11.4044417"><ele>129.0</ele><time>2026-03-28T08:54:46.084Z</time></trkpt><trkpt lat="45.674055" lon="11.40437"><ele>129.0</ele><time>2026-03-28T08:54:47.083Z</time></trkpt><trkpt lat="45.6741933" lon="11.4043117"><ele>129.0</ele><time>2026-03-28T08:54:48.084Z</time></trkpt><trkpt lat="45.6743333" lon="11.4042483"><ele>129.0</ele><time>2026-03-28T08:54:49.084Z</time></trkpt><trkpt lat="45.6744717" lon="11.4041867"><ele>129.0</ele><time>2026-03-28T08:54:50.084Z</time></trkpt><trkpt lat="45.67461" lon="11.40412"><ele>129.0</ele><time>2026-03-28T08:54:51.084Z</time></trkpt><trkpt lat="45.67475" lon="11.4040483"><ele>129.0</ele><time>2026-03-28T08:54:52.083Z</time></trkpt><trkpt lat="45.6748917" lon="11.4039767"><ele>129.0</ele><time>2026-03-28T08:54:53.084Z</time></trkpt><trkpt lat="45.6750333" lon="11.40391"><ele>129.0</ele><time>2026-03-28T08:54:54.083Z</time></trkpt><trkpt lat="45.67517" lon="11.403845"><ele>130.0</ele><time>2026-03-28T08:54:55.084Z</time></trkpt><trkpt lat="45.6753" lon="11.4037817"><ele>131.0</ele><time>2026-03-28T08:54:56.084Z</time></trkpt><trkpt lat="45.67543" lon="11.4037183"><ele>132.0</ele><time>2026-03-28T08:54:57.084Z</time></trkpt><trkpt lat="45.675555" lon="11.403655"><ele>133.0</ele><time>2026-03-28T08:54:58.083Z</time></trkpt><trkpt lat="45.6756817" lon="11.40359"><ele>133.0</ele><time>2026-03-28T08:54:59.083Z</time></trkpt><trkpt lat="45.6758083" lon="11.4035267"><ele>133.0</ele><time>2026-03-28T08:55:00.084Z</time></trkpt><trkpt lat="45.6759317" lon="11.40347"><ele>133.0</ele><time>2026-03-28T08:55:01.084Z</time></trkpt><trkpt lat="45.6760517" lon="11.403415"><ele>133.0</ele><time>2026-03-28T08:55:02.084Z</time></trkpt><trkpt lat="45.6761567" lon="11.403365"><ele>132.8</ele><time>2026-03-28T08:55:03.083Z</time></trkpt><trkpt lat="45.67626" lon="11.4033217"><ele>132.60000000000002</ele><time>2026-03-28T08:55:04.083Z</time></trkpt><trkpt lat="45.6763567" lon="11.4032817"><ele>132.39999999999998</ele><time>2026-03-28T08:55:05.084Z</time></trkpt><trkpt lat="45.6764517" lon="11.4032383"><ele>132.2</ele><time>2026-03-28T08:55:06.084Z</time></trkpt><trkpt lat="45.67654" lon="11.403195"><ele>132.0</ele><time>2026-03-28T08:55:07.083Z</time></trkpt><trkpt lat="45.6766283" lon="11.403155"><ele>132.0</ele><time>2026-03-28T08:55:08.083Z</time></trkpt><trkpt lat="45.6767183" lon="11.4031167"><ele>132.0</ele><time>2026-03-28T08:55:09.083Z</time></trkpt><trkpt lat="45.676805" lon="11.403075"><ele>132.0</ele><time>2026-03-28T08:55:10.084Z</time></trkpt><trkpt lat="45.6768933" lon="11.4030417"><ele>132.0</ele><time>2026-03-28T08:55:11.083Z</time></trkpt><trkpt lat="45.6769817" lon="11.40303"><ele>132.0</ele><time>2026-03-28T08:55:12.084Z</time></trkpt><trkpt lat="45.67706" lon="11.4030383"><ele>132.0</ele><time>2026-03-28T08:55:13.084Z</time></trkpt><trkpt lat="45.677125" lon="11.403065"><ele>132.0</ele><time>2026-03-28T08:55:14.084Z</time></trkpt><trkpt lat="45.6772333" lon="11.4031267"><ele>132.0</ele><time>2026-03-28T08:55:16.083Z</time></trkpt><trkpt lat="45.6773" lon="11.4031583"><ele>132.0</ele><time>2026-03-28T08:55:17.084Z</time></trkpt><trkpt lat="45.6773867" lon="11.40317"><ele>132.0</ele><time>2026-03-28T08:55:18.083Z</time></trkpt><trkpt lat="45.6774783" lon="11.4031567"><ele>132.0</ele><time>2026-03-28T08:55:19.084Z</time></trkpt><trkpt lat="45.67757" lon="11.403085"><ele>132.0</ele><time>2026-03-28T08:55:20.083Z</time></trkpt><trkpt lat="45.677655" lon="11.4029583"><ele>132.0</ele><time>2026-03-28T08:55:21.084Z</time></trkpt><trkpt lat="45.6777233" lon="11.402815"><ele>132.0</ele><time>2026-03-28T08:55:22.084Z</time></trkpt><trkpt lat="45.6778183" lon="11.4026767"><ele>132.0</ele><time>2026-03-28T08:55:23.084Z</time></trkpt><trkpt lat="45.6779333" lon="11.4025583"><ele>132.0</ele><time>2026-03-28T08:55:24.084Z</time></trkpt><trkpt lat="45.6780683" lon="11.4024717"><ele>132.0</ele><time>2026-03-28T08:55:25.084Z</time></trkpt><trkpt lat="45.6782083" lon="11.4024"><ele>132.0</ele><time>2026-03-28T08:55:26.084Z</time></trkpt><trkpt lat="45.6783467" lon="11.40234"><ele>132.0</ele><time>2026-03-28T08:55:27.084Z</time></trkpt><trkpt lat="45.678475" lon="11.40229"><ele>132.75</ele><time>2026-03-28T08:55:28.084Z</time></trkpt><trkpt lat="45.6786067" lon="11.4022317"><ele>133.5</ele><time>2026-03-28T08:55:29.083Z</time></trkpt><trkpt lat="45.6787367" lon="11.4021667"><ele>134.25</ele><time>2026-03-28T08:55:30.083Z</time></trkpt><trkpt lat="45.6788617" lon="11.402105"><ele>135.0</ele><time>2026-03-28T08:55:31.084Z</time></trkpt><trkpt lat="45.678985" lon="11.40205"><ele>135.0</ele><time>2026-03-28T08:55:32.084Z</time></trkpt><trkpt lat="45.6791083" lon="11.4019833"><ele>135.0</ele><time>2026-03-28T08:55:33.084Z</time></trkpt><trkpt lat="45.679225" lon="11.4019267"><ele>135.0</ele><time>2026-03-28T08:55:34.083Z</time></trkpt><trkpt lat="45.6793467" lon="11.4018683"><ele>135.0</ele><time>2026-03-28T08:55:35.084Z</time></trkpt><trkpt lat="45.679475" lon="11.4018083"><ele>135.5</ele><time>2026-03-28T08:55:36.083Z</time></trkpt><trkpt lat="45.6796117" lon="11.4017467"><ele>136.0</ele><time>2026-03-28T08:55:37.084Z</time></trkpt><trkpt lat="45.6797467" lon="11.4016867"><ele>136.5</ele><time>2026-03-28T08:55:38.083Z</time></trkpt><trkpt lat="45.6798867" lon="11.40163"><ele>137.0</ele><time>2026-03-28T08:55:39.084Z</time></trkpt><trkpt lat="45.68003" lon="11.4015667"><ele>137.0</ele><time>2026-03-28T08:55:40.084Z</time></trkpt><trkpt lat="45.680175" lon="11.4015033"><ele>137.0</ele><time>2026-03-28T08:55:41.084Z</time></trkpt><trkpt lat="45.6803233" lon="11.4014367"><ele>137.0</ele><time>2026-03-28T08:55:42.084Z</time></trkpt><trkpt lat="45.6804767" lon="11.4013633"><ele>137.33333333333331</ele><time>2026-03-28T08:55:43.083Z</time></trkpt><trkpt lat="45.6806367" lon="11.4012833"><ele>137.66666666666666</ele><time>2026-03-28T08:55:44.084Z</time></trkpt><trkpt lat="45.68079" lon="11.401215"><ele>138.0</ele><time>2026-03-28T08:55:45.084Z</time></trkpt><trkpt lat="45.68093" lon="11.4011467"><ele>138.0</ele><time>2026-03-28T08:55:46.084Z</time></trkpt><trkpt lat="45.68107" lon="11.4010833"><ele>138.0</ele><time>2026-03-28T08:55:47.084Z</time></trkpt><trkpt lat="45.6812033" lon="11.4010283"><ele>138.0</ele><time>2026-03-28T08:55:48.083Z</time></trkpt><trkpt lat="45.6813333" lon="11.4009617"><ele>138.0</ele><time>2026-03-28T08:55:49.084Z</time></trkpt><trkpt lat="45.68146" lon="11.4009067"><ele>138.25</ele><time>2026-03-28T08:55:50.084Z</time></trkpt><trkpt lat="45.6815733" lon="11.400855"><ele>138.5</ele><time>2026-03-28T08:55:51.083Z</time></trkpt><trkpt lat="45.6816867" lon="11.4008"><ele>138.75</ele><time>2026-03-28T08:55:52.084Z</time></trkpt><trkpt lat="45.6818" lon="11.4007533"><ele>139.0</ele><time>2026-03-28T08:55:53.083Z</time></trkpt><trkpt lat="45.681905" lon="11.4007067"><ele>139.0</ele><time>2026-03-28T08:55:54.083Z</time></trkpt><trkpt lat="45.68201" lon="11.40066"><ele>139.0</ele><time>2026-03-28T08:55:55.084Z</time></trkpt><trkpt lat="45.682115" lon="11.4006133"><ele>139.0</ele><time>2026-03-28T08:55:56.083Z</time></trkpt><trkpt lat="45.6822267" lon="11.4005633"><ele>139.0</ele><time>2026-03-28T08:55:57.084Z</time></trkpt><trkpt lat="45.68234" lon="11.400515"><ele>139.0</ele><time>2026-03-28T08:55:58.084Z</time></trkpt><trkpt lat="45.6824483" lon="11.40046"><ele>139.0</ele><time>2026-03-28T08:55:59.084Z</time></trkpt><trkpt lat="45.6825633" lon="11.4003983"><ele>139.0</ele><time>2026-03-28T08:56:00.084Z</time></trkpt><trkpt lat="45.68268" lon="11.400345"><ele>139.0</ele><time>2026-03-28T08:56:01.084Z</time></trkpt><trkpt lat="45.6827983" lon="11.4002917"><ele>139.5</ele><time>2026-03-28T08:56:02.084Z</time></trkpt><trkpt lat="45.6829233" lon="11.4002317"><ele>140.0</ele><time>2026-03-28T08:56:03.083Z</time></trkpt><trkpt lat="45.6830467" lon="11.40016"><ele>140.5</ele><time>2026-03-28T08:56:04.084Z</time></trkpt><trkpt lat="45.6831767" lon="11.400095"><ele>141.0</ele><time>2026-03-28T08:56:05.084Z</time></trkpt><trkpt lat="45.6833133" lon="11.4000283"><ele>141.0</ele><time>2026-03-28T08:56:06.084Z</time></trkpt><trkpt lat="45.6834533" lon="11.3999633"><ele>141.0</ele><time>2026-03-28T08:56:07.084Z</time></trkpt><trkpt lat="45.683595" lon="11.3999"><ele>141.0</ele><time>2026-03-28T08:56:08.083Z</time></trkpt><trkpt lat="45.6837417" lon="11.3998267"><ele>141.0</ele><time>2026-03-28T08:56:09.084Z</time></trkpt><trkpt lat="45.68389" lon="11.3997567"><ele>141.0</ele><time>2026-03-28T08:56:10.083Z</time></trkpt><trkpt lat="45.6840533" lon="11.399675"><ele>141.0</ele><time>2026-03-28T08:56:11.083Z</time></trkpt><trkpt lat="45.684215" lon="11.3996"><ele>141.0</ele><time>2026-03-28T08:56:12.084Z</time></trkpt><trkpt lat="45.6843767" lon="11.39952"><ele>141.0</ele><time>2026-03-28T08:56:13.083Z</time></trkpt><trkpt lat="45.684535" lon="11.3994483"><ele>141.0</ele><time>2026-03-28T08:56:14.083Z</time></trkpt><trkpt lat="45.6846983" lon="11.3993733"><ele>142.0</ele><time>2026-03-28T08:56:15.084Z</time></trkpt><trkpt lat="45.6848533" lon="11.399305"><ele>143.0</ele><time>2026-03-28T08:56:16.084Z</time></trkpt><trkpt lat="45.6850133" lon="11.3992167"><ele>144.0</ele><time>2026-03-28T08:56:17.084Z</time></trkpt><trkpt lat="45.685175" lon="11.3991267"><ele>144.0</ele><time>2026-03-28T08:56:18.084Z</time></trkpt><trkpt lat="45.68534" lon="11.3990183"><ele>144.0</ele><time>2026-03-28T08:56:19.084Z</time></trkpt><trkpt lat="45.6855" lon="11.3988983"><ele>144.0</ele><time>2026-03-28T08:56:20.084Z</time></trkpt><trkpt lat="45.68565" lon="11.3987767"><ele>144.33333333333334</ele><time>2026-03-28T08:56:21.084Z</time></trkpt><trkpt lat="45.6858" lon="11.3986433"><ele>144.66666666666669</ele><time>2026-03-28T08:56:22.084Z</time></trkpt><trkpt lat="45.6859483" lon="11.3985067"><ele>145.0</ele><time>2026-03-28T08:56:23.084Z</time></trkpt><trkpt lat="45.6860833" lon="11.3983683"><ele>146.0</ele><time>2026-03-28T08:56:24.084Z</time></trkpt><trkpt lat="45.686215" lon="11.3982283"><ele>147.0</ele><time>2026-03-28T08:56:25.084Z</time></trkpt><trkpt lat="45.6863383" lon="11.3980767"><ele>148.0</ele><time>2026-03-28T08:56:26.084Z</time></trkpt><trkpt lat="45.6864633" lon="11.397935"><ele>148.0</ele><time>2026-03-28T08:56:27.084Z</time></trkpt><trkpt lat="45.6865767" lon="11.3977917"><ele>148.0</ele><time>2026-03-28T08:56:28.084Z</time></trkpt><trkpt lat="45.68669" lon="11.3976433"><ele>148.0</ele><time>2026-03-28T08:56:29.083Z</time></trkpt><trkpt lat="45.686805" lon="11.39749"><ele>147.33333333333334</ele><time>2026-03-28T08:56:30.084Z</time></trkpt><trkpt lat="45.68693" lon="11.3973383"><ele>146.66666666666666</ele><time>2026-03-28T08:56:31.083Z</time></trkpt><trkpt lat="45.687045" lon="11.3971983"><ele>146.0</ele><time>2026-03-28T08:56:32.084Z</time></trkpt><trkpt lat="45.68716" lon="11.3970583"><ele>146.0</ele><time>2026-03-28T08:56:33.083Z</time></trkpt><trkpt lat="45.68727" lon="11.396915"><ele>146.0</ele><time>2026-03-28T08:56:34.084Z</time></trkpt><trkpt lat="45.6873833" lon="11.39677"><ele>146.0</ele><time>2026-03-28T08:56:35.084Z</time></trkpt><trkpt lat="45.6874967" lon="11.3966267"><ele>146.0</ele><time>2026-03-28T08:56:36.084Z</time></trkpt><trkpt lat="45.6876017" lon="11.3964817"><ele>146.0</ele><time>2026-03-28T08:56:37.083Z</time></trkpt><trkpt lat="45.6877183" lon="11.3963417"><ele>146.0</ele><time>2026-03-28T08:56:38.083Z</time></trkpt><trkpt lat="45.6878283" lon="11.396205"><ele>146.0</ele><time>2026-03-28T08:56:39.083Z</time></trkpt><trkpt lat="45.6879333" lon="11.3960833"><ele>146.5</ele><time>2026-03-28T08:56:40.083Z</time></trkpt><trkpt lat="45.6880317" lon="11.39596"><ele>147.0</ele><time>2026-03-28T08:56:41.084Z</time></trkpt><trkpt lat="45.6881283" lon="11.3958383"><ele>147.5</ele><time>2026-03-28T08:56:42.084Z</time></trkpt><trkpt lat="45.6882183" lon="11.3957283"><ele>148.0</ele><time>2026-03-28T08:56:43.084Z</time></trkpt><trkpt lat="45.6883067" lon="11.3956183"><ele>148.0</ele><time>2026-03-28T08:56:44.084Z</time></trkpt><trkpt lat="45.6883917" lon="11.3955133"><ele>148.0</ele><time>2026-03-28T08:56:45.084Z</time></trkpt><trkpt lat="45.6884783" lon="11.395405"><ele>148.0</ele><time>2026-03-28T08:56:46.084Z</time></trkpt><trkpt lat="45.6885683" lon="11.3952967"><ele>148.0</ele><time>2026-03-28T08:56:47.084Z</time></trkpt><trkpt lat="45.688655" lon="11.3951767"><ele>148.0</ele><time>2026-03-28T08:56:48.084Z</time></trkpt><trkpt lat="45.68874" lon="11.3950717"><ele>148.0</ele><time>2026-03-28T08:56:49.083Z</time></trkpt><trkpt lat="45.68882" lon="11.3949717"><ele>148.0</ele><time>2026-03-28T08:56:50.084Z</time></trkpt><trkpt lat="45.6888967" lon="11.3948783"><ele>148.0</ele><time>2026-03-28T08:56:51.084Z</time></trkpt><trkpt lat="45.6889667" lon="11.3947967"><ele>148.0</ele><time>2026-03-28T08:56:52.084Z</time></trkpt><trkpt lat="45.68903" lon="11.3947283"><ele>148.0</ele><time>2026-03-28T08:56:53.084Z</time></trkpt><trkpt lat="45.689085" lon="11.3946767"><ele>148.0</ele><time>2026-03-28T08:56:54.084Z</time></trkpt><trkpt lat="45.689145" lon="11.3946383"><ele>148.0</ele><time>2026-03-28T08:56:55.084Z</time></trkpt><trkpt lat="45.6892117" lon="11.3946233"><ele>148.0</ele><time>2026-03-28T08:56:56.084Z</time></trkpt><trkpt lat="45.68928" lon="11.3945983"><ele>148.0</ele><time>2026-03-28T08:56:57.084Z</time></trkpt><trkpt lat="45.6893517" lon="11.394545"><ele>148.0</ele><time>2026-03-28T08:56:58.084Z</time></trkpt><trkpt lat="45.689415" lon="11.3944583"><ele>148.0</ele><time>2026-03-28T08:56:59.084Z</time></trkpt><trkpt lat="45.68946" lon="11.3943467"><ele>148.8</ele><time>2026-03-28T08:57:00.083Z</time></trkpt><trkpt lat="45.6894967" lon="11.3942283"><ele>149.60000000000002</ele><time>2026-03-28T08:57:01.084Z</time></trkpt><trkpt lat="45.6895417" lon="11.3941083"><ele>150.39999999999998</ele><time>2026-03-28T08:57:02.084Z</time></trkpt><trkpt lat="45.689605" lon="11.3939967"><ele>151.2</ele><time>2026-03-28T08:57:03.084Z</time></trkpt><trkpt lat="45.6896833" lon="11.3938817"><ele>152.0</ele><time>2026-03-28T08:57:04.084Z</time></trkpt><trkpt lat="45.6897667" lon="11.3937683"><ele>152.0</ele><time>2026-03-28T08:57:05.084Z</time></trkpt><trkpt lat="45.68985" lon="11.3936583"><ele>152.0</ele><time>2026-03-28T08:57:06.084Z</time></trkpt><trkpt lat="45.6899283" lon="11.393555"><ele>152.0</ele><time>2026-03-28T08:57:07.083Z</time></trkpt><trkpt lat="45.6900083" lon="11.39345"><ele>152.0</ele><time>2026-03-28T08:57:08.084Z</time></trkpt><trkpt lat="45.6900867" lon="11.3933517"><ele>152.0</ele><time>2026-03-28T08:57:09.084Z</time></trkpt><trkpt lat="45.6901633" lon="11.3932533"><ele>152.0</ele><time>2026-03-28T08:57:10.084Z</time></trkpt><trkpt lat="45.6902367" lon="11.3931567"><ele>152.0</ele><time>2026-03-28T08:57:11.084Z</time></trkpt><trkpt lat="45.6903133" lon="11.3930633"><ele>152.0</ele><time>2026-03-28T08:57:12.084Z</time></trkpt><trkpt lat="45.690395" lon="11.3929617"><ele>152.0</ele><time>2026-03-28T08:57:13.084Z</time></trkpt><trkpt lat="45.6904817" lon="11.3928583"><ele>152.0</ele><time>2026-03-28T08:57:14.084Z</time></trkpt><trkpt lat="45.6905733" lon="11.3927383"><ele>152.25</ele><time>2026-03-28T08:57:15.084Z</time></trkpt><trkpt lat="45.690665" lon="11.392615"><ele>152.5</ele><time>2026-03-28T08:57:16.083Z</time></trkpt><trkpt lat="45.69076" lon="11.3924867"><ele>152.75</ele><time>2026-03-28T08:57:17.084Z</time></trkpt><trkpt lat="45.690855" lon="11.3923683"><ele>153.0</ele><time>2026-03-28T08:57:18.084Z</time></trkpt><trkpt lat="45.69095" lon="11.3922517"><ele>153.25</ele><time>2026-03-28T08:57:19.084Z</time></trkpt><trkpt lat="45.691045" lon="11.3921367"><ele>153.5</ele><time>2026-03-28T08:57:20.084Z</time></trkpt><trkpt lat="45.6911367" lon="11.3920317"><ele>153.75</ele><time>2026-03-28T08:57:21.084Z</time></trkpt><trkpt lat="45.6912333" lon="11.3919117"><ele>154.0</ele><time>2026-03-28T08:57:22.084Z</time></trkpt><trkpt lat="45.6913283" lon="11.3917833"><ele>154.0</ele><time>2026-03-28T08:57:23.083Z</time></trkpt><trkpt lat="45.691435" lon="11.3916517"><ele>154.0</ele><time>2026-03-28T08:57:24.084Z</time></trkpt><trkpt lat="45.6915467" lon="11.3915117"><ele>154.0</ele><time>2026-03-28T08:57:25.084Z</time></trkpt><trkpt lat="45.69167" lon="11.3913617"><ele>154.33333333333334</ele><time>2026-03-28T08:57:26.084Z</time></trkpt><trkpt lat="45.691795" lon="11.3912067"><ele>154.66666666666666</ele><time>2026-03-28T08:57:27.084Z</time></trkpt><trkpt lat="45.691915" lon="11.3910517"><ele>155.0</ele><time>2026-03-28T08:57:28.083Z</time></trkpt><trkpt lat="45.6920367" lon="11.3908983"><ele>155.0</ele><time>2026-03-28T08:57:29.083Z</time></trkpt><trkpt lat="45.692155" lon="11.3907467"><ele>155.0</ele><time>2026-03-28T08:57:30.083Z</time></trkpt><trkpt lat="45.6922767" lon="11.3905967"><ele>155.0</ele><time>2026-03-28T08:57:31.084Z</time></trkpt><trkpt lat="45.6924017" lon="11.3904367"><ele>155.0</ele><time>2026-03-28T08:57:32.084Z</time></trkpt><trkpt lat="45.6925333" lon="11.390275"><ele>155.0</ele><time>2026-03-28T08:57:33.084Z</time></trkpt><trkpt lat="45.6926683" lon="11.390105"><ele>155.0</ele><time>2026-03-28T08:57:34.084Z</time></trkpt><trkpt lat="45.6928183" lon="11.3899283"><ele>155.33333333333331</ele><time>2026-03-28T08:57:35.084Z</time></trkpt><trkpt lat="45.6929683" lon="11.3897333"><ele>155.66666666666666</ele><time>2026-03-28T08:57:36.084Z</time></trkpt><trkpt lat="45.6931333" lon="11.3895217"><ele>156.0</ele><time>2026-03-28T08:57:37.084Z</time></trkpt><trkpt lat="45.6933067" lon="11.3892933"><ele>156.5</ele><time>2026-03-28T08:57:38.084Z</time></trkpt><trkpt lat="45.6934833" lon="11.38905"><ele>157.0</ele><time>2026-03-28T08:57:39.084Z</time></trkpt><trkpt lat="45.6936717" lon="11.3888017"><ele>157.5</ele><time>2026-03-28T08:57:40.083Z</time></trkpt><trkpt lat="45.6938717" lon="11.3885433"><ele>158.0</ele><time>2026-03-28T08:57:41.083Z</time></trkpt><trkpt lat="45.6940883" lon="11.3882833"><ele>158.0</ele><time>2026-03-28T08:57:42.084Z</time></trkpt><trkpt lat="45.694285" lon="11.3880417"><ele>158.0</ele><time>2026-03-28T08:57:43.084Z</time></trkpt><trkpt lat="45.69447" lon="11.3878083"><ele>158.0</ele><time>2026-03-28T08:57:44.083Z</time></trkpt><trkpt lat="45.694645" lon="11.3876033"><ele>158.0</ele><time>2026-03-28T08:57:45.084Z</time></trkpt><trkpt lat="45.694815" lon="11.3873867"><ele>158.0</ele><time>2026-03-28T08:57:46.084Z</time></trkpt><trkpt lat="45.6949717" lon="11.3871867"><ele>158.0</ele><time>2026-03-28T08:57:47.083Z</time></trkpt><trkpt lat="45.6951167" lon="11.3869967"><ele>158.0</ele><time>2026-03-28T08:57:48.084Z</time></trkpt><trkpt lat="45.6952617" lon="11.386815"><ele>158.66666666666666</ele><time>2026-03-28T08:57:49.084Z</time></trkpt><trkpt lat="45.6954017" lon="11.3866383"><ele>159.33333333333334</ele><time>2026-03-28T08:57:50.083Z</time></trkpt><trkpt lat="45.69553" lon="11.38647"><ele>160.0</ele><time>2026-03-28T08:57:51.083Z</time></trkpt><trkpt lat="45.6956567" lon="11.3862983"><ele>160.66666666666669</ele><time>2026-03-28T08:57:52.084Z</time></trkpt><trkpt lat="45.695785" lon="11.3861417"><ele>161.33333333333334</ele><time>2026-03-28T08:57:53.083Z</time></trkpt><trkpt lat="45.6959067" lon="11.3859917"><ele>162.0</ele><time>2026-03-28T08:57:54.084Z</time></trkpt><trkpt lat="45.6960233" lon="11.3858467"><ele>162.25</ele><time>2026-03-28T08:57:55.084Z</time></trkpt><trkpt lat="45.6961317" lon="11.385705"><ele>162.5</ele><time>2026-03-28T08:57:56.084Z</time></trkpt><trkpt lat="45.696235" lon="11.3855683"><ele>162.75</ele><time>2026-03-28T08:57:57.084Z</time></trkpt><trkpt lat="45.6963567" lon="11.3854433"><ele>163.0</ele><time>2026-03-28T08:57:58.084Z</time></trkpt><trkpt lat="45.6964917" lon="11.3853233"><ele>163.0</ele><time>2026-03-28T08:57:59.084Z</time></trkpt><trkpt lat="45.6966333" lon="11.3852017"><ele>163.0</ele><time>2026-03-28T08:58:00.084Z</time></trkpt><trkpt lat="45.6967817" lon="11.3850967"><ele>163.0</ele><time>2026-03-28T08:58:01.084Z</time></trkpt><trkpt lat="45.6969283" lon="11.3849933"><ele>163.33333333333334</ele><time>2026-03-28T08:58:02.084Z</time></trkpt><trkpt lat="45.697075" lon="11.3848933"><ele>163.66666666666666</ele><time>2026-03-28T08:58:03.084Z</time></trkpt><trkpt lat="45.6972133" lon="11.384795"><ele>164.0</ele><time>2026-03-28T08:58:04.084Z</time></trkpt><trkpt lat="45.6973517" lon="11.384695"><ele>164.33333333333331</ele><time>2026-03-28T08:58:05.084Z</time></trkpt><trkpt lat="45.6974867" lon="11.384585"><ele>164.66666666666666</ele><time>2026-03-28T08:58:06.084Z</time></trkpt><trkpt lat="45.6976183" lon="11.384465"><ele>165.0</ele><time>2026-03-28T08:58:07.084Z</time></trkpt><trkpt lat="45.69775" lon="11.3843483"><ele>165.33333333333334</ele><time>2026-03-28T08:58:08.084Z</time></trkpt><trkpt lat="45.69788" lon="11.38421"><ele>165.66666666666669</ele><time>2026-03-28T08:58:09.084Z</time></trkpt><trkpt lat="45.698005" lon="11.3840783"><ele>166.0</ele><time>2026-03-28T08:58:10.084Z</time></trkpt><trkpt lat="45.698135" lon="11.3839267"><ele>166.0</ele><time>2026-03-28T08:58:11.084Z</time></trkpt><trkpt lat="45.6982617" lon="11.383795"><ele>166.0</ele><time>2026-03-28T08:58:12.084Z</time></trkpt><trkpt lat="45.6983883" lon="11.383665"><ele>166.0</ele><time>2026-03-28T08:58:13.084Z</time></trkpt><trkpt lat="45.69852" lon="11.3835283"><ele>166.66666666666669</ele><time>2026-03-28T08:58:14.084Z</time></trkpt><trkpt lat="45.6986533" lon="11.3833917"><ele>167.33333333333334</ele><time>2026-03-28T08:58:15.083Z</time></trkpt><trkpt lat="45.69879" lon="11.383255"><ele>168.0</ele><time>2026-03-28T08:58:16.084Z</time></trkpt><trkpt lat="45.698925" lon="11.3831217"><ele>168.0</ele><time>2026-03-28T08:58:17.084Z</time></trkpt><trkpt lat="45.6990517" lon="11.3829917"><ele>168.0</ele><time>2026-03-28T08:58:18.084Z</time></trkpt><trkpt lat="45.699175" lon="11.3828633"><ele>168.0</ele><time>2026-03-28T08:58:19.084Z</time></trkpt><trkpt lat="45.6992917" lon="11.3827417"><ele>168.33333333333334</ele><time>2026-03-28T08:58:20.084Z</time></trkpt><trkpt lat="45.699425" lon="11.3826217"><ele>168.66666666666669</ele><time>2026-03-28T08:58:21.084Z</time></trkpt><trkpt lat="45.69956" lon="11.3825"><ele>169.0</ele><time>2026-03-28T08:58:22.084Z</time></trkpt><trkpt lat="45.6996983" lon="11.3823717"><ele>169.0</ele><time>2026-03-28T08:58:23.084Z</time></trkpt><trkpt lat="45.6998417" lon="11.382225"><ele>169.0</ele><time>2026-03-28T08:58:24.084Z</time></trkpt><trkpt lat="45.6999817" lon="11.382075"><ele>169.0</ele><time>2026-03-28T08:58:25.084Z</time></trkpt><trkpt lat="45.7001217" lon="11.3819167"><ele>169.0</ele><time>2026-03-28T08:58:26.084Z</time></trkpt><trkpt lat="45.70027" lon="11.381765"><ele>169.0</ele><time>2026-03-28T08:58:27.083Z</time></trkpt><trkpt lat="45.7004217" lon="11.381615"><ele>169.0</ele><time>2026-03-28T08:58:28.084Z</time></trkpt><trkpt lat="45.7005717" lon="11.3814633"><ele>169.66666666666669</ele><time>2026-03-28T08:58:29.084Z</time></trkpt><trkpt lat="45.7007317" lon="11.3813117"><ele>170.33333333333334</ele><time>2026-03-28T08:58:30.083Z</time></trkpt><trkpt lat="45.7008817" lon="11.38116"><ele>171.0</ele><time>2026-03-28T08:58:31.083Z</time></trkpt><trkpt lat="45.7010367" lon="11.3810067"><ele>170.66666666666666</ele><time>2026-03-28T08:58:32.084Z</time></trkpt><trkpt lat="45.7011917" lon="11.380855"><ele>170.33333333333331</ele><time>2026-03-28T08:58:33.084Z</time></trkpt><trkpt lat="45.7013383" lon="11.3806983"><ele>170.0</ele><time>2026-03-28T08:58:34.083Z</time></trkpt><trkpt lat="45.7014783" lon="11.3805283"><ele>170.33333333333331</ele><time>2026-03-28T08:58:35.084Z</time></trkpt><trkpt lat="45.7015983" lon="11.3803533"><ele>170.66666666666666</ele><time>2026-03-28T08:58:36.083Z</time></trkpt><trkpt lat="45.7017117" lon="11.3801683"><ele>171.0</ele><time>2026-03-28T08:58:37.084Z</time></trkpt><trkpt lat="45.7017983" lon="11.3799667"><ele>171.0</ele><time>2026-03-28T08:58:38.084Z</time></trkpt><trkpt lat="45.701875" lon="11.3797583"><ele>171.0</ele><time>2026-03-28T08:58:39.084Z</time></trkpt><trkpt lat="45.7019483" lon="11.37955"><ele>171.0</ele><time>2026-03-28T08:58:40.084Z</time></trkpt><trkpt lat="45.7020117" lon="11.3793333"><ele>171.0</ele><time>2026-03-28T08:58:41.084Z</time></trkpt><trkpt lat="45.7020733" lon="11.37913"><ele>171.0</ele><time>2026-03-28T08:58:42.084Z</time></trkpt><trkpt lat="45.70214" lon="11.3789433"><ele>171.0</ele><time>2026-03-28T08:58:43.084Z</time></trkpt><trkpt lat="45.7022" lon="11.3787567"><ele>171.0</ele><time>2026-03-28T08:58:44.083Z</time></trkpt><trkpt lat="45.7022533" lon="11.3785617"><ele>171.33333333333334</ele><time>2026-03-28T08:58:45.084Z</time></trkpt><trkpt lat="45.70231" lon="11.37836"><ele>171.66666666666669</ele><time>2026-03-28T08:58:46.083Z</time></trkpt><trkpt lat="45.7023717" lon="11.3781617"><ele>172.0</ele><time>2026-03-28T08:58:47.083Z</time></trkpt><trkpt lat="45.70244" lon="11.3779567"><ele>172.0</ele><time>2026-03-28T08:58:48.084Z</time></trkpt><trkpt lat="45.7025067" lon="11.3777517"><ele>172.0</ele><time>2026-03-28T08:58:49.083Z</time></trkpt><trkpt lat="45.70258" lon="11.3775417"><ele>172.0</ele><time>2026-03-28T08:58:50.083Z</time></trkpt><trkpt lat="45.7026567" lon="11.37734"><ele>172.66666666666669</ele><time>2026-03-28T08:58:51.084Z</time></trkpt><trkpt lat="45.7027317" lon="11.3771317"><ele>173.33333333333334</ele><time>2026-03-28T08:58:52.083Z</time></trkpt><trkpt lat="45.7027933" lon="11.3769383"><ele>174.0</ele><time>2026-03-28T08:58:53.084Z</time></trkpt><trkpt lat="45.7028383" lon="11.3767517"><ele>174.0</ele><time>2026-03-28T08:58:54.084Z</time></trkpt><trkpt lat="45.70288" lon="11.3765733"><ele>174.0</ele><time>2026-03-28T08:58:55.083Z</time></trkpt><trkpt lat="45.7029183" lon="11.3763883"><ele>174.0</ele><time>2026-03-28T08:58:56.084Z</time></trkpt><trkpt lat="45.7029483" lon="11.3762"><ele>174.0</ele><time>2026-03-28T08:58:57.084Z</time></trkpt><trkpt lat="45.7029717" lon="11.3760367"><ele>174.2</ele><time>2026-03-28T08:58:58.084Z</time></trkpt><trkpt lat="45.7029867" lon="11.375885"><ele>174.39999999999998</ele><time>2026-03-28T08:58:59.084Z</time></trkpt><trkpt lat="45.7030033" lon="11.375735"><ele>174.6</ele><time>2026-03-28T08:59:00.084Z</time></trkpt><trkpt lat="45.703015" lon="11.375595"><ele>174.8</ele><time>2026-03-28T08:59:01.083Z</time></trkpt><trkpt lat="45.7030317" lon="11.3754633"><ele>175.0</ele><time>2026-03-28T08:59:02.083Z</time></trkpt><trkpt lat="45.7030417" lon="11.3753633"><ele>175.16666666666669</ele><time>2026-03-28T08:59:03.084Z</time></trkpt><trkpt lat="45.703055" lon="11.375255"><ele>175.33333333333334</ele><time>2026-03-28T08:59:04.083Z</time></trkpt><trkpt lat="45.7030767" lon="11.3751467"><ele>175.5</ele><time>2026-03-28T08:59:05.084Z</time></trkpt><trkpt lat="45.7031" lon="11.3750483"><ele>175.66666666666666</ele><time>2026-03-28T08:59:06.084Z</time></trkpt><trkpt lat="45.7031433" lon="11.3749633"><ele>175.83333333333331</ele><time>2026-03-28T08:59:07.084Z</time></trkpt><trkpt lat="45.7031917" lon="11.3748633"><ele>176.0</ele><time>2026-03-28T08:59:08.083Z</time></trkpt><trkpt lat="45.7032217" lon="11.37474"><ele>175.8</ele><time>2026-03-28T08:59:09.084Z</time></trkpt><trkpt lat="45.703215" lon="11.3746133"><ele>175.60000000000002</ele><time>2026-03-28T08:59:10.084Z</time></trkpt><trkpt lat="45.70319" lon="11.3744967"><ele>175.4</ele><time>2026-03-28T08:59:11.084Z</time></trkpt><trkpt lat="45.7030867" lon="11.3744233"><ele>175.2</ele><time>2026-03-28T08:59:12.084Z</time></trkpt><trkpt lat="45.7029633" lon="11.3744083"><ele>175.0</ele><time>2026-03-28T08:59:13.084Z</time></trkpt><trkpt lat="45.702835" lon="11.374395"><ele>175.0</ele><time>2026-03-28T08:59:14.084Z</time></trkpt><trkpt lat="45.7027283" lon="11.37434"><ele>175.0</ele><time>2026-03-28T08:59:15.084Z</time></trkpt><trkpt lat="45.7026383" lon="11.3742317"><ele>175.0</ele><time>2026-03-28T08:59:16.084Z</time></trkpt><trkpt lat="45.7025783" lon="11.3740717"><ele>175.0</ele><time>2026-03-28T08:59:17.084Z</time></trkpt><trkpt lat="45.7025467" lon="11.3738833"><ele>175.25</ele><time>2026-03-28T08:59:18.084Z</time></trkpt><trkpt lat="45.702525" lon="11.3736733"><ele>175.5</ele><time>2026-03-28T08:59:19.083Z</time></trkpt><trkpt lat="45.7025283" lon="11.3734683"><ele>175.75</ele><time>2026-03-28T08:59:20.084Z</time></trkpt><trkpt lat="45.7025583" lon="11.3732783"><ele>176.0</ele><time>2026-03-28T08:59:21.084Z</time></trkpt><trkpt lat="45.7026083" lon="11.3731183"><ele>176.16666666666666</ele><time>2026-03-28T08:59:22.084Z</time></trkpt><trkpt lat="45.7026467" lon="11.372995"><ele>176.33333333333331</ele><time>2026-03-28T08:59:23.083Z</time></trkpt><trkpt lat="45.70268" lon="11.3728967"><ele>176.5</ele><time>2026-03-28T08:59:24.084Z</time></trkpt><trkpt lat="45.702725" lon="11.37276"><ele>176.66666666666666</ele><time>2026-03-28T08:59:26.083Z</time></trkpt><trkpt lat="45.7027517" lon="11.3726767"><ele>176.83333333333334</ele><time>2026-03-28T08:59:28.084Z</time></trkpt><trkpt lat="45.702785" lon="11.37256"><ele>177.0</ele><time>2026-03-28T08:59:31.084Z</time></trkpt><trkpt lat="45.70282" lon="11.37243"><ele>177.2</ele><time>2026-03-28T08:59:33.084Z</time></trkpt><trkpt lat="45.7028517" lon="11.3723433"><ele>177.39999999999998</ele><time>2026-03-28T08:59:34.083Z</time></trkpt><trkpt lat="45.7028833" lon="11.3722433"><ele>177.60000000000002</ele><time>2026-03-28T08:59:35.084Z</time></trkpt><trkpt lat="45.7029183" lon="11.372125"><ele>177.8</ele><time>2026-03-28T08:59:36.083Z</time></trkpt><trkpt lat="45.702955" lon="11.37199"><ele>178.0</ele><time>2026-03-28T08:59:37.084Z</time></trkpt><trkpt lat="45.7029983" lon="11.3718333"><ele>178.5</ele><time>2026-03-28T08:59:38.084Z</time></trkpt><trkpt lat="45.7030467" lon="11.371675"><ele>179.0</ele><time>2026-03-28T08:59:39.084Z</time></trkpt><trkpt lat="45.7030833" lon="11.3715183"><ele>179.5</ele><time>2026-03-28T08:59:40.084Z</time></trkpt><trkpt lat="45.70313" lon="11.371345"><ele>180.0</ele><time>2026-03-28T08:59:41.084Z</time></trkpt><trkpt lat="45.703175" lon="11.3711633"><ele>180.5</ele><time>2026-03-28T08:59:42.084Z</time></trkpt><trkpt lat="45.7032233" lon="11.3709833"><ele>181.0</ele><time>2026-03-28T08:59:43.083Z</time></trkpt><trkpt lat="45.7032633" lon="11.37081"><ele>181.5</ele><time>2026-03-28T08:59:44.084Z</time></trkpt><trkpt lat="45.7033083" lon="11.3706483"><ele>182.0</ele><time>2026-03-28T08:59:45.084Z</time></trkpt><trkpt lat="45.703345" lon="11.3704883"><ele>182.5</ele><time>2026-03-28T08:59:46.083Z</time></trkpt><trkpt lat="45.703395" lon="11.370325"><ele>183.0</ele><time>2026-03-28T08:59:47.083Z</time></trkpt><trkpt lat="45.7034433" lon="11.3701533"><ele>183.5</ele><time>2026-03-28T08:59:48.083Z</time></trkpt><trkpt lat="45.703485" lon="11.3699983"><ele>184.0</ele><time>2026-03-28T08:59:49.084Z</time></trkpt><trkpt lat="45.7035217" lon="11.3698567"><ele>184.0</ele><time>2026-03-28T08:59:50.084Z</time></trkpt><trkpt lat="45.703555" lon="11.36973"><ele>184.0</ele><time>2026-03-28T08:59:51.084Z</time></trkpt><trkpt lat="45.7035767" lon="11.36961"><ele>184.0</ele><time>2026-03-28T08:59:52.083Z</time></trkpt><trkpt lat="45.703595" lon="11.369505"><ele>184.0</ele><time>2026-03-28T08:59:53.084Z</time></trkpt><trkpt lat="45.7036117" lon="11.36941"><ele>184.0</ele><time>2026-03-28T08:59:54.083Z</time></trkpt><trkpt lat="45.703655" lon="11.369255"><ele>184.0</ele><time>2026-03-28T08:59:56.084Z</time></trkpt><trkpt lat="45.7037067" lon="11.3691333"><ele>184.0</ele><time>2026-03-28T08:59:58.084Z</time></trkpt><trkpt lat="45.7037533" lon="11.36904"><ele>184.0</ele><time>2026-03-28T09:00:00.083Z</time></trkpt><trkpt lat="45.7038167" lon="11.3689567"><ele>184.0</ele><time>2026-03-28T09:00:02.084Z</time></trkpt><trkpt lat="45.7038717" lon="11.3689117"><ele>184.0</ele><time>2026-03-28T09:00:03.084Z</time></trkpt><trkpt lat="45.7039367" lon="11.368865"><ele>184.0</ele><time>2026-03-28T09:00:04.083Z</time></trkpt><trkpt lat="45.7040183" lon="11.36882"><ele>184.0</ele><time>2026-03-28T09:00:05.084Z</time></trkpt><trkpt lat="45.70411" lon="11.3687683"><ele>184.0</ele><time>2026-03-28T09:00:06.084Z</time></trkpt><trkpt lat="45.7042" lon="11.36871"><ele>184.0</ele><time>2026-03-28T09:00:07.084Z</time></trkpt><trkpt lat="45.7042817" lon="11.3686767"><ele>184.0</ele><time>2026-03-28T09:00:08.084Z</time></trkpt><trkpt lat="45.7043667" lon="11.368675"><ele>184.0</ele><time>2026-03-28T09:00:09.084Z</time></trkpt><trkpt lat="45.7044533" lon="11.36871"><ele>184.0</ele><time>2026-03-28T09:00:10.084Z</time></trkpt><trkpt lat="45.7045367" lon="11.3687783"><ele>183.2</ele><time>2026-03-28T09:00:11.084Z</time></trkpt><trkpt lat="45.7046233" lon="11.3688583"><ele>182.39999999999998</ele><time>2026-03-28T09:00:12.083Z</time></trkpt><trkpt lat="45.7047133" lon="11.3689433"><ele>181.6</ele><time>2026-03-28T09:00:13.084Z</time></trkpt><trkpt lat="45.7048" lon="11.3690317"><ele>180.8</ele><time>2026-03-28T09:00:14.084Z</time></trkpt><trkpt lat="45.7048933" lon="11.36913"><ele>180.0</ele><time>2026-03-28T09:00:15.083Z</time></trkpt><trkpt lat="45.7049917" lon="11.3692217"><ele>180.0</ele><time>2026-03-28T09:00:16.084Z</time></trkpt><trkpt lat="45.7050983" lon="11.36932"><ele>180.0</ele><time>2026-03-28T09:00:17.083Z</time></trkpt><trkpt lat="45.7052017" lon="11.3694133"><ele>180.0</ele><time>2026-03-28T09:00:18.083Z</time></trkpt><trkpt lat="45.7053033" lon="11.369495"><ele>180.0</ele><time>2026-03-28T09:00:19.084Z</time></trkpt><trkpt lat="45.7054017" lon="11.3695733"><ele>180.0</ele><time>2026-03-28T09:00:20.084Z</time></trkpt><trkpt lat="45.705495" lon="11.3696333"><ele>180.0</ele><time>2026-03-28T09:00:21.083Z</time></trkpt><trkpt lat="45.7055767" lon="11.36969"><ele>180.0</ele><time>2026-03-28T09:00:22.084Z</time></trkpt><trkpt lat="45.7056433" lon="11.3697267"><ele>180.0</ele><time>2026-03-28T09:00:23.083Z</time></trkpt><trkpt lat="45.705705" lon="11.3697583"><ele>180.0</ele><time>2026-03-28T09:00:24.083Z</time></trkpt><trkpt lat="45.7058067" lon="11.3698167"><ele>180.0</ele><time>2026-03-28T09:00:26.083Z</time></trkpt><trkpt lat="45.705915" lon="11.369875"><ele>180.0</ele><time>2026-03-28T09:00:28.083Z</time></trkpt><trkpt lat="45.70599" lon="11.36992"><ele>180.0</ele><time>2026-03-28T09:00:30.083Z</time></trkpt><trkpt lat="45.7061017" lon="11.37007"><ele>180.0</ele><time>2026-03-28T09:00:38.084Z</time></trkpt><trkpt lat="45.7061517" lon="11.3701467"><ele>180.0</ele><time>2026-03-28T09:00:39.084Z</time></trkpt><trkpt lat="45.7062117" lon="11.3702083"><ele>180.0</ele><time>2026-03-28T09:00:40.083Z</time></trkpt><trkpt lat="45.706285" lon="11.3702333"><ele>180.33333333333334</ele><time>2026-03-28T09:00:41.084Z</time></trkpt><trkpt lat="45.706355" lon="11.3702017"><ele>180.66666666666666</ele><time>2026-03-28T09:00:42.084Z</time></trkpt><trkpt lat="45.7063983" lon="11.3700983"><ele>181.0</ele><time>2026-03-28T09:00:43.083Z</time></trkpt><trkpt lat="45.7064283" lon="11.36998"><ele>181.33333333333331</ele><time>2026-03-28T09:00:44.084Z</time></trkpt><trkpt lat="45.7064317" lon="11.3698583"><ele>181.66666666666666</ele><time>2026-03-28T09:00:45.084Z</time></trkpt><trkpt lat="45.7064267" lon="11.3697533"><ele>182.0</ele><time>2026-03-28T09:00:46.084Z</time></trkpt><trkpt lat="45.706435" lon="11.3696583"><ele>182.0</ele><time>2026-03-28T09:00:47.083Z</time></trkpt><trkpt lat="45.7064633" lon="11.3695733"><ele>182.0</ele><time>2026-03-28T09:00:48.084Z</time></trkpt><trkpt lat="45.70652" lon="11.36944"><ele>182.0</ele><time>2026-03-28T09:00:50.084Z</time></trkpt><trkpt lat="45.7065867" lon="11.3692767"><ele>182.0</ele><time>2026-03-28T09:00:52.084Z</time></trkpt><trkpt lat="45.70663" lon="11.3691667"><ele>182.0</ele><time>2026-03-28T09:00:53.084Z</time></trkpt><trkpt lat="45.7066867" lon="11.369045"><ele>182.0</ele><time>2026-03-28T09:00:54.083Z</time></trkpt><trkpt lat="45.7067467" lon="11.3689167"><ele>182.0</ele><time>2026-03-28T09:00:55.083Z</time></trkpt><trkpt lat="45.706815" lon="11.368775"><ele>182.0</ele><time>2026-03-28T09:00:56.084Z</time></trkpt><trkpt lat="45.70688" lon="11.3686267"><ele>182.0</ele><time>2026-03-28T09:00:57.083Z</time></trkpt><trkpt lat="45.706945" lon="11.3684767"><ele>182.0</ele><time>2026-03-28T09:00:58.083Z</time></trkpt><trkpt lat="45.7070117" lon="11.36832"><ele>182.0</ele><time>2026-03-28T09:00:59.083Z</time></trkpt><trkpt lat="45.7070783" lon="11.3681617"><ele>182.0</ele><time>2026-03-28T09:01:00.083Z</time></trkpt><trkpt lat="45.70715" lon="11.3680033"><ele>182.0</ele><time>2026-03-28T09:01:01.083Z</time></trkpt><trkpt lat="45.707225" lon="11.3678467"><ele>182.25</ele><time>2026-03-28T09:01:02.084Z</time></trkpt><trkpt lat="45.70729" lon="11.3676883"><ele>182.5</ele><time>2026-03-28T09:01:03.084Z</time></trkpt><trkpt lat="45.7073567" lon="11.3675267"><ele>182.75</ele><time>2026-03-28T09:01:04.083Z</time></trkpt><trkpt lat="45.70743" lon="11.367365"><ele>183.0</ele><time>2026-03-28T09:01:05.084Z</time></trkpt><trkpt lat="45.7075083" lon="11.3672033"><ele>183.25</ele><time>2026-03-28T09:01:06.084Z</time></trkpt><trkpt lat="45.7075717" lon="11.3670283"><ele>183.5</ele><time>2026-03-28T09:01:07.084Z</time></trkpt><trkpt lat="45.7076367" lon="11.3668617"><ele>183.75</ele><time>2026-03-28T09:01:08.084Z</time></trkpt><trkpt lat="45.7076933" lon="11.366705"><ele>184.0</ele><time>2026-03-28T09:01:09.083Z</time></trkpt><trkpt lat="45.7077617" lon="11.3665583"><ele>184.39999999999998</ele><time>2026-03-28T09:01:10.083Z</time></trkpt><trkpt lat="45.70783" lon="11.3664317"><ele>184.8</ele><time>2026-03-28T09:01:11.084Z</time></trkpt><trkpt lat="45.7078883" lon="11.366305"><ele>185.2</ele><time>2026-03-28T09:01:12.084Z</time></trkpt><trkpt lat="45.7079467" lon="11.3661783"><ele>185.60000000000002</ele><time>2026-03-28T09:01:13.084Z</time></trkpt><trkpt lat="45.7079967" lon="11.3660617"><ele>186.0</ele><time>2026-03-28T09:01:14.084Z</time></trkpt><trkpt lat="45.708045" lon="11.36596"><ele>186.0</ele><time>2026-03-28T09:01:15.084Z</time></trkpt><trkpt lat="45.7080917" lon="11.3658633"><ele>186.0</ele><time>2026-03-28T09:01:16.083Z</time></trkpt><trkpt lat="45.7081333" lon="11.3657867"><ele>186.0</ele><time>2026-03-28T09:01:17.084Z</time></trkpt><trkpt lat="45.7081917" lon="11.365665"><ele>186.0</ele><time>2026-03-28T09:01:19.084Z</time></trkpt><trkpt lat="45.7082433" lon="11.3655783"><ele>186.0</ele><time>2026-03-28T09:01:21.084Z</time></trkpt><trkpt lat="45.70829" lon="11.365495"><ele>186.0</ele><time>2026-03-28T09:01:23.084Z</time></trkpt><trkpt lat="45.708345" lon="11.3654033"><ele>186.25</ele><time>2026-03-28T09:01:25.084Z</time></trkpt><trkpt lat="45.7084433" lon="11.3653"><ele>186.5</ele><time>2026-03-28T09:01:27.084Z</time></trkpt><trkpt lat="45.7084867" lon="11.3651383"><ele>186.75</ele><time>2026-03-28T09:01:29.083Z</time></trkpt><trkpt lat="45.7084217" lon="11.3649833"><ele>187.0</ele><time>2026-03-28T09:01:31.083Z</time></trkpt><trkpt lat="45.7083683" lon="11.3648917"><ele>187.0</ele><time>2026-03-28T09:01:32.083Z</time></trkpt><trkpt lat="45.7083067" lon="11.364765"><ele>187.0</ele><time>2026-03-28T09:01:33.084Z</time></trkpt><trkpt lat="45.70826" lon="11.3646"><ele>187.0</ele><time>2026-03-28T09:01:34.084Z</time></trkpt><trkpt lat="45.7082233" lon="11.3644"><ele>187.0</ele><time>2026-03-28T09:01:35.084Z</time></trkpt><trkpt lat="45.7081983" lon="11.36418"><ele>186.66666666666669</ele><time>2026-03-28T09:01:36.084Z</time></trkpt><trkpt lat="45.70817" lon="11.3639383"><ele>186.33333333333334</ele><time>2026-03-28T09:01:37.083Z</time></trkpt><trkpt lat="45.7081417" lon="11.36371"><ele>186.0</ele><time>2026-03-28T09:01:38.084Z</time></trkpt><trkpt lat="45.7081267" lon="11.363505"><ele>186.75</ele><time>2026-03-28T09:01:39.083Z</time></trkpt><trkpt lat="45.7081183" lon="11.3633183"><ele>187.5</ele><time>2026-03-28T09:01:40.084Z</time></trkpt><trkpt lat="45.7081317" lon="11.3631417"><ele>188.25</ele><time>2026-03-28T09:01:41.084Z</time></trkpt><trkpt lat="45.7081583" lon="11.3629633"><ele>189.0</ele><time>2026-03-28T09:01:42.084Z</time></trkpt><trkpt lat="45.7081767" lon="11.3627767"><ele>189.0</ele><time>2026-03-28T09:01:43.084Z</time></trkpt><trkpt lat="45.7082133" lon="11.36259"><ele>189.0</ele><time>2026-03-28T09:01:44.084Z</time></trkpt><trkpt lat="45.7082567" lon="11.3624267"><ele>189.0</ele><time>2026-03-28T09:01:45.084Z</time></trkpt><trkpt lat="45.7083" lon="11.3622633"><ele>189.0</ele><time>2026-03-28T09:01:46.084Z</time></trkpt><trkpt lat="45.708335" lon="11.3621"><ele>188.5</ele><time>2026-03-28T09:01:47.084Z</time></trkpt><trkpt lat="45.7083733" lon="11.3619383"><ele>188.0</ele><time>2026-03-28T09:01:48.084Z</time></trkpt><trkpt lat="45.7084133" lon="11.36177"><ele>187.5</ele><time>2026-03-28T09:01:49.084Z</time></trkpt><trkpt lat="45.7084467" lon="11.3615983"><ele>187.0</ele><time>2026-03-28T09:01:50.083Z</time></trkpt><trkpt lat="45.7084817" lon="11.36142"><ele>186.75</ele><time>2026-03-28T09:01:51.084Z</time></trkpt><trkpt lat="45.70853" lon="11.3612433"><ele>186.5</ele><time>2026-03-28T09:01:52.084Z</time></trkpt><trkpt lat="45.708575" lon="11.3610683"><ele>186.25</ele><time>2026-03-28T09:01:53.084Z</time></trkpt><trkpt lat="45.7086133" lon="11.360895"><ele>186.0</ele><time>2026-03-28T09:01:54.084Z</time></trkpt><trkpt lat="45.7086567" lon="11.3607233"><ele>187.0</ele><time>2026-03-28T09:01:55.084Z</time></trkpt><trkpt lat="45.7086917" lon="11.3605417"><ele>188.0</ele><time>2026-03-28T09:01:56.083Z</time></trkpt><trkpt lat="45.7087283" lon="11.3603617"><ele>189.0</ele><time>2026-03-28T09:01:57.084Z</time></trkpt><trkpt lat="45.7087617" lon="11.360185"><ele>190.0</ele><time>2026-03-28T09:01:58.083Z</time></trkpt><trkpt lat="45.7087867" lon="11.3599967"><ele>190.0</ele><time>2026-03-28T09:01:59.084Z</time></trkpt><trkpt lat="45.7088267" lon="11.359815"><ele>190.0</ele><time>2026-03-28T09:02:00.083Z</time></trkpt><trkpt lat="45.7088733" lon="11.35964"><ele>190.0</ele><time>2026-03-28T09:02:01.084Z</time></trkpt><trkpt lat="45.7089083" lon="11.359475"><ele>190.0</ele><time>2026-03-28T09:02:02.084Z</time></trkpt><trkpt lat="45.708955" lon="11.3593083"><ele>190.25</ele><time>2026-03-28T09:02:03.083Z</time></trkpt><trkpt lat="45.7090033" lon="11.359145"><ele>190.5</ele><time>2026-03-28T09:02:04.083Z</time></trkpt><trkpt lat="45.7090317" lon="11.3589733"><ele>190.75</ele><time>2026-03-28T09:02:05.084Z</time></trkpt><trkpt lat="45.7090767" lon="11.3588033"><ele>191.0</ele><time>2026-03-28T09:02:06.084Z</time></trkpt><trkpt lat="45.7091233" lon="11.3586233"><ele>191.0</ele><time>2026-03-28T09:02:07.084Z</time></trkpt><trkpt lat="45.7091883" lon="11.3584517"><ele>191.0</ele><time>2026-03-28T09:02:08.084Z</time></trkpt><trkpt lat="45.7092433" lon="11.35827"><ele>191.0</ele><time>2026-03-28T09:02:09.083Z</time></trkpt><trkpt lat="45.709285" lon="11.3580883"><ele>191.0</ele><time>2026-03-28T09:02:10.083Z</time></trkpt><trkpt lat="45.709325" lon="11.3579167"><ele>191.25</ele><time>2026-03-28T09:02:11.084Z</time></trkpt><trkpt lat="45.70936" lon="11.3577433"><ele>191.5</ele><time>2026-03-28T09:02:12.084Z</time></trkpt><trkpt lat="45.7093867" lon="11.3575833"><ele>191.75</ele><time>2026-03-28T09:02:13.084Z</time></trkpt><trkpt lat="45.7094083" lon="11.3574283"><ele>192.0</ele><time>2026-03-28T09:02:14.084Z</time></trkpt><trkpt lat="45.7094433" lon="11.3572883"><ele>193.0</ele><time>2026-03-28T09:02:15.084Z</time></trkpt><trkpt lat="45.709495" lon="11.3571533"><ele>194.0</ele><time>2026-03-28T09:02:16.083Z</time></trkpt><trkpt lat="45.7095333" lon="11.3570117"><ele>195.0</ele><time>2026-03-28T09:02:17.083Z</time></trkpt><trkpt lat="45.7095733" lon="11.3568633"><ele>196.0</ele><time>2026-03-28T09:02:18.084Z</time></trkpt><trkpt lat="45.7096167" lon="11.356725"><ele>197.0</ele><time>2026-03-28T09:02:19.084Z</time></trkpt><trkpt lat="45.7096667" lon="11.3566017"><ele>197.00000000000003</ele><time>2026-03-28T09:02:20.084Z</time></trkpt><trkpt lat="45.7097083" lon="11.3564783"><ele>197.0</ele><time>2026-03-28T09:02:21.084Z</time></trkpt><trkpt lat="45.7097467" lon="11.356375"><ele>197.0</ele><time>2026-03-28T09:02:22.083Z</time></trkpt><trkpt lat="45.7097767" lon="11.3562817"><ele>197.0</ele><time>2026-03-28T09:02:23.084Z</time></trkpt><trkpt lat="45.709805" lon="11.3561967"><ele>197.00000000000003</ele><time>2026-03-28T09:02:24.084Z</time></trkpt><trkpt lat="45.7098483" lon="11.3560667"><ele>197.0</ele><time>2026-03-28T09:02:26.083Z</time></trkpt><trkpt lat="45.7098767" lon="11.355975"><ele>197.39999999999998</ele><time>2026-03-28T09:02:28.083Z</time></trkpt><trkpt lat="45.709945" lon="11.3558217"><ele>197.79999999999998</ele><time>2026-03-28T09:02:44.084Z</time></trkpt><trkpt lat="45.709975" lon="11.35567"><ele>198.2</ele><time>2026-03-28T09:02:46.084Z</time></trkpt><trkpt lat="45.710015" lon="11.3555667"><ele>198.6</ele><time>2026-03-28T09:02:48.083Z</time></trkpt><trkpt lat="45.7100483" lon="11.3554383"><ele>199.0</ele><time>2026-03-28T09:02:50.084Z</time></trkpt><trkpt lat="45.7100867" lon="11.3552733"><ele>199.2</ele><time>2026-03-28T09:02:52.084Z</time></trkpt><trkpt lat="45.7101233" lon="11.355155"><ele>199.39999999999998</ele><time>2026-03-28T09:02:54.084Z</time></trkpt><trkpt lat="45.710225" lon="11.3551367"><ele>199.6</ele><time>2026-03-28T09:03:58.084Z</time></trkpt><trkpt lat="45.7102433" lon="11.3550033"><ele>199.8</ele><time>2026-03-28T09:04:30.084Z</time></trkpt><trkpt lat="45.710305" lon="11.3549333"><ele>200.0</ele><time>2026-03-28T09:04:32.084Z</time></trkpt><trkpt lat="45.710425" lon="11.3549717"><ele>199.25</ele><time>2026-03-28T09:04:34.084Z</time></trkpt><trkpt lat="45.710515" lon="11.3550217"><ele>198.5</ele><time>2026-03-28T09:04:35.083Z</time></trkpt><trkpt lat="45.7106233" lon="11.3551217"><ele>197.75</ele><time>2026-03-28T09:04:36.083Z</time></trkpt><trkpt lat="45.71074" lon="11.3552317"><ele>197.0</ele><time>2026-03-28T09:04:37.084Z</time></trkpt><trkpt lat="45.71083" lon="11.3553283"><ele>197.00000000000003</ele><time>2026-03-28T09:04:38.084Z</time></trkpt><trkpt lat="45.71091" lon="11.3554133"><ele>197.0</ele><time>2026-03-28T09:04:39.084Z</time></trkpt><trkpt lat="45.71099" lon="11.3554867"><ele>197.0</ele><time>2026-03-28T09:04:40.084Z</time></trkpt><trkpt lat="45.711045" lon="11.3555533"><ele>197.0</ele><time>2026-03-28T09:04:41.084Z</time></trkpt><trkpt lat="45.7110933" lon="11.35562"><ele>197.00000000000003</ele><time>2026-03-28T09:04:42.084Z</time></trkpt><trkpt lat="45.7111583" lon="11.3556983"><ele>197.0</ele><time>2026-03-28T09:04:44.083Z</time></trkpt><trkpt lat="45.71125" lon="11.3557"><ele>197.39999999999998</ele><time>2026-03-28T09:04:46.084Z</time></trkpt><trkpt lat="45.7113167" lon="11.3555983"><ele>197.79999999999998</ele><time>2026-03-28T09:04:48.084Z</time></trkpt><trkpt lat="45.7113633" lon="11.3554133"><ele>198.2</ele><time>2026-03-28T09:04:50.084Z</time></trkpt><trkpt lat="45.7113933" lon="11.3553083"><ele>198.6</ele><time>2026-03-28T09:04:51.084Z</time></trkpt><trkpt lat="45.7114283" lon="11.3552017"><ele>199.0</ele><time>2026-03-28T09:04:52.084Z</time></trkpt><trkpt lat="45.711465" lon="11.35509"><ele>198.99999999999997</ele><time>2026-03-28T09:04:53.084Z</time></trkpt><trkpt lat="45.7115017" lon="11.354975"><ele>199.0</ele><time>2026-03-28T09:04:54.083Z</time></trkpt><trkpt lat="45.7115383" lon="11.3548617"><ele>199.0</ele><time>2026-03-28T09:04:55.084Z</time></trkpt><trkpt lat="45.7115783" lon="11.35475"><ele>199.0</ele><time>2026-03-28T09:04:56.083Z</time></trkpt><trkpt lat="45.7116167" lon="11.3546367"><ele>198.99999999999997</ele><time>2026-03-28T09:04:57.083Z</time></trkpt><trkpt lat="45.7116583" lon="11.3545317"><ele>199.0</ele><time>2026-03-28T09:04:58.083Z</time></trkpt><trkpt lat="45.7116933" lon="11.35442"><ele>198.99999999999997</ele><time>2026-03-28T09:04:59.084Z</time></trkpt><trkpt lat="45.7117267" lon="11.354315"><ele>199.0</ele><time>2026-03-28T09:05:00.084Z</time></trkpt><trkpt lat="45.711765" lon="11.354215"><ele>199.0</ele><time>2026-03-28T09:05:01.084Z</time></trkpt><trkpt lat="45.7117983" lon="11.3541183"><ele>199.0</ele><time>2026-03-28T09:05:02.083Z</time></trkpt><trkpt lat="45.7118283" lon="11.3540267"><ele>198.99999999999997</ele><time>2026-03-28T09:05:03.084Z</time></trkpt><trkpt lat="45.71186" lon="11.3539467"><ele>199.0</ele><time>2026-03-28T09:05:04.084Z</time></trkpt><trkpt lat="45.7119167" lon="11.353835"><ele>198.99999999999997</ele><time>2026-03-28T09:05:06.083Z</time></trkpt><trkpt lat="45.711955" lon="11.3537217"><ele>199.0</ele><time>2026-03-28T09:05:08.084Z</time></trkpt><trkpt lat="45.7120083" lon="11.3536267"><ele>199.0</ele><time>2026-03-28T09:05:10.083Z</time></trkpt><trkpt lat="45.7120717" lon="11.353475"><ele>199.0</ele><time>2026-03-28T09:05:12.084Z</time></trkpt><trkpt lat="45.7120917" lon="11.35338"><ele>198.99999999999997</ele><time>2026-03-28T09:05:13.083Z</time></trkpt><trkpt lat="45.712115" lon="11.35328"><ele>199.0</ele><time>2026-03-28T09:05:14.084Z</time></trkpt><trkpt lat="45.7121483" lon="11.3531667"><ele>198.99999999999997</ele><time>2026-03-28T09:05:15.084Z</time></trkpt><trkpt lat="45.7121817" lon="11.3530483"><ele>199.0</ele><time>2026-03-28T09:05:16.084Z</time></trkpt><trkpt lat="45.7122233" lon="11.3529217"><ele>199.0</ele><time>2026-03-28T09:05:17.084Z</time></trkpt><trkpt lat="45.712265" lon="11.3528083"><ele>199.0</ele><time>2026-03-28T09:05:18.084Z</time></trkpt><trkpt lat="45.7122983" lon="11.3527083"><ele>198.99999999999997</ele><time>2026-03-28T09:05:19.083Z</time></trkpt><trkpt lat="45.7123317" lon="11.3526217"><ele>199.0</ele><time>2026-03-28T09:05:20.084Z</time></trkpt><trkpt lat="45.7123583" lon="11.352535"><ele>199.0</ele><time>2026-03-28T09:05:21.083Z</time></trkpt><trkpt lat="45.7123867" lon="11.3524317"><ele>199.0</ele><time>2026-03-28T09:05:22.084Z</time></trkpt><trkpt lat="45.7124183" lon="11.3523167"><ele>199.0</ele><time>2026-03-28T09:05:23.083Z</time></trkpt><trkpt lat="45.71245" lon="11.35219"><ele>199.0</ele><time>2026-03-28T09:05:24.084Z</time></trkpt><trkpt lat="45.7124933" lon="11.35206"><ele>199.0</ele><time>2026-03-28T09:05:25.083Z</time></trkpt><trkpt lat="45.712535" lon="11.3519317"><ele>199.5</ele><time>2026-03-28T09:05:26.084Z</time></trkpt><trkpt lat="45.7125783" lon="11.3517733"><ele>200.0</ele><time>2026-03-28T09:05:27.083Z</time></trkpt><trkpt lat="45.7126317" lon="11.3516167"><ele>200.5</ele><time>2026-03-28T09:05:28.084Z</time></trkpt><trkpt lat="45.71269" lon="11.35145"><ele>201.0</ele><time>2026-03-28T09:05:29.084Z</time></trkpt><trkpt lat="45.71274" lon="11.3512833"><ele>201.0</ele><time>2026-03-28T09:05:30.084Z</time></trkpt><trkpt lat="45.7127917" lon="11.3511167"><ele>201.0</ele><time>2026-03-28T09:05:31.083Z</time></trkpt><trkpt lat="45.7128467" lon="11.3509333"><ele>201.0</ele><time>2026-03-28T09:05:32.083Z</time></trkpt><trkpt lat="45.7129017" lon="11.3507517"><ele>201.0</ele><time>2026-03-28T09:05:33.083Z</time></trkpt><trkpt lat="45.7129533" lon="11.350565"><ele>201.5</ele><time>2026-03-28T09:05:34.084Z</time></trkpt><trkpt lat="45.7130167" lon="11.350375"><ele>202.0</ele><time>2026-03-28T09:05:35.084Z</time></trkpt><trkpt lat="45.7130783" lon="11.3501867"><ele>202.5</ele><time>2026-03-28T09:05:36.084Z</time></trkpt><trkpt lat="45.71314" lon="11.3500033"><ele>203.0</ele><time>2026-03-28T09:05:37.084Z</time></trkpt><trkpt lat="45.7131983" lon="11.3498283"><ele>203.25</ele><time>2026-03-28T09:05:38.084Z</time></trkpt><trkpt lat="45.7132583" lon="11.3496583"><ele>203.5</ele><time>2026-03-28T09:05:39.084Z</time></trkpt><trkpt lat="45.7133117" lon="11.3494917"><ele>203.75</ele><time>2026-03-28T09:05:40.084Z</time></trkpt><trkpt lat="45.7133617" lon="11.3493217"><ele>204.0</ele><time>2026-03-28T09:05:41.084Z</time></trkpt><trkpt lat="45.7134133" lon="11.349155"><ele>204.0</ele><time>2026-03-28T09:05:42.084Z</time></trkpt><trkpt lat="45.71347" lon="11.348985"><ele>204.0</ele><time>2026-03-28T09:05:43.084Z</time></trkpt><trkpt lat="45.7135283" lon="11.3488267"><ele>204.0</ele><time>2026-03-28T09:05:44.084Z</time></trkpt><trkpt lat="45.7135683" lon="11.3486717"><ele>204.0</ele><time>2026-03-28T09:05:45.084Z</time></trkpt><trkpt lat="45.7136183" lon="11.34851"><ele>204.5</ele><time>2026-03-28T09:05:46.084Z</time></trkpt><trkpt lat="45.7136617" lon="11.34834"><ele>205.0</ele><time>2026-03-28T09:05:47.083Z</time></trkpt><trkpt lat="45.7137133" lon="11.3481867"><ele>205.5</ele><time>2026-03-28T09:05:48.083Z</time></trkpt><trkpt lat="45.7137717" lon="11.3480183"><ele>206.0</ele><time>2026-03-28T09:05:49.084Z</time></trkpt><trkpt lat="45.7138233" lon="11.34786"><ele>206.0</ele><time>2026-03-28T09:05:50.084Z</time></trkpt><trkpt lat="45.7138817" lon="11.3477"><ele>206.0</ele><time>2026-03-28T09:05:51.083Z</time></trkpt><trkpt lat="45.7139317" lon="11.3475567"><ele>206.0</ele><time>2026-03-28T09:05:52.084Z</time></trkpt><trkpt lat="45.7139833" lon="11.347415"><ele>206.0</ele><time>2026-03-28T09:05:53.084Z</time></trkpt><trkpt lat="45.7140233" lon="11.3472867"><ele>206.0</ele><time>2026-03-28T09:05:54.084Z</time></trkpt><trkpt lat="45.714055" lon="11.3471517"><ele>206.16666666666669</ele><time>2026-03-28T09:05:55.083Z</time></trkpt><trkpt lat="45.7140967" lon="11.34703"><ele>206.33333333333334</ele><time>2026-03-28T09:05:56.084Z</time></trkpt><trkpt lat="45.71414" lon="11.3469133"><ele>206.5</ele><time>2026-03-28T09:05:57.084Z</time></trkpt><trkpt lat="45.7141767" lon="11.3468133"><ele>206.66666666666669</ele><time>2026-03-28T09:05:58.084Z</time></trkpt><trkpt lat="45.7142083" lon="11.3467133"><ele>206.83333333333334</ele><time>2026-03-28T09:05:59.084Z</time></trkpt><trkpt lat="45.7142383" lon="11.3466233"><ele>207.0</ele><time>2026-03-28T09:06:00.084Z</time></trkpt><trkpt lat="45.7142867" lon="11.346475"><ele>207.0</ele><time>2026-03-28T09:06:02.084Z</time></trkpt><trkpt lat="45.714325" lon="11.3463633"><ele>207.0</ele><time>2026-03-28T09:06:04.084Z</time></trkpt><trkpt lat="45.71435" lon="11.3462583"><ele>207.0</ele><time>2026-03-28T09:06:06.084Z</time></trkpt><trkpt lat="45.71439" lon="11.3460967"><ele>207.0</ele><time>2026-03-28T09:06:08.084Z</time></trkpt><trkpt lat="45.714435" lon="11.3459783"><ele>207.0</ele><time>2026-03-28T09:06:09.084Z</time></trkpt><trkpt lat="45.7144883" lon="11.3458383"><ele>207.0</ele><time>2026-03-28T09:06:10.084Z</time></trkpt><trkpt lat="45.7145433" lon="11.34569"><ele>207.0</ele><time>2026-03-28T09:06:11.084Z</time></trkpt><trkpt lat="45.7145967" lon="11.345535"><ele>207.0</ele><time>2026-03-28T09:06:12.083Z</time></trkpt><trkpt lat="45.7146667" lon="11.3453733"><ele>207.0</ele><time>2026-03-28T09:06:13.083Z</time></trkpt><trkpt lat="45.7147267" lon="11.345215"><ele>207.0</ele><time>2026-03-28T09:06:14.083Z</time></trkpt><trkpt lat="45.714775" lon="11.3450467"><ele>207.0</ele><time>2026-03-28T09:06:15.083Z</time></trkpt><trkpt lat="45.7148183" lon="11.3448783"><ele>207.0</ele><time>2026-03-28T09:06:16.084Z</time></trkpt><trkpt lat="45.7148733" lon="11.3447167"><ele>207.0</ele><time>2026-03-28T09:06:17.084Z</time></trkpt><trkpt lat="45.7149283" lon="11.3445567"><ele>207.5</ele><time>2026-03-28T09:06:18.084Z</time></trkpt><trkpt lat="45.7149883" lon="11.3443817"><ele>208.0</ele><time>2026-03-28T09:06:19.084Z</time></trkpt><trkpt lat="45.71504" lon="11.3442133"><ele>208.5</ele><time>2026-03-28T09:06:20.084Z</time></trkpt><trkpt lat="45.7150833" lon="11.3440433"><ele>209.0</ele><time>2026-03-28T09:06:21.084Z</time></trkpt><trkpt lat="45.7151333" lon="11.3438833"><ele>208.75</ele><time>2026-03-28T09:06:22.084Z</time></trkpt><trkpt lat="45.715195" lon="11.343725"><ele>208.5</ele><time>2026-03-28T09:06:23.083Z</time></trkpt><trkpt lat="45.7152467" lon="11.3435633"><ele>208.25</ele><time>2026-03-28T09:06:24.084Z</time></trkpt><trkpt lat="45.7152933" lon="11.3434017"><ele>208.0</ele><time>2026-03-28T09:06:25.084Z</time></trkpt><trkpt lat="45.71534" lon="11.3432433"><ele>208.75</ele><time>2026-03-28T09:06:26.084Z</time></trkpt><trkpt lat="45.7153967" lon="11.343095"><ele>209.5</ele><time>2026-03-28T09:06:27.083Z</time></trkpt><trkpt lat="45.7154567" lon="11.342945"><ele>210.25</ele><time>2026-03-28T09:06:28.084Z</time></trkpt><trkpt lat="45.7155167" lon="11.3427917"><ele>211.0</ele><time>2026-03-28T09:06:29.083Z</time></trkpt><trkpt lat="45.7155633" lon="11.3426267"><ele>211.0</ele><time>2026-03-28T09:06:30.084Z</time></trkpt><trkpt lat="45.715615" lon="11.34247"><ele>211.0</ele><time>2026-03-28T09:06:31.084Z</time></trkpt><trkpt lat="45.715655" lon="11.3423283"><ele>211.0</ele><time>2026-03-28T09:06:32.084Z</time></trkpt><trkpt lat="45.715685" lon="11.3422"><ele>211.0</ele><time>2026-03-28T09:06:33.083Z</time></trkpt><trkpt lat="45.7157" lon="11.3420617"><ele>211.0</ele><time>2026-03-28T09:06:34.084Z</time></trkpt><trkpt lat="45.7157017" lon="11.3419133"><ele>211.0</ele><time>2026-03-28T09:06:35.084Z</time></trkpt><trkpt lat="45.7156967" lon="11.3417583"><ele>211.0</ele><time>2026-03-28T09:06:36.084Z</time></trkpt><trkpt lat="45.715675" lon="11.341585"><ele>211.0</ele><time>2026-03-28T09:06:37.083Z</time></trkpt><trkpt lat="45.715655" lon="11.3413983"><ele>211.0</ele><time>2026-03-28T09:06:38.084Z</time></trkpt><trkpt lat="45.7156433" lon="11.34121"><ele>211.5</ele><time>2026-03-28T09:06:39.084Z</time></trkpt><trkpt lat="45.71563" lon="11.34101"><ele>212.0</ele><time>2026-03-28T09:06:40.084Z</time></trkpt><trkpt lat="45.7156167" lon="11.3408117"><ele>212.5</ele><time>2026-03-28T09:06:41.083Z</time></trkpt><trkpt lat="45.7156033" lon="11.3406117"><ele>213.0</ele><time>2026-03-28T09:06:42.084Z</time></trkpt><trkpt lat="45.7155917" lon="11.3404133"><ele>213.0</ele><time>2026-03-28T09:06:43.084Z</time></trkpt><trkpt lat="45.7155833" lon="11.340215"><ele>213.0</ele><time>2026-03-28T09:06:44.084Z</time></trkpt><trkpt lat="45.7155783" lon="11.340025"><ele>213.0</ele><time>2026-03-28T09:06:45.084Z</time></trkpt><trkpt lat="45.715565" lon="11.3398417"><ele>213.0</ele><time>2026-03-28T09:06:46.083Z</time></trkpt><trkpt lat="45.7155517" lon="11.3396683"><ele>213.75</ele><time>2026-03-28T09:06:47.084Z</time></trkpt><trkpt lat="45.7155333" lon="11.3394833"><ele>214.5</ele><time>2026-03-28T09:06:48.084Z</time></trkpt><trkpt lat="45.7155167" lon="11.3392983"><ele>215.25</ele><time>2026-03-28T09:06:49.084Z</time></trkpt><trkpt lat="45.71551" lon="11.339135"><ele>216.0</ele><time>2026-03-28T09:06:50.083Z</time></trkpt><trkpt lat="45.7154967" lon="11.3389867"><ele>216.5</ele><time>2026-03-28T09:06:51.083Z</time></trkpt><trkpt lat="45.7154867" lon="11.3388567"><ele>217.0</ele><time>2026-03-28T09:06:52.084Z</time></trkpt><trkpt lat="45.71547" lon="11.338735"><ele>217.5</ele><time>2026-03-28T09:06:53.083Z</time></trkpt><trkpt lat="45.7154617" lon="11.3386233"><ele>218.0</ele><time>2026-03-28T09:06:54.084Z</time></trkpt><trkpt lat="45.7154483" lon="11.3385167"><ele>218.5</ele><time>2026-03-28T09:06:55.083Z</time></trkpt><trkpt lat="45.7154383" lon="11.3384117"><ele>219.0</ele><time>2026-03-28T09:06:56.083Z</time></trkpt><trkpt lat="45.71543" lon="11.3383033"><ele>219.0</ele><time>2026-03-28T09:06:57.084Z</time></trkpt><trkpt lat="45.7154283" lon="11.3382017"><ele>219.0</ele><time>2026-03-28T09:06:58.084Z</time></trkpt><trkpt lat="45.7154233" lon="11.3381033"><ele>219.0</ele><time>2026-03-28T09:06:59.084Z</time></trkpt><trkpt lat="45.715405" lon="11.33792"><ele>219.0</ele><time>2026-03-28T09:07:01.084Z</time></trkpt><trkpt lat="45.7153933" lon="11.3378083"><ele>219.0</ele><time>2026-03-28T09:07:02.084Z</time></trkpt><trkpt lat="45.7153783" lon="11.3376833"><ele>219.0</ele><time>2026-03-28T09:07:03.083Z</time></trkpt><trkpt lat="45.7153683" lon="11.337535"><ele>219.25</ele><time>2026-03-28T09:07:04.083Z</time></trkpt><trkpt lat="45.7153633" lon="11.3373667"><ele>219.5</ele><time>2026-03-28T09:07:05.084Z</time></trkpt><trkpt lat="45.71536" lon="11.3371883"><ele>219.75</ele><time>2026-03-28T09:07:06.084Z</time></trkpt><trkpt lat="45.71534" lon="11.337015"><ele>220.0</ele><time>2026-03-28T09:07:07.083Z</time></trkpt><trkpt lat="45.7153217" lon="11.3368417"><ele>220.5</ele><time>2026-03-28T09:07:08.084Z</time></trkpt><trkpt lat="45.7153133" lon="11.33666"><ele>221.0</ele><time>2026-03-28T09:07:09.083Z</time></trkpt><trkpt lat="45.7153" lon="11.33647"><ele>221.5</ele><time>2026-03-28T09:07:10.083Z</time></trkpt><trkpt lat="45.71529" lon="11.33628"><ele>222.0</ele><time>2026-03-28T09:07:11.084Z</time></trkpt><trkpt lat="45.7152767" lon="11.336095"><ele>222.25</ele><time>2026-03-28T09:07:12.083Z</time></trkpt><trkpt lat="45.7152767" lon="11.3359117"><ele>222.5</ele><time>2026-03-28T09:07:13.084Z</time></trkpt><trkpt lat="45.7152717" lon="11.33573"><ele>222.75</ele><time>2026-03-28T09:07:14.083Z</time></trkpt><trkpt lat="45.7152633" lon="11.3355667"><ele>223.0</ele><time>2026-03-28T09:07:15.084Z</time></trkpt><trkpt lat="45.71526" lon="11.3354117"><ele>223.0</ele><time>2026-03-28T09:07:16.084Z</time></trkpt><trkpt lat="45.7152617" lon="11.335265"><ele>223.0</ele><time>2026-03-28T09:07:17.084Z</time></trkpt><trkpt lat="45.7152467" lon="11.3351233"><ele>223.0</ele><time>2026-03-28T09:07:18.084Z</time></trkpt><trkpt lat="45.7152383" lon="11.334985"><ele>223.0</ele><time>2026-03-28T09:07:19.083Z</time></trkpt><trkpt lat="45.7152217" lon="11.33484"><ele>223.0</ele><time>2026-03-28T09:07:20.083Z</time></trkpt><trkpt lat="45.71521" lon="11.3346967"><ele>222.2</ele><time>2026-03-28T09:07:21.084Z</time></trkpt><trkpt lat="45.7151967" lon="11.3345533"><ele>221.4</ele><time>2026-03-28T09:07:22.083Z</time></trkpt><trkpt lat="45.7151867" lon="11.3344"><ele>220.59999999999997</ele><time>2026-03-28T09:07:23.083Z</time></trkpt><trkpt lat="45.71518" lon="11.3342567"><ele>219.79999999999998</ele><time>2026-03-28T09:07:24.084Z</time></trkpt><trkpt lat="45.7151733" lon="11.3341133"><ele>219.0</ele><time>2026-03-28T09:07:25.083Z</time></trkpt><trkpt lat="45.7151633" lon="11.3339833"><ele>218.83333333333334</ele><time>2026-03-28T09:07:26.084Z</time></trkpt><trkpt lat="45.7151467" lon="11.3338633"><ele>218.66666666666669</ele><time>2026-03-28T09:07:27.083Z</time></trkpt><trkpt lat="45.7151217" lon="11.3337667"><ele>218.5</ele><time>2026-03-28T09:07:28.084Z</time></trkpt><trkpt lat="45.7151183" lon="11.3336683"><ele>218.33333333333334</ele><time>2026-03-28T09:07:29.084Z</time></trkpt><trkpt lat="45.715115" lon="11.3335633"><ele>218.16666666666669</ele><time>2026-03-28T09:07:30.084Z</time></trkpt><trkpt lat="45.7151117" lon="11.33345"><ele>218.0</ele><time>2026-03-28T09:07:31.083Z</time></trkpt><trkpt lat="45.7151217" lon="11.3333433"><ele>218.00000000000003</ele><time>2026-03-28T09:07:32.083Z</time></trkpt><trkpt lat="45.715135" lon="11.3332417"><ele>218.0</ele><time>2026-03-28T09:07:33.084Z</time></trkpt><trkpt lat="45.7151367" lon="11.33315"><ele>218.0</ele><time>2026-03-28T09:07:34.084Z</time></trkpt><trkpt lat="45.71509" lon="11.33301"><ele>218.0</ele><time>2026-03-28T09:07:36.084Z</time></trkpt><trkpt lat="45.7150233" lon="11.3329817"><ele>218.00000000000003</ele><time>2026-03-28T09:07:37.084Z</time></trkpt><trkpt lat="45.7149433" lon="11.332985"><ele>218.0</ele><time>2026-03-28T09:07:38.083Z</time></trkpt><trkpt lat="45.71486" lon="11.3330133"><ele>218.0</ele><time>2026-03-28T09:07:39.084Z</time></trkpt><trkpt lat="45.7147633" lon="11.3330433"><ele>218.0</ele><time>2026-03-28T09:07:40.083Z</time></trkpt><trkpt lat="45.7146717" lon="11.3330567"><ele>218.0</ele><time>2026-03-28T09:07:41.084Z</time></trkpt><trkpt lat="45.714585" lon="11.3330633"><ele>218.0</ele><time>2026-03-28T09:07:42.084Z</time></trkpt><trkpt lat="45.7144917" lon="11.333055"><ele>218.0</ele><time>2026-03-28T09:07:43.084Z</time></trkpt><trkpt lat="45.714395" lon="11.33305"><ele>217.8</ele><time>2026-03-28T09:07:44.084Z</time></trkpt><trkpt lat="45.7142967" lon="11.333035"><ele>217.60000000000002</ele><time>2026-03-28T09:07:45.084Z</time></trkpt><trkpt lat="45.7141967" lon="11.3330167"><ele>217.39999999999998</ele><time>2026-03-28T09:07:46.084Z</time></trkpt><trkpt lat="45.714105" lon="11.3329967"><ele>217.2</ele><time>2026-03-28T09:07:47.084Z</time></trkpt><trkpt lat="45.71401" lon="11.3329533"><ele>217.0</ele><time>2026-03-28T09:07:48.084Z</time></trkpt><trkpt lat="45.7139267" lon="11.3328817"><ele>217.0</ele><time>2026-03-28T09:07:49.083Z</time></trkpt><trkpt lat="45.7138433" lon="11.332795"><ele>217.0</ele><time>2026-03-28T09:07:50.084Z</time></trkpt><trkpt lat="45.713755" lon="11.33272"><ele>217.0</ele><time>2026-03-28T09:07:51.084Z</time></trkpt><trkpt lat="45.7136717" lon="11.332655"><ele>217.0</ele><time>2026-03-28T09:07:52.084Z</time></trkpt><trkpt lat="45.7135917" lon="11.3325783"><ele>217.0</ele><time>2026-03-28T09:07:53.084Z</time></trkpt><trkpt lat="45.7135283" lon="11.3324833"><ele>216.8</ele><time>2026-03-28T09:07:54.083Z</time></trkpt><trkpt lat="45.7134917" lon="11.332355"><ele>216.6</ele><time>2026-03-28T09:07:55.084Z</time></trkpt><trkpt lat="45.7134867" lon="11.3322067"><ele>216.40000000000003</ele><time>2026-03-28T09:07:56.083Z</time></trkpt><trkpt lat="45.7135033" lon="11.33205"><ele>216.20000000000002</ele><time>2026-03-28T09:07:57.084Z</time></trkpt><trkpt lat="45.7135317" lon="11.3318733"><ele>216.0</ele><time>2026-03-28T09:07:58.084Z</time></trkpt><trkpt lat="45.7135567" lon="11.3316767"><ele>217.0</ele><time>2026-03-28T09:07:59.083Z</time></trkpt><trkpt lat="45.7135867" lon="11.3314617"><ele>218.0</ele><time>2026-03-28T09:08:00.083Z</time></trkpt><trkpt lat="45.7136233" lon="11.3312317"><ele>219.0</ele><time>2026-03-28T09:08:01.083Z</time></trkpt><trkpt lat="45.713645" lon="11.3309833"><ele>219.0</ele><time>2026-03-28T09:08:02.083Z</time></trkpt><trkpt lat="45.7136583" lon="11.33071"><ele>219.0</ele><time>2026-03-28T09:08:03.083Z</time></trkpt><trkpt lat="45.713665" lon="11.33042"><ele>219.0</ele><time>2026-03-28T09:08:04.084Z</time></trkpt><trkpt lat="45.7136667" lon="11.330115"><ele>220.0</ele><time>2026-03-28T09:08:05.084Z</time></trkpt><trkpt lat="45.7136567" lon="11.3297867"><ele>221.0</ele><time>2026-03-28T09:08:06.084Z</time></trkpt><trkpt lat="45.71365" lon="11.329445"><ele>221.0</ele><time>2026-03-28T09:08:07.084Z</time></trkpt><trkpt lat="45.7136433" lon="11.3290783"><ele>221.0</ele><time>2026-03-28T09:08:08.084Z</time></trkpt><trkpt lat="45.7136533" lon="11.3287017"><ele>221.0</ele><time>2026-03-28T09:08:09.083Z</time></trkpt><trkpt lat="45.7136717" lon="11.3283283"><ele>221.0</ele><time>2026-03-28T09:08:10.084Z</time></trkpt><trkpt lat="45.713705" lon="11.3279583"><ele>221.0</ele><time>2026-03-28T09:08:11.083Z</time></trkpt><trkpt lat="45.71374" lon="11.3275767"><ele>221.0</ele><time>2026-03-28T09:08:12.084Z</time></trkpt><trkpt lat="45.7137817" lon="11.3272033"><ele>221.0</ele><time>2026-03-28T09:08:13.084Z</time></trkpt><trkpt lat="45.7138117" lon="11.3268283"><ele>221.0</ele><time>2026-03-28T09:08:14.084Z</time></trkpt><trkpt lat="45.713835" lon="11.3264833"><ele>222.0</ele><time>2026-03-28T09:08:15.084Z</time></trkpt><trkpt lat="45.7138467" lon="11.326135"><ele>223.0</ele><time>2026-03-28T09:08:16.084Z</time></trkpt><trkpt lat="45.71385" lon="11.32578"><ele>224.0</ele><time>2026-03-28T09:08:17.084Z</time></trkpt><trkpt lat="45.7138433" lon="11.3254317"><ele>225.0</ele><time>2026-03-28T09:08:18.084Z</time></trkpt><trkpt lat="45.7138383" lon="11.3250817"><ele>225.0</ele><time>2026-03-28T09:08:19.083Z</time></trkpt><trkpt lat="45.7138283" lon="11.3247333"><ele>225.0</ele><time>2026-03-28T09:08:20.084Z</time></trkpt><trkpt lat="45.71382" lon="11.3243883"><ele>225.5</ele><time>2026-03-28T09:08:21.084Z</time></trkpt><trkpt lat="45.713825" lon="11.3240517"><ele>226.0</ele><time>2026-03-28T09:08:22.084Z</time></trkpt><trkpt lat="45.7138267" lon="11.323705"><ele>226.0</ele><time>2026-03-28T09:08:23.084Z</time></trkpt><trkpt lat="45.7138133" lon="11.3233517"><ele>226.0</ele><time>2026-03-28T09:08:24.083Z</time></trkpt><trkpt lat="45.7138" lon="11.3230083"><ele>226.0</ele><time>2026-03-28T09:08:25.084Z</time></trkpt><trkpt lat="45.71379" lon="11.322695"><ele>226.0</ele><time>2026-03-28T09:08:26.084Z</time></trkpt><trkpt lat="45.7137783" lon="11.3223933"><ele>226.0</ele><time>2026-03-28T09:08:27.083Z</time></trkpt><trkpt lat="45.713755" lon="11.3221117"><ele>226.33333333333331</ele><time>2026-03-28T09:08:28.084Z</time></trkpt><trkpt lat="45.7137417" lon="11.3218617"><ele>226.66666666666669</ele><time>2026-03-28T09:08:29.084Z</time></trkpt><trkpt lat="45.7137283" lon="11.3216283"><ele>227.0</ele><time>2026-03-28T09:08:30.083Z</time></trkpt><trkpt lat="45.7137083" lon="11.3213983"><ele>227.0</ele><time>2026-03-28T09:08:31.083Z</time></trkpt><trkpt lat="45.7137033" lon="11.3211717"><ele>227.0</ele><time>2026-03-28T09:08:32.084Z</time></trkpt><trkpt lat="45.7137033" lon="11.3209433"><ele>227.0</ele><time>2026-03-28T09:08:33.083Z</time></trkpt><trkpt lat="45.713695" lon="11.3207067"><ele>227.33333333333334</ele><time>2026-03-28T09:08:34.084Z</time></trkpt><trkpt lat="45.713695" lon="11.320465"><ele>227.66666666666669</ele><time>2026-03-28T09:08:35.084Z</time></trkpt><trkpt lat="45.7137133" lon="11.3202217"><ele>228.0</ele><time>2026-03-28T09:08:36.083Z</time></trkpt><trkpt lat="45.7137267" lon="11.3199783"><ele>229.66666666666669</ele><time>2026-03-28T09:08:37.084Z</time></trkpt><trkpt lat="45.7137483" lon="11.3197283"><ele>231.33333333333334</ele><time>2026-03-28T09:08:38.084Z</time></trkpt><trkpt lat="45.71378" lon="11.319475"><ele>233.0</ele><time>2026-03-28T09:08:39.083Z</time></trkpt><trkpt lat="45.71382" lon="11.3192333"><ele>233.0</ele><time>2026-03-28T09:08:40.084Z</time></trkpt><trkpt lat="45.7138533" lon="11.319"><ele>233.0</ele><time>2026-03-28T09:08:41.084Z</time></trkpt><trkpt lat="45.7138733" lon="11.318755"><ele>233.0</ele><time>2026-03-28T09:08:42.084Z</time></trkpt><trkpt lat="45.7138633" lon="11.3185"><ele>234.0</ele><time>2026-03-28T09:08:43.084Z</time></trkpt><trkpt lat="45.7138283" lon="11.31825"><ele>235.0</ele><time>2026-03-28T09:08:44.083Z</time></trkpt><trkpt lat="45.7137833" lon="11.31801"><ele>236.0</ele><time>2026-03-28T09:08:45.084Z</time></trkpt><trkpt lat="45.7137417" lon="11.317765"><ele>237.0</ele><time>2026-03-28T09:08:46.084Z</time></trkpt><trkpt lat="45.7136983" lon="11.31753"><ele>238.0</ele><time>2026-03-28T09:08:47.084Z</time></trkpt><trkpt lat="45.71366" lon="11.3173083"><ele>239.0</ele><time>2026-03-28T09:08:48.084Z</time></trkpt><trkpt lat="45.7136267" lon="11.317095"><ele>239.0</ele><time>2026-03-28T09:08:49.084Z</time></trkpt><trkpt lat="45.7135983" lon="11.3168917"><ele>239.0</ele><time>2026-03-28T09:08:50.084Z</time></trkpt><trkpt lat="45.7135767" lon="11.3166783"><ele>239.0</ele><time>2026-03-28T09:08:51.083Z</time></trkpt><trkpt lat="45.7135517" lon="11.3164433"><ele>238.0</ele><time>2026-03-28T09:08:52.084Z</time></trkpt><trkpt lat="45.71355" lon="11.3162017"><ele>237.0</ele><time>2026-03-28T09:08:53.084Z</time></trkpt><trkpt lat="45.7135617" lon="11.3159383"><ele>236.0</ele><time>2026-03-28T09:08:54.084Z</time></trkpt><trkpt lat="45.7135867" lon="11.3156733"><ele>235.66666666666669</ele><time>2026-03-28T09:08:55.084Z</time></trkpt><trkpt lat="45.713625" lon="11.3153917"><ele>235.33333333333331</ele><time>2026-03-28T09:08:56.084Z</time></trkpt><trkpt lat="45.7136967" lon="11.3150983"><ele>235.0</ele><time>2026-03-28T09:08:57.083Z</time></trkpt><trkpt lat="45.7137883" lon="11.3147933"><ele>234.33333333333331</ele><time>2026-03-28T09:08:58.083Z</time></trkpt><trkpt lat="45.713895" lon="11.3145117"><ele>233.66666666666669</ele><time>2026-03-28T09:08:59.083Z</time></trkpt><trkpt lat="45.714005" lon="11.314255"><ele>233.0</ele><time>2026-03-28T09:09:00.084Z</time></trkpt><trkpt lat="45.7140933" lon="11.314"><ele>233.66666666666669</ele><time>2026-03-28T09:09:01.084Z</time></trkpt><trkpt lat="45.7141633" lon="11.3137317"><ele>234.33333333333331</ele><time>2026-03-28T09:09:02.083Z</time></trkpt><trkpt lat="45.7142183" lon="11.313445"><ele>235.0</ele><time>2026-03-28T09:09:03.083Z</time></trkpt><trkpt lat="45.714285" lon="11.313155"><ele>236.0</ele><time>2026-03-28T09:09:04.084Z</time></trkpt><trkpt lat="45.71435" lon="11.3128683"><ele>237.0</ele><time>2026-03-28T09:09:05.084Z</time></trkpt><trkpt lat="45.714405" lon="11.31261"><ele>238.0</ele><time>2026-03-28T09:09:06.084Z</time></trkpt><trkpt lat="45.7144567" lon="11.31238"><ele>237.66666666666666</ele><time>2026-03-28T09:09:07.083Z</time></trkpt><trkpt lat="45.7145067" lon="11.31216"><ele>237.33333333333331</ele><time>2026-03-28T09:09:08.084Z</time></trkpt><trkpt lat="45.7145717" lon="11.3119283"><ele>237.0</ele><time>2026-03-28T09:09:09.084Z</time></trkpt><trkpt lat="45.7146333" lon="11.3117083"><ele>237.0</ele><time>2026-03-28T09:09:10.083Z</time></trkpt><trkpt lat="45.714685" lon="11.311495"><ele>237.0</ele><time>2026-03-28T09:09:11.084Z</time></trkpt><trkpt lat="45.7147233" lon="11.3112733"><ele>237.0</ele><time>2026-03-28T09:09:12.084Z</time></trkpt><trkpt lat="45.7147617" lon="11.3110633"><ele>237.5</ele><time>2026-03-28T09:09:13.084Z</time></trkpt><trkpt lat="45.7148" lon="11.3108567"><ele>238.0</ele><time>2026-03-28T09:09:14.083Z</time></trkpt><trkpt lat="45.7148433" lon="11.3106533"><ele>238.5</ele><time>2026-03-28T09:09:15.084Z</time></trkpt><trkpt lat="45.7148967" lon="11.3104533"><ele>239.0</ele><time>2026-03-28T09:09:16.083Z</time></trkpt><trkpt lat="45.714955" lon="11.3102583"><ele>239.66666666666669</ele><time>2026-03-28T09:09:17.084Z</time></trkpt><trkpt lat="45.71503" lon="11.3100817"><ele>240.33333333333331</ele><time>2026-03-28T09:09:18.084Z</time></trkpt><trkpt lat="45.7151217" lon="11.309905"><ele>241.0</ele><time>2026-03-28T09:09:19.084Z</time></trkpt><trkpt lat="45.715225" lon="11.3097317"><ele>241.66666666666666</ele><time>2026-03-28T09:09:20.083Z</time></trkpt><trkpt lat="45.7153633" lon="11.3095583"><ele>242.33333333333331</ele><time>2026-03-28T09:09:21.083Z</time></trkpt><trkpt lat="45.7155233" lon="11.30939"><ele>243.0</ele><time>2026-03-28T09:09:22.083Z</time></trkpt><trkpt lat="45.7156883" lon="11.3092233"><ele>243.0</ele><time>2026-03-28T09:09:23.084Z</time></trkpt><trkpt lat="45.7158517" lon="11.30904"><ele>243.0</ele><time>2026-03-28T09:09:24.084Z</time></trkpt><trkpt lat="45.7160167" lon="11.3088467"><ele>243.0</ele><time>2026-03-28T09:09:25.084Z</time></trkpt><trkpt lat="45.71617" lon="11.3086417"><ele>243.66666666666669</ele><time>2026-03-28T09:09:26.084Z</time></trkpt><trkpt lat="45.7163317" lon="11.3084367"><ele>244.33333333333334</ele><time>2026-03-28T09:09:27.084Z</time></trkpt><trkpt lat="45.7164883" lon="11.3082333"><ele>245.0</ele><time>2026-03-28T09:09:28.084Z</time></trkpt><trkpt lat="45.7166367" lon="11.30803"><ele>245.33333333333334</ele><time>2026-03-28T09:09:29.084Z</time></trkpt><trkpt lat="45.7167817" lon="11.30783"><ele>245.66666666666669</ele><time>2026-03-28T09:09:30.084Z</time></trkpt><trkpt lat="45.716905" lon="11.3076017"><ele>246.0</ele><time>2026-03-28T09:09:31.084Z</time></trkpt><trkpt lat="45.7170233" lon="11.3073717"><ele>246.0</ele><time>2026-03-28T09:09:32.084Z</time></trkpt><trkpt lat="45.7171317" lon="11.30714"><ele>246.0</ele><time>2026-03-28T09:09:33.084Z</time></trkpt><trkpt lat="45.7172433" lon="11.3069267"><ele>246.0</ele><time>2026-03-28T09:09:34.084Z</time></trkpt><trkpt lat="45.7173567" lon="11.30671"><ele>246.0</ele><time>2026-03-28T09:09:35.083Z</time></trkpt><trkpt lat="45.7174783" lon="11.306515"><ele>246.0</ele><time>2026-03-28T09:09:36.084Z</time></trkpt><trkpt lat="45.7176383" lon="11.3063417"><ele>246.0</ele><time>2026-03-28T09:09:37.084Z</time></trkpt><trkpt lat="45.7178033" lon="11.3062"><ele>248.66666666666669</ele><time>2026-03-28T09:09:38.084Z</time></trkpt><trkpt lat="45.717975" lon="11.3060567"><ele>251.33333333333334</ele><time>2026-03-28T09:09:39.083Z</time></trkpt><trkpt lat="45.7181283" lon="11.3058933"><ele>254.0</ele><time>2026-03-28T09:09:40.083Z</time></trkpt><trkpt lat="45.7182633" lon="11.3056917"><ele>254.33333333333334</ele><time>2026-03-28T09:09:41.084Z</time></trkpt><trkpt lat="45.718365" lon="11.3054383"><ele>254.66666666666669</ele><time>2026-03-28T09:09:42.084Z</time></trkpt><trkpt lat="45.71844" lon="11.3051317"><ele>255.0</ele><time>2026-03-28T09:09:43.084Z</time></trkpt><trkpt lat="45.7185117" lon="11.3048183"><ele>259.3333333333333</ele><time>2026-03-28T09:09:44.084Z</time></trkpt><trkpt lat="45.71859" lon="11.3045167"><ele>263.66666666666663</ele><time>2026-03-28T09:09:45.084Z</time></trkpt><trkpt lat="45.7186567" lon="11.3042383"><ele>268.0</ele><time>2026-03-28T09:09:46.083Z</time></trkpt><trkpt lat="45.7187167" lon="11.30397"><ele>268.0</ele><time>2026-03-28T09:09:47.084Z</time></trkpt><trkpt lat="45.7187717" lon="11.303715"><ele>268.0</ele><time>2026-03-28T09:09:48.084Z</time></trkpt><trkpt lat="45.718825" lon="11.3034817"><ele>268.0</ele><time>2026-03-28T09:09:49.083Z</time></trkpt><trkpt lat="45.7188783" lon="11.3032517"><ele>268.66666666666663</ele><time>2026-03-28T09:09:50.084Z</time></trkpt><trkpt lat="45.7189283" lon="11.3030317"><ele>269.3333333333333</ele><time>2026-03-28T09:09:51.084Z</time></trkpt><trkpt lat="45.71898" lon="11.3028217"><ele>270.0</ele><time>2026-03-28T09:09:52.084Z</time></trkpt><trkpt lat="45.719035" lon="11.3026333"><ele>270.0</ele><time>2026-03-28T09:09:53.084Z</time></trkpt><trkpt lat="45.719085" lon="11.30245"><ele>270.0</ele><time>2026-03-28T09:09:54.083Z</time></trkpt><trkpt lat="45.71914" lon="11.3022733"><ele>270.0</ele><time>2026-03-28T09:09:55.084Z</time></trkpt><trkpt lat="45.7192" lon="11.3020883"><ele>270.0</ele><time>2026-03-28T09:09:56.084Z</time></trkpt><trkpt lat="45.7192367" lon="11.3019033"><ele>270.3333333333333</ele><time>2026-03-28T09:09:57.083Z</time></trkpt><trkpt lat="45.7192467" lon="11.3016967"><ele>270.66666666666663</ele><time>2026-03-28T09:09:58.083Z</time></trkpt><trkpt lat="45.7192433" lon="11.301475"><ele>271.0</ele><time>2026-03-28T09:09:59.084Z</time></trkpt><trkpt lat="45.7192317" lon="11.301255"><ele>271.0</ele><time>2026-03-28T09:10:00.084Z</time></trkpt><trkpt lat="45.719215" lon="11.30104"><ele>271.0</ele><time>2026-03-28T09:10:01.084Z</time></trkpt><trkpt lat="45.7191833" lon="11.3008267"><ele>271.0</ele><time>2026-03-28T09:10:02.084Z</time></trkpt><trkpt lat="45.7191583" lon="11.300625"><ele>271.0</ele><time>2026-03-28T09:10:03.084Z</time></trkpt><trkpt lat="45.7191317" lon="11.3004317"><ele>271.5</ele><time>2026-03-28T09:10:04.084Z</time></trkpt><trkpt lat="45.7191217" lon="11.3002283"><ele>272.0</ele><time>2026-03-28T09:10:05.083Z</time></trkpt><trkpt lat="45.7191033" lon="11.3000267"><ele>272.5</ele><time>2026-03-28T09:10:06.084Z</time></trkpt><trkpt lat="45.7191" lon="11.2998183"><ele>273.0</ele><time>2026-03-28T09:10:07.083Z</time></trkpt><trkpt lat="45.7191033" lon="11.299615"><ele>274.25</ele><time>2026-03-28T09:10:08.084Z</time></trkpt><trkpt lat="45.7191133" lon="11.299415"><ele>275.5</ele><time>2026-03-28T09:10:09.084Z</time></trkpt><trkpt lat="45.7191167" lon="11.2992133"><ele>276.75</ele><time>2026-03-28T09:10:10.083Z</time></trkpt><trkpt lat="45.71912" lon="11.2990067"><ele>278.0</ele><time>2026-03-28T09:10:11.083Z</time></trkpt><trkpt lat="45.7191083" lon="11.2988033"><ele>278.25</ele><time>2026-03-28T09:10:12.084Z</time></trkpt><trkpt lat="45.71909" lon="11.298615"><ele>278.5</ele><time>2026-03-28T09:10:13.083Z</time></trkpt><trkpt lat="45.71906" lon="11.29842"><ele>278.75</ele><time>2026-03-28T09:10:14.084Z</time></trkpt><trkpt lat="45.71903" lon="11.2982283"><ele>279.0</ele><time>2026-03-28T09:10:15.084Z</time></trkpt><trkpt lat="45.7190117" lon="11.298035"><ele>280.75</ele><time>2026-03-28T09:10:16.084Z</time></trkpt><trkpt lat="45.7189967" lon="11.297845"><ele>282.5</ele><time>2026-03-28T09:10:17.084Z</time></trkpt><trkpt lat="45.719" lon="11.2976567"><ele>284.25</ele><time>2026-03-28T09:10:18.084Z</time></trkpt><trkpt lat="45.7190133" lon="11.2974633"><ele>286.0</ele><time>2026-03-28T09:10:19.084Z</time></trkpt><trkpt lat="45.7190083" lon="11.2972683"><ele>286.0</ele><time>2026-03-28T09:10:20.083Z</time></trkpt><trkpt lat="45.7189767" lon="11.29707"><ele>286.0</ele><time>2026-03-28T09:10:21.084Z</time></trkpt><trkpt lat="45.7189433" lon="11.2968733"><ele>286.0</ele><time>2026-03-28T09:10:22.084Z</time></trkpt><trkpt lat="45.71891" lon="11.29667"><ele>286.0</ele><time>2026-03-28T09:10:23.083Z</time></trkpt><trkpt lat="45.7188667" lon="11.2964733"><ele>286.25</ele><time>2026-03-28T09:10:24.083Z</time></trkpt><trkpt lat="45.718825" lon="11.2962683"><ele>286.5</ele><time>2026-03-28T09:10:25.084Z</time></trkpt><trkpt lat="45.7187767" lon="11.2960733"><ele>286.75</ele><time>2026-03-28T09:10:26.084Z</time></trkpt><trkpt lat="45.7187333" lon="11.2958817"><ele>287.0</ele><time>2026-03-28T09:10:27.084Z</time></trkpt><trkpt lat="45.7186967" lon="11.29568"><ele>288.25</ele><time>2026-03-28T09:10:28.084Z</time></trkpt><trkpt lat="45.71868" lon="11.2954717"><ele>289.5</ele><time>2026-03-28T09:10:29.084Z</time></trkpt><trkpt lat="45.718675" lon="11.2952617"><ele>290.75</ele><time>2026-03-28T09:10:30.084Z</time></trkpt><trkpt lat="45.7186733" lon="11.2950567"><ele>292.0</ele><time>2026-03-28T09:10:31.083Z</time></trkpt><trkpt lat="45.7186767" lon="11.294845"><ele>291.66666666666663</ele><time>2026-03-28T09:10:32.084Z</time></trkpt><trkpt lat="45.71868" lon="11.294625"><ele>291.3333333333333</ele><time>2026-03-28T09:10:33.084Z</time></trkpt><trkpt lat="45.71869" lon="11.2943967"><ele>291.0</ele><time>2026-03-28T09:10:34.083Z</time></trkpt><trkpt lat="45.7187033" lon="11.29417"><ele>291.0</ele><time>2026-03-28T09:10:35.084Z</time></trkpt><trkpt lat="45.7187083" lon="11.2939417"><ele>291.0</ele><time>2026-03-28T09:10:36.084Z</time></trkpt><trkpt lat="45.7187133" lon="11.2937267"><ele>291.0</ele><time>2026-03-28T09:10:37.084Z</time></trkpt><trkpt lat="45.7187167" lon="11.2934633"><ele>288.3333333333333</ele><time>2026-03-28T09:10:38.084Z</time></trkpt><trkpt lat="45.7187283" lon="11.2932183"><ele>285.66666666666663</ele><time>2026-03-28T09:10:39.084Z</time></trkpt><trkpt lat="45.718745" lon="11.2929733"><ele>283.0</ele><time>2026-03-28T09:10:40.084Z</time></trkpt><trkpt lat="45.7187667" lon="11.2927383"><ele>281.66666666666663</ele><time>2026-03-28T09:10:41.084Z</time></trkpt><trkpt lat="45.71877" lon="11.2924917"><ele>280.3333333333333</ele><time>2026-03-28T09:10:42.084Z</time></trkpt><trkpt lat="45.7187917" lon="11.2922533"><ele>279.0</ele><time>2026-03-28T09:10:43.084Z</time></trkpt><trkpt lat="45.7188083" lon="11.2920167"><ele>278.0</ele><time>2026-03-28T09:10:44.084Z</time></trkpt><trkpt lat="45.718835" lon="11.2917833"><ele>277.0</ele><time>2026-03-28T09:10:45.084Z</time></trkpt><trkpt lat="45.71886" lon="11.2915617"><ele>276.0</ele><time>2026-03-28T09:10:46.084Z</time></trkpt><trkpt lat="45.718895" lon="11.29135"><ele>274.6666666666667</ele><time>2026-03-28T09:10:47.084Z</time></trkpt><trkpt lat="45.7189617" lon="11.2911583"><ele>273.33333333333337</ele><time>2026-03-28T09:10:48.083Z</time></trkpt><trkpt lat="45.71904" lon="11.2909683"><ele>272.0</ele><time>2026-03-28T09:10:49.083Z</time></trkpt><trkpt lat="45.719145" lon="11.2908"><ele>272.0</ele><time>2026-03-28T09:10:50.084Z</time></trkpt><trkpt lat="45.7192583" lon="11.2906383"><ele>272.0</ele><time>2026-03-28T09:10:51.084Z</time></trkpt><trkpt lat="45.719385" lon="11.2904783"><ele>272.0</ele><time>2026-03-28T09:10:52.084Z</time></trkpt><trkpt lat="45.719515" lon="11.290315"><ele>273.6666666666667</ele><time>2026-03-28T09:10:53.083Z</time></trkpt><trkpt lat="45.71965" lon="11.290155"><ele>275.3333333333333</ele><time>2026-03-28T09:10:54.083Z</time></trkpt><trkpt lat="45.71978" lon="11.28999"><ele>277.0</ele><time>2026-03-28T09:10:55.084Z</time></trkpt><trkpt lat="45.719905" lon="11.2898333"><ele>276.0</ele><time>2026-03-28T09:10:56.084Z</time></trkpt><trkpt lat="45.720025" lon="11.289675"><ele>275.0</ele><time>2026-03-28T09:10:57.084Z</time></trkpt><trkpt lat="45.7201383" lon="11.2895283"><ele>274.0</ele><time>2026-03-28T09:10:58.084Z</time></trkpt><trkpt lat="45.720265" lon="11.2893667"><ele>275.0</ele><time>2026-03-28T09:10:59.084Z</time></trkpt><trkpt lat="45.7203883" lon="11.2892067"><ele>276.0</ele><time>2026-03-28T09:11:00.084Z</time></trkpt><trkpt lat="45.7205133" lon="11.2890517"><ele>277.0</ele><time>2026-03-28T09:11:01.083Z</time></trkpt><trkpt lat="45.720615" lon="11.2888783"><ele>277.0</ele><time>2026-03-28T09:11:02.084Z</time></trkpt><trkpt lat="45.7207317" lon="11.288695"><ele>277.0</ele><time>2026-03-28T09:11:03.083Z</time></trkpt><trkpt lat="45.7208317" lon="11.288505"><ele>277.0</ele><time>2026-03-28T09:11:04.084Z</time></trkpt><trkpt lat="45.7209233" lon="11.2882983"><ele>275.66666666666663</ele><time>2026-03-28T09:11:05.084Z</time></trkpt><trkpt lat="45.7210133" lon="11.288085"><ele>274.3333333333333</ele><time>2026-03-28T09:11:06.084Z</time></trkpt><trkpt lat="45.7211117" lon="11.2878667"><ele>273.0</ele><time>2026-03-28T09:11:07.084Z</time></trkpt><trkpt lat="45.72121" lon="11.287635"><ele>277.3333333333333</ele><time>2026-03-28T09:11:08.083Z</time></trkpt><trkpt lat="45.7213083" lon="11.287405"><ele>281.66666666666663</ele><time>2026-03-28T09:11:09.084Z</time></trkpt><trkpt lat="45.7214017" lon="11.287185"><ele>286.0</ele><time>2026-03-28T09:11:10.083Z</time></trkpt><trkpt lat="45.7214917" lon="11.2869717"><ele>286.0</ele><time>2026-03-28T09:11:11.083Z</time></trkpt><trkpt lat="45.721585" lon="11.286765"><ele>286.0</ele><time>2026-03-28T09:11:12.084Z</time></trkpt><trkpt lat="45.721675" lon="11.2865633"><ele>286.0</ele><time>2026-03-28T09:11:13.084Z</time></trkpt><trkpt lat="45.7217583" lon="11.2863583"><ele>285.66666666666663</ele><time>2026-03-28T09:11:14.084Z</time></trkpt><trkpt lat="45.72184" lon="11.2861383"><ele>285.3333333333333</ele><time>2026-03-28T09:11:15.083Z</time></trkpt><trkpt lat="45.721915" lon="11.2859133"><ele>285.0</ele><time>2026-03-28T09:11:16.084Z</time></trkpt><trkpt lat="45.7219767" lon="11.2856683"><ele>297.0</ele><time>2026-03-28T09:11:17.083Z</time></trkpt><trkpt lat="45.722035" lon="11.285425"><ele>309.0</ele><time>2026-03-28T09:11:18.084Z</time></trkpt><trkpt lat="45.72208" lon="11.2851767"><ele>321.0</ele><time>2026-03-28T09:11:19.084Z</time></trkpt><trkpt lat="45.72212" lon="11.2849467"><ele>318.6666666666667</ele><time>2026-03-28T09:11:20.083Z</time></trkpt><trkpt lat="45.7221517" lon="11.2847033"><ele>316.33333333333337</ele><time>2026-03-28T09:11:21.083Z</time></trkpt><trkpt lat="45.7222" lon="11.2844483"><ele>314.0</ele><time>2026-03-28T09:11:22.084Z</time></trkpt><trkpt lat="45.72226" lon="11.28421"><ele>314.0</ele><time>2026-03-28T09:11:23.084Z</time></trkpt><trkpt lat="45.7223217" lon="11.28397"><ele>314.0</ele><time>2026-03-28T09:11:24.084Z</time></trkpt><trkpt lat="45.7223983" lon="11.2837533"><ele>314.0</ele><time>2026-03-28T09:11:25.084Z</time></trkpt><trkpt lat="45.7224617" lon="11.2835283"><ele>311.0</ele><time>2026-03-28T09:11:26.084Z</time></trkpt><trkpt lat="45.7225267" lon="11.2833367"><ele>308.0</ele><time>2026-03-28T09:11:27.084Z</time></trkpt><trkpt lat="45.7225633" lon="11.2831517"><ele>305.0</ele><time>2026-03-28T09:11:28.084Z</time></trkpt><trkpt lat="45.7226317" lon="11.2830067"><ele>302.0</ele><time>2026-03-28T09:11:29.084Z</time></trkpt><trkpt lat="45.7227467" lon="11.282855"><ele>302.0</ele><time>2026-03-28T09:11:30.084Z</time></trkpt><trkpt lat="45.722875" lon="11.2827183"><ele>302.0</ele><time>2026-03-28T09:11:31.083Z</time></trkpt><trkpt lat="45.7229967" lon="11.2825917"><ele>302.0</ele><time>2026-03-28T09:11:32.083Z</time></trkpt><trkpt lat="45.7230883" lon="11.2824867"><ele>302.0</ele><time>2026-03-28T09:11:33.083Z</time></trkpt><trkpt lat="45.72315" lon="11.2823833"><ele>302.0</ele><time>2026-03-28T09:11:34.084Z</time></trkpt><trkpt lat="45.7231933" lon="11.2822733"><ele>302.0</ele><time>2026-03-28T09:11:35.084Z</time></trkpt><trkpt lat="45.7232233" lon="11.282145"><ele>302.0</ele><time>2026-03-28T09:11:36.084Z</time></trkpt><trkpt lat="45.7232283" lon="11.28199"><ele>302.0</ele><time>2026-03-28T09:11:37.084Z</time></trkpt><trkpt lat="45.723265" lon="11.28183"><ele>302.0</ele><time>2026-03-28T09:11:38.084Z</time></trkpt><trkpt lat="45.72333" lon="11.2816767"><ele>299.6666666666667</ele><time>2026-03-28T09:11:39.083Z</time></trkpt><trkpt lat="45.7234267" lon="11.2815417"><ele>297.3333333333333</ele><time>2026-03-28T09:11:40.084Z</time></trkpt><trkpt lat="45.7235683" lon="11.28143"><ele>295.0</ele><time>2026-03-28T09:11:41.084Z</time></trkpt><trkpt lat="45.723725" lon="11.281325"><ele>295.0</ele><time>2026-03-28T09:11:42.084Z</time></trkpt><trkpt lat="45.7238967" lon="11.2812133"><ele>295.0</ele><time>2026-03-28T09:11:43.084Z</time></trkpt><trkpt lat="45.7240733" lon="11.2811067"><ele>295.0</ele><time>2026-03-28T09:11:44.084Z</time></trkpt><trkpt lat="45.724255" lon="11.28102"><ele>293.0</ele><time>2026-03-28T09:11:45.083Z</time></trkpt><trkpt lat="45.724415" lon="11.2809233"><ele>291.0</ele><time>2026-03-28T09:11:46.083Z</time></trkpt><trkpt lat="45.72457" lon="11.28082"><ele>289.0</ele><time>2026-03-28T09:11:47.083Z</time></trkpt><trkpt lat="45.7247217" lon="11.28071"><ele>289.0</ele><time>2026-03-28T09:11:48.084Z</time></trkpt><trkpt lat="45.7248617" lon="11.2806083"><ele>289.0</ele><time>2026-03-28T09:11:49.083Z</time></trkpt><trkpt lat="45.72501" lon="11.280505"><ele>289.0</ele><time>2026-03-28T09:11:50.084Z</time></trkpt><trkpt lat="45.7251683" lon="11.28041"><ele>291.0</ele><time>2026-03-28T09:11:51.084Z</time></trkpt><trkpt lat="45.7253333" lon="11.28033"><ele>293.0</ele><time>2026-03-28T09:11:52.084Z</time></trkpt><trkpt lat="45.7254983" lon="11.280255"><ele>295.0</ele><time>2026-03-28T09:11:53.084Z</time></trkpt><trkpt lat="45.72566" lon="11.2801983"><ele>295.0</ele><time>2026-03-28T09:11:54.084Z</time></trkpt><trkpt lat="45.7258167" lon="11.2801317"><ele>295.0</ele><time>2026-03-28T09:11:55.084Z</time></trkpt><trkpt lat="45.725985" lon="11.280075"><ele>295.0</ele><time>2026-03-28T09:11:56.083Z</time></trkpt><trkpt lat="45.726155" lon="11.28004"><ele>295.3333333333333</ele><time>2026-03-28T09:11:57.084Z</time></trkpt><trkpt lat="45.726325" lon="11.2800167"><ele>295.6666666666667</ele><time>2026-03-28T09:11:58.084Z</time></trkpt><trkpt lat="45.726495" lon="11.2799933"><ele>296.0</ele><time>2026-03-28T09:11:59.083Z</time></trkpt><trkpt lat="45.7266683" lon="11.279975"><ele>296.0</ele><time>2026-03-28T09:12:00.083Z</time></trkpt><trkpt lat="45.7268283" lon="11.279965"><ele>296.0</ele><time>2026-03-28T09:12:01.083Z</time></trkpt><trkpt lat="45.7269717" lon="11.2799567"><ele>296.0</ele><time>2026-03-28T09:12:02.083Z</time></trkpt><trkpt lat="45.7271067" lon="11.2799417"><ele>296.0</ele><time>2026-03-28T09:12:03.084Z</time></trkpt><trkpt lat="45.727235" lon="11.27991"><ele>296.5</ele><time>2026-03-28T09:12:04.084Z</time></trkpt><trkpt lat="45.7273633" lon="11.279845"><ele>297.0</ele><time>2026-03-28T09:12:05.083Z</time></trkpt><trkpt lat="45.7274767" lon="11.2797167"><ele>297.5</ele><time>2026-03-28T09:12:06.084Z</time></trkpt><trkpt lat="45.7275817" lon="11.27954"><ele>298.0</ele><time>2026-03-28T09:12:07.084Z</time></trkpt><trkpt lat="45.7276833" lon="11.2793633"><ele>299.0</ele><time>2026-03-28T09:12:08.084Z</time></trkpt><trkpt lat="45.7277917" lon="11.2792067"><ele>300.0</ele><time>2026-03-28T09:12:09.084Z</time></trkpt><trkpt lat="45.7278917" lon="11.2790833"><ele>301.0</ele><time>2026-03-28T09:12:10.084Z</time></trkpt><trkpt lat="45.72801" lon="11.2790067"><ele>302.0</ele><time>2026-03-28T09:12:11.084Z</time></trkpt><trkpt lat="45.7281283" lon="11.2789867"><ele>302.0</ele><time>2026-03-28T09:12:12.083Z</time></trkpt><trkpt lat="45.728225" lon="11.279035"><ele>302.0</ele><time>2026-03-28T09:12:13.083Z</time></trkpt><trkpt lat="45.7283283" lon="11.2790917"><ele>302.0</ele><time>2026-03-28T09:12:14.084Z</time></trkpt><trkpt lat="45.728445" lon="11.2791283"><ele>302.0</ele><time>2026-03-28T09:12:15.083Z</time></trkpt><trkpt lat="45.7285733" lon="11.2790917"><ele>303.6666666666667</ele><time>2026-03-28T09:12:16.084Z</time></trkpt><trkpt lat="45.728715" lon="11.278995"><ele>305.3333333333333</ele><time>2026-03-28T09:12:17.084Z</time></trkpt><trkpt lat="45.7288583" lon="11.2788367"><ele>307.0</ele><time>2026-03-28T09:12:18.084Z</time></trkpt><trkpt lat="45.7290183" lon="11.278685"><ele>307.0</ele><time>2026-03-28T09:12:19.084Z</time></trkpt><trkpt lat="45.7291767" lon="11.2785583"><ele>307.0</ele><time>2026-03-28T09:12:20.084Z</time></trkpt><trkpt lat="45.7293167" lon="11.2784383"><ele>307.0</ele><time>2026-03-28T09:12:21.084Z</time></trkpt><trkpt lat="45.729445" lon="11.2783367"><ele>307.3333333333333</ele><time>2026-03-28T09:12:22.084Z</time></trkpt><trkpt lat="45.72956" lon="11.27822"><ele>307.6666666666667</ele><time>2026-03-28T09:12:23.083Z</time></trkpt><trkpt lat="45.7296917" lon="11.2781033"><ele>308.0</ele><time>2026-03-28T09:12:24.084Z</time></trkpt><trkpt lat="45.7298283" lon="11.27799"><ele>308.0</ele><time>2026-03-28T09:12:25.084Z</time></trkpt><trkpt lat="45.7299633" lon="11.2778683"><ele>308.0</ele><time>2026-03-28T09:12:26.083Z</time></trkpt><trkpt lat="45.7300917" lon="11.2777267"><ele>308.0</ele><time>2026-03-28T09:12:27.084Z</time></trkpt><trkpt lat="45.73023" lon="11.2775833"><ele>309.33333333333337</ele><time>2026-03-28T09:12:28.084Z</time></trkpt><trkpt lat="45.7303467" lon="11.27743"><ele>310.6666666666667</ele><time>2026-03-28T09:12:29.084Z</time></trkpt><trkpt lat="45.7304617" lon="11.2772767"><ele>312.0</ele><time>2026-03-28T09:12:30.084Z</time></trkpt><trkpt lat="45.73058" lon="11.27712"><ele>312.0</ele><time>2026-03-28T09:12:31.084Z</time></trkpt><trkpt lat="45.7306833" lon="11.2769483"><ele>312.0</ele><time>2026-03-28T09:12:32.084Z</time></trkpt><trkpt lat="45.7307817" lon="11.2767817"><ele>312.0</ele><time>2026-03-28T09:12:33.083Z</time></trkpt><trkpt lat="45.7308733" lon="11.2766233"><ele>312.0</ele><time>2026-03-28T09:12:34.084Z</time></trkpt><trkpt lat="45.7309717" lon="11.2764667"><ele>312.0</ele><time>2026-03-28T09:12:35.084Z</time></trkpt><trkpt lat="45.7310817" lon="11.276315"><ele>312.0</ele><time>2026-03-28T09:12:36.084Z</time></trkpt><trkpt lat="45.7311983" lon="11.276155"><ele>312.6666666666667</ele><time>2026-03-28T09:12:37.083Z</time></trkpt><trkpt lat="45.731315" lon="11.276"><ele>313.33333333333337</ele><time>2026-03-28T09:12:38.084Z</time></trkpt><trkpt lat="45.73142" lon="11.275855"><ele>314.0</ele><time>2026-03-28T09:12:39.083Z</time></trkpt><trkpt lat="45.7315283" lon="11.27571"><ele>313.75</ele><time>2026-03-28T09:12:40.084Z</time></trkpt><trkpt lat="45.731635" lon="11.2755717"><ele>313.5</ele><time>2026-03-28T09:12:41.083Z</time></trkpt><trkpt lat="45.731735" lon="11.2754183"><ele>313.25</ele><time>2026-03-28T09:12:42.083Z</time></trkpt><trkpt lat="45.731825" lon="11.2752567"><ele>313.0</ele><time>2026-03-28T09:12:43.084Z</time></trkpt><trkpt lat="45.731895" lon="11.2750917"><ele>313.0</ele><time>2026-03-28T09:12:44.084Z</time></trkpt><trkpt lat="45.731965" lon="11.2749317"><ele>313.0</ele><time>2026-03-28T09:12:45.084Z</time></trkpt><trkpt lat="45.7320517" lon="11.274775"><ele>313.0</ele><time>2026-03-28T09:12:46.083Z</time></trkpt><trkpt lat="45.7321633" lon="11.2746533"><ele>313.0</ele><time>2026-03-28T09:12:47.083Z</time></trkpt><trkpt lat="45.7322883" lon="11.2745133"><ele>313.0</ele><time>2026-03-28T09:12:48.083Z</time></trkpt><trkpt lat="45.7324233" lon="11.2743717"><ele>313.0</ele><time>2026-03-28T09:12:49.084Z</time></trkpt><trkpt lat="45.7325517" lon="11.274215"><ele>313.0</ele><time>2026-03-28T09:12:50.083Z</time></trkpt><trkpt lat="45.732685" lon="11.2740583"><ele>314.66666666666663</ele><time>2026-03-28T09:12:51.084Z</time></trkpt><trkpt lat="45.7327983" lon="11.2738983"><ele>316.3333333333333</ele><time>2026-03-28T09:12:52.084Z</time></trkpt><trkpt lat="45.7329" lon="11.273725"><ele>318.0</ele><time>2026-03-28T09:12:53.084Z</time></trkpt><trkpt lat="45.7329867" lon="11.2735517"><ele>318.0</ele><time>2026-03-28T09:12:54.084Z</time></trkpt><trkpt lat="45.733055" lon="11.2733767"><ele>318.0</ele><time>2026-03-28T09:12:55.084Z</time></trkpt><trkpt lat="45.7331183" lon="11.2732083"><ele>318.0</ele><time>2026-03-28T09:12:56.084Z</time></trkpt><trkpt lat="45.7331717" lon="11.2730433"><ele>318.0</ele><time>2026-03-28T09:12:57.084Z</time></trkpt><trkpt lat="45.7332133" lon="11.2728833"><ele>317.2</ele><time>2026-03-28T09:12:58.083Z</time></trkpt><trkpt lat="45.7332483" lon="11.2727333"><ele>316.4</ele><time>2026-03-28T09:12:59.084Z</time></trkpt><trkpt lat="45.7332867" lon="11.2725967"><ele>315.59999999999997</ele><time>2026-03-28T09:13:00.084Z</time></trkpt><trkpt lat="45.7333283" lon="11.27248"><ele>314.8</ele><time>2026-03-28T09:13:01.084Z</time></trkpt><trkpt lat="45.7333967" lon="11.2723583"><ele>314.0</ele><time>2026-03-28T09:13:02.084Z</time></trkpt><trkpt lat="45.7334883" lon="11.2722583"><ele>315.5</ele><time>2026-03-28T09:13:03.084Z</time></trkpt><trkpt lat="45.7335883" lon="11.2721633"><ele>317.0</ele><time>2026-03-28T09:13:04.083Z</time></trkpt><trkpt lat="45.733695" lon="11.272055"><ele>318.5</ele><time>2026-03-28T09:13:05.084Z</time></trkpt><trkpt lat="45.7337917" lon="11.2719367"><ele>320.0</ele><time>2026-03-28T09:13:06.084Z</time></trkpt><trkpt lat="45.73389" lon="11.2718167"><ele>320.0</ele><time>2026-03-28T09:13:07.083Z</time></trkpt><trkpt lat="45.7339867" lon="11.271705"><ele>320.0</ele><time>2026-03-28T09:13:08.083Z</time></trkpt><trkpt lat="45.7340967" lon="11.2715883"><ele>320.0</ele><time>2026-03-28T09:13:09.083Z</time></trkpt><trkpt lat="45.7342083" lon="11.271485"><ele>320.0</ele><time>2026-03-28T09:13:10.083Z</time></trkpt><trkpt lat="45.7343133" lon="11.2713783"><ele>321.0</ele><time>2026-03-28T09:13:11.084Z</time></trkpt><trkpt lat="45.7344183" lon="11.2712683"><ele>322.0</ele><time>2026-03-28T09:13:12.084Z</time></trkpt><trkpt lat="45.73452" lon="11.2711583"><ele>323.0</ele><time>2026-03-28T09:13:13.084Z</time></trkpt><trkpt lat="45.7346167" lon="11.2710517"><ele>324.0</ele><time>2026-03-28T09:13:14.084Z</time></trkpt><trkpt lat="45.734705" lon="11.270955"><ele>324.0</ele><time>2026-03-28T09:13:15.084Z</time></trkpt><trkpt lat="45.73479" lon="11.27084"><ele>324.0</ele><time>2026-03-28T09:13:16.084Z</time></trkpt><trkpt lat="45.7348717" lon="11.2707017"><ele>324.0</ele><time>2026-03-28T09:13:17.084Z</time></trkpt><trkpt lat="45.7349383" lon="11.27056"><ele>324.0</ele><time>2026-03-28T09:13:18.084Z</time></trkpt><trkpt lat="45.7350033" lon="11.270405"><ele>323.75</ele><time>2026-03-28T09:13:19.083Z</time></trkpt><trkpt lat="45.735095" lon="11.2702617"><ele>323.5</ele><time>2026-03-28T09:13:20.083Z</time></trkpt><trkpt lat="45.735195" lon="11.2701233"><ele>323.25</ele><time>2026-03-28T09:13:21.084Z</time></trkpt><trkpt lat="45.7353017" lon="11.2699967"><ele>323.0</ele><time>2026-03-28T09:13:22.084Z</time></trkpt><trkpt lat="45.7353983" lon="11.2698583"><ele>325.75</ele><time>2026-03-28T09:13:23.084Z</time></trkpt><trkpt lat="45.7354883" lon="11.2697217"><ele>328.5</ele><time>2026-03-28T09:13:24.084Z</time></trkpt><trkpt lat="45.735595" lon="11.269595"><ele>331.25</ele><time>2026-03-28T09:13:25.083Z</time></trkpt><trkpt lat="45.735705" lon="11.2694733"><ele>334.0</ele><time>2026-03-28T09:13:26.083Z</time></trkpt><trkpt lat="45.7358233" lon="11.26933"><ele>334.0</ele><time>2026-03-28T09:13:27.084Z</time></trkpt><trkpt lat="45.7359233" lon="11.2691667"><ele>334.0</ele><time>2026-03-28T09:13:28.083Z</time></trkpt><trkpt lat="45.73603" lon="11.2690033"><ele>334.0</ele><time>2026-03-28T09:13:29.084Z</time></trkpt><trkpt lat="45.7361317" lon="11.2688417"><ele>335.75</ele><time>2026-03-28T09:13:30.084Z</time></trkpt><trkpt lat="45.7362283" lon="11.2686817"><ele>337.5</ele><time>2026-03-28T09:13:31.083Z</time></trkpt><trkpt lat="45.7363017" lon="11.268505"><ele>339.25</ele><time>2026-03-28T09:13:32.084Z</time></trkpt><trkpt lat="45.7363767" lon="11.26835"><ele>341.0</ele><time>2026-03-28T09:13:33.084Z</time></trkpt><trkpt lat="45.7364483" lon="11.2681983"><ele>340.25</ele><time>2026-03-28T09:13:34.083Z</time></trkpt><trkpt lat="45.7365333" lon="11.2680617"><ele>339.5</ele><time>2026-03-28T09:13:35.084Z</time></trkpt><trkpt lat="45.7366333" lon="11.267955"><ele>338.75</ele><time>2026-03-28T09:13:36.084Z</time></trkpt><trkpt lat="45.7367183" lon="11.267815"><ele>338.0</ele><time>2026-03-28T09:13:37.084Z</time></trkpt><trkpt lat="45.73682" lon="11.2676983"><ele>339.5</ele><time>2026-03-28T09:13:38.084Z</time></trkpt><trkpt lat="45.736915" lon="11.267565"><ele>341.0</ele><time>2026-03-28T09:13:39.083Z</time></trkpt><trkpt lat="45.7370133" lon="11.2674183"><ele>342.5</ele><time>2026-03-28T09:13:40.083Z</time></trkpt><trkpt lat="45.737105" lon="11.267265"><ele>344.0</ele><time>2026-03-28T09:13:41.083Z</time></trkpt><trkpt lat="45.737205" lon="11.2671033"><ele>344.0</ele><time>2026-03-28T09:13:42.084Z</time></trkpt><trkpt lat="45.7372933" lon="11.2669367"><ele>344.0</ele><time>2026-03-28T09:13:43.084Z</time></trkpt><trkpt lat="45.7373983" lon="11.266765"><ele>344.0</ele><time>2026-03-28T09:13:44.083Z</time></trkpt><trkpt lat="45.7374867" lon="11.2666067"><ele>344.0</ele><time>2026-03-28T09:13:45.084Z</time></trkpt><trkpt lat="45.73758" lon="11.2664533"><ele>343.75</ele><time>2026-03-28T09:13:46.083Z</time></trkpt><trkpt lat="45.73765" lon="11.266305"><ele>343.5</ele><time>2026-03-28T09:13:47.084Z</time></trkpt><trkpt lat="45.73773" lon="11.26616"><ele>343.25</ele><time>2026-03-28T09:13:48.084Z</time></trkpt><trkpt lat="45.7378117" lon="11.2660317"><ele>343.0</ele><time>2026-03-28T09:13:49.084Z</time></trkpt><trkpt lat="45.737895" lon="11.2659267"><ele>343.0</ele><time>2026-03-28T09:13:50.084Z</time></trkpt><trkpt lat="45.738005" lon="11.26585"><ele>343.0</ele><time>2026-03-28T09:13:51.083Z</time></trkpt><trkpt lat="45.7381333" lon="11.2658033"><ele>343.0</ele><time>2026-03-28T09:13:52.084Z</time></trkpt><trkpt lat="45.7382683" lon="11.2657817"><ele>343.0</ele><time>2026-03-28T09:13:53.084Z</time></trkpt><trkpt lat="45.738405" lon="11.2657917"><ele>343.0</ele><time>2026-03-28T09:13:54.083Z</time></trkpt><trkpt lat="45.7385317" lon="11.2657767"><ele>343.0</ele><time>2026-03-28T09:13:55.083Z</time></trkpt><trkpt lat="45.7386517" lon="11.2657417"><ele>343.0</ele><time>2026-03-28T09:13:56.084Z</time></trkpt><trkpt lat="45.73877" lon="11.26569"><ele>343.0</ele><time>2026-03-28T09:13:57.084Z</time></trkpt><trkpt lat="45.7388767" lon="11.26561"><ele>343.0</ele><time>2026-03-28T09:13:58.084Z</time></trkpt><trkpt lat="45.7389783" lon="11.2655067"><ele>343.0</ele><time>2026-03-28T09:13:59.084Z</time></trkpt><trkpt lat="45.73908" lon="11.2653933"><ele>343.0</ele><time>2026-03-28T09:14:00.084Z</time></trkpt><trkpt lat="45.739175" lon="11.2652733"><ele>343.0</ele><time>2026-03-28T09:14:01.084Z</time></trkpt><trkpt lat="45.739255" lon="11.2651317"><ele>343.0</ele><time>2026-03-28T09:14:02.084Z</time></trkpt><trkpt lat="45.7393033" lon="11.264965"><ele>343.0</ele><time>2026-03-28T09:14:03.083Z</time></trkpt><trkpt lat="45.739335" lon="11.2647967"><ele>343.0</ele><time>2026-03-28T09:14:04.084Z</time></trkpt><trkpt lat="45.7393617" lon="11.26464"><ele>343.0</ele><time>2026-03-28T09:14:05.084Z</time></trkpt><trkpt lat="45.7393917" lon="11.264495"><ele>343.79999999999995</ele><time>2026-03-28T09:14:06.083Z</time></trkpt><trkpt lat="45.739425" lon="11.2643383"><ele>344.6</ele><time>2026-03-28T09:14:07.084Z</time></trkpt><trkpt lat="45.7394533" lon="11.264195"><ele>345.4</ele><time>2026-03-28T09:14:08.084Z</time></trkpt><trkpt lat="45.7394817" lon="11.2640683"><ele>346.20000000000005</ele><time>2026-03-28T09:14:09.084Z</time></trkpt><trkpt lat="45.739505" lon="11.2639517"><ele>347.0</ele><time>2026-03-28T09:14:10.083Z</time></trkpt><trkpt lat="45.739525" lon="11.2638433"><ele>345.8571428571429</ele><time>2026-03-28T09:14:11.084Z</time></trkpt><trkpt lat="45.7395483" lon="11.2637467"><ele>344.71428571428567</ele><time>2026-03-28T09:14:12.084Z</time></trkpt><trkpt lat="45.739575" lon="11.2636483"><ele>343.57142857142856</ele><time>2026-03-28T09:14:13.083Z</time></trkpt><trkpt lat="45.7396067" lon="11.263555"><ele>342.42857142857144</ele><time>2026-03-28T09:14:14.084Z</time></trkpt><trkpt lat="45.7396417" lon="11.2634683"><ele>341.28571428571433</ele><time>2026-03-28T09:14:15.084Z</time></trkpt><trkpt lat="45.739675" lon="11.2633633"><ele>340.1428571428571</ele><time>2026-03-28T09:14:16.084Z</time></trkpt><trkpt lat="45.7397133" lon="11.2632617"><ele>339.0</ele><time>2026-03-28T09:14:17.084Z</time></trkpt><trkpt lat="45.7397517" lon="11.2631667"><ele>339.5</ele><time>2026-03-28T09:14:18.084Z</time></trkpt><trkpt lat="45.7397833" lon="11.2630717"><ele>340.0</ele><time>2026-03-28T09:14:19.083Z</time></trkpt><trkpt lat="45.7398233" lon="11.2629767"><ele>340.5</ele><time>2026-03-28T09:14:20.083Z</time></trkpt><trkpt lat="45.7398683" lon="11.2628733"><ele>341.0</ele><time>2026-03-28T09:14:21.084Z</time></trkpt><trkpt lat="45.7399033" lon="11.2627667"><ele>341.5</ele><time>2026-03-28T09:14:22.083Z</time></trkpt><trkpt lat="45.7399367" lon="11.2626717"><ele>342.0</ele><time>2026-03-28T09:14:23.084Z</time></trkpt><trkpt lat="45.7399717" lon="11.2625733"><ele>342.0</ele><time>2026-03-28T09:14:24.084Z</time></trkpt><trkpt lat="45.74001" lon="11.2624767"><ele>342.0</ele><time>2026-03-28T09:14:25.084Z</time></trkpt><trkpt lat="45.74005" lon="11.2623717"><ele>342.0</ele><time>2026-03-28T09:14:26.084Z</time></trkpt><trkpt lat="45.7400817" lon="11.26226"><ele>342.0</ele><time>2026-03-28T09:14:27.084Z</time></trkpt><trkpt lat="45.7401167" lon="11.2621417"><ele>342.0</ele><time>2026-03-28T09:14:28.084Z</time></trkpt><trkpt lat="45.7401567" lon="11.26201"><ele>342.0</ele><time>2026-03-28T09:14:29.084Z</time></trkpt><trkpt lat="45.740205" lon="11.2618717"><ele>342.0</ele><time>2026-03-28T09:14:30.084Z</time></trkpt><trkpt lat="45.74026" lon="11.2617183"><ele>342.0</ele><time>2026-03-28T09:14:31.084Z</time></trkpt><trkpt lat="45.740315" lon="11.2615533"><ele>342.0</ele><time>2026-03-28T09:14:32.083Z</time></trkpt><trkpt lat="45.740375" lon="11.26139"><ele>342.0</ele><time>2026-03-28T09:14:33.084Z</time></trkpt><trkpt lat="45.7404583" lon="11.261245"><ele>343.0</ele><time>2026-03-28T09:14:34.084Z</time></trkpt><trkpt lat="45.7405483" lon="11.2611017"><ele>344.0</ele><time>2026-03-28T09:14:35.084Z</time></trkpt><trkpt lat="45.7406233" lon="11.2609517"><ele>345.0</ele><time>2026-03-28T09:14:36.084Z</time></trkpt><trkpt lat="45.7406933" lon="11.2608217"><ele>346.0</ele><time>2026-03-28T09:14:37.084Z</time></trkpt><trkpt lat="45.7407533" lon="11.2606917"><ele>346.8</ele><time>2026-03-28T09:14:38.084Z</time></trkpt><trkpt lat="45.7408233" lon="11.26057"><ele>347.6</ele><time>2026-03-28T09:14:39.084Z</time></trkpt><trkpt lat="45.7408867" lon="11.2604467"><ele>348.4</ele><time>2026-03-28T09:14:40.084Z</time></trkpt><trkpt lat="45.74096" lon="11.26034"><ele>349.2</ele><time>2026-03-28T09:14:41.084Z</time></trkpt><trkpt lat="45.7410467" lon="11.26024"><ele>350.0</ele><time>2026-03-28T09:14:42.084Z</time></trkpt><trkpt lat="45.7411467" lon="11.2601483"><ele>350.0</ele><time>2026-03-28T09:14:43.083Z</time></trkpt><trkpt lat="45.7412467" lon="11.2600617"><ele>350.0</ele><time>2026-03-28T09:14:44.083Z</time></trkpt><trkpt lat="45.741345" lon="11.2599733"><ele>350.0</ele><time>2026-03-28T09:14:45.084Z</time></trkpt><trkpt lat="45.74145" lon="11.2599"><ele>350.0</ele><time>2026-03-28T09:14:46.084Z</time></trkpt><trkpt lat="45.74157" lon="11.25982"><ele>352.5</ele><time>2026-03-28T09:14:47.084Z</time></trkpt><trkpt lat="45.7416883" lon="11.2597333"><ele>355.0</ele><time>2026-03-28T09:14:48.084Z</time></trkpt><trkpt lat="45.7418183" lon="11.2596633"><ele>357.5</ele><time>2026-03-28T09:14:49.084Z</time></trkpt><trkpt lat="45.7419483" lon="11.2595617"><ele>360.0</ele><time>2026-03-28T09:14:50.084Z</time></trkpt><trkpt lat="45.7420883" lon="11.25948"><ele>360.0</ele><time>2026-03-28T09:14:51.084Z</time></trkpt><trkpt lat="45.7422183" lon="11.2593933"><ele>360.0</ele><time>2026-03-28T09:14:52.083Z</time></trkpt><trkpt lat="45.7423483" lon="11.25931"><ele>360.0</ele><time>2026-03-28T09:14:53.084Z</time></trkpt><trkpt lat="45.742475" lon="11.25923"><ele>360.0</ele><time>2026-03-28T09:14:54.084Z</time></trkpt><trkpt lat="45.742605" lon="11.25915"><ele>358.5</ele><time>2026-03-28T09:14:55.084Z</time></trkpt><trkpt lat="45.7427217" lon="11.2590467"><ele>357.0</ele><time>2026-03-28T09:14:56.084Z</time></trkpt><trkpt lat="45.7428183" lon="11.2589133"><ele>355.5</ele><time>2026-03-28T09:14:57.084Z</time></trkpt><trkpt lat="45.7428967" lon="11.2587433"><ele>354.0</ele><time>2026-03-28T09:14:58.083Z</time></trkpt><trkpt lat="45.7429567" lon="11.25855"><ele>354.0</ele><time>2026-03-28T09:14:59.084Z</time></trkpt><trkpt lat="45.743015" lon="11.25834"><ele>354.0</ele><time>2026-03-28T09:15:00.084Z</time></trkpt><trkpt lat="45.7430817" lon="11.25813"><ele>354.0</ele><time>2026-03-28T09:15:01.084Z</time></trkpt><trkpt lat="45.743145" lon="11.2579183"><ele>356.25</ele><time>2026-03-28T09:15:02.084Z</time></trkpt><trkpt lat="45.7432217" lon="11.2577133"><ele>358.5</ele><time>2026-03-28T09:15:03.084Z</time></trkpt><trkpt lat="45.743285" lon="11.2575233"><ele>360.75</ele><time>2026-03-28T09:15:04.084Z</time></trkpt><trkpt lat="45.743335" lon="11.2573467"><ele>363.0</ele><time>2026-03-28T09:15:05.084Z</time></trkpt><trkpt lat="45.74338" lon="11.2571633"><ele>365.5</ele><time>2026-03-28T09:15:06.084Z</time></trkpt><trkpt lat="45.74341" lon="11.2569783"><ele>368.0</ele><time>2026-03-28T09:15:07.084Z</time></trkpt><trkpt lat="45.74344" lon="11.2568083"><ele>370.5</ele><time>2026-03-28T09:15:08.084Z</time></trkpt><trkpt lat="45.74348" lon="11.2566217"><ele>373.0</ele><time>2026-03-28T09:15:09.084Z</time></trkpt><trkpt lat="45.7435383" lon="11.25646"><ele>371.75</ele><time>2026-03-28T09:15:10.084Z</time></trkpt><trkpt lat="45.7435883" lon="11.256295"><ele>370.5</ele><time>2026-03-28T09:15:11.084Z</time></trkpt><trkpt lat="45.7436333" lon="11.256135"><ele>369.25</ele><time>2026-03-28T09:15:12.084Z</time></trkpt><trkpt lat="45.7436517" lon="11.2559617"><ele>368.0</ele><time>2026-03-28T09:15:13.084Z</time></trkpt><trkpt lat="45.7436417" lon="11.2557917"><ele>368.25</ele><time>2026-03-28T09:15:14.084Z</time></trkpt><trkpt lat="45.7436033" lon="11.2556033"><ele>368.5</ele><time>2026-03-28T09:15:15.084Z</time></trkpt><trkpt lat="45.74355" lon="11.25541"><ele>368.75</ele><time>2026-03-28T09:15:16.084Z</time></trkpt><trkpt lat="45.7434983" lon="11.2552117"><ele>369.0</ele><time>2026-03-28T09:15:17.084Z</time></trkpt><trkpt lat="45.74346" lon="11.255"><ele>373.6666666666667</ele><time>2026-03-28T09:15:18.084Z</time></trkpt><trkpt lat="45.74343" lon="11.254775"><ele>378.33333333333337</ele><time>2026-03-28T09:15:19.083Z</time></trkpt><trkpt lat="45.7434067" lon="11.2545567"><ele>383.0</ele><time>2026-03-28T09:15:20.084Z</time></trkpt><trkpt lat="45.743375" lon="11.2543333"><ele>383.0</ele><time>2026-03-28T09:15:21.084Z</time></trkpt><trkpt lat="45.7433433" lon="11.2541083"><ele>383.0</ele><time>2026-03-28T09:15:22.083Z</time></trkpt><trkpt lat="45.7433167" lon="11.2538833"><ele>383.0</ele><time>2026-03-28T09:15:23.083Z</time></trkpt><trkpt lat="45.7433033" lon="11.2536583"><ele>383.25</ele><time>2026-03-28T09:15:24.083Z</time></trkpt><trkpt lat="45.7432933" lon="11.2534517"><ele>383.5</ele><time>2026-03-28T09:15:25.084Z</time></trkpt><trkpt lat="45.7432883" lon="11.25326"><ele>383.75</ele><time>2026-03-28T09:15:26.084Z</time></trkpt><trkpt lat="45.74329" lon="11.2530767"><ele>384.0</ele><time>2026-03-28T09:15:27.084Z</time></trkpt><trkpt lat="45.7433033" lon="11.252895"><ele>385.5</ele><time>2026-03-28T09:15:28.084Z</time></trkpt><trkpt lat="45.7433333" lon="11.25271"><ele>387.0</ele><time>2026-03-28T09:15:29.083Z</time></trkpt><trkpt lat="45.7433633" lon="11.2525267"><ele>388.5</ele><time>2026-03-28T09:15:30.083Z</time></trkpt><trkpt lat="45.7433867" lon="11.2523467"><ele>390.0</ele><time>2026-03-28T09:15:31.084Z</time></trkpt><trkpt lat="45.7433967" lon="11.2521833"><ele>390.0</ele><time>2026-03-28T09:15:32.084Z</time></trkpt><trkpt lat="45.7434083" lon="11.2520167"><ele>390.0</ele><time>2026-03-28T09:15:33.084Z</time></trkpt><trkpt lat="45.743435" lon="11.25184"><ele>390.0</ele><time>2026-03-28T09:15:34.084Z</time></trkpt><trkpt lat="45.7434733" lon="11.2516617"><ele>390.0</ele><time>2026-03-28T09:15:35.084Z</time></trkpt><trkpt lat="45.743525" lon="11.2514967"><ele>387.25</ele><time>2026-03-28T09:15:36.083Z</time></trkpt><trkpt lat="45.74359" lon="11.251325"><ele>384.5</ele><time>2026-03-28T09:15:37.084Z</time></trkpt><trkpt lat="45.7436517" lon="11.2511467"><ele>381.75</ele><time>2026-03-28T09:15:38.083Z</time></trkpt><trkpt lat="45.7437117" lon="11.2509567"><ele>379.0</ele><time>2026-03-28T09:15:39.083Z</time></trkpt><trkpt lat="45.7437733" lon="11.25077"><ele>380.75</ele><time>2026-03-28T09:15:40.084Z</time></trkpt><trkpt lat="45.743835" lon="11.2505833"><ele>382.5</ele><time>2026-03-28T09:15:41.084Z</time></trkpt><trkpt lat="45.7439017" lon="11.250395"><ele>384.25</ele><time>2026-03-28T09:15:42.083Z</time></trkpt><trkpt lat="45.7439517" lon="11.2501983"><ele>386.0</ele><time>2026-03-28T09:15:43.084Z</time></trkpt><trkpt lat="45.7439933" lon="11.2500067"><ele>386.0</ele><time>2026-03-28T09:15:44.084Z</time></trkpt><trkpt lat="45.7440333" lon="11.2498183"><ele>386.0</ele><time>2026-03-28T09:15:45.084Z</time></trkpt><trkpt lat="45.7440633" lon="11.249645"><ele>386.0</ele><time>2026-03-28T09:15:46.084Z</time></trkpt><trkpt lat="45.7440867" lon="11.2494717"><ele>386.0</ele><time>2026-03-28T09:15:47.084Z</time></trkpt><trkpt lat="45.7441133" lon="11.249295"><ele>387.25</ele><time>2026-03-28T09:15:48.084Z</time></trkpt><trkpt lat="45.7441317" lon="11.2491233"><ele>388.5</ele><time>2026-03-28T09:15:49.083Z</time></trkpt><trkpt lat="45.744155" lon="11.2489533"><ele>389.75</ele><time>2026-03-28T09:15:50.084Z</time></trkpt><trkpt lat="45.7441767" lon="11.2487933"><ele>391.0</ele><time>2026-03-28T09:15:51.083Z</time></trkpt><trkpt lat="45.7442" lon="11.2486283"><ele>391.5</ele><time>2026-03-28T09:15:52.084Z</time></trkpt><trkpt lat="45.74421" lon="11.2484583"><ele>392.0</ele><time>2026-03-28T09:15:53.084Z</time></trkpt><trkpt lat="45.7442267" lon="11.248305"><ele>392.5</ele><time>2026-03-28T09:15:54.084Z</time></trkpt><trkpt lat="45.74425" lon="11.248145"><ele>393.0</ele><time>2026-03-28T09:15:55.083Z</time></trkpt><trkpt lat="45.74425" lon="11.2479783"><ele>393.79999999999995</ele><time>2026-03-28T09:15:56.083Z</time></trkpt><trkpt lat="45.7442433" lon="11.2478267"><ele>394.6</ele><time>2026-03-28T09:15:57.083Z</time></trkpt><trkpt lat="45.744215" lon="11.2476817"><ele>395.4</ele><time>2026-03-28T09:15:58.084Z</time></trkpt><trkpt lat="45.7441733" lon="11.247525"><ele>396.20000000000005</ele><time>2026-03-28T09:15:59.084Z</time></trkpt><trkpt lat="45.74413" lon="11.24737"><ele>397.0</ele><time>2026-03-28T09:16:00.084Z</time></trkpt><trkpt lat="45.7440783" lon="11.2471983"><ele>397.25</ele><time>2026-03-28T09:16:01.083Z</time></trkpt><trkpt lat="45.7440133" lon="11.2470233"><ele>397.5</ele><time>2026-03-28T09:16:02.083Z</time></trkpt><trkpt lat="45.743975" lon="11.246835"><ele>397.75</ele><time>2026-03-28T09:16:03.084Z</time></trkpt><trkpt lat="45.743955" lon="11.2466433"><ele>398.0</ele><time>2026-03-28T09:16:04.083Z</time></trkpt><trkpt lat="45.7439467" lon="11.2464367"><ele>398.66666666666663</ele><time>2026-03-28T09:16:05.083Z</time></trkpt><trkpt lat="45.7439417" lon="11.2462133"><ele>399.33333333333337</ele><time>2026-03-28T09:16:06.084Z</time></trkpt><trkpt lat="45.7439333" lon="11.2459683"><ele>400.0</ele><time>2026-03-28T09:16:07.083Z</time></trkpt><trkpt lat="45.7439067" lon="11.2457233"><ele>399.6666666666667</ele><time>2026-03-28T09:16:08.083Z</time></trkpt><trkpt lat="45.7438783" lon="11.2454583"><ele>399.33333333333337</ele><time>2026-03-28T09:16:09.083Z</time></trkpt><trkpt lat="45.743865" lon="11.245175"><ele>399.0</ele><time>2026-03-28T09:16:10.083Z</time></trkpt><trkpt lat="45.7438583" lon="11.2449083"><ele>399.0</ele><time>2026-03-28T09:16:11.084Z</time></trkpt><trkpt lat="45.7438633" lon="11.2446733"><ele>399.0</ele><time>2026-03-28T09:16:12.083Z</time></trkpt><trkpt lat="45.7438783" lon="11.2444483"><ele>399.0</ele><time>2026-03-28T09:16:13.084Z</time></trkpt><trkpt lat="45.743875" lon="11.2442383"><ele>399.0</ele><time>2026-03-28T09:16:14.084Z</time></trkpt><trkpt lat="45.7438717" lon="11.2440483"><ele>399.0</ele><time>2026-03-28T09:16:15.084Z</time></trkpt><trkpt lat="45.74385" lon="11.2438783"><ele>399.0</ele><time>2026-03-28T09:16:16.084Z</time></trkpt><trkpt lat="45.7438183" lon="11.2437183"><ele>399.0</ele><time>2026-03-28T09:16:17.084Z</time></trkpt><trkpt lat="45.7437833" lon="11.243555"><ele>399.25</ele><time>2026-03-28T09:16:18.083Z</time></trkpt><trkpt lat="45.7437633" lon="11.24338"><ele>399.5</ele><time>2026-03-28T09:16:19.083Z</time></trkpt><trkpt lat="45.743755" lon="11.2432033"><ele>399.75</ele><time>2026-03-28T09:16:20.084Z</time></trkpt><trkpt lat="45.7437733" lon="11.243025"><ele>400.0</ele><time>2026-03-28T09:16:21.083Z</time></trkpt><trkpt lat="45.7438133" lon="11.24285"><ele>400.75</ele><time>2026-03-28T09:16:22.084Z</time></trkpt><trkpt lat="45.7438733" lon="11.2426767"><ele>401.5</ele><time>2026-03-28T09:16:23.084Z</time></trkpt><trkpt lat="45.7439317" lon="11.242495"><ele>402.25</ele><time>2026-03-28T09:16:24.084Z</time></trkpt><trkpt lat="45.7439867" lon="11.2423117"><ele>403.0</ele><time>2026-03-28T09:16:25.084Z</time></trkpt><trkpt lat="45.74403" lon="11.24212"><ele>404.0</ele><time>2026-03-28T09:16:26.084Z</time></trkpt><trkpt lat="45.744065" lon="11.241935"><ele>405.0</ele><time>2026-03-28T09:16:27.084Z</time></trkpt><trkpt lat="45.744095" lon="11.241775"><ele>406.0</ele><time>2026-03-28T09:16:28.084Z</time></trkpt><trkpt lat="45.7441333" lon="11.2416133"><ele>407.0</ele><time>2026-03-28T09:16:29.083Z</time></trkpt><trkpt lat="45.744175" lon="11.2414483"><ele>407.0</ele><time>2026-03-28T09:16:30.084Z</time></trkpt><trkpt lat="45.7442017" lon="11.2412767"><ele>407.0</ele><time>2026-03-28T09:16:31.083Z</time></trkpt><trkpt lat="45.7442333" lon="11.24111"><ele>407.0</ele><time>2026-03-28T09:16:32.084Z</time></trkpt><trkpt lat="45.7442633" lon="11.24095"><ele>407.0</ele><time>2026-03-28T09:16:33.084Z</time></trkpt><trkpt lat="45.744295" lon="11.24078"><ele>407.40000000000003</ele><time>2026-03-28T09:16:34.084Z</time></trkpt><trkpt lat="45.7443317" lon="11.240615"><ele>407.8</ele><time>2026-03-28T09:16:35.084Z</time></trkpt><trkpt lat="45.7443667" lon="11.2404667"><ele>408.2</ele><time>2026-03-28T09:16:36.084Z</time></trkpt><trkpt lat="45.7444167" lon="11.2403167"><ele>408.6</ele><time>2026-03-28T09:16:37.083Z</time></trkpt><trkpt lat="45.744455" lon="11.24018"><ele>409.0</ele><time>2026-03-28T09:16:38.084Z</time></trkpt><trkpt lat="45.7445" lon="11.24005"><ele>409.0</ele><time>2026-03-28T09:16:39.084Z</time></trkpt><trkpt lat="45.7445417" lon="11.239935"><ele>409.0</ele><time>2026-03-28T09:16:40.084Z</time></trkpt><trkpt lat="45.7446017" lon="11.2398217"><ele>409.0</ele><time>2026-03-28T09:16:41.084Z</time></trkpt><trkpt lat="45.74465" lon="11.2397083"><ele>409.0</ele><time>2026-03-28T09:16:42.083Z</time></trkpt><trkpt lat="45.7446817" lon="11.2395767"><ele>409.0</ele><time>2026-03-28T09:16:43.083Z</time></trkpt><trkpt lat="45.7447117" lon="11.23945"><ele>409.1666666666667</ele><time>2026-03-28T09:16:44.084Z</time></trkpt><trkpt lat="45.7447317" lon="11.2393267"><ele>409.33333333333337</ele><time>2026-03-28T09:16:45.084Z</time></trkpt><trkpt lat="45.7447483" lon="11.2392117"><ele>409.5</ele><time>2026-03-28T09:16:46.084Z</time></trkpt><trkpt lat="45.7447517" lon="11.2390983"><ele>409.66666666666663</ele><time>2026-03-28T09:16:47.083Z</time></trkpt><trkpt lat="45.7447533" lon="11.2389833"><ele>409.8333333333333</ele><time>2026-03-28T09:16:48.083Z</time></trkpt><trkpt lat="45.7447633" lon="11.2388683"><ele>410.0</ele><time>2026-03-28T09:16:49.084Z</time></trkpt><trkpt lat="45.7447917" lon="11.2387517"><ele>410.6</ele><time>2026-03-28T09:16:50.084Z</time></trkpt><trkpt lat="45.7448267" lon="11.2386383"><ele>411.2</ele><time>2026-03-28T09:16:51.084Z</time></trkpt><trkpt lat="45.744895" lon="11.2385367"><ele>411.79999999999995</ele><time>2026-03-28T09:16:52.083Z</time></trkpt><trkpt lat="45.7449817" lon="11.2384417"><ele>412.4</ele><time>2026-03-28T09:16:53.084Z</time></trkpt><trkpt lat="45.745095" lon="11.2383567"><ele>413.0</ele><time>2026-03-28T09:16:54.084Z</time></trkpt><trkpt lat="45.7452117" lon="11.2382617"><ele>413.5</ele><time>2026-03-28T09:16:55.084Z</time></trkpt><trkpt lat="45.745315" lon="11.2381517"><ele>414.0</ele><time>2026-03-28T09:16:56.084Z</time></trkpt><trkpt lat="45.745425" lon="11.2380383"><ele>414.5</ele><time>2026-03-28T09:16:57.084Z</time></trkpt><trkpt lat="45.7455367" lon="11.2379283"><ele>415.0</ele><time>2026-03-28T09:16:58.083Z</time></trkpt><trkpt lat="45.7456517" lon="11.2378133"><ele>415.75</ele><time>2026-03-28T09:16:59.084Z</time></trkpt><trkpt lat="45.74577" lon="11.237695"><ele>416.5</ele><time>2026-03-28T09:17:00.083Z</time></trkpt><trkpt lat="45.7458867" lon="11.23759"><ele>417.25</ele><time>2026-03-28T09:17:01.083Z</time></trkpt><trkpt lat="45.7459917" lon="11.237515"><ele>418.0</ele><time>2026-03-28T09:17:02.084Z</time></trkpt><trkpt lat="45.7461017" lon="11.2374417"><ele>418.0</ele><time>2026-03-28T09:17:03.084Z</time></trkpt><trkpt lat="45.7462117" lon="11.2373617"><ele>418.0</ele><time>2026-03-28T09:17:04.083Z</time></trkpt><trkpt lat="45.7463283" lon="11.2372783"><ele>418.0</ele><time>2026-03-28T09:17:05.084Z</time></trkpt><trkpt lat="45.74644" lon="11.2372017"><ele>418.0</ele><time>2026-03-28T09:17:06.083Z</time></trkpt><trkpt lat="45.746555" lon="11.237115"><ele>423.75</ele><time>2026-03-28T09:17:07.084Z</time></trkpt><trkpt lat="45.7466833" lon="11.237025"><ele>429.5</ele><time>2026-03-28T09:17:08.084Z</time></trkpt><trkpt lat="45.74681" lon="11.2369533"><ele>435.25</ele><time>2026-03-28T09:17:09.084Z</time></trkpt><trkpt lat="45.7469533" lon="11.23691"><ele>441.0</ele><time>2026-03-28T09:17:10.083Z</time></trkpt><trkpt lat="45.7471033" lon="11.2368967"><ele>441.6</ele><time>2026-03-28T09:17:11.083Z</time></trkpt><trkpt lat="45.7472317" lon="11.2368883"><ele>442.20000000000005</ele><time>2026-03-28T09:17:12.084Z</time></trkpt><trkpt lat="45.7473467" lon="11.2368767"><ele>442.79999999999995</ele><time>2026-03-28T09:17:13.084Z</time></trkpt><trkpt lat="45.747445" lon="11.2368967"><ele>443.4</ele><time>2026-03-28T09:17:14.084Z</time></trkpt><trkpt lat="45.74755" lon="11.2369133"><ele>444.0</ele><time>2026-03-28T09:17:15.083Z</time></trkpt><trkpt lat="45.7476517" lon="11.236915"><ele>441.75</ele><time>2026-03-28T09:17:16.084Z</time></trkpt><trkpt lat="45.74776" lon="11.2369167"><ele>439.5</ele><time>2026-03-28T09:17:17.083Z</time></trkpt><trkpt lat="45.74787" lon="11.2368933"><ele>437.25</ele><time>2026-03-28T09:17:18.084Z</time></trkpt><trkpt lat="45.7479783" lon="11.2368367"><ele>435.0</ele><time>2026-03-28T09:17:19.084Z</time></trkpt><trkpt lat="45.7481" lon="11.23675"><ele>435.0</ele><time>2026-03-28T09:17:20.084Z</time></trkpt><trkpt lat="45.7482233" lon="11.2366567"><ele>435.0</ele><time>2026-03-28T09:17:21.083Z</time></trkpt><trkpt lat="45.7483367" lon="11.2365767"><ele>435.0</ele><time>2026-03-28T09:17:22.083Z</time></trkpt><trkpt lat="45.74844" lon="11.2364967"><ele>435.0</ele><time>2026-03-28T09:17:23.084Z</time></trkpt><trkpt lat="45.74854" lon="11.23641"><ele>436.4</ele><time>2026-03-28T09:17:24.084Z</time></trkpt><trkpt lat="45.748635" lon="11.2363333"><ele>437.8</ele><time>2026-03-28T09:17:25.084Z</time></trkpt><trkpt lat="45.748725" lon="11.2362717"><ele>439.20000000000005</ele><time>2026-03-28T09:17:26.083Z</time></trkpt><trkpt lat="45.7488017" lon="11.2362033"><ele>440.6</ele><time>2026-03-28T09:17:27.084Z</time></trkpt><trkpt lat="45.74888" lon="11.236115"><ele>442.0</ele><time>2026-03-28T09:17:28.084Z</time></trkpt><trkpt lat="45.748955" lon="11.2360017"><ele>442.0</ele><time>2026-03-28T09:17:29.084Z</time></trkpt><trkpt lat="45.7490267" lon="11.2358467"><ele>442.0</ele><time>2026-03-28T09:17:30.084Z</time></trkpt><trkpt lat="45.7491017" lon="11.2356683"><ele>442.0</ele><time>2026-03-28T09:17:31.084Z</time></trkpt><trkpt lat="45.7491717" lon="11.2354667"><ele>442.0</ele><time>2026-03-28T09:17:32.084Z</time></trkpt><trkpt lat="45.7492567" lon="11.2352533"><ele>443.0</ele><time>2026-03-28T09:17:33.083Z</time></trkpt><trkpt lat="45.7493467" lon="11.2350183"><ele>444.0</ele><time>2026-03-28T09:17:34.083Z</time></trkpt><trkpt lat="45.7494367" lon="11.2347983"><ele>445.0</ele><time>2026-03-28T09:17:35.083Z</time></trkpt><trkpt lat="45.749525" lon="11.2345983"><ele>445.0</ele><time>2026-03-28T09:17:36.083Z</time></trkpt><trkpt lat="45.749615" lon="11.2344133"><ele>445.0</ele><time>2026-03-28T09:17:37.084Z</time></trkpt><trkpt lat="45.74969" lon="11.2342067"><ele>445.0</ele><time>2026-03-28T09:17:38.083Z</time></trkpt><trkpt lat="45.7497467" lon="11.23395"><ele>446.6666666666667</ele><time>2026-03-28T09:17:39.084Z</time></trkpt><trkpt lat="45.74979" lon="11.2336717"><ele>448.33333333333337</ele><time>2026-03-28T09:17:40.084Z</time></trkpt><trkpt lat="45.7498233" lon="11.2333933"><ele>450.0</ele><time>2026-03-28T09:17:41.084Z</time></trkpt><trkpt lat="45.749865" lon="11.2331033"><ele>453.5</ele><time>2026-03-28T09:17:42.084Z</time></trkpt><trkpt lat="45.74987" lon="11.23278"><ele>457.0</ele><time>2026-03-28T09:17:43.083Z</time></trkpt><trkpt lat="45.7498967" lon="11.2324267"><ele>461.0</ele><time>2026-03-28T09:17:44.084Z</time></trkpt><trkpt lat="45.7499417" lon="11.2320633"><ele>465.0</ele><time>2026-03-28T09:17:45.084Z</time></trkpt><trkpt lat="45.750005" lon="11.2316667"><ele>469.0</ele><time>2026-03-28T09:17:46.084Z</time></trkpt><trkpt lat="45.750075" lon="11.23127"><ele>473.0</ele><time>2026-03-28T09:17:47.084Z</time></trkpt><trkpt lat="45.75013" lon="11.23091"><ele>472.0</ele><time>2026-03-28T09:17:48.084Z</time></trkpt><trkpt lat="45.7502183" lon="11.23056"><ele>471.0</ele><time>2026-03-28T09:17:49.084Z</time></trkpt><trkpt lat="45.750325" lon="11.2302183"><ele>471.0</ele><time>2026-03-28T09:17:50.084Z</time></trkpt><trkpt lat="45.750435" lon="11.2298633"><ele>471.0</ele><time>2026-03-28T09:17:51.083Z</time></trkpt><trkpt lat="45.750545" lon="11.229485"><ele>474.5</ele><time>2026-03-28T09:17:52.084Z</time></trkpt><trkpt lat="45.750655" lon="11.22911"><ele>478.0</ele><time>2026-03-28T09:17:53.084Z</time></trkpt><trkpt lat="45.7507683" lon="11.2287733"><ele>484.0</ele><time>2026-03-28T09:17:54.084Z</time></trkpt><trkpt lat="45.7508767" lon="11.2284617"><ele>490.0</ele><time>2026-03-28T09:17:55.084Z</time></trkpt><trkpt lat="45.75099" lon="11.2281667"><ele>486.5</ele><time>2026-03-28T09:17:56.084Z</time></trkpt><trkpt lat="45.751125" lon="11.2278933"><ele>483.0</ele><time>2026-03-28T09:17:57.083Z</time></trkpt><trkpt lat="45.751295" lon="11.227635"><ele>483.0</ele><time>2026-03-28T09:17:58.083Z</time></trkpt><trkpt lat="45.7514833" lon="11.22738"><ele>483.0</ele><time>2026-03-28T09:17:59.084Z</time></trkpt><trkpt lat="45.7516717" lon="11.2271217"><ele>485.5</ele><time>2026-03-28T09:18:00.084Z</time></trkpt><trkpt lat="45.7518533" lon="11.2268733"><ele>488.0</ele><time>2026-03-28T09:18:01.084Z</time></trkpt><trkpt lat="45.7520233" lon="11.226645"><ele>491.0</ele><time>2026-03-28T09:18:02.084Z</time></trkpt><trkpt lat="45.7521817" lon="11.2264217"><ele>494.0</ele><time>2026-03-28T09:18:03.083Z</time></trkpt><trkpt lat="45.7523483" lon="11.2261867"><ele>494.0</ele><time>2026-03-28T09:18:04.084Z</time></trkpt><trkpt lat="45.7525183" lon="11.2259467"><ele>494.0</ele><time>2026-03-28T09:18:05.084Z</time></trkpt><trkpt lat="45.7526883" lon="11.2256917"><ele>495.5</ele><time>2026-03-28T09:18:06.084Z</time></trkpt><trkpt lat="45.752855" lon="11.2254533"><ele>497.0</ele><time>2026-03-28T09:18:07.084Z</time></trkpt><trkpt lat="45.7530167" lon="11.2252433"><ele>497.0</ele><time>2026-03-28T09:18:08.084Z</time></trkpt><trkpt lat="45.7531767" lon="11.2250517"><ele>497.0</ele><time>2026-03-28T09:18:09.084Z</time></trkpt><trkpt lat="45.753325" lon="11.2248633"><ele>497.0</ele><time>2026-03-28T09:18:10.084Z</time></trkpt><trkpt lat="45.7534583" lon="11.224665"><ele>500.3333333333333</ele><time>2026-03-28T09:18:11.084Z</time></trkpt><trkpt lat="45.7535717" lon="11.2244517"><ele>503.66666666666663</ele><time>2026-03-28T09:18:12.084Z</time></trkpt><trkpt lat="45.753665" lon="11.2242283"><ele>507.0</ele><time>2026-03-28T09:18:13.084Z</time></trkpt><trkpt lat="45.7537383" lon="11.223995"><ele>507.66666666666663</ele><time>2026-03-28T09:18:14.084Z</time></trkpt><trkpt lat="45.7537867" lon="11.2237533"><ele>508.3333333333333</ele><time>2026-03-28T09:18:15.084Z</time></trkpt><trkpt lat="45.753815" lon="11.22354"><ele>509.0</ele><time>2026-03-28T09:18:16.084Z</time></trkpt><trkpt lat="45.75384" lon="11.2233433"><ele>511.66666666666663</ele><time>2026-03-28T09:18:17.084Z</time></trkpt><trkpt lat="45.753875" lon="11.22312"><ele>514.3333333333334</ele><time>2026-03-28T09:18:18.084Z</time></trkpt><trkpt lat="45.7539417" lon="11.2228767"><ele>517.0</ele><time>2026-03-28T09:18:19.083Z</time></trkpt><trkpt lat="45.7540417" lon="11.2226083"><ele>520.5</ele><time>2026-03-28T09:18:20.084Z</time></trkpt><trkpt lat="45.7541583" lon="11.22231"><ele>524.0</ele><time>2026-03-28T09:18:21.084Z</time></trkpt><trkpt lat="45.7542767" lon="11.222"><ele>523.6666666666666</ele><time>2026-03-28T09:18:22.083Z</time></trkpt><trkpt lat="45.75439" lon="11.2217217"><ele>523.3333333333334</ele><time>2026-03-28T09:18:23.084Z</time></trkpt><trkpt lat="45.7545033" lon="11.2214767"><ele>523.0</ele><time>2026-03-28T09:18:24.084Z</time></trkpt><trkpt lat="45.754645" lon="11.22125"><ele>527.3333333333334</ele><time>2026-03-28T09:18:25.084Z</time></trkpt><trkpt lat="45.7547967" lon="11.2210467"><ele>531.6666666666666</ele><time>2026-03-28T09:18:26.084Z</time></trkpt><trkpt lat="45.75494" lon="11.2208767"><ele>536.0</ele><time>2026-03-28T09:18:27.084Z</time></trkpt><trkpt lat="45.75506" lon="11.22073"><ele>538.25</ele><time>2026-03-28T09:18:28.083Z</time></trkpt><trkpt lat="45.75513" lon="11.2205767"><ele>540.5</ele><time>2026-03-28T09:18:29.084Z</time></trkpt><trkpt lat="45.7551517" lon="11.2203883"><ele>542.75</ele><time>2026-03-28T09:18:30.084Z</time></trkpt><trkpt lat="45.7551333" lon="11.220165"><ele>545.0</ele><time>2026-03-28T09:18:31.084Z</time></trkpt><trkpt lat="45.755095" lon="11.219945"><ele>548.25</ele><time>2026-03-28T09:18:32.084Z</time></trkpt><trkpt lat="45.7550383" lon="11.21975"><ele>551.5</ele><time>2026-03-28T09:18:33.083Z</time></trkpt><trkpt lat="45.75496" lon="11.2196033"><ele>554.75</ele><time>2026-03-28T09:18:34.083Z</time></trkpt><trkpt lat="45.7548683" lon="11.21948"><ele>558.0</ele><time>2026-03-28T09:18:35.084Z</time></trkpt><trkpt lat="45.7547983" lon="11.2193733"><ele>558.0</ele><time>2026-03-28T09:18:36.084Z</time></trkpt><trkpt lat="45.7547717" lon="11.219235"><ele>558.0</ele><time>2026-03-28T09:18:37.084Z</time></trkpt><trkpt lat="45.7547817" lon="11.21908"><ele>558.0</ele><time>2026-03-28T09:18:38.084Z</time></trkpt><trkpt lat="45.7548533" lon="11.218895"><ele>558.0</ele><time>2026-03-28T09:18:39.084Z</time></trkpt><trkpt lat="45.754945" lon="11.2186767"><ele>561.0</ele><time>2026-03-28T09:18:40.084Z</time></trkpt><trkpt lat="45.7550333" lon="11.2184517"><ele>564.0</ele><time>2026-03-28T09:18:41.084Z</time></trkpt><trkpt lat="45.7550983" lon="11.2182283"><ele>567.0</ele><time>2026-03-28T09:18:42.083Z</time></trkpt><trkpt lat="45.755135" lon="11.2179867"><ele>568.0</ele><time>2026-03-28T09:18:43.084Z</time></trkpt><trkpt lat="45.7551583" lon="11.217705"><ele>569.0</ele><time>2026-03-28T09:18:44.083Z</time></trkpt><trkpt lat="45.75517" lon="11.2173783"><ele>570.0</ele><time>2026-03-28T09:18:45.084Z</time></trkpt><trkpt lat="45.7551517" lon="11.21706"><ele>571.6666666666666</ele><time>2026-03-28T09:18:46.084Z</time></trkpt><trkpt lat="45.7551717" lon="11.2168067"><ele>573.3333333333333</ele><time>2026-03-28T09:18:47.084Z</time></trkpt><trkpt lat="45.7551733" lon="11.2165717"><ele>575.0</ele><time>2026-03-28T09:18:48.083Z</time></trkpt><trkpt lat="45.75518" lon="11.2163483"><ele>575.0</ele><time>2026-03-28T09:18:49.083Z</time></trkpt><trkpt lat="45.7551817" lon="11.21613"><ele>575.0</ele><time>2026-03-28T09:18:50.084Z</time></trkpt><trkpt lat="45.7551983" lon="11.2159033"><ele>575.0</ele><time>2026-03-28T09:18:51.084Z</time></trkpt><trkpt lat="45.7552283" lon="11.2156767"><ele>576.0</ele><time>2026-03-28T09:18:52.084Z</time></trkpt><trkpt lat="45.7552733" lon="11.2154583"><ele>577.0</ele><time>2026-03-28T09:18:53.084Z</time></trkpt><trkpt lat="45.7553267" lon="11.2152517"><ele>578.0</ele><time>2026-03-28T09:18:54.084Z</time></trkpt><trkpt lat="45.7553817" lon="11.2150633"><ele>578.0</ele><time>2026-03-28T09:18:55.084Z</time></trkpt><trkpt lat="45.75543" lon="11.214895"><ele>578.0</ele><time>2026-03-28T09:18:56.084Z</time></trkpt><trkpt lat="45.7554817" lon="11.2147617"><ele>578.0</ele><time>2026-03-28T09:18:57.083Z</time></trkpt><trkpt lat="45.7555133" lon="11.2146433"><ele>578.0</ele><time>2026-03-28T09:18:58.084Z</time></trkpt><trkpt lat="45.755525" lon="11.2145383"><ele>578.0</ele><time>2026-03-28T09:18:59.084Z</time></trkpt><trkpt lat="45.755485" lon="11.2144267"><ele>578.0</ele><time>2026-03-28T09:19:01.084Z</time></trkpt><trkpt lat="45.75541" lon="11.2145333"><ele>578.0</ele><time>2026-03-28T09:19:02.084Z</time></trkpt><trkpt lat="45.7553417" lon="11.2146833"><ele>578.0</ele><time>2026-03-28T09:19:03.084Z</time></trkpt><trkpt lat="45.7552433" lon="11.2148767"><ele>578.0</ele><time>2026-03-28T09:19:04.084Z</time></trkpt><trkpt lat="45.7551217" lon="11.2151083"><ele>585.5</ele><time>2026-03-28T09:19:05.084Z</time></trkpt><trkpt lat="45.7549767" lon="11.21538"><ele>593.0</ele><time>2026-03-28T09:19:06.084Z</time></trkpt><trkpt lat="45.7548483" lon="11.2156533"><ele>590.0</ele><time>2026-03-28T09:19:07.084Z</time></trkpt><trkpt lat="45.754755" lon="11.2158983"><ele>587.0</ele><time>2026-03-28T09:19:08.084Z</time></trkpt><trkpt lat="45.75469" lon="11.216095"><ele>584.0</ele><time>2026-03-28T09:19:09.083Z</time></trkpt><trkpt lat="45.7546383" lon="11.2162483"><ele>584.0</ele><time>2026-03-28T09:19:10.083Z</time></trkpt><trkpt lat="45.7546033" lon="11.2163733"><ele>584.0</ele><time>2026-03-28T09:19:11.084Z</time></trkpt><trkpt lat="45.7545817" lon="11.21647"><ele>584.0</ele><time>2026-03-28T09:19:12.083Z</time></trkpt><trkpt lat="45.7545333" lon="11.2166"><ele>584.0</ele><time>2026-03-28T09:19:14.084Z</time></trkpt><trkpt lat="45.7544633" lon="11.2166367"><ele>584.0</ele><time>2026-03-28T09:19:16.084Z</time></trkpt><trkpt lat="45.754385" lon="11.2165033"><ele>584.0</ele><time>2026-03-28T09:19:18.084Z</time></trkpt><trkpt lat="45.7544017" lon="11.2163667"><ele>584.0</ele><time>2026-03-28T09:19:19.084Z</time></trkpt><trkpt lat="45.7544267" lon="11.21618"><ele>584.0</ele><time>2026-03-28T09:19:20.084Z</time></trkpt><trkpt lat="45.754455" lon="11.21595"><ele>584.0</ele><time>2026-03-28T09:19:21.084Z</time></trkpt><trkpt lat="45.754485" lon="11.21573"><ele>586.25</ele><time>2026-03-28T09:19:22.084Z</time></trkpt><trkpt lat="45.7545083" lon="11.21554"><ele>588.5</ele><time>2026-03-28T09:19:23.084Z</time></trkpt><trkpt lat="45.7545367" lon="11.215365"><ele>590.75</ele><time>2026-03-28T09:19:24.083Z</time></trkpt><trkpt lat="45.7545583" lon="11.2151833"><ele>593.0</ele><time>2026-03-28T09:19:25.084Z</time></trkpt><trkpt lat="45.7545833" lon="11.215015"><ele>593.0</ele><time>2026-03-28T09:19:26.083Z</time></trkpt><trkpt lat="45.7546017" lon="11.2148467"><ele>593.0</ele><time>2026-03-28T09:19:27.084Z</time></trkpt><trkpt lat="45.75462" lon="11.2146783"><ele>593.0</ele><time>2026-03-28T09:19:28.084Z</time></trkpt><trkpt lat="45.75464" lon="11.2145033"><ele>593.0</ele><time>2026-03-28T09:19:29.084Z</time></trkpt><trkpt lat="45.754685" lon="11.2143217"><ele>597.0</ele><time>2026-03-28T09:19:30.084Z</time></trkpt><trkpt lat="45.7547433" lon="11.214145"><ele>601.0</ele><time>2026-03-28T09:19:31.083Z</time></trkpt><trkpt lat="45.7548267" lon="11.2139583"><ele>605.0</ele><time>2026-03-28T09:19:32.083Z</time></trkpt><trkpt lat="45.7549233" lon="11.2138"><ele>609.0</ele><time>2026-03-28T09:19:33.084Z</time></trkpt><trkpt lat="45.7550283" lon="11.21367"><ele>613.0</ele><time>2026-03-28T09:19:34.083Z</time></trkpt><trkpt lat="45.7551467" lon="11.2135767"><ele>617.0</ele><time>2026-03-28T09:19:35.084Z</time></trkpt><trkpt lat="45.7552717" lon="11.2135067"><ele>621.0</ele><time>2026-03-28T09:19:36.084Z</time></trkpt><trkpt lat="45.755385" lon="11.2134133"><ele>625.0</ele><time>2026-03-28T09:19:37.084Z</time></trkpt><trkpt lat="45.7554983" lon="11.2133133"><ele>625.0</ele><time>2026-03-28T09:19:38.083Z</time></trkpt><trkpt lat="45.7555967" lon="11.213195"><ele>625.0</ele><time>2026-03-28T09:19:39.084Z</time></trkpt><trkpt lat="45.7556833" lon="11.2130633"><ele>625.0</ele><time>2026-03-28T09:19:40.084Z</time></trkpt><trkpt lat="45.755775" lon="11.2129367"><ele>625.0</ele><time>2026-03-28T09:19:41.084Z</time></trkpt><trkpt lat="45.7558717" lon="11.2128217"><ele>627.5</ele><time>2026-03-28T09:19:42.084Z</time></trkpt><trkpt lat="45.755975" lon="11.2127117"><ele>630.0</ele><time>2026-03-28T09:19:43.084Z</time></trkpt><trkpt lat="45.75609" lon="11.212625"><ele>632.5</ele><time>2026-03-28T09:19:44.083Z</time></trkpt><trkpt lat="45.756215" lon="11.2125367"><ele>635.0</ele><time>2026-03-28T09:19:45.084Z</time></trkpt><trkpt lat="45.7563283" lon="11.2124217"><ele>644.75</ele><time>2026-03-28T09:19:46.083Z</time></trkpt><trkpt lat="45.7564333" lon="11.212295"><ele>654.5</ele><time>2026-03-28T09:19:47.084Z</time></trkpt><trkpt lat="45.7565367" lon="11.2121733"><ele>664.25</ele><time>2026-03-28T09:19:48.084Z</time></trkpt><trkpt lat="45.7566167" lon="11.2120517"><ele>674.0</ele><time>2026-03-28T09:19:49.084Z</time></trkpt><trkpt lat="45.7567067" lon="11.211935"><ele>674.0</ele><time>2026-03-28T09:19:50.083Z</time></trkpt><trkpt lat="45.7568317" lon="11.21184"><ele>674.0</ele><time>2026-03-28T09:19:51.083Z</time></trkpt><trkpt lat="45.7570133" lon="11.211765"><ele>674.0</ele><time>2026-03-28T09:19:52.084Z</time></trkpt><trkpt lat="45.7572117" lon="11.2116883"><ele>673.6666666666666</ele><time>2026-03-28T09:19:53.084Z</time></trkpt><trkpt lat="45.7574267" lon="11.21162"><ele>673.3333333333334</ele><time>2026-03-28T09:19:54.084Z</time></trkpt><trkpt lat="45.7576217" lon="11.21153"><ele>673.0</ele><time>2026-03-28T09:19:55.084Z</time></trkpt><trkpt lat="45.7577983" lon="11.2113967"><ele>673.0</ele><time>2026-03-28T09:19:56.083Z</time></trkpt><trkpt lat="45.757955" lon="11.2112533"><ele>673.0</ele><time>2026-03-28T09:19:57.084Z</time></trkpt><trkpt lat="45.7580867" lon="11.2111317"><ele>673.0</ele><time>2026-03-28T09:19:58.083Z</time></trkpt><trkpt lat="45.7582233" lon="11.21104"><ele>673.0</ele><time>2026-03-28T09:19:59.084Z</time></trkpt><trkpt lat="45.758365" lon="11.2109817"><ele>673.0</ele><time>2026-03-28T09:20:00.083Z</time></trkpt><trkpt lat="45.7584833" lon="11.2109367"><ele>673.0</ele><time>2026-03-28T09:20:01.084Z</time></trkpt><trkpt lat="45.758595" lon="11.2108517"><ele>673.0</ele><time>2026-03-28T09:20:02.083Z</time></trkpt><trkpt lat="45.758685" lon="11.2107417"><ele>669.25</ele><time>2026-03-28T09:20:03.084Z</time></trkpt><trkpt lat="45.7587567" lon="11.21061"><ele>665.5</ele><time>2026-03-28T09:20:04.084Z</time></trkpt><trkpt lat="45.7587983" lon="11.2104883"><ele>661.75</ele><time>2026-03-28T09:20:05.084Z</time></trkpt><trkpt lat="45.7588217" lon="11.2103117"><ele>658.0</ele><time>2026-03-28T09:20:06.083Z</time></trkpt><trkpt lat="45.7588233" lon="11.2100683"><ele>662.6666666666667</ele><time>2026-03-28T09:20:07.084Z</time></trkpt><trkpt lat="45.7588183" lon="11.2097967"><ele>667.3333333333334</ele><time>2026-03-28T09:20:08.084Z</time></trkpt><trkpt lat="45.7588083" lon="11.209515"><ele>672.0</ele><time>2026-03-28T09:20:09.084Z</time></trkpt><trkpt lat="45.7588067" lon="11.2092383"><ele>676.6666666666666</ele><time>2026-03-28T09:20:10.084Z</time></trkpt><trkpt lat="45.7588233" lon="11.2089917"><ele>681.3333333333333</ele><time>2026-03-28T09:20:11.084Z</time></trkpt><trkpt lat="45.7588617" lon="11.2087817"><ele>686.0</ele><time>2026-03-28T09:20:12.084Z</time></trkpt><trkpt lat="45.7589217" lon="11.2085667"><ele>686.0</ele><time>2026-03-28T09:20:13.084Z</time></trkpt><trkpt lat="45.7590283" lon="11.2083667"><ele>686.0</ele><time>2026-03-28T09:20:14.083Z</time></trkpt><trkpt lat="45.7591667" lon="11.2081333"><ele>686.0</ele><time>2026-03-28T09:20:15.084Z</time></trkpt><trkpt lat="45.7592933" lon="11.2078867"><ele>688.0</ele><time>2026-03-28T09:20:16.084Z</time></trkpt><trkpt lat="45.7593967" lon="11.2076417"><ele>690.0</ele><time>2026-03-28T09:20:17.084Z</time></trkpt><trkpt lat="45.7594617" lon="11.2073983"><ele>692.0</ele><time>2026-03-28T09:20:18.084Z</time></trkpt><trkpt lat="45.759505" lon="11.20718"><ele>692.0</ele><time>2026-03-28T09:20:19.084Z</time></trkpt><trkpt lat="45.75956" lon="11.20697"><ele>692.0</ele><time>2026-03-28T09:20:20.084Z</time></trkpt><trkpt lat="45.75961" lon="11.2067767"><ele>692.0</ele><time>2026-03-28T09:20:21.084Z</time></trkpt><trkpt lat="45.7596383" lon="11.2066117"><ele>692.0</ele><time>2026-03-28T09:20:22.084Z</time></trkpt><trkpt lat="45.759645" lon="11.2064417"><ele>695.0</ele><time>2026-03-28T09:20:23.084Z</time></trkpt><trkpt lat="45.75961" lon="11.2062683"><ele>698.0</ele><time>2026-03-28T09:20:24.084Z</time></trkpt><trkpt lat="45.7595583" lon="11.2060817"><ele>701.0</ele><time>2026-03-28T09:20:25.084Z</time></trkpt><trkpt lat="45.7594933" lon="11.205895"><ele>704.0</ele><time>2026-03-28T09:20:26.083Z</time></trkpt><trkpt lat="45.7594617" lon="11.2056933"><ele>708.3333333333333</ele><time>2026-03-28T09:20:27.083Z</time></trkpt><trkpt lat="45.75951" lon="11.20549"><ele>712.6666666666666</ele><time>2026-03-28T09:20:28.083Z</time></trkpt><trkpt lat="45.7596117" lon="11.2053067"><ele>717.0</ele><time>2026-03-28T09:20:29.084Z</time></trkpt><trkpt lat="45.7597367" lon="11.2051533"><ele>717.0</ele><time>2026-03-28T09:20:30.084Z</time></trkpt><trkpt lat="45.75984" lon="11.2050217"><ele>717.0</ele><time>2026-03-28T09:20:31.084Z</time></trkpt><trkpt lat="45.7599217" lon="11.2049317"><ele>717.0</ele><time>2026-03-28T09:20:32.083Z</time></trkpt><trkpt lat="45.75999" lon="11.204855"><ele>717.0</ele><time>2026-03-28T09:20:33.084Z</time></trkpt><trkpt lat="45.7600417" lon="11.2047817"><ele>717.0</ele><time>2026-03-28T09:20:34.084Z</time></trkpt><trkpt lat="45.7600733" lon="11.204625"><ele>717.0</ele><time>2026-03-28T09:20:36.083Z</time></trkpt><trkpt lat="45.7600017" lon="11.2045717"><ele>717.0</ele><time>2026-03-28T09:20:38.084Z</time></trkpt><trkpt lat="45.7599117" lon="11.2046117"><ele>717.0</ele><time>2026-03-28T09:20:39.084Z</time></trkpt><trkpt lat="45.759825" lon="11.2046917"><ele>717.0</ele><time>2026-03-28T09:20:40.083Z</time></trkpt><trkpt lat="45.7597133" lon="11.2048233"><ele>717.0</ele><time>2026-03-28T09:20:41.084Z</time></trkpt><trkpt lat="45.7594383" lon="11.2051567"><ele>717.5</ele><time>2026-03-28T09:20:42.084Z</time></trkpt><trkpt lat="45.759215" lon="11.2054433"><ele>718.0</ele><time>2026-03-28T09:20:43.084Z</time></trkpt><trkpt lat="45.759025" lon="11.2056783"><ele>718.0</ele><time>2026-03-28T09:20:44.084Z</time></trkpt><trkpt lat="45.7588583" lon="11.2058967"><ele>718.0</ele><time>2026-03-28T09:20:45.084Z</time></trkpt><trkpt lat="45.7587033" lon="11.206085"><ele>718.0</ele><time>2026-03-28T09:20:46.083Z</time></trkpt><trkpt lat="45.75858" lon="11.206245"><ele>721.25</ele><time>2026-03-28T09:20:47.083Z</time></trkpt><trkpt lat="45.7584417" lon="11.2063733"><ele>724.5</ele><time>2026-03-28T09:20:48.084Z</time></trkpt><trkpt lat="45.7583417" lon="11.20649"><ele>727.75</ele><time>2026-03-28T09:20:49.083Z</time></trkpt><trkpt lat="45.758265" lon="11.206575"><ele>731.0</ele><time>2026-03-28T09:20:50.084Z</time></trkpt><trkpt lat="45.7581967" lon="11.2066"><ele>731.0</ele><time>2026-03-28T09:20:51.084Z</time></trkpt><trkpt lat="45.7581417" lon="11.206555"><ele>731.0</ele><time>2026-03-28T09:20:52.084Z</time></trkpt><trkpt lat="45.7581483" lon="11.20637"><ele>731.0</ele><time>2026-03-28T09:20:54.084Z</time></trkpt><trkpt lat="45.7582033" lon="11.2062567"><ele>731.0</ele><time>2026-03-28T09:20:55.083Z</time></trkpt><trkpt lat="45.758285" lon="11.2061217"><ele>731.0</ele><time>2026-03-28T09:20:56.083Z</time></trkpt><trkpt lat="45.758395" lon="11.2059483"><ele>734.0</ele><time>2026-03-28T09:20:57.084Z</time></trkpt><trkpt lat="45.7585683" lon="11.2056767"><ele>737.0</ele><time>2026-03-28T09:20:58.084Z</time></trkpt><trkpt lat="45.758725" lon="11.20539"><ele>737.0</ele><time>2026-03-28T09:20:59.084Z</time></trkpt><trkpt lat="45.7588583" lon="11.2051167"><ele>737.0</ele><time>2026-03-28T09:21:00.084Z</time></trkpt><trkpt lat="45.7589717" lon="11.2048633"><ele>737.0</ele><time>2026-03-28T09:21:01.083Z</time></trkpt><trkpt lat="45.75909" lon="11.2046517"><ele>737.0</ele><time>2026-03-28T09:21:02.083Z</time></trkpt><trkpt lat="45.7592083" lon="11.20447"><ele>737.0</ele><time>2026-03-28T09:21:03.083Z</time></trkpt><trkpt lat="45.7593333" lon="11.2043283"><ele>737.0</ele><time>2026-03-28T09:21:04.084Z</time></trkpt><trkpt lat="45.7594567" lon="11.2041933"><ele>737.0</ele><time>2026-03-28T09:21:05.083Z</time></trkpt><trkpt lat="45.7595833" lon="11.2040467"><ele>737.0</ele><time>2026-03-28T09:21:06.084Z</time></trkpt><trkpt lat="45.7597133" lon="11.2038967"><ele>737.0</ele><time>2026-03-28T09:21:07.084Z</time></trkpt><trkpt lat="45.7598283" lon="11.2037333"><ele>743.5</ele><time>2026-03-28T09:21:08.083Z</time></trkpt><trkpt lat="45.7599317" lon="11.20357"><ele>750.0</ele><time>2026-03-28T09:21:09.083Z</time></trkpt><trkpt lat="45.76001" lon="11.2034183"><ele>756.5</ele><time>2026-03-28T09:21:10.084Z</time></trkpt><trkpt lat="45.7600783" lon="11.2032683"><ele>763.0</ele><time>2026-03-28T09:21:11.084Z</time></trkpt><trkpt lat="45.7601417" lon="11.2031117"><ele>760.3333333333334</ele><time>2026-03-28T09:21:12.083Z</time></trkpt><trkpt lat="45.7601983" lon="11.20293"><ele>757.6666666666666</ele><time>2026-03-28T09:21:13.084Z</time></trkpt><trkpt lat="45.7602467" lon="11.2026817"><ele>755.0</ele><time>2026-03-28T09:21:14.083Z</time></trkpt><trkpt lat="45.7602933" lon="11.202415"><ele>757.3333333333333</ele><time>2026-03-28T09:21:15.084Z</time></trkpt><trkpt lat="45.7603567" lon="11.202165"><ele>759.6666666666666</ele><time>2026-03-28T09:21:16.083Z</time></trkpt><trkpt lat="45.7604" lon="11.2019333"><ele>762.0</ele><time>2026-03-28T09:21:17.084Z</time></trkpt><trkpt lat="45.7604017" lon="11.2016917"><ele>766.3333333333333</ele><time>2026-03-28T09:21:18.084Z</time></trkpt><trkpt lat="45.76039" lon="11.20144"><ele>770.6666666666666</ele><time>2026-03-28T09:21:19.083Z</time></trkpt><trkpt lat="45.760395" lon="11.2011917"><ele>775.0</ele><time>2026-03-28T09:21:20.084Z</time></trkpt><trkpt lat="45.76042" lon="11.2009817"><ele>775.0</ele><time>2026-03-28T09:21:21.084Z</time></trkpt><trkpt lat="45.7604867" lon="11.2007767"><ele>775.0</ele><time>2026-03-28T09:21:22.084Z</time></trkpt><trkpt lat="45.7605583" lon="11.2005433"><ele>775.0</ele><time>2026-03-28T09:21:23.084Z</time></trkpt><trkpt lat="45.760585" lon="11.2002533"><ele>779.3333333333333</ele><time>2026-03-28T09:21:24.084Z</time></trkpt><trkpt lat="45.7606067" lon="11.19997"><ele>783.6666666666667</ele><time>2026-03-28T09:21:25.083Z</time></trkpt><trkpt lat="45.7606533" lon="11.1997167"><ele>788.0</ele><time>2026-03-28T09:21:26.083Z</time></trkpt><trkpt lat="45.76072" lon="11.1995083"><ele>790.0</ele><time>2026-03-28T09:21:27.084Z</time></trkpt><trkpt lat="45.7608083" lon="11.1993383"><ele>792.0</ele><time>2026-03-28T09:21:28.084Z</time></trkpt><trkpt lat="45.7609083" lon="11.1992033"><ele>794.0</ele><time>2026-03-28T09:21:29.083Z</time></trkpt><trkpt lat="45.7610017" lon="11.1991333"><ele>796.0</ele><time>2026-03-28T09:21:30.084Z</time></trkpt><trkpt lat="45.7610867" lon="11.1990883"><ele>798.6666666666666</ele><time>2026-03-28T09:21:31.084Z</time></trkpt><trkpt lat="45.761145" lon="11.199015"><ele>801.3333333333333</ele><time>2026-03-28T09:21:32.084Z</time></trkpt><trkpt lat="45.7611817" lon="11.1989033"><ele>804.0</ele><time>2026-03-28T09:21:33.084Z</time></trkpt><trkpt lat="45.7611917" lon="11.1987733"><ele>806.6666666666667</ele><time>2026-03-28T09:21:34.083Z</time></trkpt><trkpt lat="45.76117" lon="11.1986483"><ele>809.3333333333334</ele><time>2026-03-28T09:21:35.083Z</time></trkpt><trkpt lat="45.761105" lon="11.198555"><ele>812.0</ele><time>2026-03-28T09:21:36.083Z</time></trkpt><trkpt lat="45.7610267" lon="11.1985133"><ele>812.0</ele><time>2026-03-28T09:21:37.084Z</time></trkpt><trkpt lat="45.7609333" lon="11.19853"><ele>812.0</ele><time>2026-03-28T09:21:38.083Z</time></trkpt><trkpt lat="45.7608183" lon="11.1986133"><ele>812.0</ele><time>2026-03-28T09:21:39.083Z</time></trkpt><trkpt lat="45.7606683" lon="11.1988067"><ele>812.0</ele><time>2026-03-28T09:21:40.083Z</time></trkpt><trkpt lat="45.7605483" lon="11.1989683"><ele>808.8</ele><time>2026-03-28T09:21:41.084Z</time></trkpt><trkpt lat="45.7604467" lon="11.1991117"><ele>805.6</ele><time>2026-03-28T09:21:42.084Z</time></trkpt><trkpt lat="45.760375" lon="11.19925"><ele>802.4</ele><time>2026-03-28T09:21:43.084Z</time></trkpt><trkpt lat="45.760335" lon="11.1993667"><ele>799.1999999999999</ele><time>2026-03-28T09:21:44.084Z</time></trkpt><trkpt lat="45.760315" lon="11.1994617"><ele>796.0</ele><time>2026-03-28T09:21:45.084Z</time></trkpt><trkpt lat="45.7602433" lon="11.1995733"><ele>796.0</ele><time>2026-03-28T09:21:47.084Z</time></trkpt><trkpt lat="45.7601667" lon="11.1994833"><ele>796.0</ele><time>2026-03-28T09:21:49.084Z</time></trkpt><trkpt lat="45.7601733" lon="11.199365"><ele>796.0</ele><time>2026-03-28T09:21:50.083Z</time></trkpt><trkpt lat="45.760265" lon="11.199205"><ele>796.0</ele><time>2026-03-28T09:21:51.083Z</time></trkpt><trkpt lat="45.7603267" lon="11.1990333"><ele>801.3333333333333</ele><time>2026-03-28T09:21:52.084Z</time></trkpt><trkpt lat="45.7603867" lon="11.1988167"><ele>806.6666666666667</ele><time>2026-03-28T09:21:53.084Z</time></trkpt><trkpt lat="45.7604633" lon="11.1985583"><ele>812.0</ele><time>2026-03-28T09:21:54.084Z</time></trkpt><trkpt lat="45.7605483" lon="11.1982717"><ele>817.0</ele><time>2026-03-28T09:21:55.083Z</time></trkpt><trkpt lat="45.7606" lon="11.1980083"><ele>822.0</ele><time>2026-03-28T09:21:56.084Z</time></trkpt><trkpt lat="45.7606283" lon="11.1977717"><ele>827.0</ele><time>2026-03-28T09:21:57.084Z</time></trkpt><trkpt lat="45.7606533" lon="11.197545"><ele>827.0</ele><time>2026-03-28T09:21:58.083Z</time></trkpt><trkpt lat="45.7606833" lon="11.197355"><ele>827.0</ele><time>2026-03-28T09:21:59.084Z</time></trkpt><trkpt lat="45.7607133" lon="11.1971967"><ele>827.0</ele><time>2026-03-28T09:22:00.084Z</time></trkpt><trkpt lat="45.7607567" lon="11.19707"><ele>827.0</ele><time>2026-03-28T09:22:01.083Z</time></trkpt><trkpt lat="45.760825" lon="11.1969567"><ele>837.0</ele><time>2026-03-28T09:22:02.083Z</time></trkpt><trkpt lat="45.7608983" lon="11.1968883"><ele>847.0</ele><time>2026-03-28T09:22:03.083Z</time></trkpt><trkpt lat="45.7610183" lon="11.196835"><ele>857.0</ele><time>2026-03-28T09:22:04.084Z</time></trkpt><trkpt lat="45.7611417" lon="11.1968067"><ele>867.0</ele><time>2026-03-28T09:22:05.084Z</time></trkpt><trkpt lat="45.76126" lon="11.1967983"><ele>869.2</ele><time>2026-03-28T09:22:06.084Z</time></trkpt><trkpt lat="45.76139" lon="11.196825"><ele>871.4000000000001</ele><time>2026-03-28T09:22:07.084Z</time></trkpt><trkpt lat="45.7614917" lon="11.1968933"><ele>873.5999999999999</ele><time>2026-03-28T09:22:08.083Z</time></trkpt><trkpt lat="45.7615817" lon="11.1969767"><ele>875.8</ele><time>2026-03-28T09:22:09.084Z</time></trkpt><trkpt lat="45.7616633" lon="11.1970483"><ele>878.0</ele><time>2026-03-28T09:22:10.083Z</time></trkpt><trkpt lat="45.7617367" lon="11.1970933"><ele>878.0</ele><time>2026-03-28T09:22:11.084Z</time></trkpt><trkpt lat="45.76181" lon="11.19712"><ele>878.0</ele><time>2026-03-28T09:22:12.084Z</time></trkpt><trkpt lat="45.7618983" lon="11.197045"><ele>878.0</ele><time>2026-03-28T09:22:13.084Z</time></trkpt><trkpt lat="45.7620183" lon="11.1968917"><ele>878.0</ele><time>2026-03-28T09:22:14.084Z</time></trkpt><trkpt lat="45.7621517" lon="11.1967267"><ele>880.5</ele><time>2026-03-28T09:22:15.084Z</time></trkpt><trkpt lat="45.7622667" lon="11.1965717"><ele>883.0</ele><time>2026-03-28T09:22:16.084Z</time></trkpt><trkpt lat="45.7623717" lon="11.1964583"><ele>885.5</ele><time>2026-03-28T09:22:17.083Z</time></trkpt><trkpt lat="45.7624567" lon="11.19636"><ele>888.0</ele><time>2026-03-28T09:22:18.084Z</time></trkpt><trkpt lat="45.7625317" lon="11.196245"><ele>888.0</ele><time>2026-03-28T09:22:19.084Z</time></trkpt><trkpt lat="45.7626133" lon="11.1961567"><ele>888.0</ele><time>2026-03-28T09:22:20.084Z</time></trkpt><trkpt lat="45.7627133" lon="11.1961167"><ele>888.0</ele><time>2026-03-28T09:22:21.084Z</time></trkpt><trkpt lat="45.7628083" lon="11.19612"><ele>888.0</ele><time>2026-03-28T09:22:22.084Z</time></trkpt><trkpt lat="45.7628983" lon="11.1961883"><ele>888.0</ele><time>2026-03-28T09:22:23.084Z</time></trkpt><trkpt lat="45.7629767" lon="11.1962383"><ele>887.3333333333333</ele><time>2026-03-28T09:22:24.084Z</time></trkpt><trkpt lat="45.7630183" lon="11.1963817"><ele>886.6666666666666</ele><time>2026-03-28T09:22:25.083Z</time></trkpt><trkpt lat="45.763015" lon="11.196545"><ele>886.0</ele><time>2026-03-28T09:22:26.084Z</time></trkpt><trkpt lat="45.7629033" lon="11.1968383"><ele>884.0</ele><time>2026-03-28T09:22:27.084Z</time></trkpt><trkpt lat="45.7628767" lon="11.1970533"><ele>882.0</ele><time>2026-03-28T09:22:28.084Z</time></trkpt><trkpt lat="45.76288" lon="11.1972467"><ele>880.0</ele><time>2026-03-28T09:22:29.084Z</time></trkpt><trkpt lat="45.76289" lon="11.197405"><ele>878.0</ele><time>2026-03-28T09:22:30.084Z</time></trkpt><trkpt lat="45.7629167" lon="11.19752"><ele>878.0</ele><time>2026-03-28T09:22:31.084Z</time></trkpt><trkpt lat="45.7629567" lon="11.1975917"><ele>878.0</ele><time>2026-03-28T09:22:32.084Z</time></trkpt><trkpt lat="45.7630567" lon="11.197605"><ele>878.0</ele><time>2026-03-28T09:22:34.084Z</time></trkpt><trkpt lat="45.763125" lon="11.1974483"><ele>878.0</ele><time>2026-03-28T09:22:36.084Z</time></trkpt><trkpt lat="45.7631483" lon="11.1972883"><ele>878.0</ele><time>2026-03-28T09:22:37.083Z</time></trkpt><trkpt lat="45.7631683" lon="11.1970467"><ele>877.3333333333334</ele><time>2026-03-28T09:22:38.084Z</time></trkpt><trkpt lat="45.7631917" lon="11.1967417"><ele>876.6666666666667</ele><time>2026-03-28T09:22:39.084Z</time></trkpt><trkpt lat="45.763215" lon="11.1965033"><ele>876.0</ele><time>2026-03-28T09:22:40.083Z</time></trkpt><trkpt lat="45.7632383" lon="11.1963517"><ele>876.0</ele><time>2026-03-28T09:22:41.084Z</time></trkpt><trkpt lat="45.7632617" lon="11.196245"><ele>875.9999999999999</ele><time>2026-03-28T09:22:42.084Z</time></trkpt><trkpt lat="45.76334" lon="11.1961767"><ele>875.9999999999999</ele><time>2026-03-28T09:22:44.084Z</time></trkpt><trkpt lat="45.763405" lon="11.1962733"><ele>876.0</ele><time>2026-03-28T09:22:46.083Z</time></trkpt><trkpt lat="45.7634083" lon="11.196405"><ele>876.0</ele><time>2026-03-28T09:22:47.083Z</time></trkpt><trkpt lat="45.76339" lon="11.1966"><ele>876.0</ele><time>2026-03-28T09:22:48.084Z</time></trkpt><trkpt lat="45.7633683" lon="11.1968417"><ele>876.0</ele><time>2026-03-28T09:22:49.084Z</time></trkpt><trkpt lat="45.7633667" lon="11.1970217"><ele>876.0</ele><time>2026-03-28T09:22:50.084Z</time></trkpt><trkpt lat="45.7633767" lon="11.197155"><ele>876.0</ele><time>2026-03-28T09:22:51.084Z</time></trkpt><trkpt lat="45.7634117" lon="11.1972483"><ele>876.0</ele><time>2026-03-28T09:22:52.083Z</time></trkpt><trkpt lat="45.7635183" lon="11.1973017"><ele>876.0</ele><time>2026-03-28T09:22:54.084Z</time></trkpt><trkpt lat="45.7636033" lon="11.1972433"><ele>876.0</ele><time>2026-03-28T09:22:55.083Z</time></trkpt><trkpt lat="45.7637067" lon="11.1971267"><ele>876.0</ele><time>2026-03-28T09:22:56.084Z</time></trkpt><trkpt lat="45.7638083" lon="11.19695"><ele>885.25</ele><time>2026-03-28T09:22:57.084Z</time></trkpt><trkpt lat="45.7638667" lon="11.1967567"><ele>894.5</ele><time>2026-03-28T09:22:58.084Z</time></trkpt><trkpt lat="45.7638967" lon="11.1965733"><ele>903.75</ele><time>2026-03-28T09:22:59.083Z</time></trkpt><trkpt lat="45.7639" lon="11.1963933"><ele>913.0</ele><time>2026-03-28T09:23:00.084Z</time></trkpt><trkpt lat="45.7638833" lon="11.19625"><ele>916.8</ele><time>2026-03-28T09:23:01.084Z</time></trkpt><trkpt lat="45.7638467" lon="11.1961117"><ele>920.5999999999999</ele><time>2026-03-28T09:23:02.083Z</time></trkpt><trkpt lat="45.763785" lon="11.1959933"><ele>924.4000000000001</ele><time>2026-03-28T09:23:03.084Z</time></trkpt><trkpt lat="45.7637067" lon="11.1959217"><ele>928.2</ele><time>2026-03-28T09:23:04.084Z</time></trkpt><trkpt lat="45.7636567" lon="11.1958117"><ele>932.0</ele><time>2026-03-28T09:23:05.084Z</time></trkpt><trkpt lat="45.763615" lon="11.1957033"><ele>932.5</ele><time>2026-03-28T09:23:06.084Z</time></trkpt><trkpt lat="45.7636033" lon="11.1955967"><ele>933.0</ele><time>2026-03-28T09:23:07.083Z</time></trkpt><trkpt lat="45.7636383" lon="11.195445"><ele>933.5</ele><time>2026-03-28T09:23:08.084Z</time></trkpt><trkpt lat="45.7636867" lon="11.19527"><ele>934.0</ele><time>2026-03-28T09:23:09.084Z</time></trkpt><trkpt lat="45.7637417" lon="11.1950967"><ele>934.0</ele><time>2026-03-28T09:23:10.084Z</time></trkpt><trkpt lat="45.763775" lon="11.1949283"><ele>934.0000000000001</ele><time>2026-03-28T09:23:11.084Z</time></trkpt><trkpt lat="45.7637867" lon="11.1947883"><ele>934.0000000000001</ele><time>2026-03-28T09:23:12.084Z</time></trkpt><trkpt lat="45.7637783" lon="11.1946367"><ele>934.0</ele><time>2026-03-28T09:23:13.084Z</time></trkpt><trkpt lat="45.7637317" lon="11.194495"><ele>934.0</ele><time>2026-03-28T09:23:14.083Z</time></trkpt><trkpt lat="45.7636733" lon="11.1943517"><ele>933.75</ele><time>2026-03-28T09:23:15.084Z</time></trkpt><trkpt lat="45.7635917" lon="11.1942233"><ele>933.5</ele><time>2026-03-28T09:23:16.083Z</time></trkpt><trkpt lat="45.7634917" lon="11.1941317"><ele>933.25</ele><time>2026-03-28T09:23:17.084Z</time></trkpt><trkpt lat="45.7633767" lon="11.19407"><ele>933.0</ele><time>2026-03-28T09:23:18.084Z</time></trkpt><trkpt lat="45.7632667" lon="11.19403"><ele>927.5</ele><time>2026-03-28T09:23:19.084Z</time></trkpt><trkpt lat="45.763145" lon="11.1940267"><ele>922.0</ele><time>2026-03-28T09:23:20.083Z</time></trkpt><trkpt lat="45.76303" lon="11.1940467"><ele>916.5</ele><time>2026-03-28T09:23:21.084Z</time></trkpt><trkpt lat="45.7629167" lon="11.1941133"><ele>911.0</ele><time>2026-03-28T09:23:22.083Z</time></trkpt><trkpt lat="45.7628183" lon="11.1942217"><ele>911.0</ele><time>2026-03-28T09:23:23.084Z</time></trkpt><trkpt lat="45.7627367" lon="11.1943367"><ele>911.0</ele><time>2026-03-28T09:23:24.084Z</time></trkpt><trkpt lat="45.7626717" lon="11.1945017"><ele>911.0</ele><time>2026-03-28T09:23:25.084Z</time></trkpt><trkpt lat="45.7626117" lon="11.1946683"><ele>911.0</ele><time>2026-03-28T09:23:26.084Z</time></trkpt><trkpt lat="45.762565" lon="11.19481"><ele>911.5999999999999</ele><time>2026-03-28T09:23:27.083Z</time></trkpt><trkpt lat="45.762505" lon="11.19494"><ele>912.1999999999999</ele><time>2026-03-28T09:23:28.084Z</time></trkpt><trkpt lat="45.76243" lon="11.1950383"><ele>912.8000000000001</ele><time>2026-03-28T09:23:29.084Z</time></trkpt><trkpt lat="45.76235" lon="11.1951133"><ele>913.4000000000001</ele><time>2026-03-28T09:23:30.083Z</time></trkpt><trkpt lat="45.7622233" lon="11.1951567"><ele>914.0</ele><time>2026-03-28T09:23:31.083Z</time></trkpt><trkpt lat="45.7621033" lon="11.1952183"><ele>914.0</ele><time>2026-03-28T09:23:32.084Z</time></trkpt><trkpt lat="45.7619933" lon="11.1952567"><ele>914.0</ele><time>2026-03-28T09:23:33.083Z</time></trkpt><trkpt lat="45.761875" lon="11.1952733"><ele>914.0</ele><time>2026-03-28T09:23:34.084Z</time></trkpt><trkpt lat="45.7617317" lon="11.1952317"><ele>914.0</ele><time>2026-03-28T09:23:35.084Z</time></trkpt><trkpt lat="45.761585" lon="11.1951733"><ele>919.3333333333334</ele><time>2026-03-28T09:23:36.084Z</time></trkpt><trkpt lat="45.76143" lon="11.1951483"><ele>924.6666666666667</ele><time>2026-03-28T09:23:37.084Z</time></trkpt><trkpt lat="45.7612817" lon="11.1951333"><ele>930.0</ele><time>2026-03-28T09:23:38.084Z</time></trkpt><trkpt lat="45.7611367" lon="11.195105"><ele>930.6666666666667</ele><time>2026-03-28T09:23:39.084Z</time></trkpt><trkpt lat="45.760985" lon="11.1950333"><ele>931.3333333333334</ele><time>2026-03-28T09:23:40.083Z</time></trkpt><trkpt lat="45.7608433" lon="11.1949317"><ele>932.0</ele><time>2026-03-28T09:23:41.084Z</time></trkpt><trkpt lat="45.7607167" lon="11.1948017"><ele>935.5</ele><time>2026-03-28T09:23:42.084Z</time></trkpt><trkpt lat="45.760595" lon="11.1946767"><ele>939.0</ele><time>2026-03-28T09:23:43.084Z</time></trkpt><trkpt lat="45.7605067" lon="11.1945683"><ele>942.5</ele><time>2026-03-28T09:23:44.084Z</time></trkpt><trkpt lat="45.760445" lon="11.1944367"><ele>946.0</ele><time>2026-03-28T09:23:45.083Z</time></trkpt><trkpt lat="45.760425" lon="11.1942917"><ele>946.0</ele><time>2026-03-28T09:23:46.083Z</time></trkpt><trkpt lat="45.7604317" lon="11.19416"><ele>945.9999999999999</ele><time>2026-03-28T09:23:47.084Z</time></trkpt><trkpt lat="45.7604717" lon="11.19403"><ele>945.9999999999999</ele><time>2026-03-28T09:23:48.083Z</time></trkpt><trkpt lat="45.7605533" lon="11.19393"><ele>946.0</ele><time>2026-03-28T09:23:49.084Z</time></trkpt><trkpt lat="45.7606683" lon="11.1938683"><ele>946.0</ele><time>2026-03-28T09:23:50.083Z</time></trkpt><trkpt lat="45.760805" lon="11.1938317"><ele>952.3333333333333</ele><time>2026-03-28T09:23:51.083Z</time></trkpt><trkpt lat="45.7609533" lon="11.19384"><ele>958.6666666666667</ele><time>2026-03-28T09:23:52.084Z</time></trkpt><trkpt lat="45.7611083" lon="11.19389"><ele>965.0</ele><time>2026-03-28T09:23:53.084Z</time></trkpt><trkpt lat="45.7612683" lon="11.1939583"><ele>960.3333333333334</ele><time>2026-03-28T09:23:54.084Z</time></trkpt><trkpt lat="45.76143" lon="11.1940333"><ele>955.6666666666667</ele><time>2026-03-28T09:23:55.083Z</time></trkpt><trkpt lat="45.761595" lon="11.1940883"><ele>951.0</ele><time>2026-03-28T09:23:56.084Z</time></trkpt><trkpt lat="45.76175" lon="11.1941333"><ele>953.0</ele><time>2026-03-28T09:23:57.084Z</time></trkpt><trkpt lat="45.7618767" lon="11.194185"><ele>954.9999999999999</ele><time>2026-03-28T09:23:58.083Z</time></trkpt><trkpt lat="45.76198" lon="11.1942283"><ele>956.9999999999999</ele><time>2026-03-28T09:23:59.084Z</time></trkpt><trkpt lat="45.7620567" lon="11.1942283"><ele>959.0</ele><time>2026-03-28T09:24:00.084Z</time></trkpt><trkpt lat="45.7621417" lon="11.194115"><ele>961.0</ele><time>2026-03-28T09:24:02.084Z</time></trkpt><trkpt lat="45.7620917" lon="11.19398"><ele>961.0</ele><time>2026-03-28T09:24:04.083Z</time></trkpt><trkpt lat="45.7619117" lon="11.1938817"><ele>961.0</ele><time>2026-03-28T09:24:05.084Z</time></trkpt><trkpt lat="45.7617417" lon="11.1937733"><ele>961.0</ele><time>2026-03-28T09:24:06.084Z</time></trkpt><trkpt lat="45.7615617" lon="11.1936383"><ele>964.0</ele><time>2026-03-28T09:24:07.084Z</time></trkpt><trkpt lat="45.7613783" lon="11.1934883"><ele>967.0</ele><time>2026-03-28T09:24:08.084Z</time></trkpt><trkpt lat="45.7611983" lon="11.19334"><ele>970.0</ele><time>2026-03-28T09:24:09.084Z</time></trkpt><trkpt lat="45.7610383" lon="11.193215"><ele>978.0</ele><time>2026-03-28T09:24:10.084Z</time></trkpt><trkpt lat="45.7609033" lon="11.19312"><ele>986.0</ele><time>2026-03-28T09:24:11.084Z</time></trkpt><trkpt lat="45.7607633" lon="11.1930517"><ele>994.0</ele><time>2026-03-28T09:24:12.084Z</time></trkpt><trkpt lat="45.7605883" lon="11.1930283"><ele>994.0</ele><time>2026-03-28T09:24:13.084Z</time></trkpt><trkpt lat="45.76042" lon="11.193045"><ele>994.0</ele><time>2026-03-28T09:24:14.084Z</time></trkpt><trkpt lat="45.760255" lon="11.1930683"><ele>994.0</ele><time>2026-03-28T09:24:15.083Z</time></trkpt><trkpt lat="45.760095" lon="11.1930983"><ele>994.25</ele><time>2026-03-28T09:24:16.083Z</time></trkpt><trkpt lat="45.7599417" lon="11.1931283"><ele>994.5</ele><time>2026-03-28T09:24:17.084Z</time></trkpt><trkpt lat="45.759805" lon="11.1931283"><ele>994.75</ele><time>2026-03-28T09:24:18.084Z</time></trkpt><trkpt lat="45.7596667" lon="11.1931167"><ele>995.0</ele><time>2026-03-28T09:24:19.084Z</time></trkpt><trkpt lat="45.7595317" lon="11.1931117"><ele>995.0</ele><time>2026-03-28T09:24:20.084Z</time></trkpt><trkpt lat="45.7594" lon="11.193115"><ele>995.0</ele><time>2026-03-28T09:24:21.083Z</time></trkpt><trkpt lat="45.7592917" lon="11.1931333"><ele>995.0</ele><time>2026-03-28T09:24:22.083Z</time></trkpt><trkpt lat="45.7591967" lon="11.193155"><ele>995.0</ele><time>2026-03-28T09:24:23.083Z</time></trkpt><trkpt lat="45.7591083" lon="11.1931867"><ele>995.0</ele><time>2026-03-28T09:24:24.083Z</time></trkpt><trkpt lat="45.7590233" lon="11.193185"><ele>996.4</ele><time>2026-03-28T09:24:25.084Z</time></trkpt><trkpt lat="45.758955" lon="11.1931383"><ele>997.8</ele><time>2026-03-28T09:24:26.084Z</time></trkpt><trkpt lat="45.7588883" lon="11.19304"><ele>999.2</ele><time>2026-03-28T09:24:27.083Z</time></trkpt><trkpt lat="45.758845" lon="11.1928883"><ele>1000.6</ele><time>2026-03-28T09:24:28.084Z</time></trkpt><trkpt lat="45.7588017" lon="11.1927033"><ele>1002.0</ele><time>2026-03-28T09:24:29.083Z</time></trkpt><trkpt lat="45.7587633" lon="11.1924967"><ele>1004.0</ele><time>2026-03-28T09:24:30.084Z</time></trkpt><trkpt lat="45.75872" lon="11.1922867"><ele>1006.0</ele><time>2026-03-28T09:24:31.083Z</time></trkpt><trkpt lat="45.7587033" lon="11.1920917"><ele>1008.0</ele><time>2026-03-28T09:24:32.084Z</time></trkpt><trkpt lat="45.7587067" lon="11.1919117"><ele>1010.0</ele><time>2026-03-28T09:24:33.084Z</time></trkpt><trkpt lat="45.7586883" lon="11.1917383"><ele>1010.0</ele><time>2026-03-28T09:24:34.083Z</time></trkpt><trkpt lat="45.7586517" lon="11.1915833"><ele>1010.0</ele><time>2026-03-28T09:24:35.084Z</time></trkpt><trkpt lat="45.7585917" lon="11.1914383"><ele>1010.0</ele><time>2026-03-28T09:24:36.084Z</time></trkpt><trkpt lat="45.7585067" lon="11.191315"><ele>1010.0</ele><time>2026-03-28T09:24:37.084Z</time></trkpt><trkpt lat="45.7584017" lon="11.191225"><ele>1014.75</ele><time>2026-03-28T09:24:38.084Z</time></trkpt><trkpt lat="45.758285" lon="11.19115"><ele>1019.5</ele><time>2026-03-28T09:24:39.084Z</time></trkpt><trkpt lat="45.7581817" lon="11.1910533"><ele>1024.25</ele><time>2026-03-28T09:24:40.084Z</time></trkpt><trkpt lat="45.758075" lon="11.1909133"><ele>1029.0</ele><time>2026-03-28T09:24:41.084Z</time></trkpt><trkpt lat="45.7579767" lon="11.1907567"><ele>1035.4</ele><time>2026-03-28T09:24:42.084Z</time></trkpt><trkpt lat="45.7578933" lon="11.1906083"><ele>1041.8000000000002</ele><time>2026-03-28T09:24:43.084Z</time></trkpt><trkpt lat="45.7578367" lon="11.190465"><ele>1048.1999999999998</ele><time>2026-03-28T09:24:44.084Z</time></trkpt><trkpt lat="45.7577933" lon="11.19033"><ele>1054.6</ele><time>2026-03-28T09:24:45.084Z</time></trkpt><trkpt lat="45.7577517" lon="11.190205"><ele>1061.0</ele><time>2026-03-28T09:24:46.084Z</time></trkpt><trkpt lat="45.7577217" lon="11.19007"><ele>1061.0</ele><time>2026-03-28T09:24:47.084Z</time></trkpt><trkpt lat="45.7577167" lon="11.1899067"><ele>1061.0</ele><time>2026-03-28T09:24:48.083Z</time></trkpt><trkpt lat="45.757715" lon="11.1897383"><ele>1061.0</ele><time>2026-03-28T09:24:49.083Z</time></trkpt><trkpt lat="45.7576917" lon="11.18956"><ele>1061.0</ele><time>2026-03-28T09:24:50.083Z</time></trkpt><trkpt lat="45.7576367" lon="11.18936"><ele>1060.6666666666667</ele><time>2026-03-28T09:24:51.084Z</time></trkpt><trkpt lat="45.7575683" lon="11.1891433"><ele>1060.3333333333333</ele><time>2026-03-28T09:24:52.084Z</time></trkpt><trkpt lat="45.7574833" lon="11.188915"><ele>1060.0</ele><time>2026-03-28T09:24:53.083Z</time></trkpt><trkpt lat="45.7573933" lon="11.188695"><ele>1060.0</ele><time>2026-03-28T09:24:54.084Z</time></trkpt><trkpt lat="45.757305" lon="11.188485"><ele>1060.0</ele><time>2026-03-28T09:24:55.084Z</time></trkpt><trkpt lat="45.7572133" lon="11.1883"><ele>1060.0</ele><time>2026-03-28T09:24:56.083Z</time></trkpt><trkpt lat="45.75713" lon="11.1881567"><ele>1057.5</ele><time>2026-03-28T09:24:57.084Z</time></trkpt><trkpt lat="45.7570333" lon="11.1880333"><ele>1055.0</ele><time>2026-03-28T09:24:58.084Z</time></trkpt><trkpt lat="45.756935" lon="11.1879283"><ele>1052.5</ele><time>2026-03-28T09:24:59.084Z</time></trkpt><trkpt lat="45.75686" lon="11.1878217"><ele>1050.0</ele><time>2026-03-28T09:25:00.084Z</time></trkpt><trkpt lat="45.7567917" lon="11.18769"><ele>1050.0</ele><time>2026-03-28T09:25:01.084Z</time></trkpt><trkpt lat="45.7567567" lon="11.1875067"><ele>1050.0</ele><time>2026-03-28T09:25:02.084Z</time></trkpt><trkpt lat="45.7567167" lon="11.1873733"><ele>1050.0</ele><time>2026-03-28T09:25:03.083Z</time></trkpt><trkpt lat="45.75666" lon="11.18726"><ele>1050.0</ele><time>2026-03-28T09:25:04.083Z</time></trkpt><trkpt lat="45.7565717" lon="11.1871933"><ele>1050.0</ele><time>2026-03-28T09:25:05.084Z</time></trkpt><trkpt lat="45.756475" lon="11.1871383"><ele>1052.1666666666667</ele><time>2026-03-28T09:25:06.083Z</time></trkpt><trkpt lat="45.756395" lon="11.18709"><ele>1054.3333333333333</ele><time>2026-03-28T09:25:07.084Z</time></trkpt><trkpt lat="45.7563233" lon="11.1870533"><ele>1056.5</ele><time>2026-03-28T09:25:08.083Z</time></trkpt><trkpt lat="45.75629" lon="11.1869667"><ele>1058.6666666666665</ele><time>2026-03-28T09:25:09.084Z</time></trkpt><trkpt lat="45.75627" lon="11.1868567"><ele>1060.8333333333333</ele><time>2026-03-28T09:25:10.084Z</time></trkpt><trkpt lat="45.75628" lon="11.1866767"><ele>1063.0</ele><time>2026-03-28T09:25:11.083Z</time></trkpt><trkpt lat="45.75627" lon="11.1864733"><ele>1063.8</ele><time>2026-03-28T09:25:12.084Z</time></trkpt><trkpt lat="45.75628" lon="11.186305"><ele>1064.6</ele><time>2026-03-28T09:25:13.084Z</time></trkpt><trkpt lat="45.7562817" lon="11.1861817"><ele>1065.4</ele><time>2026-03-28T09:25:14.084Z</time></trkpt><trkpt lat="45.7562933" lon="11.186085"><ele>1066.2</ele><time>2026-03-28T09:25:15.084Z</time></trkpt><trkpt lat="45.756365" lon="11.1859717"><ele>1067.0</ele><time>2026-03-28T09:25:17.084Z</time></trkpt><trkpt lat="45.7564433" lon="11.1859867"><ele>1067.0</ele><time>2026-03-28T09:25:18.083Z</time></trkpt><trkpt lat="45.7565467" lon="11.186015"><ele>1067.0</ele><time>2026-03-28T09:25:19.084Z</time></trkpt><trkpt lat="45.7566783" lon="11.18607"><ele>1067.0</ele><time>2026-03-28T09:25:20.084Z</time></trkpt><trkpt lat="45.75681" lon="11.186125"><ele>1067.0</ele><time>2026-03-28T09:25:21.083Z</time></trkpt><trkpt lat="45.7569467" lon="11.1861533"><ele>1069.8</ele><time>2026-03-28T09:25:22.084Z</time></trkpt><trkpt lat="45.7570617" lon="11.1861517"><ele>1072.6</ele><time>2026-03-28T09:25:23.083Z</time></trkpt><trkpt lat="45.7571667" lon="11.186125"><ele>1075.3999999999999</ele><time>2026-03-28T09:25:24.083Z</time></trkpt><trkpt lat="45.757235" lon="11.1860617"><ele>1078.2</ele><time>2026-03-28T09:25:25.084Z</time></trkpt><trkpt lat="45.75729" lon="11.1859617"><ele>1081.0</ele><time>2026-03-28T09:25:26.083Z</time></trkpt><trkpt lat="45.7573417" lon="11.1858383"><ele>1081.0</ele><time>2026-03-28T09:25:27.084Z</time></trkpt><trkpt lat="45.75737" lon="11.1857067"><ele>1081.0</ele><time>2026-03-28T09:25:28.083Z</time></trkpt><trkpt lat="45.7573917" lon="11.18559"><ele>1081.0</ele><time>2026-03-28T09:25:29.083Z</time></trkpt><trkpt lat="45.7574233" lon="11.1854967"><ele>1081.0</ele><time>2026-03-28T09:25:30.083Z</time></trkpt><trkpt lat="45.7575033" lon="11.1854483"><ele>1081.0</ele><time>2026-03-28T09:25:32.084Z</time></trkpt><trkpt lat="45.7575883" lon="11.1855333"><ele>1081.0</ele><time>2026-03-28T09:25:34.084Z</time></trkpt><trkpt lat="45.757625" lon="11.185635"><ele>1081.0</ele><time>2026-03-28T09:25:35.084Z</time></trkpt><trkpt lat="45.7576233" lon="11.1857883"><ele>1081.0</ele><time>2026-03-28T09:25:36.083Z</time></trkpt><trkpt lat="45.7575683" lon="11.1859867"><ele>1081.0</ele><time>2026-03-28T09:25:37.084Z</time></trkpt><trkpt lat="45.7575133" lon="11.1861367"><ele>1081.0</ele><time>2026-03-28T09:25:38.084Z</time></trkpt><trkpt lat="45.757455" lon="11.1862517"><ele>1081.0</ele><time>2026-03-28T09:25:39.084Z</time></trkpt><trkpt lat="45.757405" lon="11.1863583"><ele>1081.0</ele><time>2026-03-28T09:25:40.084Z</time></trkpt><trkpt lat="45.7573767" lon="11.1864467"><ele>1081.0</ele><time>2026-03-28T09:25:41.084Z</time></trkpt><trkpt lat="45.7574183" lon="11.1865933"><ele>1081.0</ele><time>2026-03-28T09:25:43.083Z</time></trkpt><trkpt lat="45.7575117" lon="11.1866017"><ele>1081.0</ele><time>2026-03-28T09:25:45.083Z</time></trkpt><trkpt lat="45.757595" lon="11.186495"><ele>1081.0</ele><time>2026-03-28T09:25:46.084Z</time></trkpt><trkpt lat="45.7576667" lon="11.1863667"><ele>1081.0</ele><time>2026-03-28T09:25:47.084Z</time></trkpt><trkpt lat="45.757745" lon="11.18621"><ele>1081.0</ele><time>2026-03-28T09:25:48.083Z</time></trkpt><trkpt lat="45.7578283" lon="11.1860383"><ele>1081.0</ele><time>2026-03-28T09:25:49.084Z</time></trkpt><trkpt lat="45.7578917" lon="11.1858917"><ele>1087.3999999999999</ele><time>2026-03-28T09:25:50.084Z</time></trkpt><trkpt lat="45.7579483" lon="11.185775"><ele>1093.8</ele><time>2026-03-28T09:25:51.084Z</time></trkpt><trkpt lat="45.758005" lon="11.18568"><ele>1100.1999999999998</ele><time>2026-03-28T09:25:52.084Z</time></trkpt><trkpt lat="45.7580817" lon="11.18562"><ele>1106.6</ele><time>2026-03-28T09:25:53.084Z</time></trkpt><trkpt lat="45.758175" lon="11.1855717"><ele>1113.0</ele><time>2026-03-28T09:25:54.083Z</time></trkpt><trkpt lat="45.7582533" lon="11.185515"><ele>1114.0</ele><time>2026-03-28T09:25:55.084Z</time></trkpt><trkpt lat="45.75831" lon="11.185425"><ele>1115.0</ele><time>2026-03-28T09:25:56.084Z</time></trkpt><trkpt lat="45.7583567" lon="11.185315"><ele>1116.0</ele><time>2026-03-28T09:25:57.084Z</time></trkpt><trkpt lat="45.7583817" lon="11.1851833"><ele>1117.0</ele><time>2026-03-28T09:25:58.084Z</time></trkpt><trkpt lat="45.7583683" lon="11.18501"><ele>1118.0</ele><time>2026-03-28T09:25:59.084Z</time></trkpt><trkpt lat="45.7583417" lon="11.184855"><ele>1123.3333333333335</ele><time>2026-03-28T09:26:00.083Z</time></trkpt><trkpt lat="45.7582917" lon="11.184665"><ele>1128.6666666666667</ele><time>2026-03-28T09:26:01.084Z</time></trkpt><trkpt lat="45.75822" lon="11.1844517"><ele>1134.0</ele><time>2026-03-28T09:26:02.084Z</time></trkpt><trkpt lat="45.7581517" lon="11.184205"><ele>1140.6666666666667</ele><time>2026-03-28T09:26:03.084Z</time></trkpt><trkpt lat="45.7580967" lon="11.1839717"><ele>1147.3333333333335</ele><time>2026-03-28T09:26:04.084Z</time></trkpt><trkpt lat="45.7580517" lon="11.18376"><ele>1154.0</ele><time>2026-03-28T09:26:05.084Z</time></trkpt><trkpt lat="45.7579967" lon="11.1835833"><ele>1154.0</ele><time>2026-03-28T09:26:06.084Z</time></trkpt><trkpt lat="45.7579483" lon="11.1834133"><ele>1154.0</ele><time>2026-03-28T09:26:07.084Z</time></trkpt><trkpt lat="45.757885" lon="11.1832333"><ele>1154.0</ele><time>2026-03-28T09:26:08.084Z</time></trkpt><trkpt lat="45.7578317" lon="11.1830433"><ele>1154.0</ele><time>2026-03-28T09:26:09.084Z</time></trkpt><trkpt lat="45.757795" lon="11.1828483"><ele>1158.5</ele><time>2026-03-28T09:26:10.083Z</time></trkpt><trkpt lat="45.7577733" lon="11.1826467"><ele>1163.0</ele><time>2026-03-28T09:26:11.084Z</time></trkpt><trkpt lat="45.7577567" lon="11.182455"><ele>1167.5</ele><time>2026-03-28T09:26:12.083Z</time></trkpt><trkpt lat="45.7577433" lon="11.1822617"><ele>1172.0</ele><time>2026-03-28T09:26:13.083Z</time></trkpt><trkpt lat="45.7577267" lon="11.1820533"><ele>1173.25</ele><time>2026-03-28T09:26:14.084Z</time></trkpt><trkpt lat="45.7577117" lon="11.1818483"><ele>1174.5</ele><time>2026-03-28T09:26:15.083Z</time></trkpt><trkpt lat="45.757705" lon="11.181635"><ele>1175.75</ele><time>2026-03-28T09:26:16.084Z</time></trkpt><trkpt lat="45.7577" lon="11.1814183"><ele>1177.0</ele><time>2026-03-28T09:26:17.084Z</time></trkpt><trkpt lat="45.7577183" lon="11.1812133"><ele>1177.5</ele><time>2026-03-28T09:26:18.084Z</time></trkpt><trkpt lat="45.7577333" lon="11.18101"><ele>1178.0</ele><time>2026-03-28T09:26:19.084Z</time></trkpt><trkpt lat="45.7577283" lon="11.180835"><ele>1178.5</ele><time>2026-03-28T09:26:20.084Z</time></trkpt><trkpt lat="45.75771" lon="11.1806617"><ele>1179.0</ele><time>2026-03-28T09:26:21.084Z</time></trkpt><trkpt lat="45.75771" lon="11.1804983"><ele>1180.75</ele><time>2026-03-28T09:26:22.084Z</time></trkpt><trkpt lat="45.7577083" lon="11.1803333"><ele>1182.5</ele><time>2026-03-28T09:26:23.084Z</time></trkpt><trkpt lat="45.757705" lon="11.1801467"><ele>1184.25</ele><time>2026-03-28T09:26:24.084Z</time></trkpt><trkpt lat="45.7576967" lon="11.1799683"><ele>1186.0</ele><time>2026-03-28T09:26:25.084Z</time></trkpt><trkpt lat="45.75771" lon="11.1797933"><ele>1186.0</ele><time>2026-03-28T09:26:26.084Z</time></trkpt><trkpt lat="45.7576967" lon="11.1796183"><ele>1186.0</ele><time>2026-03-28T09:26:27.084Z</time></trkpt><trkpt lat="45.757685" lon="11.1794483"><ele>1186.0</ele><time>2026-03-28T09:26:28.084Z</time></trkpt><trkpt lat="45.75769" lon="11.17929"><ele>1186.0</ele><time>2026-03-28T09:26:29.084Z</time></trkpt><trkpt lat="45.7577133" lon="11.17912"><ele>1184.0</ele><time>2026-03-28T09:26:30.084Z</time></trkpt><trkpt lat="45.7577533" lon="11.1789567"><ele>1182.0</ele><time>2026-03-28T09:26:31.084Z</time></trkpt><trkpt lat="45.7577917" lon="11.1788033"><ele>1180.0</ele><time>2026-03-28T09:26:32.084Z</time></trkpt><trkpt lat="45.7578283" lon="11.178665"><ele>1178.0</ele><time>2026-03-28T09:26:33.083Z</time></trkpt><trkpt lat="45.757875" lon="11.178525"><ele>1176.0</ele><time>2026-03-28T09:26:34.084Z</time></trkpt><trkpt lat="45.7579033" lon="11.17838"><ele>1176.0</ele><time>2026-03-28T09:26:35.084Z</time></trkpt><trkpt lat="45.7579433" lon="11.17824"><ele>1176.0</ele><time>2026-03-28T09:26:36.083Z</time></trkpt><trkpt lat="45.757985" lon="11.1780967"><ele>1176.0</ele><time>2026-03-28T09:26:37.084Z</time></trkpt><trkpt lat="45.7580367" lon="11.177955"><ele>1176.0</ele><time>2026-03-28T09:26:38.083Z</time></trkpt><trkpt lat="45.7580817" lon="11.17781"><ele>1176.0</ele><time>2026-03-28T09:26:39.084Z</time></trkpt><trkpt lat="45.75813" lon="11.177675"><ele>1174.0</ele><time>2026-03-28T09:26:40.083Z</time></trkpt><trkpt lat="45.7581817" lon="11.177535"><ele>1172.0</ele><time>2026-03-28T09:26:41.083Z</time></trkpt><trkpt lat="45.75823" lon="11.1773917"><ele>1170.0</ele><time>2026-03-28T09:26:42.084Z</time></trkpt><trkpt lat="45.7582833" lon="11.177255"><ele>1168.0</ele><time>2026-03-28T09:26:43.084Z</time></trkpt><trkpt lat="45.7583333" lon="11.17712"><ele>1166.0</ele><time>2026-03-28T09:26:44.084Z</time></trkpt><trkpt lat="45.7583917" lon="11.17698"><ele>1164.8</ele><time>2026-03-28T09:26:45.084Z</time></trkpt><trkpt lat="45.758445" lon="11.17684"><ele>1163.6</ele><time>2026-03-28T09:26:46.083Z</time></trkpt><trkpt lat="45.7585083" lon="11.1767067"><ele>1162.4</ele><time>2026-03-28T09:26:47.084Z</time></trkpt><trkpt lat="45.7585617" lon="11.17658"><ele>1161.2</ele><time>2026-03-28T09:26:48.083Z</time></trkpt><trkpt lat="45.7586183" lon="11.1764517"><ele>1160.0</ele><time>2026-03-28T09:26:49.083Z</time></trkpt><trkpt lat="45.758675" lon="11.176315"><ele>1163.4</ele><time>2026-03-28T09:26:50.084Z</time></trkpt><trkpt lat="45.758735" lon="11.1761817"><ele>1166.8</ele><time>2026-03-28T09:26:51.083Z</time></trkpt><trkpt lat="45.7587983" lon="11.176055"><ele>1170.2</ele><time>2026-03-28T09:26:52.084Z</time></trkpt><trkpt lat="45.75886" lon="11.1759283"><ele>1173.6</ele><time>2026-03-28T09:26:53.083Z</time></trkpt><trkpt lat="45.7589233" lon="11.1758083"><ele>1177.0</ele><time>2026-03-28T09:26:54.084Z</time></trkpt><trkpt lat="45.758985" lon="11.1756883"><ele>1174.0</ele><time>2026-03-28T09:26:55.084Z</time></trkpt><trkpt lat="45.7590517" lon="11.1755633"><ele>1171.0</ele><time>2026-03-28T09:26:56.084Z</time></trkpt><trkpt lat="45.7591167" lon="11.1754367"><ele>1168.0</ele><time>2026-03-28T09:26:57.084Z</time></trkpt><trkpt lat="45.759175" lon="11.17529"><ele>1165.0</ele><time>2026-03-28T09:26:58.084Z</time></trkpt><trkpt lat="45.75923" lon="11.175125"><ele>1165.0</ele><time>2026-03-28T09:26:59.084Z</time></trkpt><trkpt lat="45.7592633" lon="11.174945"><ele>1165.0</ele><time>2026-03-28T09:27:00.084Z</time></trkpt><trkpt lat="45.7593067" lon="11.17478"><ele>1165.0</ele><time>2026-03-28T09:27:01.084Z</time></trkpt><trkpt lat="45.7593517" lon="11.17463"><ele>1165.0</ele><time>2026-03-28T09:27:02.084Z</time></trkpt><trkpt lat="45.7594083" lon="11.1744817"><ele>1165.25</ele><time>2026-03-28T09:27:03.083Z</time></trkpt><trkpt lat="45.759475" lon="11.17435"><ele>1165.5</ele><time>2026-03-28T09:27:04.084Z</time></trkpt><trkpt lat="45.7595617" lon="11.1742267"><ele>1165.75</ele><time>2026-03-28T09:27:05.084Z</time></trkpt><trkpt lat="45.7596667" lon="11.1741117"><ele>1166.0</ele><time>2026-03-28T09:27:06.084Z</time></trkpt><trkpt lat="45.75978" lon="11.1740033"><ele>1166.0</ele><time>2026-03-28T09:27:07.084Z</time></trkpt><trkpt lat="45.75989" lon="11.17391"><ele>1166.0</ele><time>2026-03-28T09:27:08.084Z</time></trkpt><trkpt lat="45.759985" lon="11.173815"><ele>1166.0</ele><time>2026-03-28T09:27:09.084Z</time></trkpt><trkpt lat="45.760065" lon="11.173695"><ele>1166.0</ele><time>2026-03-28T09:27:10.083Z</time></trkpt><trkpt lat="45.7601433" lon="11.1735683"><ele>1165.8</ele><time>2026-03-28T09:27:11.084Z</time></trkpt><trkpt lat="45.7602167" lon="11.17344"><ele>1165.6</ele><time>2026-03-28T09:27:12.084Z</time></trkpt><trkpt lat="45.7602817" lon="11.1733233"><ele>1165.4</ele><time>2026-03-28T09:27:13.084Z</time></trkpt><trkpt lat="45.7603383" lon="11.173215"><ele>1165.2</ele><time>2026-03-28T09:27:14.083Z</time></trkpt><trkpt lat="45.760385" lon="11.1731133"><ele>1165.0</ele><time>2026-03-28T09:27:15.084Z</time></trkpt><trkpt lat="45.760425" lon="11.173025"><ele>1165.0</ele><time>2026-03-28T09:27:16.084Z</time></trkpt><trkpt lat="45.7604567" lon="11.1729433"><ele>1165.0</ele><time>2026-03-28T09:27:17.084Z</time></trkpt><trkpt lat="45.7604783" lon="11.1727867"><ele>1165.0</ele><time>2026-03-28T09:27:19.084Z</time></trkpt><trkpt lat="45.7604883" lon="11.1726567"><ele>1165.0</ele><time>2026-03-28T09:27:21.084Z</time></trkpt><trkpt lat="45.7605167" lon="11.17255"><ele>1165.0</ele><time>2026-03-28T09:27:23.084Z</time></trkpt><trkpt lat="45.7605417" lon="11.172455"><ele>1165.0</ele><time>2026-03-28T09:27:25.084Z</time></trkpt><trkpt lat="45.7605683" lon="11.172335"><ele>1152.0</ele><time>2026-03-28T09:27:28.083Z</time></trkpt><trkpt lat="45.7606383" lon="11.172315"><ele>1152.0</ele><time>2026-03-28T09:27:31.084Z</time></trkpt></trkseg></trk></gpx>